<?xml version="1.0" encoding="UTF-8" standalone="no" ?>
<gpx xmlns="http://www.topografix.com/GPX/1/1" xmlns:xsi="http://www.w3.org/2001/XMLSchema-instance" xsi:schemaLocation="http://www.topografix.com/GPX/1/1 http://www.topografix.com/GPX/1/1/gpx.xsd" version="1.1" creator="VisuGPX - https://www.visugpx.com">
  <metadata>
    <name>Grenoble Trail - Monument Henri  de Quinsonas (lieutenant Fiancey)</name>
  </metadata>
  <trk>
    <name><![CDATA[Grenoble Trail - Monument Henri  de Quinsonas (lieutenant Fiancey)]]></name>
    <trkseg>
      <trkpt lat="45.19663" lon="5.73942">
        <ele>247.39999389648</ele>
        <time>2021-10-03T04:47:04.000Z</time>
      </trkpt>
      <trkpt lat="45.19661" lon="5.73948">
        <ele>247.39999389648</ele>
        <time>2021-10-03T04:47:07.000Z</time>
      </trkpt>
      <trkpt lat="45.19664" lon="5.73949">
        <ele>247.60000610352</ele>
        <time>2021-10-03T04:47:09.000Z</time>
      </trkpt>
      <trkpt lat="45.19666" lon="5.73948">
        <ele>247.80000305176</ele>
        <time>2021-10-03T04:47:11.000Z</time>
      </trkpt>
      <trkpt lat="45.19667" lon="5.73948">
        <ele>247.80000305176</ele>
        <time>2021-10-03T04:47:12.000Z</time>
      </trkpt>
      <trkpt lat="45.19671" lon="5.73958">
        <ele>247.60000610352</ele>
        <time>2021-10-03T04:47:16.000Z</time>
      </trkpt>
      <trkpt lat="45.19672" lon="5.73961">
        <ele>247.60000610352</ele>
        <time>2021-10-03T04:47:17.000Z</time>
      </trkpt>
      <trkpt lat="45.19673" lon="5.73964">
        <ele>247.60000610352</ele>
        <time>2021-10-03T04:47:18.000Z</time>
      </trkpt>
      <trkpt lat="45.19673" lon="5.73979">
        <ele>248</ele>
        <time>2021-10-03T04:47:24.000Z</time>
      </trkpt>
      <trkpt lat="45.19679" lon="5.73995">
        <ele>247.60000610352</ele>
        <time>2021-10-03T04:47:28.000Z</time>
      </trkpt>
      <trkpt lat="45.19679" lon="5.73998">
        <ele>247.60000610352</ele>
        <time>2021-10-03T04:47:29.000Z</time>
      </trkpt>
      <trkpt lat="45.19679" lon="5.74002">
        <ele>247.60000610352</ele>
        <time>2021-10-03T04:47:31.000Z</time>
      </trkpt>
      <trkpt lat="45.19679" lon="5.74004">
        <ele>247.60000610352</ele>
        <time>2021-10-03T04:47:32.000Z</time>
      </trkpt>
      <trkpt lat="45.19682" lon="5.74025">
        <ele>247.19999694824</ele>
        <time>2021-10-03T04:47:39.000Z</time>
      </trkpt>
      <trkpt lat="45.19687" lon="5.7404">
        <ele>247</ele>
        <time>2021-10-03T04:47:43.000Z</time>
      </trkpt>
      <trkpt lat="45.19687" lon="5.74045">
        <ele>246.60000610352</ele>
        <time>2021-10-03T04:47:45.000Z</time>
      </trkpt>
      <trkpt lat="45.19687" lon="5.74047">
        <ele>246.80000305176</ele>
        <time>2021-10-03T04:47:46.000Z</time>
      </trkpt>
      <trkpt lat="45.19688" lon="5.74049">
        <ele>246.60000610352</ele>
        <time>2021-10-03T04:47:47.000Z</time>
      </trkpt>
      <trkpt lat="45.19689" lon="5.74057">
        <ele>246.60000610352</ele>
        <time>2021-10-03T04:47:50.000Z</time>
      </trkpt>
      <trkpt lat="45.1969" lon="5.74063">
        <ele>246.39999389648</ele>
        <time>2021-10-03T04:47:52.000Z</time>
      </trkpt>
      <trkpt lat="45.1969" lon="5.74068">
        <ele>246.39999389648</ele>
        <time>2021-10-03T04:47:54.000Z</time>
      </trkpt>
      <trkpt lat="45.19691" lon="5.74074">
        <ele>246.39999389648</ele>
        <time>2021-10-03T04:47:56.000Z</time>
      </trkpt>
      <trkpt lat="45.19692" lon="5.7408">
        <ele>246.39999389648</ele>
        <time>2021-10-03T04:47:58.000Z</time>
      </trkpt>
      <trkpt lat="45.19694" lon="5.74099">
        <ele>246.80000305176</ele>
        <time>2021-10-03T04:48:04.000Z</time>
      </trkpt>
      <trkpt lat="45.19698" lon="5.74122">
        <ele>247.19999694824</ele>
        <time>2021-10-03T04:48:10.000Z</time>
      </trkpt>
      <trkpt lat="45.197" lon="5.74129">
        <ele>247</ele>
        <time>2021-10-03T04:48:12.000Z</time>
      </trkpt>
      <trkpt lat="45.19701" lon="5.74139">
        <ele>247</ele>
        <time>2021-10-03T04:48:15.000Z</time>
      </trkpt>
      <trkpt lat="45.19708" lon="5.74163">
        <ele>247</ele>
        <time>2021-10-03T04:48:22.000Z</time>
      </trkpt>
      <trkpt lat="45.19711" lon="5.74186">
        <ele>246.80000305176</ele>
        <time>2021-10-03T04:48:29.000Z</time>
      </trkpt>
      <trkpt lat="45.19715" lon="5.74206">
        <ele>247.19999694824</ele>
        <time>2021-10-03T04:48:36.000Z</time>
      </trkpt>
      <trkpt lat="45.19718" lon="5.74226">
        <ele>247.19999694824</ele>
        <time>2021-10-03T04:48:41.000Z</time>
      </trkpt>
      <trkpt lat="45.19718" lon="5.74236">
        <ele>247.19999694824</ele>
        <time>2021-10-03T04:48:43.000Z</time>
      </trkpt>
      <trkpt lat="45.19722" lon="5.74251">
        <ele>247.19999694824</ele>
        <time>2021-10-03T04:48:47.000Z</time>
      </trkpt>
      <trkpt lat="45.19723" lon="5.74253">
        <ele>247.19999694824</ele>
        <time>2021-10-03T04:48:48.000Z</time>
      </trkpt>
      <trkpt lat="45.19725" lon="5.74255">
        <ele>247.80000305176</ele>
        <time>2021-10-03T04:48:50.000Z</time>
      </trkpt>
      <trkpt lat="45.19727" lon="5.74253">
        <ele>248.39999389648</ele>
        <time>2021-10-03T04:48:52.000Z</time>
      </trkpt>
      <trkpt lat="45.19729" lon="5.74253">
        <ele>248.39999389648</ele>
        <time>2021-10-03T04:48:53.000Z</time>
      </trkpt>
      <trkpt lat="45.19738" lon="5.7425">
        <ele>248.60000610352</ele>
        <time>2021-10-03T04:48:57.000Z</time>
      </trkpt>
      <trkpt lat="45.19743" lon="5.74248">
        <ele>248.80000305176</ele>
        <time>2021-10-03T04:48:59.000Z</time>
      </trkpt>
      <trkpt lat="45.19751" lon="5.74244">
        <ele>248.60000610352</ele>
        <time>2021-10-03T04:49:03.000Z</time>
      </trkpt>
      <trkpt lat="45.19762" lon="5.7424">
        <ele>248.60000610352</ele>
        <time>2021-10-03T04:49:08.000Z</time>
      </trkpt>
      <trkpt lat="45.19773" lon="5.74238">
        <ele>248.80000305176</ele>
        <time>2021-10-03T04:49:13.000Z</time>
      </trkpt>
      <trkpt lat="45.19786" lon="5.74236">
        <ele>248.80000305176</ele>
        <time>2021-10-03T04:49:19.000Z</time>
      </trkpt>
      <trkpt lat="45.19795" lon="5.74238">
        <ele>250</ele>
        <time>2021-10-03T04:49:23.000Z</time>
      </trkpt>
      <trkpt lat="45.19797" lon="5.74239">
        <ele>250.39999389648</ele>
        <time>2021-10-03T04:49:24.000Z</time>
      </trkpt>
      <trkpt lat="45.19813" lon="5.74228">
        <ele>250.19999694824</ele>
        <time>2021-10-03T04:49:31.000Z</time>
      </trkpt>
      <trkpt lat="45.19822" lon="5.74226">
        <ele>249</ele>
        <time>2021-10-03T04:49:35.000Z</time>
      </trkpt>
      <trkpt lat="45.19826" lon="5.74223">
        <ele>248.19999694824</ele>
        <time>2021-10-03T04:49:37.000Z</time>
      </trkpt>
      <trkpt lat="45.19839" lon="5.74218">
        <ele>248.80000305176</ele>
        <time>2021-10-03T04:49:43.000Z</time>
      </trkpt>
      <trkpt lat="45.19852" lon="5.74214">
        <ele>249</ele>
        <time>2021-10-03T04:49:48.000Z</time>
      </trkpt>
      <trkpt lat="45.19864" lon="5.74209">
        <ele>249.19999694824</ele>
        <time>2021-10-03T04:49:53.000Z</time>
      </trkpt>
      <trkpt lat="45.19878" lon="5.74197">
        <ele>248.19999694824</ele>
        <time>2021-10-03T04:50:00.000Z</time>
      </trkpt>
      <trkpt lat="45.19889" lon="5.74187">
        <ele>248.39999389648</ele>
        <time>2021-10-03T04:50:05.000Z</time>
      </trkpt>
      <trkpt lat="45.199" lon="5.74179">
        <ele>248.60000610352</ele>
        <time>2021-10-03T04:50:10.000Z</time>
      </trkpt>
      <trkpt lat="45.19913" lon="5.74169">
        <ele>248.60000610352</ele>
        <time>2021-10-03T04:50:16.000Z</time>
      </trkpt>
      <trkpt lat="45.19915" lon="5.74167">
        <ele>248.60000610352</ele>
        <time>2021-10-03T04:50:17.000Z</time>
      </trkpt>
      <trkpt lat="45.19922" lon="5.74162">
        <ele>248.60000610352</ele>
        <time>2021-10-03T04:50:20.000Z</time>
      </trkpt>
      <trkpt lat="45.19935" lon="5.74152">
        <ele>248.39999389648</ele>
        <time>2021-10-03T04:50:26.000Z</time>
      </trkpt>
      <trkpt lat="45.19947" lon="5.74145">
        <ele>248.60000610352</ele>
        <time>2021-10-03T04:50:31.000Z</time>
      </trkpt>
      <trkpt lat="45.1995" lon="5.74143">
        <ele>248.60000610352</ele>
        <time>2021-10-03T04:50:32.000Z</time>
      </trkpt>
      <trkpt lat="45.19956" lon="5.74138">
        <ele>248.60000610352</ele>
        <time>2021-10-03T04:50:35.000Z</time>
      </trkpt>
      <trkpt lat="45.19965" lon="5.74128">
        <ele>248.60000610352</ele>
        <time>2021-10-03T04:50:40.000Z</time>
      </trkpt>
      <trkpt lat="45.19975" lon="5.7412">
        <ele>248</ele>
        <time>2021-10-03T04:50:46.000Z</time>
      </trkpt>
      <trkpt lat="45.19977" lon="5.74119">
        <ele>248</ele>
        <time>2021-10-03T04:50:47.000Z</time>
      </trkpt>
      <trkpt lat="45.19984" lon="5.74112">
        <ele>247.39999389648</ele>
        <time>2021-10-03T04:50:50.000Z</time>
      </trkpt>
      <trkpt lat="45.19989" lon="5.74108">
        <ele>246.39999389648</ele>
        <time>2021-10-03T04:50:52.000Z</time>
      </trkpt>
      <trkpt lat="45.19998" lon="5.74092">
        <ele>245.80000305176</ele>
        <time>2021-10-03T04:50:57.000Z</time>
      </trkpt>
      <trkpt lat="45.20029" lon="5.74068">
        <ele>245.39999389648</ele>
        <time>2021-10-03T04:51:12.000Z</time>
      </trkpt>
      <trkpt lat="45.20027" lon="5.7406">
        <ele>245.60000610352</ele>
        <time>2021-10-03T04:51:13.000Z</time>
      </trkpt>
      <trkpt lat="45.20029" lon="5.74057">
        <ele>246</ele>
        <time>2021-10-03T04:51:14.000Z</time>
      </trkpt>
      <trkpt lat="45.20031" lon="5.74047">
        <ele>246.39999389648</ele>
        <time>2021-10-03T04:51:16.000Z</time>
      </trkpt>
      <trkpt lat="45.20033" lon="5.7404">
        <ele>246.80000305176</ele>
        <time>2021-10-03T04:51:18.000Z</time>
      </trkpt>
      <trkpt lat="45.20036" lon="5.74028">
        <ele>247.19999694824</ele>
        <time>2021-10-03T04:51:22.000Z</time>
      </trkpt>
      <trkpt lat="45.20038" lon="5.74022">
        <ele>247.60000610352</ele>
        <time>2021-10-03T04:51:25.000Z</time>
      </trkpt>
      <trkpt lat="45.20038" lon="5.74021">
        <ele>247.60000610352</ele>
        <time>2021-10-03T04:51:26.000Z</time>
      </trkpt>
      <trkpt lat="45.20039" lon="5.74024">
        <ele>247.80000305176</ele>
        <time>2021-10-03T04:51:30.000Z</time>
      </trkpt>
      <trkpt lat="45.20038" lon="5.74026">
        <ele>248</ele>
        <time>2021-10-03T04:51:31.000Z</time>
      </trkpt>
      <trkpt lat="45.20037" lon="5.74029">
        <ele>248.60000610352</ele>
        <time>2021-10-03T04:51:33.000Z</time>
      </trkpt>
      <trkpt lat="45.20036" lon="5.7403">
        <ele>248.80000305176</ele>
        <time>2021-10-03T04:51:34.000Z</time>
      </trkpt>
      <trkpt lat="45.20034" lon="5.74043">
        <ele>249.60000610352</ele>
        <time>2021-10-03T04:51:38.000Z</time>
      </trkpt>
      <trkpt lat="45.2003" lon="5.74054">
        <ele>249.80000305176</ele>
        <time>2021-10-03T04:51:41.000Z</time>
      </trkpt>
      <trkpt lat="45.20026" lon="5.74063">
        <ele>250.19999694824</ele>
        <time>2021-10-03T04:51:44.000Z</time>
      </trkpt>
      <trkpt lat="45.20023" lon="5.74069">
        <ele>251</ele>
        <time>2021-10-03T04:51:47.000Z</time>
      </trkpt>
      <trkpt lat="45.20023" lon="5.74072">
        <ele>251</ele>
        <time>2021-10-03T04:51:48.000Z</time>
      </trkpt>
      <trkpt lat="45.20024" lon="5.74075">
        <ele>251.60000610352</ele>
        <time>2021-10-03T04:51:50.000Z</time>
      </trkpt>
      <trkpt lat="45.20029" lon="5.74078">
        <ele>252</ele>
        <time>2021-10-03T04:51:53.000Z</time>
      </trkpt>
      <trkpt lat="45.20033" lon="5.74081">
        <ele>252</ele>
        <time>2021-10-03T04:51:56.000Z</time>
      </trkpt>
      <trkpt lat="45.20039" lon="5.74091">
        <ele>252.60000610352</ele>
        <time>2021-10-03T04:52:01.000Z</time>
      </trkpt>
      <trkpt lat="45.20041" lon="5.74093">
        <ele>252.60000610352</ele>
        <time>2021-10-03T04:52:02.000Z</time>
      </trkpt>
      <trkpt lat="45.2005" lon="5.74102">
        <ele>252.60000610352</ele>
        <time>2021-10-03T04:52:06.000Z</time>
      </trkpt>
      <trkpt lat="45.20061" lon="5.74115">
        <ele>252.60000610352</ele>
        <time>2021-10-03T04:52:12.000Z</time>
      </trkpt>
      <trkpt lat="45.20074" lon="5.7413">
        <ele>252.19999694824</ele>
        <time>2021-10-03T04:52:19.000Z</time>
      </trkpt>
      <trkpt lat="45.20087" lon="5.74149">
        <ele>252.80000305176</ele>
        <time>2021-10-03T04:52:26.000Z</time>
      </trkpt>
      <trkpt lat="45.20102" lon="5.74165">
        <ele>253</ele>
        <time>2021-10-03T04:52:32.000Z</time>
      </trkpt>
      <trkpt lat="45.20104" lon="5.74167">
        <ele>253</ele>
        <time>2021-10-03T04:52:33.000Z</time>
      </trkpt>
      <trkpt lat="45.20108" lon="5.74171">
        <ele>253</ele>
        <time>2021-10-03T04:52:36.000Z</time>
      </trkpt>
      <trkpt lat="45.20109" lon="5.74169">
        <ele>252.80000305176</ele>
        <time>2021-10-03T04:52:37.000Z</time>
      </trkpt>
      <trkpt lat="45.20115" lon="5.7415">
        <ele>252.19999694824</ele>
        <time>2021-10-03T04:52:43.000Z</time>
      </trkpt>
      <trkpt lat="45.20115" lon="5.74147">
        <ele>251.80000305176</ele>
        <time>2021-10-03T04:52:44.000Z</time>
      </trkpt>
      <trkpt lat="45.20119" lon="5.74131">
        <ele>251</ele>
        <time>2021-10-03T04:52:48.000Z</time>
      </trkpt>
      <trkpt lat="45.2012" lon="5.74127">
        <ele>250.80000305176</ele>
        <time>2021-10-03T04:52:49.000Z</time>
      </trkpt>
      <trkpt lat="45.20121" lon="5.74123">
        <ele>250.80000305176</ele>
        <time>2021-10-03T04:52:50.000Z</time>
      </trkpt>
      <trkpt lat="45.20124" lon="5.74103">
        <ele>249.60000610352</ele>
        <time>2021-10-03T04:52:55.000Z</time>
      </trkpt>
      <trkpt lat="45.20128" lon="5.74091">
        <ele>248.39999389648</ele>
        <time>2021-10-03T04:52:59.000Z</time>
      </trkpt>
      <trkpt lat="45.20136" lon="5.74077">
        <ele>248</ele>
        <time>2021-10-03T04:53:03.000Z</time>
      </trkpt>
      <trkpt lat="45.20142" lon="5.74063">
        <ele>248.39999389648</ele>
        <time>2021-10-03T04:53:07.000Z</time>
      </trkpt>
      <trkpt lat="45.2015" lon="5.74052">
        <ele>248</ele>
        <time>2021-10-03T04:53:11.000Z</time>
      </trkpt>
      <trkpt lat="45.20157" lon="5.74041">
        <ele>247.80000305176</ele>
        <time>2021-10-03T04:53:15.000Z</time>
      </trkpt>
      <trkpt lat="45.20159" lon="5.74038">
        <ele>247.80000305176</ele>
        <time>2021-10-03T04:53:16.000Z</time>
      </trkpt>
      <trkpt lat="45.20171" lon="5.74018">
        <ele>248.19999694824</ele>
        <time>2021-10-03T04:53:23.000Z</time>
      </trkpt>
      <trkpt lat="45.20179" lon="5.74005">
        <ele>247.60000610352</ele>
        <time>2021-10-03T04:53:28.000Z</time>
      </trkpt>
      <trkpt lat="45.20185" lon="5.73994">
        <ele>247.60000610352</ele>
        <time>2021-10-03T04:53:32.000Z</time>
      </trkpt>
      <trkpt lat="45.20192" lon="5.73975">
        <ele>247.60000610352</ele>
        <time>2021-10-03T04:53:37.000Z</time>
      </trkpt>
      <trkpt lat="45.202" lon="5.7395">
        <ele>247.80000305176</ele>
        <time>2021-10-03T04:53:44.000Z</time>
      </trkpt>
      <trkpt lat="45.20209" lon="5.73925">
        <ele>248</ele>
        <time>2021-10-03T04:53:52.000Z</time>
      </trkpt>
      <trkpt lat="45.20215" lon="5.73903">
        <ele>247.60000610352</ele>
        <time>2021-10-03T04:53:59.000Z</time>
      </trkpt>
      <trkpt lat="45.20217" lon="5.73892">
        <ele>247.19999694824</ele>
        <time>2021-10-03T04:54:02.000Z</time>
      </trkpt>
      <trkpt lat="45.20219" lon="5.73881">
        <ele>247</ele>
        <time>2021-10-03T04:54:05.000Z</time>
      </trkpt>
      <trkpt lat="45.20222" lon="5.73858">
        <ele>246.19999694824</ele>
        <time>2021-10-03T04:54:11.000Z</time>
      </trkpt>
      <trkpt lat="45.20227" lon="5.73838">
        <ele>246.39999389648</ele>
        <time>2021-10-03T04:54:16.000Z</time>
      </trkpt>
      <trkpt lat="45.20227" lon="5.7383">
        <ele>246.60000610352</ele>
        <time>2021-10-03T04:54:18.000Z</time>
      </trkpt>
      <trkpt lat="45.20233" lon="5.73808">
        <ele>246.19999694824</ele>
        <time>2021-10-03T04:54:24.000Z</time>
      </trkpt>
      <trkpt lat="45.20246" lon="5.73806">
        <ele>246</ele>
        <time>2021-10-03T04:54:28.000Z</time>
      </trkpt>
      <trkpt lat="45.20263" lon="5.73803">
        <ele>246.60000610352</ele>
        <time>2021-10-03T04:54:34.000Z</time>
      </trkpt>
      <trkpt lat="45.20268" lon="5.73799">
        <ele>247.39999389648</ele>
        <time>2021-10-03T04:54:37.000Z</time>
      </trkpt>
      <trkpt lat="45.20273" lon="5.73797">
        <ele>247.80000305176</ele>
        <time>2021-10-03T04:54:40.000Z</time>
      </trkpt>
      <trkpt lat="45.20282" lon="5.73796">
        <ele>248.39999389648</ele>
        <time>2021-10-03T04:54:44.000Z</time>
      </trkpt>
      <trkpt lat="45.20289" lon="5.73796">
        <ele>249</ele>
        <time>2021-10-03T04:54:47.000Z</time>
      </trkpt>
      <trkpt lat="45.20292" lon="5.73794">
        <ele>249.60000610352</ele>
        <time>2021-10-03T04:54:49.000Z</time>
      </trkpt>
      <trkpt lat="45.20298" lon="5.73787">
        <ele>249.60000610352</ele>
        <time>2021-10-03T04:54:52.000Z</time>
      </trkpt>
      <trkpt lat="45.20301" lon="5.73777">
        <ele>249.80000305176</ele>
        <time>2021-10-03T04:54:55.000Z</time>
      </trkpt>
      <trkpt lat="45.20305" lon="5.73774">
        <ele>249.80000305176</ele>
        <time>2021-10-03T04:54:57.000Z</time>
      </trkpt>
      <trkpt lat="45.20315" lon="5.73772">
        <ele>250.60000610352</ele>
        <time>2021-10-03T04:55:01.000Z</time>
      </trkpt>
      <trkpt lat="45.20319" lon="5.7377">
        <ele>251.19999694824</ele>
        <time>2021-10-03T04:55:03.000Z</time>
      </trkpt>
      <trkpt lat="45.20325" lon="5.73766">
        <ele>251.60000610352</ele>
        <time>2021-10-03T04:55:06.000Z</time>
      </trkpt>
      <trkpt lat="45.20329" lon="5.73762">
        <ele>251.80000305176</ele>
        <time>2021-10-03T04:55:08.000Z</time>
      </trkpt>
      <trkpt lat="45.20339" lon="5.73751">
        <ele>252</ele>
        <time>2021-10-03T04:55:12.000Z</time>
      </trkpt>
      <trkpt lat="45.20342" lon="5.73748">
        <ele>252.39999389648</ele>
        <time>2021-10-03T04:55:14.000Z</time>
      </trkpt>
      <trkpt lat="45.20343" lon="5.73745">
        <ele>252.80000305176</ele>
        <time>2021-10-03T04:55:15.000Z</time>
      </trkpt>
      <trkpt lat="45.20345" lon="5.73741">
        <ele>252.80000305176</ele>
        <time>2021-10-03T04:55:16.000Z</time>
      </trkpt>
      <trkpt lat="45.20348" lon="5.73731">
        <ele>253.80000305176</ele>
        <time>2021-10-03T04:55:19.000Z</time>
      </trkpt>
      <trkpt lat="45.20352" lon="5.73721">
        <ele>254.19999694824</ele>
        <time>2021-10-03T04:55:22.000Z</time>
      </trkpt>
      <trkpt lat="45.20359" lon="5.7371">
        <ele>254.60000610352</ele>
        <time>2021-10-03T04:55:26.000Z</time>
      </trkpt>
      <trkpt lat="45.2036" lon="5.73707">
        <ele>254.80000305176</ele>
        <time>2021-10-03T04:55:27.000Z</time>
      </trkpt>
      <trkpt lat="45.20365" lon="5.73691">
        <ele>255.60000610352</ele>
        <time>2021-10-03T04:55:32.000Z</time>
      </trkpt>
      <trkpt lat="45.20365" lon="5.73687">
        <ele>255.80000305176</ele>
        <time>2021-10-03T04:55:33.000Z</time>
      </trkpt>
      <trkpt lat="45.20366" lon="5.73684">
        <ele>256</ele>
        <time>2021-10-03T04:55:34.000Z</time>
      </trkpt>
      <trkpt lat="45.20367" lon="5.73678">
        <ele>256.39999389648</ele>
        <time>2021-10-03T04:55:37.000Z</time>
      </trkpt>
      <trkpt lat="45.20367" lon="5.73678">
        <ele>256.39999389648</ele>
        <time>2021-10-03T04:55:38.000Z</time>
      </trkpt>
      <trkpt lat="45.20361" lon="5.73676">
        <ele>256.39999389648</ele>
        <time>2021-10-03T04:55:41.000Z</time>
      </trkpt>
      <trkpt lat="45.20349" lon="5.73668">
        <ele>256.39999389648</ele>
        <time>2021-10-03T04:55:46.000Z</time>
      </trkpt>
      <trkpt lat="45.20338" lon="5.73662">
        <ele>256.39999389648</ele>
        <time>2021-10-03T04:55:51.000Z</time>
      </trkpt>
      <trkpt lat="45.20335" lon="5.7366">
        <ele>256.20001220703</ele>
        <time>2021-10-03T04:55:52.000Z</time>
      </trkpt>
      <trkpt lat="45.20327" lon="5.73652">
        <ele>255</ele>
        <time>2021-10-03T04:55:56.000Z</time>
      </trkpt>
      <trkpt lat="45.20316" lon="5.73642">
        <ele>254.80000305176</ele>
        <time>2021-10-03T04:56:01.000Z</time>
      </trkpt>
      <trkpt lat="45.20308" lon="5.73629">
        <ele>254.60000610352</ele>
        <time>2021-10-03T04:56:06.000Z</time>
      </trkpt>
      <trkpt lat="45.20297" lon="5.73616">
        <ele>254</ele>
        <time>2021-10-03T04:56:12.000Z</time>
      </trkpt>
      <trkpt lat="45.20293" lon="5.73611">
        <ele>253.80000305176</ele>
        <time>2021-10-03T04:56:14.000Z</time>
      </trkpt>
      <trkpt lat="45.20283" lon="5.736">
        <ele>253.39999389648</ele>
        <time>2021-10-03T04:56:19.000Z</time>
      </trkpt>
      <trkpt lat="45.20277" lon="5.73593">
        <ele>252.60000610352</ele>
        <time>2021-10-03T04:56:22.000Z</time>
      </trkpt>
      <trkpt lat="45.20267" lon="5.73581">
        <ele>251.60000610352</ele>
        <time>2021-10-03T04:56:27.000Z</time>
      </trkpt>
      <trkpt lat="45.20265" lon="5.73579">
        <ele>251.60000610352</ele>
        <time>2021-10-03T04:56:28.000Z</time>
      </trkpt>
      <trkpt lat="45.20255" lon="5.73565">
        <ele>250.60000610352</ele>
        <time>2021-10-03T04:56:33.000Z</time>
      </trkpt>
      <trkpt lat="45.20253" lon="5.73562">
        <ele>250.60000610352</ele>
        <time>2021-10-03T04:56:34.000Z</time>
      </trkpt>
      <trkpt lat="45.20251" lon="5.73558">
        <ele>250.39999389648</ele>
        <time>2021-10-03T04:56:35.000Z</time>
      </trkpt>
      <trkpt lat="45.20247" lon="5.73553">
        <ele>250.19999694824</ele>
        <time>2021-10-03T04:56:37.000Z</time>
      </trkpt>
      <trkpt lat="45.20242" lon="5.7355">
        <ele>250.19999694824</ele>
        <time>2021-10-03T04:56:39.000Z</time>
      </trkpt>
      <trkpt lat="45.20231" lon="5.73538">
        <ele>249.19999694824</ele>
        <time>2021-10-03T04:56:44.000Z</time>
      </trkpt>
      <trkpt lat="45.20229" lon="5.73535">
        <ele>249.19999694824</ele>
        <time>2021-10-03T04:56:45.000Z</time>
      </trkpt>
      <trkpt lat="45.20217" lon="5.73515">
        <ele>248.39999389648</ele>
        <time>2021-10-03T04:56:51.000Z</time>
      </trkpt>
      <trkpt lat="45.20209" lon="5.73498">
        <ele>248.39999389648</ele>
        <time>2021-10-03T04:56:56.000Z</time>
      </trkpt>
      <trkpt lat="45.202" lon="5.73481">
        <ele>248</ele>
        <time>2021-10-03T04:57:01.000Z</time>
      </trkpt>
      <trkpt lat="45.20198" lon="5.73477">
        <ele>247.80000305176</ele>
        <time>2021-10-03T04:57:02.000Z</time>
      </trkpt>
      <trkpt lat="45.20194" lon="5.7346">
        <ele>248</ele>
        <time>2021-10-03T04:57:07.000Z</time>
      </trkpt>
      <trkpt lat="45.20187" lon="5.73451">
        <ele>248.60000610352</ele>
        <time>2021-10-03T04:57:11.000Z</time>
      </trkpt>
      <trkpt lat="45.20177" lon="5.73437">
        <ele>248.80000305176</ele>
        <time>2021-10-03T04:57:16.000Z</time>
      </trkpt>
      <trkpt lat="45.20171" lon="5.73428">
        <ele>248.80000305176</ele>
        <time>2021-10-03T04:57:19.000Z</time>
      </trkpt>
      <trkpt lat="45.20164" lon="5.73421">
        <ele>248.39999389648</ele>
        <time>2021-10-03T04:57:24.000Z</time>
      </trkpt>
      <trkpt lat="45.20146" lon="5.73409">
        <ele>248.19999694824</ele>
        <time>2021-10-03T04:57:32.000Z</time>
      </trkpt>
      <trkpt lat="45.20127" lon="5.73401">
        <ele>248</ele>
        <time>2021-10-03T04:57:39.000Z</time>
      </trkpt>
      <trkpt lat="45.20124" lon="5.73399">
        <ele>247.80000305176</ele>
        <time>2021-10-03T04:57:40.000Z</time>
      </trkpt>
      <trkpt lat="45.20112" lon="5.73395">
        <ele>247.60000610352</ele>
        <time>2021-10-03T04:57:44.000Z</time>
      </trkpt>
      <trkpt lat="45.20107" lon="5.73394">
        <ele>247.60000610352</ele>
        <time>2021-10-03T04:57:46.000Z</time>
      </trkpt>
      <trkpt lat="45.20101" lon="5.73393">
        <ele>247.60000610352</ele>
        <time>2021-10-03T04:57:48.000Z</time>
      </trkpt>
      <trkpt lat="45.20097" lon="5.73391">
        <ele>247.39999389648</ele>
        <time>2021-10-03T04:57:50.000Z</time>
      </trkpt>
      <trkpt lat="45.20083" lon="5.73387">
        <ele>247.39999389648</ele>
        <time>2021-10-03T04:57:55.000Z</time>
      </trkpt>
      <trkpt lat="45.20081" lon="5.73385">
        <ele>247.39999389648</ele>
        <time>2021-10-03T04:57:56.000Z</time>
      </trkpt>
      <trkpt lat="45.20071" lon="5.73379">
        <ele>247.19999694824</ele>
        <time>2021-10-03T04:58:01.000Z</time>
      </trkpt>
      <trkpt lat="45.20069" lon="5.73377">
        <ele>247.39999389648</ele>
        <time>2021-10-03T04:58:02.000Z</time>
      </trkpt>
      <trkpt lat="45.20064" lon="5.73371">
        <ele>247.39999389648</ele>
        <time>2021-10-03T04:58:05.000Z</time>
      </trkpt>
      <trkpt lat="45.20054" lon="5.73365">
        <ele>247.39999389648</ele>
        <time>2021-10-03T04:58:09.000Z</time>
      </trkpt>
      <trkpt lat="45.20051" lon="5.73364">
        <ele>247.39999389648</ele>
        <time>2021-10-03T04:58:10.000Z</time>
      </trkpt>
      <trkpt lat="45.20037" lon="5.73358">
        <ele>248.19999694824</ele>
        <time>2021-10-03T04:58:16.000Z</time>
      </trkpt>
      <trkpt lat="45.20022" lon="5.73351">
        <ele>248.60000610352</ele>
        <time>2021-10-03T04:58:22.000Z</time>
      </trkpt>
      <trkpt lat="45.20013" lon="5.73348">
        <ele>248.80000305176</ele>
        <time>2021-10-03T04:58:25.000Z</time>
      </trkpt>
      <trkpt lat="45.20009" lon="5.73345">
        <ele>248.39999389648</ele>
        <time>2021-10-03T04:58:27.000Z</time>
      </trkpt>
      <trkpt lat="45.19998" lon="5.73338">
        <ele>248.19999694824</ele>
        <time>2021-10-03T04:58:32.000Z</time>
      </trkpt>
      <trkpt lat="45.19993" lon="5.73334">
        <ele>248.60000610352</ele>
        <time>2021-10-03T04:58:34.000Z</time>
      </trkpt>
      <trkpt lat="45.19989" lon="5.7333">
        <ele>249</ele>
        <time>2021-10-03T04:58:36.000Z</time>
      </trkpt>
      <trkpt lat="45.19987" lon="5.73328">
        <ele>249</ele>
        <time>2021-10-03T04:58:37.000Z</time>
      </trkpt>
      <trkpt lat="45.19974" lon="5.7332">
        <ele>249.60000610352</ele>
        <time>2021-10-03T04:58:43.000Z</time>
      </trkpt>
      <trkpt lat="45.19969" lon="5.73318">
        <ele>249.80000305176</ele>
        <time>2021-10-03T04:58:45.000Z</time>
      </trkpt>
      <trkpt lat="45.19963" lon="5.73317">
        <ele>249.80000305176</ele>
        <time>2021-10-03T04:58:47.000Z</time>
      </trkpt>
      <trkpt lat="45.19954" lon="5.73311">
        <ele>249.80000305176</ele>
        <time>2021-10-03T04:58:51.000Z</time>
      </trkpt>
      <trkpt lat="45.1994" lon="5.73305">
        <ele>250</ele>
        <time>2021-10-03T04:58:57.000Z</time>
      </trkpt>
      <trkpt lat="45.19938" lon="5.73304">
        <ele>250.19999694824</ele>
        <time>2021-10-03T04:58:58.000Z</time>
      </trkpt>
      <trkpt lat="45.19935" lon="5.73302">
        <ele>250.19999694824</ele>
        <time>2021-10-03T04:58:59.000Z</time>
      </trkpt>
      <trkpt lat="45.19933" lon="5.73301">
        <ele>250.19999694824</ele>
        <time>2021-10-03T04:59:00.000Z</time>
      </trkpt>
      <trkpt lat="45.1993" lon="5.733">
        <ele>250.19999694824</ele>
        <time>2021-10-03T04:59:01.000Z</time>
      </trkpt>
      <trkpt lat="45.19924" lon="5.73299">
        <ele>250.19999694824</ele>
        <time>2021-10-03T04:59:03.000Z</time>
      </trkpt>
      <trkpt lat="45.19918" lon="5.733">
        <ele>250.19999694824</ele>
        <time>2021-10-03T04:59:05.000Z</time>
      </trkpt>
      <trkpt lat="45.19913" lon="5.733">
        <ele>250.39999389648</ele>
        <time>2021-10-03T04:59:07.000Z</time>
      </trkpt>
      <trkpt lat="45.19906" lon="5.73295">
        <ele>250.39999389648</ele>
        <time>2021-10-03T04:59:10.000Z</time>
      </trkpt>
      <trkpt lat="45.19895" lon="5.73291">
        <ele>250.39999389648</ele>
        <time>2021-10-03T04:59:14.000Z</time>
      </trkpt>
      <trkpt lat="45.19877" lon="5.73283">
        <ele>250.39999389648</ele>
        <time>2021-10-03T04:59:21.000Z</time>
      </trkpt>
      <trkpt lat="45.19862" lon="5.73283">
        <ele>250.19999694824</ele>
        <time>2021-10-03T04:59:27.000Z</time>
      </trkpt>
      <trkpt lat="45.19855" lon="5.73278">
        <ele>250.19999694824</ele>
        <time>2021-10-03T04:59:30.000Z</time>
      </trkpt>
      <trkpt lat="45.19847" lon="5.73274">
        <ele>250.19999694824</ele>
        <time>2021-10-03T04:59:33.000Z</time>
      </trkpt>
      <trkpt lat="45.19827" lon="5.7327">
        <ele>250</ele>
        <time>2021-10-03T04:59:40.000Z</time>
      </trkpt>
      <trkpt lat="45.19818" lon="5.7327">
        <ele>249.60000610352</ele>
        <time>2021-10-03T04:59:43.000Z</time>
      </trkpt>
      <trkpt lat="45.19815" lon="5.73267">
        <ele>249.60000610352</ele>
        <time>2021-10-03T04:59:44.000Z</time>
      </trkpt>
      <trkpt lat="45.19801" lon="5.73255">
        <ele>250</ele>
        <time>2021-10-03T04:59:50.000Z</time>
      </trkpt>
      <trkpt lat="45.19785" lon="5.73247">
        <ele>249</ele>
        <time>2021-10-03T04:59:56.000Z</time>
      </trkpt>
      <trkpt lat="45.19783" lon="5.73244">
        <ele>249</ele>
        <time>2021-10-03T04:59:57.000Z</time>
      </trkpt>
      <trkpt lat="45.19773" lon="5.73228">
        <ele>249</ele>
        <time>2021-10-03T05:00:02.000Z</time>
      </trkpt>
      <trkpt lat="45.19773" lon="5.73224">
        <ele>249</ele>
        <time>2021-10-03T05:00:03.000Z</time>
      </trkpt>
      <trkpt lat="45.19778" lon="5.732">
        <ele>248.60000610352</ele>
        <time>2021-10-03T05:00:09.000Z</time>
      </trkpt>
      <trkpt lat="45.19777" lon="5.73194">
        <ele>248.39999389648</ele>
        <time>2021-10-03T05:00:11.000Z</time>
      </trkpt>
      <trkpt lat="45.19776" lon="5.73185">
        <ele>248.80000305176</ele>
        <time>2021-10-03T05:00:13.000Z</time>
      </trkpt>
      <trkpt lat="45.19772" lon="5.73171">
        <ele>250.19999694824</ele>
        <time>2021-10-03T05:00:17.000Z</time>
      </trkpt>
      <trkpt lat="45.19771" lon="5.73169">
        <ele>250.39999389648</ele>
        <time>2021-10-03T05:00:18.000Z</time>
      </trkpt>
      <trkpt lat="45.19766" lon="5.7316">
        <ele>251</ele>
        <time>2021-10-03T05:00:21.000Z</time>
      </trkpt>
      <trkpt lat="45.19763" lon="5.73149">
        <ele>251.19999694824</ele>
        <time>2021-10-03T05:00:24.000Z</time>
      </trkpt>
      <trkpt lat="45.19765" lon="5.73146">
        <ele>251.19999694824</ele>
        <time>2021-10-03T05:00:25.000Z</time>
      </trkpt>
      <trkpt lat="45.19767" lon="5.73141">
        <ele>251.19999694824</ele>
        <time>2021-10-03T05:00:27.000Z</time>
      </trkpt>
      <trkpt lat="45.19768" lon="5.73138">
        <ele>251.19999694824</ele>
        <time>2021-10-03T05:00:28.000Z</time>
      </trkpt>
      <trkpt lat="45.19769" lon="5.73133">
        <ele>251.39999389648</ele>
        <time>2021-10-03T05:00:30.000Z</time>
      </trkpt>
      <trkpt lat="45.19771" lon="5.73128">
        <ele>251.80000305176</ele>
        <time>2021-10-03T05:00:32.000Z</time>
      </trkpt>
      <trkpt lat="45.19773" lon="5.73122">
        <ele>252.60000610352</ele>
        <time>2021-10-03T05:00:34.000Z</time>
      </trkpt>
      <trkpt lat="45.19774" lon="5.7312">
        <ele>253</ele>
        <time>2021-10-03T05:00:35.000Z</time>
      </trkpt>
      <trkpt lat="45.19779" lon="5.73118">
        <ele>253.39999389648</ele>
        <time>2021-10-03T05:00:37.000Z</time>
      </trkpt>
      <trkpt lat="45.19782" lon="5.73117">
        <ele>253.60000610352</ele>
        <time>2021-10-03T05:00:38.000Z</time>
      </trkpt>
      <trkpt lat="45.19793" lon="5.73115">
        <ele>255</ele>
        <time>2021-10-03T05:00:42.000Z</time>
      </trkpt>
      <trkpt lat="45.19795" lon="5.73115">
        <ele>255.39999389648</ele>
        <time>2021-10-03T05:00:43.000Z</time>
      </trkpt>
      <trkpt lat="45.198" lon="5.73111">
        <ele>256.39999389648</ele>
        <time>2021-10-03T05:00:46.000Z</time>
      </trkpt>
      <trkpt lat="45.19799" lon="5.73109">
        <ele>257</ele>
        <time>2021-10-03T05:00:47.000Z</time>
      </trkpt>
      <trkpt lat="45.19795" lon="5.73107">
        <ele>257.60000610352</ele>
        <time>2021-10-03T05:00:49.000Z</time>
      </trkpt>
      <trkpt lat="45.19791" lon="5.73107">
        <ele>257.79998779297</ele>
        <time>2021-10-03T05:00:51.000Z</time>
      </trkpt>
      <trkpt lat="45.19786" lon="5.73105">
        <ele>258.60000610352</ele>
        <time>2021-10-03T05:00:54.000Z</time>
      </trkpt>
      <trkpt lat="45.19784" lon="5.73106">
        <ele>258.60000610352</ele>
        <time>2021-10-03T05:00:55.000Z</time>
      </trkpt>
      <trkpt lat="45.19783" lon="5.73107">
        <ele>258.79998779297</ele>
        <time>2021-10-03T05:00:56.000Z</time>
      </trkpt>
      <trkpt lat="45.19763" lon="5.7308">
        <ele>260.60000610352</ele>
        <time>2021-10-03T05:01:04.000Z</time>
      </trkpt>
      <trkpt lat="45.19755" lon="5.73087">
        <ele>260.79998779297</ele>
        <time>2021-10-03T05:01:06.000Z</time>
      </trkpt>
      <trkpt lat="45.19753" lon="5.73082">
        <ele>261</ele>
        <time>2021-10-03T05:01:07.000Z</time>
      </trkpt>
      <trkpt lat="45.1975" lon="5.73078">
        <ele>261.20001220703</ele>
        <time>2021-10-03T05:01:09.000Z</time>
      </trkpt>
      <trkpt lat="45.19746" lon="5.73072">
        <ele>261.39999389648</ele>
        <time>2021-10-03T05:01:11.000Z</time>
      </trkpt>
      <trkpt lat="45.19746" lon="5.7307">
        <ele>261.79998779297</ele>
        <time>2021-10-03T05:01:12.000Z</time>
      </trkpt>
      <trkpt lat="45.19747" lon="5.73068">
        <ele>262</ele>
        <time>2021-10-03T05:01:13.000Z</time>
      </trkpt>
      <trkpt lat="45.19747" lon="5.73066">
        <ele>262.20001220703</ele>
        <time>2021-10-03T05:01:14.000Z</time>
      </trkpt>
      <trkpt lat="45.19749" lon="5.73066">
        <ele>262.20001220703</ele>
        <time>2021-10-03T05:01:15.000Z</time>
      </trkpt>
      <trkpt lat="45.19759" lon="5.73067">
        <ele>263</ele>
        <time>2021-10-03T05:01:19.000Z</time>
      </trkpt>
      <trkpt lat="45.19765" lon="5.73069">
        <ele>263.39999389648</ele>
        <time>2021-10-03T05:01:21.000Z</time>
      </trkpt>
      <trkpt lat="45.19771" lon="5.7307">
        <ele>264</ele>
        <time>2021-10-03T05:01:23.000Z</time>
      </trkpt>
      <trkpt lat="45.19778" lon="5.73072">
        <ele>264.39999389648</ele>
        <time>2021-10-03T05:01:26.000Z</time>
      </trkpt>
      <trkpt lat="45.19779" lon="5.73072">
        <ele>264.60000610352</ele>
        <time>2021-10-03T05:01:27.000Z</time>
      </trkpt>
      <trkpt lat="45.19789" lon="5.73073">
        <ele>265.79998779297</ele>
        <time>2021-10-03T05:01:31.000Z</time>
      </trkpt>
      <trkpt lat="45.1979" lon="5.73072">
        <ele>266</ele>
        <time>2021-10-03T05:01:32.000Z</time>
      </trkpt>
      <trkpt lat="45.19791" lon="5.73071">
        <ele>266.39999389648</ele>
        <time>2021-10-03T05:01:33.000Z</time>
      </trkpt>
      <trkpt lat="45.1979" lon="5.73069">
        <ele>267.20001220703</ele>
        <time>2021-10-03T05:01:35.000Z</time>
      </trkpt>
      <trkpt lat="45.19788" lon="5.73068">
        <ele>267.60000610352</ele>
        <time>2021-10-03T05:01:37.000Z</time>
      </trkpt>
      <trkpt lat="45.19785" lon="5.73067">
        <ele>268.20001220703</ele>
        <time>2021-10-03T05:01:39.000Z</time>
      </trkpt>
      <trkpt lat="45.19781" lon="5.73064">
        <ele>269.20001220703</ele>
        <time>2021-10-03T05:01:42.000Z</time>
      </trkpt>
      <trkpt lat="45.1978" lon="5.73063">
        <ele>269.39999389648</ele>
        <time>2021-10-03T05:01:43.000Z</time>
      </trkpt>
      <trkpt lat="45.19777" lon="5.7306">
        <ele>269.79998779297</ele>
        <time>2021-10-03T05:01:45.000Z</time>
      </trkpt>
      <trkpt lat="45.19775" lon="5.73058">
        <ele>270.20001220703</ele>
        <time>2021-10-03T05:01:47.000Z</time>
      </trkpt>
      <trkpt lat="45.19774" lon="5.73056">
        <ele>270.39999389648</ele>
        <time>2021-10-03T05:01:48.000Z</time>
      </trkpt>
      <trkpt lat="45.19773" lon="5.73055">
        <ele>270.79998779297</ele>
        <time>2021-10-03T05:01:49.000Z</time>
      </trkpt>
      <trkpt lat="45.19772" lon="5.73053">
        <ele>271</ele>
        <time>2021-10-03T05:01:50.000Z</time>
      </trkpt>
      <trkpt lat="45.19765" lon="5.7305">
        <ele>271.60000610352</ele>
        <time>2021-10-03T05:01:54.000Z</time>
      </trkpt>
      <trkpt lat="45.19764" lon="5.7305">
        <ele>272.20001220703</ele>
        <time>2021-10-03T05:01:55.000Z</time>
      </trkpt>
      <trkpt lat="45.19756" lon="5.73048">
        <ele>273.20001220703</ele>
        <time>2021-10-03T05:01:58.000Z</time>
      </trkpt>
      <trkpt lat="45.19754" lon="5.73048">
        <ele>273.20001220703</ele>
        <time>2021-10-03T05:01:59.000Z</time>
      </trkpt>
      <trkpt lat="45.19747" lon="5.73043">
        <ele>274.39999389648</ele>
        <time>2021-10-03T05:02:03.000Z</time>
      </trkpt>
      <trkpt lat="45.19747" lon="5.7304">
        <ele>274.39999389648</ele>
        <time>2021-10-03T05:02:04.000Z</time>
      </trkpt>
      <trkpt lat="45.19749" lon="5.73033">
        <ele>275.20001220703</ele>
        <time>2021-10-03T05:02:07.000Z</time>
      </trkpt>
      <trkpt lat="45.19752" lon="5.73033">
        <ele>275.39999389648</ele>
        <time>2021-10-03T05:02:09.000Z</time>
      </trkpt>
      <trkpt lat="45.1976" lon="5.73038">
        <ele>275.79998779297</ele>
        <time>2021-10-03T05:02:13.000Z</time>
      </trkpt>
      <trkpt lat="45.19764" lon="5.7304">
        <ele>276.39999389648</ele>
        <time>2021-10-03T05:02:16.000Z</time>
      </trkpt>
      <trkpt lat="45.19769" lon="5.73041">
        <ele>276.79998779297</ele>
        <time>2021-10-03T05:02:19.000Z</time>
      </trkpt>
      <trkpt lat="45.19771" lon="5.7304">
        <ele>277.20001220703</ele>
        <time>2021-10-03T05:02:20.000Z</time>
      </trkpt>
      <trkpt lat="45.19773" lon="5.7304">
        <ele>277.60000610352</ele>
        <time>2021-10-03T05:02:21.000Z</time>
      </trkpt>
      <trkpt lat="45.19784" lon="5.73042">
        <ele>278.60000610352</ele>
        <time>2021-10-03T05:02:26.000Z</time>
      </trkpt>
      <trkpt lat="45.1979" lon="5.73041">
        <ele>279.39999389648</ele>
        <time>2021-10-03T05:02:29.000Z</time>
      </trkpt>
      <trkpt lat="45.1979" lon="5.73041">
        <ele>279.60000610352</ele>
        <time>2021-10-03T05:02:31.000Z</time>
      </trkpt>
      <trkpt lat="45.19789" lon="5.7304">
        <ele>279.79998779297</ele>
        <time>2021-10-03T05:02:32.000Z</time>
      </trkpt>
      <trkpt lat="45.19785" lon="5.73038">
        <ele>280.20001220703</ele>
        <time>2021-10-03T05:02:35.000Z</time>
      </trkpt>
      <trkpt lat="45.19781" lon="5.73035">
        <ele>280.79998779297</ele>
        <time>2021-10-03T05:02:38.000Z</time>
      </trkpt>
      <trkpt lat="45.1978" lon="5.73034">
        <ele>280.79998779297</ele>
        <time>2021-10-03T05:02:39.000Z</time>
      </trkpt>
      <trkpt lat="45.19778" lon="5.73033">
        <ele>281.39999389648</ele>
        <time>2021-10-03T05:02:40.000Z</time>
      </trkpt>
      <trkpt lat="45.19775" lon="5.73031">
        <ele>282</ele>
        <time>2021-10-03T05:02:42.000Z</time>
      </trkpt>
      <trkpt lat="45.19767" lon="5.73026">
        <ele>283.20001220703</ele>
        <time>2021-10-03T05:02:47.000Z</time>
      </trkpt>
      <trkpt lat="45.19765" lon="5.73025">
        <ele>283.39999389648</ele>
        <time>2021-10-03T05:02:48.000Z</time>
      </trkpt>
      <trkpt lat="45.19762" lon="5.73021">
        <ele>284.39999389648</ele>
        <time>2021-10-03T05:02:51.000Z</time>
      </trkpt>
      <trkpt lat="45.19756" lon="5.73014">
        <ele>285.60000610352</ele>
        <time>2021-10-03T05:02:55.000Z</time>
      </trkpt>
      <trkpt lat="45.19755" lon="5.73011">
        <ele>285.79998779297</ele>
        <time>2021-10-03T05:02:56.000Z</time>
      </trkpt>
      <trkpt lat="45.19757" lon="5.73007">
        <ele>286.20001220703</ele>
        <time>2021-10-03T05:02:59.000Z</time>
      </trkpt>
      <trkpt lat="45.1976" lon="5.73007">
        <ele>286.60000610352</ele>
        <time>2021-10-03T05:03:01.000Z</time>
      </trkpt>
      <trkpt lat="45.19764" lon="5.73007">
        <ele>287.20001220703</ele>
        <time>2021-10-03T05:03:04.000Z</time>
      </trkpt>
      <trkpt lat="45.19768" lon="5.73008">
        <ele>287.79998779297</ele>
        <time>2021-10-03T05:03:06.000Z</time>
      </trkpt>
      <trkpt lat="45.1977" lon="5.73008">
        <ele>288.60000610352</ele>
        <time>2021-10-03T05:03:08.000Z</time>
      </trkpt>
      <trkpt lat="45.19772" lon="5.73007">
        <ele>289</ele>
        <time>2021-10-03T05:03:09.000Z</time>
      </trkpt>
      <trkpt lat="45.19773" lon="5.73007">
        <ele>289.39999389648</ele>
        <time>2021-10-03T05:03:10.000Z</time>
      </trkpt>
      <trkpt lat="45.19778" lon="5.73008">
        <ele>290.20001220703</ele>
        <time>2021-10-03T05:03:13.000Z</time>
      </trkpt>
      <trkpt lat="45.19788" lon="5.73013">
        <ele>290.79998779297</ele>
        <time>2021-10-03T05:03:17.000Z</time>
      </trkpt>
      <trkpt lat="45.19795" lon="5.73016">
        <ele>291.39999389648</ele>
        <time>2021-10-03T05:03:20.000Z</time>
      </trkpt>
      <trkpt lat="45.19799" lon="5.73017">
        <ele>292</ele>
        <time>2021-10-03T05:03:22.000Z</time>
      </trkpt>
      <trkpt lat="45.19801" lon="5.73018">
        <ele>292.60000610352</ele>
        <time>2021-10-03T05:03:24.000Z</time>
      </trkpt>
      <trkpt lat="45.19802" lon="5.73017">
        <ele>292.79998779297</ele>
        <time>2021-10-03T05:03:25.000Z</time>
      </trkpt>
      <trkpt lat="45.19801" lon="5.73014">
        <ele>293.39999389648</ele>
        <time>2021-10-03T05:03:27.000Z</time>
      </trkpt>
      <trkpt lat="45.198" lon="5.73011">
        <ele>293.79998779297</ele>
        <time>2021-10-03T05:03:29.000Z</time>
      </trkpt>
      <trkpt lat="45.19797" lon="5.73007">
        <ele>294.20001220703</ele>
        <time>2021-10-03T05:03:31.000Z</time>
      </trkpt>
      <trkpt lat="45.19793" lon="5.73005">
        <ele>294.39999389648</ele>
        <time>2021-10-03T05:03:33.000Z</time>
      </trkpt>
      <trkpt lat="45.19787" lon="5.73001">
        <ele>295</ele>
        <time>2021-10-03T05:03:37.000Z</time>
      </trkpt>
      <trkpt lat="45.19783" lon="5.73001">
        <ele>295.20001220703</ele>
        <time>2021-10-03T05:03:39.000Z</time>
      </trkpt>
      <trkpt lat="45.19769" lon="5.72994">
        <ele>296.20001220703</ele>
        <time>2021-10-03T05:03:46.000Z</time>
      </trkpt>
      <trkpt lat="45.19767" lon="5.72993">
        <ele>296.20001220703</ele>
        <time>2021-10-03T05:03:47.000Z</time>
      </trkpt>
      <trkpt lat="45.19765" lon="5.72988">
        <ele>296.79998779297</ele>
        <time>2021-10-03T05:03:49.000Z</time>
      </trkpt>
      <trkpt lat="45.19766" lon="5.72986">
        <ele>297.39999389648</ele>
        <time>2021-10-03T05:03:51.000Z</time>
      </trkpt>
      <trkpt lat="45.19772" lon="5.72987">
        <ele>298.39999389648</ele>
        <time>2021-10-03T05:03:54.000Z</time>
      </trkpt>
      <trkpt lat="45.19777" lon="5.72988">
        <ele>298.79998779297</ele>
        <time>2021-10-03T05:03:57.000Z</time>
      </trkpt>
      <trkpt lat="45.1978" lon="5.7299">
        <ele>299.60000610352</ele>
        <time>2021-10-03T05:04:00.000Z</time>
      </trkpt>
      <trkpt lat="45.19784" lon="5.72992">
        <ele>300</ele>
        <time>2021-10-03T05:04:03.000Z</time>
      </trkpt>
      <trkpt lat="45.19789" lon="5.72994">
        <ele>300.39999389648</ele>
        <time>2021-10-03T05:04:06.000Z</time>
      </trkpt>
      <trkpt lat="45.19792" lon="5.72995">
        <ele>300.60000610352</ele>
        <time>2021-10-03T05:04:07.000Z</time>
      </trkpt>
      <trkpt lat="45.19794" lon="5.72996">
        <ele>300.79998779297</ele>
        <time>2021-10-03T05:04:08.000Z</time>
      </trkpt>
      <trkpt lat="45.19796" lon="5.72996">
        <ele>301</ele>
        <time>2021-10-03T05:04:09.000Z</time>
      </trkpt>
      <trkpt lat="45.198" lon="5.72999">
        <ele>301.39999389648</ele>
        <time>2021-10-03T05:04:11.000Z</time>
      </trkpt>
      <trkpt lat="45.19801" lon="5.72999">
        <ele>301.79998779297</ele>
        <time>2021-10-03T05:04:12.000Z</time>
      </trkpt>
      <trkpt lat="45.19802" lon="5.72998">
        <ele>302</ele>
        <time>2021-10-03T05:04:13.000Z</time>
      </trkpt>
      <trkpt lat="45.19802" lon="5.72992">
        <ele>302.79998779297</ele>
        <time>2021-10-03T05:04:16.000Z</time>
      </trkpt>
      <trkpt lat="45.19801" lon="5.72991">
        <ele>303</ele>
        <time>2021-10-03T05:04:17.000Z</time>
      </trkpt>
      <trkpt lat="45.19793" lon="5.7299">
        <ele>304</ele>
        <time>2021-10-03T05:04:21.000Z</time>
      </trkpt>
      <trkpt lat="45.19791" lon="5.7299">
        <ele>304.20001220703</ele>
        <time>2021-10-03T05:04:22.000Z</time>
      </trkpt>
      <trkpt lat="45.19786" lon="5.72989">
        <ele>304.60000610352</ele>
        <time>2021-10-03T05:04:24.000Z</time>
      </trkpt>
      <trkpt lat="45.19784" lon="5.72987">
        <ele>304.79998779297</ele>
        <time>2021-10-03T05:04:25.000Z</time>
      </trkpt>
      <trkpt lat="45.19783" lon="5.72986">
        <ele>305</ele>
        <time>2021-10-03T05:04:26.000Z</time>
      </trkpt>
      <trkpt lat="45.19781" lon="5.72981">
        <ele>305.20001220703</ele>
        <time>2021-10-03T05:04:28.000Z</time>
      </trkpt>
      <trkpt lat="45.19774" lon="5.72975">
        <ele>306</ele>
        <time>2021-10-03T05:04:32.000Z</time>
      </trkpt>
      <trkpt lat="45.19771" lon="5.72972">
        <ele>306.39999389648</ele>
        <time>2021-10-03T05:04:34.000Z</time>
      </trkpt>
      <trkpt lat="45.19762" lon="5.72964">
        <ele>307.39999389648</ele>
        <time>2021-10-03T05:04:39.000Z</time>
      </trkpt>
      <trkpt lat="45.1976" lon="5.72963">
        <ele>307.79998779297</ele>
        <time>2021-10-03T05:04:40.000Z</time>
      </trkpt>
      <trkpt lat="45.19755" lon="5.72959">
        <ele>308.79998779297</ele>
        <time>2021-10-03T05:04:43.000Z</time>
      </trkpt>
      <trkpt lat="45.19754" lon="5.72958">
        <ele>309.20001220703</ele>
        <time>2021-10-03T05:04:44.000Z</time>
      </trkpt>
      <trkpt lat="45.1975" lon="5.72956">
        <ele>309.79998779297</ele>
        <time>2021-10-03T05:04:46.000Z</time>
      </trkpt>
      <trkpt lat="45.19748" lon="5.72954">
        <ele>310.20001220703</ele>
        <time>2021-10-03T05:04:47.000Z</time>
      </trkpt>
      <trkpt lat="45.19743" lon="5.7295">
        <ele>311</ele>
        <time>2021-10-03T05:04:50.000Z</time>
      </trkpt>
      <trkpt lat="45.19738" lon="5.72945">
        <ele>311.60000610352</ele>
        <time>2021-10-03T05:04:53.000Z</time>
      </trkpt>
      <trkpt lat="45.19736" lon="5.7294">
        <ele>311.79998779297</ele>
        <time>2021-10-03T05:04:55.000Z</time>
      </trkpt>
      <trkpt lat="45.19736" lon="5.72937">
        <ele>312</ele>
        <time>2021-10-03T05:04:56.000Z</time>
      </trkpt>
      <trkpt lat="45.19734" lon="5.72932">
        <ele>312.39999389648</ele>
        <time>2021-10-03T05:04:58.000Z</time>
      </trkpt>
      <trkpt lat="45.19731" lon="5.72926">
        <ele>312.60000610352</ele>
        <time>2021-10-03T05:05:00.000Z</time>
      </trkpt>
      <trkpt lat="45.19729" lon="5.72922">
        <ele>313</ele>
        <time>2021-10-03T05:05:02.000Z</time>
      </trkpt>
      <trkpt lat="45.19728" lon="5.72919">
        <ele>313.39999389648</ele>
        <time>2021-10-03T05:05:03.000Z</time>
      </trkpt>
      <trkpt lat="45.19725" lon="5.72917">
        <ele>313.79998779297</ele>
        <time>2021-10-03T05:05:05.000Z</time>
      </trkpt>
      <trkpt lat="45.19724" lon="5.72914">
        <ele>314</ele>
        <time>2021-10-03T05:05:06.000Z</time>
      </trkpt>
      <trkpt lat="45.19723" lon="5.72912">
        <ele>314.39999389648</ele>
        <time>2021-10-03T05:05:07.000Z</time>
      </trkpt>
      <trkpt lat="45.19715" lon="5.72902">
        <ele>315.39999389648</ele>
        <time>2021-10-03T05:05:12.000Z</time>
      </trkpt>
      <trkpt lat="45.19714" lon="5.729">
        <ele>315.39999389648</ele>
        <time>2021-10-03T05:05:13.000Z</time>
      </trkpt>
      <trkpt lat="45.19707" lon="5.72885">
        <ele>316.39999389648</ele>
        <time>2021-10-03T05:05:19.000Z</time>
      </trkpt>
      <trkpt lat="45.19706" lon="5.72883">
        <ele>316.79998779297</ele>
        <time>2021-10-03T05:05:20.000Z</time>
      </trkpt>
      <trkpt lat="45.19702" lon="5.72879">
        <ele>317.60000610352</ele>
        <time>2021-10-03T05:05:22.000Z</time>
      </trkpt>
      <trkpt lat="45.19698" lon="5.72874">
        <ele>318.20001220703</ele>
        <time>2021-10-03T05:05:25.000Z</time>
      </trkpt>
      <trkpt lat="45.19695" lon="5.7287">
        <ele>318.79998779297</ele>
        <time>2021-10-03T05:05:27.000Z</time>
      </trkpt>
      <trkpt lat="45.19693" lon="5.72865">
        <ele>319</ele>
        <time>2021-10-03T05:05:29.000Z</time>
      </trkpt>
      <trkpt lat="45.1969" lon="5.7286">
        <ele>319.60000610352</ele>
        <time>2021-10-03T05:05:31.000Z</time>
      </trkpt>
      <trkpt lat="45.19688" lon="5.72855">
        <ele>319.79998779297</ele>
        <time>2021-10-03T05:05:33.000Z</time>
      </trkpt>
      <trkpt lat="45.19686" lon="5.72851">
        <ele>320.20001220703</ele>
        <time>2021-10-03T05:05:35.000Z</time>
      </trkpt>
      <trkpt lat="45.19683" lon="5.72846">
        <ele>320.60000610352</ele>
        <time>2021-10-03T05:05:37.000Z</time>
      </trkpt>
      <trkpt lat="45.19682" lon="5.72841">
        <ele>321.39999389648</ele>
        <time>2021-10-03T05:05:39.000Z</time>
      </trkpt>
      <trkpt lat="45.19683" lon="5.7284">
        <ele>321.60000610352</ele>
        <time>2021-10-03T05:05:40.000Z</time>
      </trkpt>
      <trkpt lat="45.19686" lon="5.72839">
        <ele>322.79998779297</ele>
        <time>2021-10-03T05:05:42.000Z</time>
      </trkpt>
      <trkpt lat="45.19687" lon="5.72838">
        <ele>323.20001220703</ele>
        <time>2021-10-03T05:05:43.000Z</time>
      </trkpt>
      <trkpt lat="45.19689" lon="5.7284">
        <ele>323.60000610352</ele>
        <time>2021-10-03T05:05:45.000Z</time>
      </trkpt>
      <trkpt lat="45.19694" lon="5.72845">
        <ele>324</ele>
        <time>2021-10-03T05:05:47.000Z</time>
      </trkpt>
      <trkpt lat="45.19703" lon="5.72852">
        <ele>325</ele>
        <time>2021-10-03T05:05:52.000Z</time>
      </trkpt>
      <trkpt lat="45.19713" lon="5.72857">
        <ele>326</ele>
        <time>2021-10-03T05:05:58.000Z</time>
      </trkpt>
      <trkpt lat="45.19714" lon="5.72859">
        <ele>326.20001220703</ele>
        <time>2021-10-03T05:05:59.000Z</time>
      </trkpt>
      <trkpt lat="45.19726" lon="5.72867">
        <ele>327.39999389648</ele>
        <time>2021-10-03T05:06:04.000Z</time>
      </trkpt>
      <trkpt lat="45.19734" lon="5.72869">
        <ele>328.20001220703</ele>
        <time>2021-10-03T05:06:08.000Z</time>
      </trkpt>
      <trkpt lat="45.19736" lon="5.7287">
        <ele>328.39999389648</ele>
        <time>2021-10-03T05:06:09.000Z</time>
      </trkpt>
      <trkpt lat="45.1974" lon="5.72872">
        <ele>329</ele>
        <time>2021-10-03T05:06:11.000Z</time>
      </trkpt>
      <trkpt lat="45.19743" lon="5.72874">
        <ele>329.39999389648</ele>
        <time>2021-10-03T05:06:13.000Z</time>
      </trkpt>
      <trkpt lat="45.19753" lon="5.72882">
        <ele>330.60000610352</ele>
        <time>2021-10-03T05:06:19.000Z</time>
      </trkpt>
      <trkpt lat="45.19757" lon="5.72883">
        <ele>330.79998779297</ele>
        <time>2021-10-03T05:06:21.000Z</time>
      </trkpt>
      <trkpt lat="45.19762" lon="5.72886">
        <ele>331.39999389648</ele>
        <time>2021-10-03T05:06:24.000Z</time>
      </trkpt>
      <trkpt lat="45.19765" lon="5.72887">
        <ele>331.60000610352</ele>
        <time>2021-10-03T05:06:25.000Z</time>
      </trkpt>
      <trkpt lat="45.1977" lon="5.72891">
        <ele>332.39999389648</ele>
        <time>2021-10-03T05:06:28.000Z</time>
      </trkpt>
      <trkpt lat="45.19773" lon="5.72892">
        <ele>332.60000610352</ele>
        <time>2021-10-03T05:06:30.000Z</time>
      </trkpt>
      <trkpt lat="45.19773" lon="5.72893">
        <ele>333.20001220703</ele>
        <time>2021-10-03T05:06:31.000Z</time>
      </trkpt>
      <trkpt lat="45.19777" lon="5.72895">
        <ele>333.79998779297</ele>
        <time>2021-10-03T05:06:33.000Z</time>
      </trkpt>
      <trkpt lat="45.19779" lon="5.72895">
        <ele>333.79998779297</ele>
        <time>2021-10-03T05:06:34.000Z</time>
      </trkpt>
      <trkpt lat="45.19784" lon="5.72896">
        <ele>334.20001220703</ele>
        <time>2021-10-03T05:06:37.000Z</time>
      </trkpt>
      <trkpt lat="45.19789" lon="5.72897">
        <ele>334.79998779297</ele>
        <time>2021-10-03T05:06:41.000Z</time>
      </trkpt>
      <trkpt lat="45.19788" lon="5.72896">
        <ele>335</ele>
        <time>2021-10-03T05:06:43.000Z</time>
      </trkpt>
      <trkpt lat="45.19787" lon="5.72895">
        <ele>335.39999389648</ele>
        <time>2021-10-03T05:06:44.000Z</time>
      </trkpt>
      <trkpt lat="45.19785" lon="5.72893">
        <ele>336</ele>
        <time>2021-10-03T05:06:46.000Z</time>
      </trkpt>
      <trkpt lat="45.19782" lon="5.72888">
        <ele>336.39999389648</ele>
        <time>2021-10-03T05:06:49.000Z</time>
      </trkpt>
      <trkpt lat="45.1978" lon="5.72885">
        <ele>336.60000610352</ele>
        <time>2021-10-03T05:06:51.000Z</time>
      </trkpt>
      <trkpt lat="45.19779" lon="5.72882">
        <ele>337</ele>
        <time>2021-10-03T05:06:53.000Z</time>
      </trkpt>
      <trkpt lat="45.19774" lon="5.72878">
        <ele>338</ele>
        <time>2021-10-03T05:06:56.000Z</time>
      </trkpt>
      <trkpt lat="45.19771" lon="5.72875">
        <ele>338.60000610352</ele>
        <time>2021-10-03T05:06:58.000Z</time>
      </trkpt>
      <trkpt lat="45.1977" lon="5.72873">
        <ele>339</ele>
        <time>2021-10-03T05:06:59.000Z</time>
      </trkpt>
      <trkpt lat="45.19766" lon="5.72866">
        <ele>340</ele>
        <time>2021-10-03T05:07:03.000Z</time>
      </trkpt>
      <trkpt lat="45.19764" lon="5.72864">
        <ele>340.79998779297</ele>
        <time>2021-10-03T05:07:04.000Z</time>
      </trkpt>
      <trkpt lat="45.19762" lon="5.72863">
        <ele>341.39999389648</ele>
        <time>2021-10-03T05:07:05.000Z</time>
      </trkpt>
      <trkpt lat="45.1976" lon="5.72863">
        <ele>341.79998779297</ele>
        <time>2021-10-03T05:07:06.000Z</time>
      </trkpt>
      <trkpt lat="45.19758" lon="5.72863">
        <ele>342.20001220703</ele>
        <time>2021-10-03T05:07:07.000Z</time>
      </trkpt>
      <trkpt lat="45.19757" lon="5.72861">
        <ele>342.39999389648</ele>
        <time>2021-10-03T05:07:08.000Z</time>
      </trkpt>
      <trkpt lat="45.19752" lon="5.72854">
        <ele>343.39999389648</ele>
        <time>2021-10-03T05:07:11.000Z</time>
      </trkpt>
      <trkpt lat="45.19746" lon="5.72849">
        <ele>344</ele>
        <time>2021-10-03T05:07:14.000Z</time>
      </trkpt>
      <trkpt lat="45.1974" lon="5.72841">
        <ele>344.39999389648</ele>
        <time>2021-10-03T05:07:18.000Z</time>
      </trkpt>
      <trkpt lat="45.19737" lon="5.72835">
        <ele>344.79998779297</ele>
        <time>2021-10-03T05:07:21.000Z</time>
      </trkpt>
      <trkpt lat="45.19736" lon="5.72834">
        <ele>344.79998779297</ele>
        <time>2021-10-03T05:07:22.000Z</time>
      </trkpt>
      <trkpt lat="45.19738" lon="5.72832">
        <ele>345.39999389648</ele>
        <time>2021-10-03T05:07:24.000Z</time>
      </trkpt>
      <trkpt lat="45.1974" lon="5.72832">
        <ele>345.79998779297</ele>
        <time>2021-10-03T05:07:25.000Z</time>
      </trkpt>
      <trkpt lat="45.19745" lon="5.72835">
        <ele>346.79998779297</ele>
        <time>2021-10-03T05:07:29.000Z</time>
      </trkpt>
      <trkpt lat="45.19746" lon="5.72837">
        <ele>346.79998779297</ele>
        <time>2021-10-03T05:07:30.000Z</time>
      </trkpt>
      <trkpt lat="45.19748" lon="5.72838">
        <ele>347</ele>
        <time>2021-10-03T05:07:31.000Z</time>
      </trkpt>
      <trkpt lat="45.19752" lon="5.7284">
        <ele>347.20001220703</ele>
        <time>2021-10-03T05:07:35.000Z</time>
      </trkpt>
      <trkpt lat="45.19757" lon="5.7284">
        <ele>348</ele>
        <time>2021-10-03T05:07:38.000Z</time>
      </trkpt>
      <trkpt lat="45.1976" lon="5.72841">
        <ele>348.20001220703</ele>
        <time>2021-10-03T05:07:39.000Z</time>
      </trkpt>
      <trkpt lat="45.19763" lon="5.72843">
        <ele>349.20001220703</ele>
        <time>2021-10-03T05:07:41.000Z</time>
      </trkpt>
      <trkpt lat="45.19766" lon="5.72844">
        <ele>350</ele>
        <time>2021-10-03T05:07:43.000Z</time>
      </trkpt>
      <trkpt lat="45.19769" lon="5.72845">
        <ele>350.39999389648</ele>
        <time>2021-10-03T05:07:45.000Z</time>
      </trkpt>
      <trkpt lat="45.19774" lon="5.72849">
        <ele>351</ele>
        <time>2021-10-03T05:07:49.000Z</time>
      </trkpt>
      <trkpt lat="45.19776" lon="5.72851">
        <ele>351.20001220703</ele>
        <time>2021-10-03T05:07:50.000Z</time>
      </trkpt>
      <trkpt lat="45.19777" lon="5.72853">
        <ele>351.60000610352</ele>
        <time>2021-10-03T05:07:51.000Z</time>
      </trkpt>
      <trkpt lat="45.19782" lon="5.72856">
        <ele>352.60000610352</ele>
        <time>2021-10-03T05:07:55.000Z</time>
      </trkpt>
      <trkpt lat="45.19785" lon="5.72857">
        <ele>353</ele>
        <time>2021-10-03T05:07:57.000Z</time>
      </trkpt>
      <trkpt lat="45.19787" lon="5.72858">
        <ele>353.60000610352</ele>
        <time>2021-10-03T05:07:59.000Z</time>
      </trkpt>
      <trkpt lat="45.1979" lon="5.72858">
        <ele>353.79998779297</ele>
        <time>2021-10-03T05:08:01.000Z</time>
      </trkpt>
      <trkpt lat="45.19791" lon="5.72858">
        <ele>353.79998779297</ele>
        <time>2021-10-03T05:08:02.000Z</time>
      </trkpt>
      <trkpt lat="45.19789" lon="5.72857">
        <ele>354</ele>
        <time>2021-10-03T05:08:04.000Z</time>
      </trkpt>
      <trkpt lat="45.19783" lon="5.72852">
        <ele>354.39999389648</ele>
        <time>2021-10-03T05:08:10.000Z</time>
      </trkpt>
      <trkpt lat="45.19781" lon="5.72851">
        <ele>354.79998779297</ele>
        <time>2021-10-03T05:08:11.000Z</time>
      </trkpt>
      <trkpt lat="45.19777" lon="5.72845">
        <ele>356</ele>
        <time>2021-10-03T05:08:15.000Z</time>
      </trkpt>
      <trkpt lat="45.19773" lon="5.72835">
        <ele>357.20001220703</ele>
        <time>2021-10-03T05:08:19.000Z</time>
      </trkpt>
      <trkpt lat="45.19772" lon="5.72834">
        <ele>357.79998779297</ele>
        <time>2021-10-03T05:08:20.000Z</time>
      </trkpt>
      <trkpt lat="45.1977" lon="5.72833">
        <ele>358.20001220703</ele>
        <time>2021-10-03T05:08:21.000Z</time>
      </trkpt>
      <trkpt lat="45.19767" lon="5.72829">
        <ele>359.39999389648</ele>
        <time>2021-10-03T05:08:24.000Z</time>
      </trkpt>
      <trkpt lat="45.19765" lon="5.72826">
        <ele>360.60000610352</ele>
        <time>2021-10-03T05:08:26.000Z</time>
      </trkpt>
      <trkpt lat="45.19764" lon="5.72825">
        <ele>360.79998779297</ele>
        <time>2021-10-03T05:08:27.000Z</time>
      </trkpt>
      <trkpt lat="45.19754" lon="5.72814">
        <ele>361.39999389648</ele>
        <time>2021-10-03T05:08:34.000Z</time>
      </trkpt>
      <trkpt lat="45.19751" lon="5.7281">
        <ele>361.79998779297</ele>
        <time>2021-10-03T05:08:36.000Z</time>
      </trkpt>
      <trkpt lat="45.19744" lon="5.72798">
        <ele>362.39999389648</ele>
        <time>2021-10-03T05:08:41.000Z</time>
      </trkpt>
      <trkpt lat="45.19745" lon="5.72797">
        <ele>362.79998779297</ele>
        <time>2021-10-03T05:08:42.000Z</time>
      </trkpt>
      <trkpt lat="45.19747" lon="5.72797">
        <ele>363.60000610352</ele>
        <time>2021-10-03T05:08:44.000Z</time>
      </trkpt>
      <trkpt lat="45.19748" lon="5.72798">
        <ele>363.79998779297</ele>
        <time>2021-10-03T05:08:45.000Z</time>
      </trkpt>
      <trkpt lat="45.1975" lon="5.72799">
        <ele>364</ele>
        <time>2021-10-03T05:08:46.000Z</time>
      </trkpt>
      <trkpt lat="45.19753" lon="5.72801">
        <ele>364.20001220703</ele>
        <time>2021-10-03T05:08:47.000Z</time>
      </trkpt>
      <trkpt lat="45.19758" lon="5.72804">
        <ele>365</ele>
        <time>2021-10-03T05:08:49.000Z</time>
      </trkpt>
      <trkpt lat="45.1976" lon="5.72805">
        <ele>365.20001220703</ele>
        <time>2021-10-03T05:08:50.000Z</time>
      </trkpt>
      <trkpt lat="45.19764" lon="5.72806">
        <ele>365.79998779297</ele>
        <time>2021-10-03T05:08:52.000Z</time>
      </trkpt>
      <trkpt lat="45.19765" lon="5.72806">
        <ele>366</ele>
        <time>2021-10-03T05:08:53.000Z</time>
      </trkpt>
      <trkpt lat="45.19766" lon="5.72806">
        <ele>366.20001220703</ele>
        <time>2021-10-03T05:08:54.000Z</time>
      </trkpt>
      <trkpt lat="45.1977" lon="5.72808">
        <ele>366.79998779297</ele>
        <time>2021-10-03T05:08:57.000Z</time>
      </trkpt>
      <trkpt lat="45.19774" lon="5.72811">
        <ele>367.39999389648</ele>
        <time>2021-10-03T05:08:59.000Z</time>
      </trkpt>
      <trkpt lat="45.19783" lon="5.72815">
        <ele>368.39999389648</ele>
        <time>2021-10-03T05:09:03.000Z</time>
      </trkpt>
      <trkpt lat="45.1979" lon="5.72815">
        <ele>368.79998779297</ele>
        <time>2021-10-03T05:09:06.000Z</time>
      </trkpt>
      <trkpt lat="45.19792" lon="5.72816">
        <ele>369.20001220703</ele>
        <time>2021-10-03T05:09:08.000Z</time>
      </trkpt>
      <trkpt lat="45.19796" lon="5.72818">
        <ele>369.60000610352</ele>
        <time>2021-10-03T05:09:10.000Z</time>
      </trkpt>
      <trkpt lat="45.19805" lon="5.72824">
        <ele>370.79998779297</ele>
        <time>2021-10-03T05:09:14.000Z</time>
      </trkpt>
      <trkpt lat="45.19812" lon="5.72826">
        <ele>372</ele>
        <time>2021-10-03T05:09:18.000Z</time>
      </trkpt>
      <trkpt lat="45.19813" lon="5.72827">
        <ele>372.20001220703</ele>
        <time>2021-10-03T05:09:19.000Z</time>
      </trkpt>
      <trkpt lat="45.19816" lon="5.72828">
        <ele>372.60000610352</ele>
        <time>2021-10-03T05:09:22.000Z</time>
      </trkpt>
      <trkpt lat="45.19814" lon="5.72827">
        <ele>372.79998779297</ele>
        <time>2021-10-03T05:09:23.000Z</time>
      </trkpt>
      <trkpt lat="45.19811" lon="5.72826">
        <ele>373</ele>
        <time>2021-10-03T05:09:25.000Z</time>
      </trkpt>
      <trkpt lat="45.19802" lon="5.72822">
        <ele>373.79998779297</ele>
        <time>2021-10-03T05:09:29.000Z</time>
      </trkpt>
      <trkpt lat="45.19798" lon="5.72819">
        <ele>374.20001220703</ele>
        <time>2021-10-03T05:09:31.000Z</time>
      </trkpt>
      <trkpt lat="45.19793" lon="5.72813">
        <ele>374.79998779297</ele>
        <time>2021-10-03T05:09:34.000Z</time>
      </trkpt>
      <trkpt lat="45.19788" lon="5.72806">
        <ele>375.39999389648</ele>
        <time>2021-10-03T05:09:37.000Z</time>
      </trkpt>
      <trkpt lat="45.19785" lon="5.72799">
        <ele>376.20001220703</ele>
        <time>2021-10-03T05:09:40.000Z</time>
      </trkpt>
      <trkpt lat="45.19786" lon="5.72799">
        <ele>376.39999389648</ele>
        <time>2021-10-03T05:09:41.000Z</time>
      </trkpt>
      <trkpt lat="45.19789" lon="5.728">
        <ele>376.79998779297</ele>
        <time>2021-10-03T05:09:43.000Z</time>
      </trkpt>
      <trkpt lat="45.19791" lon="5.72801">
        <ele>376.79998779297</ele>
        <time>2021-10-03T05:09:44.000Z</time>
      </trkpt>
      <trkpt lat="45.19797" lon="5.72805">
        <ele>377.39999389648</ele>
        <time>2021-10-03T05:09:47.000Z</time>
      </trkpt>
      <trkpt lat="45.19802" lon="5.72807">
        <ele>378.20001220703</ele>
        <time>2021-10-03T05:09:49.000Z</time>
      </trkpt>
      <trkpt lat="45.19804" lon="5.72809">
        <ele>378.39999389648</ele>
        <time>2021-10-03T05:09:50.000Z</time>
      </trkpt>
      <trkpt lat="45.1981" lon="5.72812">
        <ele>379.39999389648</ele>
        <time>2021-10-03T05:09:54.000Z</time>
      </trkpt>
      <trkpt lat="45.1981" lon="5.72812">
        <ele>379.60000610352</ele>
        <time>2021-10-03T05:09:55.000Z</time>
      </trkpt>
      <trkpt lat="45.19814" lon="5.72813">
        <ele>380</ele>
        <time>2021-10-03T05:09:58.000Z</time>
      </trkpt>
      <trkpt lat="45.19819" lon="5.72814">
        <ele>380.60000610352</ele>
        <time>2021-10-03T05:10:00.000Z</time>
      </trkpt>
      <trkpt lat="45.19827" lon="5.72815">
        <ele>381.79998779297</ele>
        <time>2021-10-03T05:10:05.000Z</time>
      </trkpt>
      <trkpt lat="45.19826" lon="5.72814">
        <ele>382</ele>
        <time>2021-10-03T05:10:06.000Z</time>
      </trkpt>
      <trkpt lat="45.1982" lon="5.7281">
        <ele>383</ele>
        <time>2021-10-03T05:10:10.000Z</time>
      </trkpt>
      <trkpt lat="45.19818" lon="5.72807">
        <ele>383.20001220703</ele>
        <time>2021-10-03T05:10:12.000Z</time>
      </trkpt>
      <trkpt lat="45.19812" lon="5.72803">
        <ele>384</ele>
        <time>2021-10-03T05:10:15.000Z</time>
      </trkpt>
      <trkpt lat="45.1981" lon="5.72801">
        <ele>384.20001220703</ele>
        <time>2021-10-03T05:10:16.000Z</time>
      </trkpt>
      <trkpt lat="45.19812" lon="5.72797">
        <ele>384.39999389648</ele>
        <time>2021-10-03T05:10:18.000Z</time>
      </trkpt>
      <trkpt lat="45.19816" lon="5.72797">
        <ele>385</ele>
        <time>2021-10-03T05:10:20.000Z</time>
      </trkpt>
      <trkpt lat="45.19818" lon="5.72798">
        <ele>385.39999389648</ele>
        <time>2021-10-03T05:10:21.000Z</time>
      </trkpt>
      <trkpt lat="45.19821" lon="5.72799">
        <ele>385.60000610352</ele>
        <time>2021-10-03T05:10:22.000Z</time>
      </trkpt>
      <trkpt lat="45.19822" lon="5.72801">
        <ele>385.60000610352</ele>
        <time>2021-10-03T05:10:23.000Z</time>
      </trkpt>
      <trkpt lat="45.19826" lon="5.72806">
        <ele>386.20001220703</ele>
        <time>2021-10-03T05:10:25.000Z</time>
      </trkpt>
      <trkpt lat="45.1983" lon="5.7281">
        <ele>386.79998779297</ele>
        <time>2021-10-03T05:10:27.000Z</time>
      </trkpt>
      <trkpt lat="45.19835" lon="5.72813">
        <ele>387.39999389648</ele>
        <time>2021-10-03T05:10:30.000Z</time>
      </trkpt>
      <trkpt lat="45.19837" lon="5.72816">
        <ele>387.60000610352</ele>
        <time>2021-10-03T05:10:32.000Z</time>
      </trkpt>
      <trkpt lat="45.19839" lon="5.72816">
        <ele>387.79998779297</ele>
        <time>2021-10-03T05:10:34.000Z</time>
      </trkpt>
      <trkpt lat="45.19839" lon="5.72814">
        <ele>388</ele>
        <time>2021-10-03T05:10:35.000Z</time>
      </trkpt>
      <trkpt lat="45.19835" lon="5.72808">
        <ele>388.39999389648</ele>
        <time>2021-10-03T05:10:38.000Z</time>
      </trkpt>
      <trkpt lat="45.19833" lon="5.72806">
        <ele>388.60000610352</ele>
        <time>2021-10-03T05:10:39.000Z</time>
      </trkpt>
      <trkpt lat="45.19832" lon="5.72804">
        <ele>388.60000610352</ele>
        <time>2021-10-03T05:10:40.000Z</time>
      </trkpt>
      <trkpt lat="45.19828" lon="5.72797">
        <ele>389.39999389648</ele>
        <time>2021-10-03T05:10:43.000Z</time>
      </trkpt>
      <trkpt lat="45.19825" lon="5.72793">
        <ele>391</ele>
        <time>2021-10-03T05:10:45.000Z</time>
      </trkpt>
      <trkpt lat="45.19823" lon="5.72789">
        <ele>391.60000610352</ele>
        <time>2021-10-03T05:10:47.000Z</time>
      </trkpt>
      <trkpt lat="45.19819" lon="5.72784">
        <ele>392</ele>
        <time>2021-10-03T05:10:50.000Z</time>
      </trkpt>
      <trkpt lat="45.19814" lon="5.72779">
        <ele>392.20001220703</ele>
        <time>2021-10-03T05:10:53.000Z</time>
      </trkpt>
      <trkpt lat="45.19808" lon="5.72774">
        <ele>393.39999389648</ele>
        <time>2021-10-03T05:10:57.000Z</time>
      </trkpt>
      <trkpt lat="45.19805" lon="5.72769">
        <ele>394</ele>
        <time>2021-10-03T05:10:59.000Z</time>
      </trkpt>
      <trkpt lat="45.19803" lon="5.72767">
        <ele>394.20001220703</ele>
        <time>2021-10-03T05:11:00.000Z</time>
      </trkpt>
      <trkpt lat="45.19802" lon="5.72765">
        <ele>394.39999389648</ele>
        <time>2021-10-03T05:11:01.000Z</time>
      </trkpt>
      <trkpt lat="45.19799" lon="5.72758">
        <ele>394.60000610352</ele>
        <time>2021-10-03T05:11:05.000Z</time>
      </trkpt>
      <trkpt lat="45.19803" lon="5.72756">
        <ele>395.20001220703</ele>
        <time>2021-10-03T05:11:07.000Z</time>
      </trkpt>
      <trkpt lat="45.19807" lon="5.72755">
        <ele>395.39999389648</ele>
        <time>2021-10-03T05:11:09.000Z</time>
      </trkpt>
      <trkpt lat="45.19809" lon="5.72756">
        <ele>395.39999389648</ele>
        <time>2021-10-03T05:11:11.000Z</time>
      </trkpt>
      <trkpt lat="45.19814" lon="5.72758">
        <ele>396</ele>
        <time>2021-10-03T05:11:14.000Z</time>
      </trkpt>
      <trkpt lat="45.19815" lon="5.72759">
        <ele>396.20001220703</ele>
        <time>2021-10-03T05:11:15.000Z</time>
      </trkpt>
      <trkpt lat="45.19818" lon="5.72759">
        <ele>396.79998779297</ele>
        <time>2021-10-03T05:11:17.000Z</time>
      </trkpt>
      <trkpt lat="45.19821" lon="5.72761">
        <ele>397.60000610352</ele>
        <time>2021-10-03T05:11:19.000Z</time>
      </trkpt>
      <trkpt lat="45.19823" lon="5.7276">
        <ele>397.79998779297</ele>
        <time>2021-10-03T05:11:20.000Z</time>
      </trkpt>
      <trkpt lat="45.19826" lon="5.7276">
        <ele>398</ele>
        <time>2021-10-03T05:11:21.000Z</time>
      </trkpt>
      <trkpt lat="45.19833" lon="5.7276">
        <ele>398.60000610352</ele>
        <time>2021-10-03T05:11:23.000Z</time>
      </trkpt>
      <trkpt lat="45.19837" lon="5.72762">
        <ele>399.20001220703</ele>
        <time>2021-10-03T05:11:25.000Z</time>
      </trkpt>
      <trkpt lat="45.19845" lon="5.72766">
        <ele>399.79998779297</ele>
        <time>2021-10-03T05:11:29.000Z</time>
      </trkpt>
      <trkpt lat="45.19846" lon="5.72766">
        <ele>400</ele>
        <time>2021-10-03T05:11:30.000Z</time>
      </trkpt>
      <trkpt lat="45.19847" lon="5.72765">
        <ele>400.20001220703</ele>
        <time>2021-10-03T05:11:31.000Z</time>
      </trkpt>
      <trkpt lat="45.19847" lon="5.72765">
        <ele>400.79998779297</ele>
        <time>2021-10-03T05:11:32.000Z</time>
      </trkpt>
      <trkpt lat="45.19845" lon="5.72764">
        <ele>401.39999389648</ele>
        <time>2021-10-03T05:11:34.000Z</time>
      </trkpt>
      <trkpt lat="45.1984" lon="5.7276">
        <ele>402.79998779297</ele>
        <time>2021-10-03T05:11:37.000Z</time>
      </trkpt>
      <trkpt lat="45.19837" lon="5.72757">
        <ele>403.60000610352</ele>
        <time>2021-10-03T05:11:39.000Z</time>
      </trkpt>
      <trkpt lat="45.19835" lon="5.72756">
        <ele>404</ele>
        <time>2021-10-03T05:11:40.000Z</time>
      </trkpt>
      <trkpt lat="45.19827" lon="5.72751">
        <ele>405</ele>
        <time>2021-10-03T05:11:45.000Z</time>
      </trkpt>
      <trkpt lat="45.19825" lon="5.72751">
        <ele>405.20001220703</ele>
        <time>2021-10-03T05:11:46.000Z</time>
      </trkpt>
      <trkpt lat="45.19822" lon="5.72748">
        <ele>406.20001220703</ele>
        <time>2021-10-03T05:11:48.000Z</time>
      </trkpt>
      <trkpt lat="45.19817" lon="5.72741">
        <ele>407.20001220703</ele>
        <time>2021-10-03T05:11:52.000Z</time>
      </trkpt>
      <trkpt lat="45.19814" lon="5.72738">
        <ele>407.39999389648</ele>
        <time>2021-10-03T05:11:54.000Z</time>
      </trkpt>
      <trkpt lat="45.19809" lon="5.72731">
        <ele>407.60000610352</ele>
        <time>2021-10-03T05:11:58.000Z</time>
      </trkpt>
      <trkpt lat="45.19806" lon="5.72727">
        <ele>408.60000610352</ele>
        <time>2021-10-03T05:12:00.000Z</time>
      </trkpt>
      <trkpt lat="45.198" lon="5.72718">
        <ele>409.20001220703</ele>
        <time>2021-10-03T05:12:05.000Z</time>
      </trkpt>
      <trkpt lat="45.19796" lon="5.72711">
        <ele>409.60000610352</ele>
        <time>2021-10-03T05:12:08.000Z</time>
      </trkpt>
      <trkpt lat="45.19797" lon="5.72707">
        <ele>410</ele>
        <time>2021-10-03T05:12:10.000Z</time>
      </trkpt>
      <trkpt lat="45.19798" lon="5.72706">
        <ele>410.39999389648</ele>
        <time>2021-10-03T05:12:11.000Z</time>
      </trkpt>
      <trkpt lat="45.19801" lon="5.72707">
        <ele>411</ele>
        <time>2021-10-03T05:12:13.000Z</time>
      </trkpt>
      <trkpt lat="45.19802" lon="5.72708">
        <ele>411.39999389648</ele>
        <time>2021-10-03T05:12:15.000Z</time>
      </trkpt>
      <trkpt lat="45.19808" lon="5.72715">
        <ele>412.20001220703</ele>
        <time>2021-10-03T05:12:19.000Z</time>
      </trkpt>
      <trkpt lat="45.19812" lon="5.72718">
        <ele>412.60000610352</ele>
        <time>2021-10-03T05:12:21.000Z</time>
      </trkpt>
      <trkpt lat="45.19819" lon="5.72719">
        <ele>413.39999389648</ele>
        <time>2021-10-03T05:12:24.000Z</time>
      </trkpt>
      <trkpt lat="45.19822" lon="5.72721">
        <ele>413.60000610352</ele>
        <time>2021-10-03T05:12:26.000Z</time>
      </trkpt>
      <trkpt lat="45.19835" lon="5.72732">
        <ele>414.39999389648</ele>
        <time>2021-10-03T05:12:33.000Z</time>
      </trkpt>
      <trkpt lat="45.19842" lon="5.72739">
        <ele>415.60000610352</ele>
        <time>2021-10-03T05:12:37.000Z</time>
      </trkpt>
      <trkpt lat="45.19848" lon="5.72744">
        <ele>416</ele>
        <time>2021-10-03T05:12:40.000Z</time>
      </trkpt>
      <trkpt lat="45.19851" lon="5.72747">
        <ele>416.39999389648</ele>
        <time>2021-10-03T05:12:42.000Z</time>
      </trkpt>
      <trkpt lat="45.19853" lon="5.7275">
        <ele>416.39999389648</ele>
        <time>2021-10-03T05:12:44.000Z</time>
      </trkpt>
      <trkpt lat="45.19854" lon="5.72749">
        <ele>416.60000610352</ele>
        <time>2021-10-03T05:12:45.000Z</time>
      </trkpt>
      <trkpt lat="45.19853" lon="5.72743">
        <ele>417.20001220703</ele>
        <time>2021-10-03T05:12:48.000Z</time>
      </trkpt>
      <trkpt lat="45.19852" lon="5.72741">
        <ele>417.60000610352</ele>
        <time>2021-10-03T05:12:49.000Z</time>
      </trkpt>
      <trkpt lat="45.19851" lon="5.72739">
        <ele>418.20001220703</ele>
        <time>2021-10-03T05:12:51.000Z</time>
      </trkpt>
      <trkpt lat="45.19852" lon="5.72737">
        <ele>418.79998779297</ele>
        <time>2021-10-03T05:12:52.000Z</time>
      </trkpt>
      <trkpt lat="45.19853" lon="5.72737">
        <ele>419.20001220703</ele>
        <time>2021-10-03T05:12:53.000Z</time>
      </trkpt>
      <trkpt lat="45.19856" lon="5.72738">
        <ele>419.79998779297</ele>
        <time>2021-10-03T05:12:56.000Z</time>
      </trkpt>
      <trkpt lat="45.19857" lon="5.72739">
        <ele>420.20001220703</ele>
        <time>2021-10-03T05:12:57.000Z</time>
      </trkpt>
      <trkpt lat="45.19858" lon="5.72739">
        <ele>420.60000610352</ele>
        <time>2021-10-03T05:12:59.000Z</time>
      </trkpt>
      <trkpt lat="45.19859" lon="5.7274">
        <ele>421</ele>
        <time>2021-10-03T05:13:00.000Z</time>
      </trkpt>
      <trkpt lat="45.19859" lon="5.72741">
        <ele>421.39999389648</ele>
        <time>2021-10-03T05:13:01.000Z</time>
      </trkpt>
      <trkpt lat="45.1986" lon="5.72743">
        <ele>421.79998779297</ele>
        <time>2021-10-03T05:13:02.000Z</time>
      </trkpt>
      <trkpt lat="45.19862" lon="5.72745">
        <ele>422.20001220703</ele>
        <time>2021-10-03T05:13:04.000Z</time>
      </trkpt>
      <trkpt lat="45.19862" lon="5.72744">
        <ele>422.20001220703</ele>
        <time>2021-10-03T05:13:05.000Z</time>
      </trkpt>
      <trkpt lat="45.19862" lon="5.72743">
        <ele>422.39999389648</ele>
        <time>2021-10-03T05:13:06.000Z</time>
      </trkpt>
      <trkpt lat="45.19862" lon="5.72743">
        <ele>423.20001220703</ele>
        <time>2021-10-03T05:13:08.000Z</time>
      </trkpt>
      <trkpt lat="45.19862" lon="5.72743">
        <ele>423.60000610352</ele>
        <time>2021-10-03T05:13:09.000Z</time>
      </trkpt>
      <trkpt lat="45.19862" lon="5.72742">
        <ele>423.79998779297</ele>
        <time>2021-10-03T05:13:10.000Z</time>
      </trkpt>
      <trkpt lat="45.19858" lon="5.72742">
        <ele>437</ele>
        <time>2021-10-03T05:13:46.000Z</time>
      </trkpt>
      <trkpt lat="45.19854" lon="5.72748">
        <ele>437.60000610352</ele>
        <time>2021-10-03T05:13:49.000Z</time>
      </trkpt>
      <trkpt lat="45.19855" lon="5.72755">
        <ele>439.20001220703</ele>
        <time>2021-10-03T05:13:52.000Z</time>
      </trkpt>
      <trkpt lat="45.19853" lon="5.72756">
        <ele>440.20001220703</ele>
        <time>2021-10-03T05:13:55.000Z</time>
      </trkpt>
      <trkpt lat="45.19852" lon="5.72755">
        <ele>440.39999389648</ele>
        <time>2021-10-03T05:13:56.000Z</time>
      </trkpt>
      <trkpt lat="45.19849" lon="5.72746">
        <ele>441</ele>
        <time>2021-10-03T05:14:00.000Z</time>
      </trkpt>
      <trkpt lat="45.19846" lon="5.72741">
        <ele>441.20001220703</ele>
        <time>2021-10-03T05:14:03.000Z</time>
      </trkpt>
      <trkpt lat="45.19846" lon="5.72741">
        <ele>441.20001220703</ele>
        <time>2021-10-03T05:14:04.000Z</time>
      </trkpt>
      <trkpt lat="45.19847" lon="5.72736">
        <ele>442.39999389648</ele>
        <time>2021-10-03T05:14:08.000Z</time>
      </trkpt>
      <trkpt lat="45.19848" lon="5.72735">
        <ele>442.60000610352</ele>
        <time>2021-10-03T05:14:09.000Z</time>
      </trkpt>
      <trkpt lat="45.19842" lon="5.72716">
        <ele>446.20001220703</ele>
        <time>2021-10-03T05:14:23.000Z</time>
      </trkpt>
      <trkpt lat="45.1984" lon="5.72717">
        <ele>446.20001220703</ele>
        <time>2021-10-03T05:14:24.000Z</time>
      </trkpt>
      <trkpt lat="45.19834" lon="5.72704">
        <ele>446</ele>
        <time>2021-10-03T05:14:28.000Z</time>
      </trkpt>
      <trkpt lat="45.19832" lon="5.72702">
        <ele>446</ele>
        <time>2021-10-03T05:14:29.000Z</time>
      </trkpt>
      <trkpt lat="45.19822" lon="5.72689">
        <ele>445.39999389648</ele>
        <time>2021-10-03T05:14:35.000Z</time>
      </trkpt>
      <trkpt lat="45.19809" lon="5.72677">
        <ele>444.79998779297</ele>
        <time>2021-10-03T05:14:41.000Z</time>
      </trkpt>
      <trkpt lat="45.19797" lon="5.72665">
        <ele>444.60000610352</ele>
        <time>2021-10-03T05:14:47.000Z</time>
      </trkpt>
      <trkpt lat="45.19795" lon="5.72663">
        <ele>444.60000610352</ele>
        <time>2021-10-03T05:14:48.000Z</time>
      </trkpt>
      <trkpt lat="45.19787" lon="5.72653">
        <ele>444.79998779297</ele>
        <time>2021-10-03T05:14:52.000Z</time>
      </trkpt>
      <trkpt lat="45.1978" lon="5.72649">
        <ele>445</ele>
        <time>2021-10-03T05:14:55.000Z</time>
      </trkpt>
      <trkpt lat="45.19772" lon="5.72637">
        <ele>444.79998779297</ele>
        <time>2021-10-03T05:14:59.000Z</time>
      </trkpt>
      <trkpt lat="45.19759" lon="5.72625">
        <ele>444.79998779297</ele>
        <time>2021-10-03T05:15:05.000Z</time>
      </trkpt>
      <trkpt lat="45.19758" lon="5.72623">
        <ele>444.79998779297</ele>
        <time>2021-10-03T05:15:06.000Z</time>
      </trkpt>
      <trkpt lat="45.19756" lon="5.7262">
        <ele>444.79998779297</ele>
        <time>2021-10-03T05:15:07.000Z</time>
      </trkpt>
      <trkpt lat="45.19752" lon="5.72616">
        <ele>444.79998779297</ele>
        <time>2021-10-03T05:15:09.000Z</time>
      </trkpt>
      <trkpt lat="45.19748" lon="5.72611">
        <ele>445.20001220703</ele>
        <time>2021-10-03T05:15:12.000Z</time>
      </trkpt>
      <trkpt lat="45.19746" lon="5.72611">
        <ele>445.39999389648</ele>
        <time>2021-10-03T05:15:13.000Z</time>
      </trkpt>
      <trkpt lat="45.19744" lon="5.72611">
        <ele>445.39999389648</ele>
        <time>2021-10-03T05:15:14.000Z</time>
      </trkpt>
      <trkpt lat="45.19741" lon="5.72606">
        <ele>445.39999389648</ele>
        <time>2021-10-03T05:15:16.000Z</time>
      </trkpt>
      <trkpt lat="45.19741" lon="5.72599">
        <ele>445.79998779297</ele>
        <time>2021-10-03T05:15:18.000Z</time>
      </trkpt>
      <trkpt lat="45.19742" lon="5.72594">
        <ele>444.60000610352</ele>
        <time>2021-10-03T05:15:20.000Z</time>
      </trkpt>
      <trkpt lat="45.19742" lon="5.72587">
        <ele>443.79998779297</ele>
        <time>2021-10-03T05:15:22.000Z</time>
      </trkpt>
      <trkpt lat="45.19742" lon="5.72584">
        <ele>443.60000610352</ele>
        <time>2021-10-03T05:15:23.000Z</time>
      </trkpt>
      <trkpt lat="45.19741" lon="5.72573">
        <ele>442.20001220703</ele>
        <time>2021-10-03T05:15:26.000Z</time>
      </trkpt>
      <trkpt lat="45.19739" lon="5.72559">
        <ele>442.60000610352</ele>
        <time>2021-10-03T05:15:30.000Z</time>
      </trkpt>
      <trkpt lat="45.19738" lon="5.72535">
        <ele>441.39999389648</ele>
        <time>2021-10-03T05:15:37.000Z</time>
      </trkpt>
      <trkpt lat="45.19738" lon="5.72532">
        <ele>441.20001220703</ele>
        <time>2021-10-03T05:15:38.000Z</time>
      </trkpt>
      <trkpt lat="45.19736" lon="5.72523">
        <ele>441</ele>
        <time>2021-10-03T05:15:41.000Z</time>
      </trkpt>
      <trkpt lat="45.19734" lon="5.72522">
        <ele>442</ele>
        <time>2021-10-03T05:15:42.000Z</time>
      </trkpt>
      <trkpt lat="45.19732" lon="5.72521">
        <ele>442.60000610352</ele>
        <time>2021-10-03T05:15:43.000Z</time>
      </trkpt>
      <trkpt lat="45.19728" lon="5.72517">
        <ele>443</ele>
        <time>2021-10-03T05:15:45.000Z</time>
      </trkpt>
      <trkpt lat="45.19725" lon="5.72508">
        <ele>443.39999389648</ele>
        <time>2021-10-03T05:15:48.000Z</time>
      </trkpt>
      <trkpt lat="45.19728" lon="5.72503">
        <ele>443.60000610352</ele>
        <time>2021-10-03T05:15:50.000Z</time>
      </trkpt>
      <trkpt lat="45.19731" lon="5.72502">
        <ele>443.79998779297</ele>
        <time>2021-10-03T05:15:51.000Z</time>
      </trkpt>
      <trkpt lat="45.19733" lon="5.72502">
        <ele>443.79998779297</ele>
        <time>2021-10-03T05:15:52.000Z</time>
      </trkpt>
      <trkpt lat="45.19739" lon="5.725">
        <ele>443.79998779297</ele>
        <time>2021-10-03T05:15:55.000Z</time>
      </trkpt>
      <trkpt lat="45.19743" lon="5.72496">
        <ele>443.39999389648</ele>
        <time>2021-10-03T05:15:57.000Z</time>
      </trkpt>
      <trkpt lat="45.19751" lon="5.7248">
        <ele>442.39999389648</ele>
        <time>2021-10-03T05:16:02.000Z</time>
      </trkpt>
      <trkpt lat="45.19755" lon="5.7247">
        <ele>442.39999389648</ele>
        <time>2021-10-03T05:16:05.000Z</time>
      </trkpt>
      <trkpt lat="45.19766" lon="5.72453">
        <ele>442</ele>
        <time>2021-10-03T05:16:11.000Z</time>
      </trkpt>
      <trkpt lat="45.19771" lon="5.72444">
        <ele>441.39999389648</ele>
        <time>2021-10-03T05:16:14.000Z</time>
      </trkpt>
      <trkpt lat="45.19775" lon="5.72436">
        <ele>441</ele>
        <time>2021-10-03T05:16:17.000Z</time>
      </trkpt>
      <trkpt lat="45.1978" lon="5.72433">
        <ele>441</ele>
        <time>2021-10-03T05:16:19.000Z</time>
      </trkpt>
      <trkpt lat="45.19784" lon="5.72437">
        <ele>441</ele>
        <time>2021-10-03T05:16:21.000Z</time>
      </trkpt>
      <trkpt lat="45.19784" lon="5.72459">
        <ele>441.79998779297</ele>
        <time>2021-10-03T05:16:27.000Z</time>
      </trkpt>
      <trkpt lat="45.19783" lon="5.72476">
        <ele>442.39999389648</ele>
        <time>2021-10-03T05:16:31.000Z</time>
      </trkpt>
      <trkpt lat="45.19781" lon="5.72478">
        <ele>442.60000610352</ele>
        <time>2021-10-03T05:16:32.000Z</time>
      </trkpt>
      <trkpt lat="45.19776" lon="5.72491">
        <ele>443.39999389648</ele>
        <time>2021-10-03T05:16:36.000Z</time>
      </trkpt>
      <trkpt lat="45.19775" lon="5.72494">
        <ele>443.60000610352</ele>
        <time>2021-10-03T05:16:37.000Z</time>
      </trkpt>
      <trkpt lat="45.19768" lon="5.7251">
        <ele>444.79998779297</ele>
        <time>2021-10-03T05:16:42.000Z</time>
      </trkpt>
      <trkpt lat="45.19767" lon="5.72513">
        <ele>445.20001220703</ele>
        <time>2021-10-03T05:16:43.000Z</time>
      </trkpt>
      <trkpt lat="45.19764" lon="5.72521">
        <ele>446</ele>
        <time>2021-10-03T05:16:46.000Z</time>
      </trkpt>
      <trkpt lat="45.19759" lon="5.72532">
        <ele>446.60000610352</ele>
        <time>2021-10-03T05:16:50.000Z</time>
      </trkpt>
      <trkpt lat="45.1976" lon="5.7255">
        <ele>447</ele>
        <time>2021-10-03T05:16:56.000Z</time>
      </trkpt>
      <trkpt lat="45.19761" lon="5.72553">
        <ele>447.20001220703</ele>
        <time>2021-10-03T05:16:57.000Z</time>
      </trkpt>
      <trkpt lat="45.19763" lon="5.72564">
        <ele>448.20001220703</ele>
        <time>2021-10-03T05:17:01.000Z</time>
      </trkpt>
      <trkpt lat="45.19763" lon="5.72567">
        <ele>448.79998779297</ele>
        <time>2021-10-03T05:17:02.000Z</time>
      </trkpt>
      <trkpt lat="45.19764" lon="5.72573">
        <ele>449.39999389648</ele>
        <time>2021-10-03T05:17:04.000Z</time>
      </trkpt>
      <trkpt lat="45.19764" lon="5.72582">
        <ele>450.20001220703</ele>
        <time>2021-10-03T05:17:07.000Z</time>
      </trkpt>
      <trkpt lat="45.19765" lon="5.72584">
        <ele>450.79998779297</ele>
        <time>2021-10-03T05:17:08.000Z</time>
      </trkpt>
      <trkpt lat="45.19766" lon="5.72586">
        <ele>451</ele>
        <time>2021-10-03T05:17:09.000Z</time>
      </trkpt>
      <trkpt lat="45.19767" lon="5.72583">
        <ele>451.20001220703</ele>
        <time>2021-10-03T05:17:11.000Z</time>
      </trkpt>
      <trkpt lat="45.19767" lon="5.7258">
        <ele>451.39999389648</ele>
        <time>2021-10-03T05:17:12.000Z</time>
      </trkpt>
      <trkpt lat="45.19767" lon="5.72578">
        <ele>451.79998779297</ele>
        <time>2021-10-03T05:17:13.000Z</time>
      </trkpt>
      <trkpt lat="45.19767" lon="5.72575">
        <ele>452</ele>
        <time>2021-10-03T05:17:14.000Z</time>
      </trkpt>
      <trkpt lat="45.1977" lon="5.7256">
        <ele>451.79998779297</ele>
        <time>2021-10-03T05:17:20.000Z</time>
      </trkpt>
      <trkpt lat="45.19771" lon="5.72549">
        <ele>453.20001220703</ele>
        <time>2021-10-03T05:17:24.000Z</time>
      </trkpt>
      <trkpt lat="45.19773" lon="5.72541">
        <ele>454.39999389648</ele>
        <time>2021-10-03T05:17:27.000Z</time>
      </trkpt>
      <trkpt lat="45.19778" lon="5.72526">
        <ele>455.20001220703</ele>
        <time>2021-10-03T05:17:33.000Z</time>
      </trkpt>
      <trkpt lat="45.1978" lon="5.72525">
        <ele>455.60000610352</ele>
        <time>2021-10-03T05:17:34.000Z</time>
      </trkpt>
      <trkpt lat="45.19783" lon="5.72525">
        <ele>456.20001220703</ele>
        <time>2021-10-03T05:17:36.000Z</time>
      </trkpt>
      <trkpt lat="45.19783" lon="5.72527">
        <ele>456.39999389648</ele>
        <time>2021-10-03T05:17:37.000Z</time>
      </trkpt>
      <trkpt lat="45.19784" lon="5.7253">
        <ele>457.20001220703</ele>
        <time>2021-10-03T05:17:38.000Z</time>
      </trkpt>
      <trkpt lat="45.19786" lon="5.7254">
        <ele>458.39999389648</ele>
        <time>2021-10-03T05:17:41.000Z</time>
      </trkpt>
      <trkpt lat="45.19785" lon="5.72548">
        <ele>459</ele>
        <time>2021-10-03T05:17:44.000Z</time>
      </trkpt>
      <trkpt lat="45.19785" lon="5.72551">
        <ele>459.20001220703</ele>
        <time>2021-10-03T05:17:45.000Z</time>
      </trkpt>
      <trkpt lat="45.19786" lon="5.72553">
        <ele>459.39999389648</ele>
        <time>2021-10-03T05:17:46.000Z</time>
      </trkpt>
      <trkpt lat="45.19786" lon="5.72561">
        <ele>460.20001220703</ele>
        <time>2021-10-03T05:17:49.000Z</time>
      </trkpt>
      <trkpt lat="45.19785" lon="5.72568">
        <ele>460.60000610352</ele>
        <time>2021-10-03T05:17:51.000Z</time>
      </trkpt>
      <trkpt lat="45.19785" lon="5.72583">
        <ele>461.20001220703</ele>
        <time>2021-10-03T05:17:56.000Z</time>
      </trkpt>
      <trkpt lat="45.19785" lon="5.7259">
        <ele>461.79998779297</ele>
        <time>2021-10-03T05:17:59.000Z</time>
      </trkpt>
      <trkpt lat="45.19787" lon="5.72601">
        <ele>462.39999389648</ele>
        <time>2021-10-03T05:18:03.000Z</time>
      </trkpt>
      <trkpt lat="45.19787" lon="5.72604">
        <ele>462.79998779297</ele>
        <time>2021-10-03T05:18:04.000Z</time>
      </trkpt>
      <trkpt lat="45.19792" lon="5.72614">
        <ele>464</ele>
        <time>2021-10-03T05:18:08.000Z</time>
      </trkpt>
      <trkpt lat="45.19794" lon="5.72618">
        <ele>464.60000610352</ele>
        <time>2021-10-03T05:18:10.000Z</time>
      </trkpt>
      <trkpt lat="45.19797" lon="5.72621">
        <ele>465.20001220703</ele>
        <time>2021-10-03T05:18:12.000Z</time>
      </trkpt>
      <trkpt lat="45.19803" lon="5.72628">
        <ele>466.20001220703</ele>
        <time>2021-10-03T05:18:16.000Z</time>
      </trkpt>
      <trkpt lat="45.19806" lon="5.7263">
        <ele>466.60000610352</ele>
        <time>2021-10-03T05:18:18.000Z</time>
      </trkpt>
      <trkpt lat="45.19806" lon="5.72633">
        <ele>466.60000610352</ele>
        <time>2021-10-03T05:18:19.000Z</time>
      </trkpt>
      <trkpt lat="45.19812" lon="5.72636">
        <ele>467.39999389648</ele>
        <time>2021-10-03T05:18:23.000Z</time>
      </trkpt>
      <trkpt lat="45.19814" lon="5.72637">
        <ele>467.39999389648</ele>
        <time>2021-10-03T05:18:24.000Z</time>
      </trkpt>
      <trkpt lat="45.19821" lon="5.72642">
        <ele>468.60000610352</ele>
        <time>2021-10-03T05:18:29.000Z</time>
      </trkpt>
      <trkpt lat="45.19822" lon="5.72644">
        <ele>468.79998779297</ele>
        <time>2021-10-03T05:18:31.000Z</time>
      </trkpt>
      <trkpt lat="45.19829" lon="5.72655">
        <ele>469.39999389648</ele>
        <time>2021-10-03T05:18:36.000Z</time>
      </trkpt>
      <trkpt lat="45.19832" lon="5.72657">
        <ele>469.60000610352</ele>
        <time>2021-10-03T05:18:37.000Z</time>
      </trkpt>
      <trkpt lat="45.19833" lon="5.72659">
        <ele>469.60000610352</ele>
        <time>2021-10-03T05:18:38.000Z</time>
      </trkpt>
      <trkpt lat="45.19841" lon="5.72671">
        <ele>470.39999389648</ele>
        <time>2021-10-03T05:18:44.000Z</time>
      </trkpt>
      <trkpt lat="45.19842" lon="5.72672">
        <ele>470.60000610352</ele>
        <time>2021-10-03T05:18:45.000Z</time>
      </trkpt>
      <trkpt lat="45.19845" lon="5.72678">
        <ele>471.79998779297</ele>
        <time>2021-10-03T05:18:48.000Z</time>
      </trkpt>
      <trkpt lat="45.19847" lon="5.72679">
        <ele>472</ele>
        <time>2021-10-03T05:18:49.000Z</time>
      </trkpt>
      <trkpt lat="45.19851" lon="5.72681">
        <ele>472.60000610352</ele>
        <time>2021-10-03T05:18:51.000Z</time>
      </trkpt>
      <trkpt lat="45.19853" lon="5.72679">
        <ele>472.60000610352</ele>
        <time>2021-10-03T05:18:52.000Z</time>
      </trkpt>
      <trkpt lat="45.19853" lon="5.72677">
        <ele>473</ele>
        <time>2021-10-03T05:18:54.000Z</time>
      </trkpt>
      <trkpt lat="45.19851" lon="5.72674">
        <ele>473.39999389648</ele>
        <time>2021-10-03T05:18:56.000Z</time>
      </trkpt>
      <trkpt lat="45.19846" lon="5.72671">
        <ele>474.20001220703</ele>
        <time>2021-10-03T05:18:59.000Z</time>
      </trkpt>
      <trkpt lat="45.19843" lon="5.72665">
        <ele>474.79998779297</ele>
        <time>2021-10-03T05:19:02.000Z</time>
      </trkpt>
      <trkpt lat="45.1984" lon="5.72663">
        <ele>475.20001220703</ele>
        <time>2021-10-03T05:19:04.000Z</time>
      </trkpt>
      <trkpt lat="45.19839" lon="5.72661">
        <ele>475.39999389648</ele>
        <time>2021-10-03T05:19:05.000Z</time>
      </trkpt>
      <trkpt lat="45.19836" lon="5.72653">
        <ele>476.39999389648</ele>
        <time>2021-10-03T05:19:08.000Z</time>
      </trkpt>
      <trkpt lat="45.1983" lon="5.72639">
        <ele>477.20001220703</ele>
        <time>2021-10-03T05:19:14.000Z</time>
      </trkpt>
      <trkpt lat="45.19826" lon="5.72624">
        <ele>477.60000610352</ele>
        <time>2021-10-03T05:19:19.000Z</time>
      </trkpt>
      <trkpt lat="45.19823" lon="5.72617">
        <ele>478.39999389648</ele>
        <time>2021-10-03T05:19:22.000Z</time>
      </trkpt>
      <trkpt lat="45.19822" lon="5.72612">
        <ele>478.79998779297</ele>
        <time>2021-10-03T05:19:24.000Z</time>
      </trkpt>
      <trkpt lat="45.19821" lon="5.72604">
        <ele>479</ele>
        <time>2021-10-03T05:19:27.000Z</time>
      </trkpt>
      <trkpt lat="45.1982" lon="5.72598">
        <ele>479.79998779297</ele>
        <time>2021-10-03T05:19:29.000Z</time>
      </trkpt>
      <trkpt lat="45.19818" lon="5.72584">
        <ele>480.60000610352</ele>
        <time>2021-10-03T05:19:34.000Z</time>
      </trkpt>
      <trkpt lat="45.19817" lon="5.72578">
        <ele>481</ele>
        <time>2021-10-03T05:19:36.000Z</time>
      </trkpt>
      <trkpt lat="45.19815" lon="5.72564">
        <ele>481.39999389648</ele>
        <time>2021-10-03T05:19:41.000Z</time>
      </trkpt>
      <trkpt lat="45.19815" lon="5.7256">
        <ele>481.39999389648</ele>
        <time>2021-10-03T05:19:43.000Z</time>
      </trkpt>
      <trkpt lat="45.19815" lon="5.72541">
        <ele>482.20001220703</ele>
        <time>2021-10-03T05:19:49.000Z</time>
      </trkpt>
      <trkpt lat="45.19815" lon="5.72535">
        <ele>482.60000610352</ele>
        <time>2021-10-03T05:19:51.000Z</time>
      </trkpt>
      <trkpt lat="45.19816" lon="5.72525">
        <ele>483.39999389648</ele>
        <time>2021-10-03T05:19:54.000Z</time>
      </trkpt>
      <trkpt lat="45.19819" lon="5.72515">
        <ele>484.39999389648</ele>
        <time>2021-10-03T05:19:58.000Z</time>
      </trkpt>
      <trkpt lat="45.1982" lon="5.72512">
        <ele>484.39999389648</ele>
        <time>2021-10-03T05:19:59.000Z</time>
      </trkpt>
      <trkpt lat="45.19821" lon="5.72496">
        <ele>485.39999389648</ele>
        <time>2021-10-03T05:20:04.000Z</time>
      </trkpt>
      <trkpt lat="45.19822" lon="5.72494">
        <ele>485.60000610352</ele>
        <time>2021-10-03T05:20:05.000Z</time>
      </trkpt>
      <trkpt lat="45.19824" lon="5.72482">
        <ele>486.79998779297</ele>
        <time>2021-10-03T05:20:09.000Z</time>
      </trkpt>
      <trkpt lat="45.19825" lon="5.72469">
        <ele>488.20001220703</ele>
        <time>2021-10-03T05:20:13.000Z</time>
      </trkpt>
      <trkpt lat="45.19827" lon="5.72457">
        <ele>489.20001220703</ele>
        <time>2021-10-03T05:20:17.000Z</time>
      </trkpt>
      <trkpt lat="45.19827" lon="5.72453">
        <ele>490</ele>
        <time>2021-10-03T05:20:18.000Z</time>
      </trkpt>
      <trkpt lat="45.19831" lon="5.72439">
        <ele>491</ele>
        <time>2021-10-03T05:20:23.000Z</time>
      </trkpt>
      <trkpt lat="45.19833" lon="5.72438">
        <ele>490.79998779297</ele>
        <time>2021-10-03T05:20:24.000Z</time>
      </trkpt>
      <trkpt lat="45.19835" lon="5.72438">
        <ele>490.79998779297</ele>
        <time>2021-10-03T05:20:25.000Z</time>
      </trkpt>
      <trkpt lat="45.19838" lon="5.72442">
        <ele>490.20001220703</ele>
        <time>2021-10-03T05:20:27.000Z</time>
      </trkpt>
      <trkpt lat="45.19838" lon="5.72444">
        <ele>489.79998779297</ele>
        <time>2021-10-03T05:20:28.000Z</time>
      </trkpt>
      <trkpt lat="45.19839" lon="5.72448">
        <ele>489.60000610352</ele>
        <time>2021-10-03T05:20:30.000Z</time>
      </trkpt>
      <trkpt lat="45.1984" lon="5.72453">
        <ele>489.79998779297</ele>
        <time>2021-10-03T05:20:32.000Z</time>
      </trkpt>
      <trkpt lat="45.1984" lon="5.72456">
        <ele>490</ele>
        <time>2021-10-03T05:20:33.000Z</time>
      </trkpt>
      <trkpt lat="45.19842" lon="5.72462">
        <ele>491.20001220703</ele>
        <time>2021-10-03T05:20:35.000Z</time>
      </trkpt>
      <trkpt lat="45.19843" lon="5.72469">
        <ele>492.39999389648</ele>
        <time>2021-10-03T05:20:37.000Z</time>
      </trkpt>
      <trkpt lat="45.19844" lon="5.72475">
        <ele>494.39999389648</ele>
        <time>2021-10-03T05:20:39.000Z</time>
      </trkpt>
      <trkpt lat="45.19845" lon="5.72482">
        <ele>495.79998779297</ele>
        <time>2021-10-03T05:20:41.000Z</time>
      </trkpt>
      <trkpt lat="45.19846" lon="5.72491">
        <ele>497</ele>
        <time>2021-10-03T05:20:44.000Z</time>
      </trkpt>
      <trkpt lat="45.19848" lon="5.72503">
        <ele>498</ele>
        <time>2021-10-03T05:20:48.000Z</time>
      </trkpt>
      <trkpt lat="45.19852" lon="5.72524">
        <ele>497.79998779297</ele>
        <time>2021-10-03T05:20:55.000Z</time>
      </trkpt>
      <trkpt lat="45.19854" lon="5.72541">
        <ele>499.20001220703</ele>
        <time>2021-10-03T05:21:01.000Z</time>
      </trkpt>
      <trkpt lat="45.19858" lon="5.7255">
        <ele>499.79998779297</ele>
        <time>2021-10-03T05:21:06.000Z</time>
      </trkpt>
      <trkpt lat="45.19859" lon="5.72549">
        <ele>499.79998779297</ele>
        <time>2021-10-03T05:21:07.000Z</time>
      </trkpt>
      <trkpt lat="45.19859" lon="5.72545">
        <ele>500.20001220703</ele>
        <time>2021-10-03T05:21:09.000Z</time>
      </trkpt>
      <trkpt lat="45.19857" lon="5.72539">
        <ele>500.60000610352</ele>
        <time>2021-10-03T05:21:11.000Z</time>
      </trkpt>
      <trkpt lat="45.19857" lon="5.72528">
        <ele>501.39999389648</ele>
        <time>2021-10-03T05:21:15.000Z</time>
      </trkpt>
      <trkpt lat="45.19856" lon="5.72518">
        <ele>502.20001220703</ele>
        <time>2021-10-03T05:21:18.000Z</time>
      </trkpt>
      <trkpt lat="45.19856" lon="5.72516">
        <ele>502.39999389648</ele>
        <time>2021-10-03T05:21:19.000Z</time>
      </trkpt>
      <trkpt lat="45.19855" lon="5.72508">
        <ele>502.60000610352</ele>
        <time>2021-10-03T05:21:21.000Z</time>
      </trkpt>
      <trkpt lat="45.19855" lon="5.72504">
        <ele>502.79998779297</ele>
        <time>2021-10-03T05:21:22.000Z</time>
      </trkpt>
      <trkpt lat="45.19856" lon="5.72488">
        <ele>503.79998779297</ele>
        <time>2021-10-03T05:21:26.000Z</time>
      </trkpt>
      <trkpt lat="45.19858" lon="5.72486">
        <ele>504</ele>
        <time>2021-10-03T05:21:27.000Z</time>
      </trkpt>
      <trkpt lat="45.19863" lon="5.7248">
        <ele>504.20001220703</ele>
        <time>2021-10-03T05:21:30.000Z</time>
      </trkpt>
      <trkpt lat="45.19865" lon="5.72479">
        <ele>504.20001220703</ele>
        <time>2021-10-03T05:21:31.000Z</time>
      </trkpt>
      <trkpt lat="45.19879" lon="5.72471">
        <ele>504</ele>
        <time>2021-10-03T05:21:38.000Z</time>
      </trkpt>
      <trkpt lat="45.1988" lon="5.7247">
        <ele>503.79998779297</ele>
        <time>2021-10-03T05:21:39.000Z</time>
      </trkpt>
      <trkpt lat="45.19882" lon="5.72465">
        <ele>503.20001220703</ele>
        <time>2021-10-03T05:21:41.000Z</time>
      </trkpt>
      <trkpt lat="45.19882" lon="5.72461">
        <ele>503.20001220703</ele>
        <time>2021-10-03T05:21:42.000Z</time>
      </trkpt>
      <trkpt lat="45.19883" lon="5.72448">
        <ele>503.39999389648</ele>
        <time>2021-10-03T05:21:45.000Z</time>
      </trkpt>
      <trkpt lat="45.19885" lon="5.72441">
        <ele>503.60000610352</ele>
        <time>2021-10-03T05:21:47.000Z</time>
      </trkpt>
      <trkpt lat="45.19892" lon="5.72433">
        <ele>502.79998779297</ele>
        <time>2021-10-03T05:21:50.000Z</time>
      </trkpt>
      <trkpt lat="45.19894" lon="5.72431">
        <ele>502.39999389648</ele>
        <time>2021-10-03T05:21:51.000Z</time>
      </trkpt>
      <trkpt lat="45.19903" lon="5.72425">
        <ele>501.20001220703</ele>
        <time>2021-10-03T05:21:55.000Z</time>
      </trkpt>
      <trkpt lat="45.19911" lon="5.72422">
        <ele>500.39999389648</ele>
        <time>2021-10-03T05:21:58.000Z</time>
      </trkpt>
      <trkpt lat="45.19914" lon="5.72421">
        <ele>500.20001220703</ele>
        <time>2021-10-03T05:21:59.000Z</time>
      </trkpt>
      <trkpt lat="45.19927" lon="5.72417">
        <ele>499</ele>
        <time>2021-10-03T05:22:04.000Z</time>
      </trkpt>
      <trkpt lat="45.19932" lon="5.72414">
        <ele>499</ele>
        <time>2021-10-03T05:22:06.000Z</time>
      </trkpt>
      <trkpt lat="45.19935" lon="5.72414">
        <ele>498.79998779297</ele>
        <time>2021-10-03T05:22:07.000Z</time>
      </trkpt>
      <trkpt lat="45.19948" lon="5.72412">
        <ele>499</ele>
        <time>2021-10-03T05:22:12.000Z</time>
      </trkpt>
      <trkpt lat="45.19953" lon="5.72412">
        <ele>499.79998779297</ele>
        <time>2021-10-03T05:22:14.000Z</time>
      </trkpt>
      <trkpt lat="45.19955" lon="5.72412">
        <ele>500.20001220703</ele>
        <time>2021-10-03T05:22:15.000Z</time>
      </trkpt>
      <trkpt lat="45.19969" lon="5.72414">
        <ele>501.60000610352</ele>
        <time>2021-10-03T05:22:21.000Z</time>
      </trkpt>
      <trkpt lat="45.19971" lon="5.72414">
        <ele>501.79998779297</ele>
        <time>2021-10-03T05:22:22.000Z</time>
      </trkpt>
      <trkpt lat="45.1998" lon="5.72416">
        <ele>502.79998779297</ele>
        <time>2021-10-03T05:22:26.000Z</time>
      </trkpt>
      <trkpt lat="45.19989" lon="5.72417">
        <ele>504</ele>
        <time>2021-10-03T05:22:30.000Z</time>
      </trkpt>
      <trkpt lat="45.19991" lon="5.72417">
        <ele>504.20001220703</ele>
        <time>2021-10-03T05:22:31.000Z</time>
      </trkpt>
      <trkpt lat="45.19998" lon="5.72418">
        <ele>505</ele>
        <time>2021-10-03T05:22:34.000Z</time>
      </trkpt>
      <trkpt lat="45.20014" lon="5.72419">
        <ele>506.20001220703</ele>
        <time>2021-10-03T05:22:41.000Z</time>
      </trkpt>
      <trkpt lat="45.20032" lon="5.72421">
        <ele>507.20001220703</ele>
        <time>2021-10-03T05:22:49.000Z</time>
      </trkpt>
      <trkpt lat="45.20045" lon="5.72424">
        <ele>508.39999389648</ele>
        <time>2021-10-03T05:22:55.000Z</time>
      </trkpt>
      <trkpt lat="45.2005" lon="5.72424">
        <ele>508.79998779297</ele>
        <time>2021-10-03T05:22:57.000Z</time>
      </trkpt>
      <trkpt lat="45.20057" lon="5.72425">
        <ele>509.60000610352</ele>
        <time>2021-10-03T05:23:00.000Z</time>
      </trkpt>
      <trkpt lat="45.20064" lon="5.72428">
        <ele>510.79998779297</ele>
        <time>2021-10-03T05:23:03.000Z</time>
      </trkpt>
      <trkpt lat="45.20065" lon="5.72429">
        <ele>511</ele>
        <time>2021-10-03T05:23:04.000Z</time>
      </trkpt>
      <trkpt lat="45.20069" lon="5.72435">
        <ele>512</ele>
        <time>2021-10-03T05:23:06.000Z</time>
      </trkpt>
      <trkpt lat="45.20073" lon="5.72446">
        <ele>513</ele>
        <time>2021-10-03T05:23:10.000Z</time>
      </trkpt>
      <trkpt lat="45.20073" lon="5.72449">
        <ele>513.40002441406</ele>
        <time>2021-10-03T05:23:11.000Z</time>
      </trkpt>
      <trkpt lat="45.20073" lon="5.72459">
        <ele>514.20001220703</ele>
        <time>2021-10-03T05:23:14.000Z</time>
      </trkpt>
      <trkpt lat="45.20075" lon="5.7247">
        <ele>515.20001220703</ele>
        <time>2021-10-03T05:23:18.000Z</time>
      </trkpt>
      <trkpt lat="45.20071" lon="5.72489">
        <ele>516.20001220703</ele>
        <time>2021-10-03T05:23:23.000Z</time>
      </trkpt>
      <trkpt lat="45.20071" lon="5.72499">
        <ele>516.59997558594</ele>
        <time>2021-10-03T05:23:25.000Z</time>
      </trkpt>
      <trkpt lat="45.20068" lon="5.72518">
        <ele>516.59997558594</ele>
        <time>2021-10-03T05:23:30.000Z</time>
      </trkpt>
      <trkpt lat="45.20069" lon="5.72528">
        <ele>516.79998779297</ele>
        <time>2021-10-03T05:23:33.000Z</time>
      </trkpt>
      <trkpt lat="45.20072" lon="5.72533">
        <ele>517</ele>
        <time>2021-10-03T05:23:35.000Z</time>
      </trkpt>
      <trkpt lat="45.20079" lon="5.72541">
        <ele>517.59997558594</ele>
        <time>2021-10-03T05:23:39.000Z</time>
      </trkpt>
      <trkpt lat="45.20083" lon="5.72544">
        <ele>518</ele>
        <time>2021-10-03T05:23:42.000Z</time>
      </trkpt>
      <trkpt lat="45.20087" lon="5.72544">
        <ele>518.79998779297</ele>
        <time>2021-10-03T05:23:44.000Z</time>
      </trkpt>
      <trkpt lat="45.20092" lon="5.72543">
        <ele>520</ele>
        <time>2021-10-03T05:23:47.000Z</time>
      </trkpt>
      <trkpt lat="45.20101" lon="5.72542">
        <ele>521.40002441406</ele>
        <time>2021-10-03T05:23:53.000Z</time>
      </trkpt>
      <trkpt lat="45.20107" lon="5.72543">
        <ele>522.79998779297</ele>
        <time>2021-10-03T05:23:57.000Z</time>
      </trkpt>
      <trkpt lat="45.20109" lon="5.72542">
        <ele>523</ele>
        <time>2021-10-03T05:23:59.000Z</time>
      </trkpt>
      <trkpt lat="45.2011" lon="5.72542">
        <ele>523.20001220703</ele>
        <time>2021-10-03T05:24:00.000Z</time>
      </trkpt>
      <trkpt lat="45.20114" lon="5.72544">
        <ele>523.79998779297</ele>
        <time>2021-10-03T05:24:03.000Z</time>
      </trkpt>
      <trkpt lat="45.20116" lon="5.72543">
        <ele>524.20001220703</ele>
        <time>2021-10-03T05:24:05.000Z</time>
      </trkpt>
      <trkpt lat="45.20116" lon="5.72542">
        <ele>524.40002441406</ele>
        <time>2021-10-03T05:24:06.000Z</time>
      </trkpt>
      <trkpt lat="45.20113" lon="5.7254">
        <ele>524.79998779297</ele>
        <time>2021-10-03T05:24:08.000Z</time>
      </trkpt>
      <trkpt lat="45.20113" lon="5.72539">
        <ele>525</ele>
        <time>2021-10-03T05:24:09.000Z</time>
      </trkpt>
      <trkpt lat="45.20111" lon="5.72538">
        <ele>525.40002441406</ele>
        <time>2021-10-03T05:24:10.000Z</time>
      </trkpt>
      <trkpt lat="45.20108" lon="5.72535">
        <ele>526.20001220703</ele>
        <time>2021-10-03T05:24:12.000Z</time>
      </trkpt>
      <trkpt lat="45.20105" lon="5.72529">
        <ele>526.79998779297</ele>
        <time>2021-10-03T05:24:15.000Z</time>
      </trkpt>
      <trkpt lat="45.20105" lon="5.72527">
        <ele>527</ele>
        <time>2021-10-03T05:24:16.000Z</time>
      </trkpt>
      <trkpt lat="45.20105" lon="5.72525">
        <ele>527.20001220703</ele>
        <time>2021-10-03T05:24:17.000Z</time>
      </trkpt>
      <trkpt lat="45.20104" lon="5.72518">
        <ele>528.40002441406</ele>
        <time>2021-10-03T05:24:21.000Z</time>
      </trkpt>
      <trkpt lat="45.20104" lon="5.72514">
        <ele>529</ele>
        <time>2021-10-03T05:24:23.000Z</time>
      </trkpt>
      <trkpt lat="45.20105" lon="5.72511">
        <ele>529.59997558594</ele>
        <time>2021-10-03T05:24:25.000Z</time>
      </trkpt>
      <trkpt lat="45.20109" lon="5.72508">
        <ele>531</ele>
        <time>2021-10-03T05:24:28.000Z</time>
      </trkpt>
      <trkpt lat="45.2011" lon="5.72507">
        <ele>531.20001220703</ele>
        <time>2021-10-03T05:24:29.000Z</time>
      </trkpt>
      <trkpt lat="45.20113" lon="5.72503">
        <ele>532.20001220703</ele>
        <time>2021-10-03T05:24:32.000Z</time>
      </trkpt>
      <trkpt lat="45.20116" lon="5.72499">
        <ele>533.20001220703</ele>
        <time>2021-10-03T05:24:35.000Z</time>
      </trkpt>
      <trkpt lat="45.20117" lon="5.72498">
        <ele>533.40002441406</ele>
        <time>2021-10-03T05:24:36.000Z</time>
      </trkpt>
      <trkpt lat="45.20123" lon="5.7249">
        <ele>534.59997558594</ele>
        <time>2021-10-03T05:24:43.000Z</time>
      </trkpt>
      <trkpt lat="45.20125" lon="5.72486">
        <ele>534.79998779297</ele>
        <time>2021-10-03T05:24:46.000Z</time>
      </trkpt>
      <trkpt lat="45.20128" lon="5.7248">
        <ele>535.20001220703</ele>
        <time>2021-10-03T05:24:50.000Z</time>
      </trkpt>
      <trkpt lat="45.20128" lon="5.72479">
        <ele>535.59997558594</ele>
        <time>2021-10-03T05:24:51.000Z</time>
      </trkpt>
      <trkpt lat="45.20129" lon="5.72474">
        <ele>536.79998779297</ele>
        <time>2021-10-03T05:24:54.000Z</time>
      </trkpt>
      <trkpt lat="45.20131" lon="5.7247">
        <ele>537.20001220703</ele>
        <time>2021-10-03T05:24:57.000Z</time>
      </trkpt>
      <trkpt lat="45.20132" lon="5.72469">
        <ele>537.59997558594</ele>
        <time>2021-10-03T05:24:58.000Z</time>
      </trkpt>
      <trkpt lat="45.20134" lon="5.72468">
        <ele>538</ele>
        <time>2021-10-03T05:25:00.000Z</time>
      </trkpt>
      <trkpt lat="45.20135" lon="5.72467">
        <ele>538.20001220703</ele>
        <time>2021-10-03T05:25:01.000Z</time>
      </trkpt>
      <trkpt lat="45.20135" lon="5.72465">
        <ele>538.40002441406</ele>
        <time>2021-10-03T05:25:03.000Z</time>
      </trkpt>
      <trkpt lat="45.20136" lon="5.72464">
        <ele>538.79998779297</ele>
        <time>2021-10-03T05:25:04.000Z</time>
      </trkpt>
      <trkpt lat="45.20138" lon="5.72464">
        <ele>539</ele>
        <time>2021-10-03T05:25:06.000Z</time>
      </trkpt>
      <trkpt lat="45.20139" lon="5.72464">
        <ele>539.20001220703</ele>
        <time>2021-10-03T05:25:07.000Z</time>
      </trkpt>
      <trkpt lat="45.20139" lon="5.72461">
        <ele>539.59997558594</ele>
        <time>2021-10-03T05:25:09.000Z</time>
      </trkpt>
      <trkpt lat="45.2014" lon="5.72457">
        <ele>540.40002441406</ele>
        <time>2021-10-03T05:25:11.000Z</time>
      </trkpt>
      <trkpt lat="45.2014" lon="5.72455">
        <ele>541</ele>
        <time>2021-10-03T05:25:12.000Z</time>
      </trkpt>
      <trkpt lat="45.20141" lon="5.72454">
        <ele>541.20001220703</ele>
        <time>2021-10-03T05:25:13.000Z</time>
      </trkpt>
      <trkpt lat="45.20142" lon="5.72454">
        <ele>541.40002441406</ele>
        <time>2021-10-03T05:25:14.000Z</time>
      </trkpt>
      <trkpt lat="45.20142" lon="5.72456">
        <ele>542</ele>
        <time>2021-10-03T05:25:16.000Z</time>
      </trkpt>
      <trkpt lat="45.20143" lon="5.72458">
        <ele>542.79998779297</ele>
        <time>2021-10-03T05:25:18.000Z</time>
      </trkpt>
      <trkpt lat="45.20148" lon="5.72458">
        <ele>543.40002441406</ele>
        <time>2021-10-03T05:25:22.000Z</time>
      </trkpt>
      <trkpt lat="45.2015" lon="5.7246">
        <ele>543.59997558594</ele>
        <time>2021-10-03T05:25:25.000Z</time>
      </trkpt>
      <trkpt lat="45.20151" lon="5.72461">
        <ele>544</ele>
        <time>2021-10-03T05:25:27.000Z</time>
      </trkpt>
      <trkpt lat="45.20152" lon="5.72462">
        <ele>544.59997558594</ele>
        <time>2021-10-03T05:25:28.000Z</time>
      </trkpt>
      <trkpt lat="45.20152" lon="5.72463">
        <ele>545.59997558594</ele>
        <time>2021-10-03T05:25:29.000Z</time>
      </trkpt>
      <trkpt lat="45.20154" lon="5.72465">
        <ele>546.79998779297</ele>
        <time>2021-10-03T05:25:32.000Z</time>
      </trkpt>
      <trkpt lat="45.20156" lon="5.72467">
        <ele>548</ele>
        <time>2021-10-03T05:25:34.000Z</time>
      </trkpt>
      <trkpt lat="45.20158" lon="5.72468">
        <ele>549.20001220703</ele>
        <time>2021-10-03T05:25:37.000Z</time>
      </trkpt>
      <trkpt lat="45.2016" lon="5.72469">
        <ele>550.59997558594</ele>
        <time>2021-10-03T05:25:40.000Z</time>
      </trkpt>
      <trkpt lat="45.20161" lon="5.72471">
        <ele>552</ele>
        <time>2021-10-03T05:25:42.000Z</time>
      </trkpt>
      <trkpt lat="45.20162" lon="5.72471">
        <ele>552.40002441406</ele>
        <time>2021-10-03T05:25:43.000Z</time>
      </trkpt>
      <trkpt lat="45.20164" lon="5.72473">
        <ele>553.40002441406</ele>
        <time>2021-10-03T05:25:46.000Z</time>
      </trkpt>
      <trkpt lat="45.20164" lon="5.72474">
        <ele>553.79998779297</ele>
        <time>2021-10-03T05:25:47.000Z</time>
      </trkpt>
      <trkpt lat="45.20164" lon="5.72475">
        <ele>554.79998779297</ele>
        <time>2021-10-03T05:25:48.000Z</time>
      </trkpt>
      <trkpt lat="45.20166" lon="5.72477">
        <ele>556</ele>
        <time>2021-10-03T05:25:50.000Z</time>
      </trkpt>
      <trkpt lat="45.20169" lon="5.72479">
        <ele>556.59997558594</ele>
        <time>2021-10-03T05:25:54.000Z</time>
      </trkpt>
      <trkpt lat="45.2017" lon="5.72481">
        <ele>557.40002441406</ele>
        <time>2021-10-03T05:25:56.000Z</time>
      </trkpt>
      <trkpt lat="45.20174" lon="5.72486">
        <ele>558.20001220703</ele>
        <time>2021-10-03T05:26:00.000Z</time>
      </trkpt>
      <trkpt lat="45.20176" lon="5.72487">
        <ele>558.40002441406</ele>
        <time>2021-10-03T05:26:01.000Z</time>
      </trkpt>
      <trkpt lat="45.20182" lon="5.7249">
        <ele>559.59997558594</ele>
        <time>2021-10-03T05:26:06.000Z</time>
      </trkpt>
      <trkpt lat="45.20183" lon="5.7249">
        <ele>559.79998779297</ele>
        <time>2021-10-03T05:26:07.000Z</time>
      </trkpt>
      <trkpt lat="45.20185" lon="5.72493">
        <ele>560</ele>
        <time>2021-10-03T05:26:09.000Z</time>
      </trkpt>
      <trkpt lat="45.20189" lon="5.72498">
        <ele>560.79998779297</ele>
        <time>2021-10-03T05:26:13.000Z</time>
      </trkpt>
      <trkpt lat="45.2019" lon="5.72499">
        <ele>561</ele>
        <time>2021-10-03T05:26:14.000Z</time>
      </trkpt>
      <trkpt lat="45.20194" lon="5.72502">
        <ele>562</ele>
        <time>2021-10-03T05:26:19.000Z</time>
      </trkpt>
      <trkpt lat="45.20194" lon="5.72502">
        <ele>562</ele>
        <time>2021-10-03T05:26:20.000Z</time>
      </trkpt>
      <trkpt lat="45.20195" lon="5.72503">
        <ele>562.20001220703</ele>
        <time>2021-10-03T05:26:22.000Z</time>
      </trkpt>
      <trkpt lat="45.20198" lon="5.72507">
        <ele>562.20001220703</ele>
        <time>2021-10-03T05:26:26.000Z</time>
      </trkpt>
      <trkpt lat="45.20201" lon="5.72509">
        <ele>563</ele>
        <time>2021-10-03T05:26:28.000Z</time>
      </trkpt>
      <trkpt lat="45.20205" lon="5.72512">
        <ele>564.20001220703</ele>
        <time>2021-10-03T05:26:31.000Z</time>
      </trkpt>
      <trkpt lat="45.20207" lon="5.72515">
        <ele>565.40002441406</ele>
        <time>2021-10-03T05:26:34.000Z</time>
      </trkpt>
      <trkpt lat="45.20212" lon="5.72518">
        <ele>566.40002441406</ele>
        <time>2021-10-03T05:26:38.000Z</time>
      </trkpt>
      <trkpt lat="45.20212" lon="5.72518">
        <ele>566.79998779297</ele>
        <time>2021-10-03T05:26:39.000Z</time>
      </trkpt>
      <trkpt lat="45.20214" lon="5.7252">
        <ele>567.20001220703</ele>
        <time>2021-10-03T05:26:41.000Z</time>
      </trkpt>
      <trkpt lat="45.20215" lon="5.7252">
        <ele>567.59997558594</ele>
        <time>2021-10-03T05:26:42.000Z</time>
      </trkpt>
      <trkpt lat="45.20216" lon="5.72521">
        <ele>568.20001220703</ele>
        <time>2021-10-03T05:26:44.000Z</time>
      </trkpt>
      <trkpt lat="45.20217" lon="5.72521">
        <ele>568.59997558594</ele>
        <time>2021-10-03T05:26:45.000Z</time>
      </trkpt>
      <trkpt lat="45.20219" lon="5.72521">
        <ele>569.20001220703</ele>
        <time>2021-10-03T05:26:47.000Z</time>
      </trkpt>
      <trkpt lat="45.2022" lon="5.72521">
        <ele>569.79998779297</ele>
        <time>2021-10-03T05:26:49.000Z</time>
      </trkpt>
      <trkpt lat="45.20222" lon="5.7252">
        <ele>570.79998779297</ele>
        <time>2021-10-03T05:26:51.000Z</time>
      </trkpt>
      <trkpt lat="45.20224" lon="5.7252">
        <ele>571.40002441406</ele>
        <time>2021-10-03T05:26:53.000Z</time>
      </trkpt>
      <trkpt lat="45.20225" lon="5.72521">
        <ele>571.59997558594</ele>
        <time>2021-10-03T05:26:55.000Z</time>
      </trkpt>
      <trkpt lat="45.20228" lon="5.7252">
        <ele>572</ele>
        <time>2021-10-03T05:26:57.000Z</time>
      </trkpt>
      <trkpt lat="45.20231" lon="5.72519">
        <ele>572.20001220703</ele>
        <time>2021-10-03T05:27:00.000Z</time>
      </trkpt>
      <trkpt lat="45.20233" lon="5.72518">
        <ele>573</ele>
        <time>2021-10-03T05:27:03.000Z</time>
      </trkpt>
      <trkpt lat="45.20235" lon="5.72518">
        <ele>573.59997558594</ele>
        <time>2021-10-03T05:27:05.000Z</time>
      </trkpt>
      <trkpt lat="45.20237" lon="5.72519">
        <ele>573.79998779297</ele>
        <time>2021-10-03T05:27:06.000Z</time>
      </trkpt>
      <trkpt lat="45.2024" lon="5.7252">
        <ele>574.40002441406</ele>
        <time>2021-10-03T05:27:09.000Z</time>
      </trkpt>
      <trkpt lat="45.2024" lon="5.7252">
        <ele>575</ele>
        <time>2021-10-03T05:27:10.000Z</time>
      </trkpt>
      <trkpt lat="45.2024" lon="5.72519">
        <ele>575.40002441406</ele>
        <time>2021-10-03T05:27:11.000Z</time>
      </trkpt>
      <trkpt lat="45.20241" lon="5.72518">
        <ele>575.79998779297</ele>
        <time>2021-10-03T05:27:12.000Z</time>
      </trkpt>
      <trkpt lat="45.20245" lon="5.72518">
        <ele>576.20001220703</ele>
        <time>2021-10-03T05:27:16.000Z</time>
      </trkpt>
      <trkpt lat="45.20246" lon="5.72517">
        <ele>576.20001220703</ele>
        <time>2021-10-03T05:27:17.000Z</time>
      </trkpt>
      <trkpt lat="45.20248" lon="5.72517">
        <ele>576.59997558594</ele>
        <time>2021-10-03T05:27:19.000Z</time>
      </trkpt>
      <trkpt lat="45.20251" lon="5.72515">
        <ele>577.59997558594</ele>
        <time>2021-10-03T05:27:22.000Z</time>
      </trkpt>
      <trkpt lat="45.20254" lon="5.72515">
        <ele>578</ele>
        <time>2021-10-03T05:27:24.000Z</time>
      </trkpt>
      <trkpt lat="45.20255" lon="5.72515">
        <ele>578.40002441406</ele>
        <time>2021-10-03T05:27:25.000Z</time>
      </trkpt>
      <trkpt lat="45.20256" lon="5.72516">
        <ele>578.59997558594</ele>
        <time>2021-10-03T05:27:26.000Z</time>
      </trkpt>
      <trkpt lat="45.20262" lon="5.72516">
        <ele>579.20001220703</ele>
        <time>2021-10-03T05:27:30.000Z</time>
      </trkpt>
      <trkpt lat="45.20264" lon="5.72513">
        <ele>579.79998779297</ele>
        <time>2021-10-03T05:27:33.000Z</time>
      </trkpt>
      <trkpt lat="45.20268" lon="5.72514">
        <ele>581</ele>
        <time>2021-10-03T05:27:36.000Z</time>
      </trkpt>
      <trkpt lat="45.20271" lon="5.72514">
        <ele>581.59997558594</ele>
        <time>2021-10-03T05:27:38.000Z</time>
      </trkpt>
      <trkpt lat="45.20272" lon="5.72514">
        <ele>582.20001220703</ele>
        <time>2021-10-03T05:27:39.000Z</time>
      </trkpt>
      <trkpt lat="45.20275" lon="5.72515">
        <ele>583.20001220703</ele>
        <time>2021-10-03T05:27:41.000Z</time>
      </trkpt>
      <trkpt lat="45.20276" lon="5.72516">
        <ele>583.59997558594</ele>
        <time>2021-10-03T05:27:42.000Z</time>
      </trkpt>
      <trkpt lat="45.20282" lon="5.72518">
        <ele>585.20001220703</ele>
        <time>2021-10-03T05:27:46.000Z</time>
      </trkpt>
      <trkpt lat="45.20287" lon="5.72517">
        <ele>586</ele>
        <time>2021-10-03T05:27:49.000Z</time>
      </trkpt>
      <trkpt lat="45.20288" lon="5.72517">
        <ele>586.20001220703</ele>
        <time>2021-10-03T05:27:50.000Z</time>
      </trkpt>
      <trkpt lat="45.20296" lon="5.72516">
        <ele>587.59997558594</ele>
        <time>2021-10-03T05:27:55.000Z</time>
      </trkpt>
      <trkpt lat="45.20303" lon="5.72513">
        <ele>588.59997558594</ele>
        <time>2021-10-03T05:28:00.000Z</time>
      </trkpt>
      <trkpt lat="45.20304" lon="5.72514">
        <ele>589.20001220703</ele>
        <time>2021-10-03T05:28:02.000Z</time>
      </trkpt>
      <trkpt lat="45.20306" lon="5.72516">
        <ele>589.59997558594</ele>
        <time>2021-10-03T05:28:04.000Z</time>
      </trkpt>
      <trkpt lat="45.20308" lon="5.72515">
        <ele>589.79998779297</ele>
        <time>2021-10-03T05:28:05.000Z</time>
      </trkpt>
      <trkpt lat="45.2031" lon="5.72515">
        <ele>590.40002441406</ele>
        <time>2021-10-03T05:28:07.000Z</time>
      </trkpt>
      <trkpt lat="45.20311" lon="5.72515">
        <ele>590.59997558594</ele>
        <time>2021-10-03T05:28:08.000Z</time>
      </trkpt>
      <trkpt lat="45.20311" lon="5.72515">
        <ele>591.20001220703</ele>
        <time>2021-10-03T05:28:09.000Z</time>
      </trkpt>
      <trkpt lat="45.20313" lon="5.72515">
        <ele>592</ele>
        <time>2021-10-03T05:28:11.000Z</time>
      </trkpt>
      <trkpt lat="45.20313" lon="5.72516">
        <ele>592.40002441406</ele>
        <time>2021-10-03T05:28:12.000Z</time>
      </trkpt>
      <trkpt lat="45.20315" lon="5.72516">
        <ele>593.40002441406</ele>
        <time>2021-10-03T05:28:15.000Z</time>
      </trkpt>
      <trkpt lat="45.20317" lon="5.72516">
        <ele>594.20001220703</ele>
        <time>2021-10-03T05:28:17.000Z</time>
      </trkpt>
      <trkpt lat="45.20318" lon="5.72516">
        <ele>594.40002441406</ele>
        <time>2021-10-03T05:28:18.000Z</time>
      </trkpt>
      <trkpt lat="45.20322" lon="5.72516">
        <ele>595.59997558594</ele>
        <time>2021-10-03T05:28:21.000Z</time>
      </trkpt>
      <trkpt lat="45.2033" lon="5.72515">
        <ele>597</ele>
        <time>2021-10-03T05:28:25.000Z</time>
      </trkpt>
      <trkpt lat="45.20332" lon="5.72513">
        <ele>598.20001220703</ele>
        <time>2021-10-03T05:28:28.000Z</time>
      </trkpt>
      <trkpt lat="45.20333" lon="5.72513">
        <ele>599</ele>
        <time>2021-10-03T05:28:29.000Z</time>
      </trkpt>
      <trkpt lat="45.20333" lon="5.72513">
        <ele>599.59997558594</ele>
        <time>2021-10-03T05:28:30.000Z</time>
      </trkpt>
      <trkpt lat="45.20333" lon="5.72513">
        <ele>600</ele>
        <time>2021-10-03T05:28:31.000Z</time>
      </trkpt>
      <trkpt lat="45.20336" lon="5.72515">
        <ele>600.79998779297</ele>
        <time>2021-10-03T05:28:34.000Z</time>
      </trkpt>
      <trkpt lat="45.20336" lon="5.72515">
        <ele>601</ele>
        <time>2021-10-03T05:28:35.000Z</time>
      </trkpt>
      <trkpt lat="45.20337" lon="5.72516">
        <ele>601.40002441406</ele>
        <time>2021-10-03T05:28:37.000Z</time>
      </trkpt>
      <trkpt lat="45.2034" lon="5.72517">
        <ele>601.79998779297</ele>
        <time>2021-10-03T05:28:40.000Z</time>
      </trkpt>
      <trkpt lat="45.2034" lon="5.72517">
        <ele>602</ele>
        <time>2021-10-03T05:28:41.000Z</time>
      </trkpt>
      <trkpt lat="45.2034" lon="5.72518">
        <ele>602.79998779297</ele>
        <time>2021-10-03T05:28:43.000Z</time>
      </trkpt>
      <trkpt lat="45.2034" lon="5.72518">
        <ele>603.20001220703</ele>
        <time>2021-10-03T05:28:44.000Z</time>
      </trkpt>
      <trkpt lat="45.2034" lon="5.72519">
        <ele>603.40002441406</ele>
        <time>2021-10-03T05:28:45.000Z</time>
      </trkpt>
      <trkpt lat="45.20341" lon="5.72518">
        <ele>603.79998779297</ele>
        <time>2021-10-03T05:28:48.000Z</time>
      </trkpt>
      <trkpt lat="45.20343" lon="5.72517">
        <ele>604.20001220703</ele>
        <time>2021-10-03T05:28:50.000Z</time>
      </trkpt>
      <trkpt lat="45.20344" lon="5.72517">
        <ele>604.59997558594</ele>
        <time>2021-10-03T05:28:51.000Z</time>
      </trkpt>
      <trkpt lat="45.20346" lon="5.72519">
        <ele>605.40002441406</ele>
        <time>2021-10-03T05:28:53.000Z</time>
      </trkpt>
      <trkpt lat="45.20347" lon="5.72519">
        <ele>605.79998779297</ele>
        <time>2021-10-03T05:28:56.000Z</time>
      </trkpt>
      <trkpt lat="45.2035" lon="5.72517">
        <ele>606.40002441406</ele>
        <time>2021-10-03T05:29:00.000Z</time>
      </trkpt>
      <trkpt lat="45.20351" lon="5.72515">
        <ele>607.40002441406</ele>
        <time>2021-10-03T05:29:01.000Z</time>
      </trkpt>
      <trkpt lat="45.20351" lon="5.72514">
        <ele>608</ele>
        <time>2021-10-03T05:29:02.000Z</time>
      </trkpt>
      <trkpt lat="45.20352" lon="5.72514">
        <ele>609.20001220703</ele>
        <time>2021-10-03T05:29:04.000Z</time>
      </trkpt>
      <trkpt lat="45.20353" lon="5.72515">
        <ele>610</ele>
        <time>2021-10-03T05:29:07.000Z</time>
      </trkpt>
      <trkpt lat="45.20355" lon="5.72514">
        <ele>610.40002441406</ele>
        <time>2021-10-03T05:29:08.000Z</time>
      </trkpt>
      <trkpt lat="45.20362" lon="5.72519">
        <ele>610.79998779297</ele>
        <time>2021-10-03T05:29:14.000Z</time>
      </trkpt>
      <trkpt lat="45.20363" lon="5.72519">
        <ele>610.79998779297</ele>
        <time>2021-10-03T05:29:15.000Z</time>
      </trkpt>
      <trkpt lat="45.20369" lon="5.72519">
        <ele>611.40002441406</ele>
        <time>2021-10-03T05:29:20.000Z</time>
      </trkpt>
      <trkpt lat="45.20372" lon="5.72524">
        <ele>612.59997558594</ele>
        <time>2021-10-03T05:29:23.000Z</time>
      </trkpt>
      <trkpt lat="45.20374" lon="5.72525">
        <ele>614</ele>
        <time>2021-10-03T05:29:25.000Z</time>
      </trkpt>
      <trkpt lat="45.20374" lon="5.72525">
        <ele>614.40002441406</ele>
        <time>2021-10-03T05:29:26.000Z</time>
      </trkpt>
      <trkpt lat="45.20374" lon="5.72525">
        <ele>615</ele>
        <time>2021-10-03T05:29:27.000Z</time>
      </trkpt>
      <trkpt lat="45.20374" lon="5.72525">
        <ele>615.40002441406</ele>
        <time>2021-10-03T05:29:28.000Z</time>
      </trkpt>
      <trkpt lat="45.20375" lon="5.72526">
        <ele>616.20001220703</ele>
        <time>2021-10-03T05:29:30.000Z</time>
      </trkpt>
      <trkpt lat="45.20375" lon="5.72525">
        <ele>616.20001220703</ele>
        <time>2021-10-03T05:29:31.000Z</time>
      </trkpt>
      <trkpt lat="45.20376" lon="5.72525">
        <ele>616.59997558594</ele>
        <time>2021-10-03T05:29:33.000Z</time>
      </trkpt>
      <trkpt lat="45.20378" lon="5.72527">
        <ele>617.20001220703</ele>
        <time>2021-10-03T05:29:35.000Z</time>
      </trkpt>
      <trkpt lat="45.20381" lon="5.72529">
        <ele>618</ele>
        <time>2021-10-03T05:29:37.000Z</time>
      </trkpt>
      <trkpt lat="45.20382" lon="5.72529">
        <ele>618.40002441406</ele>
        <time>2021-10-03T05:29:38.000Z</time>
      </trkpt>
      <trkpt lat="45.20384" lon="5.72531">
        <ele>619.59997558594</ele>
        <time>2021-10-03T05:29:40.000Z</time>
      </trkpt>
      <trkpt lat="45.20385" lon="5.7253">
        <ele>619.79998779297</ele>
        <time>2021-10-03T05:29:41.000Z</time>
      </trkpt>
      <trkpt lat="45.20387" lon="5.72529">
        <ele>620</ele>
        <time>2021-10-03T05:29:42.000Z</time>
      </trkpt>
      <trkpt lat="45.20388" lon="5.72529">
        <ele>620.79998779297</ele>
        <time>2021-10-03T05:29:44.000Z</time>
      </trkpt>
      <trkpt lat="45.20389" lon="5.7253">
        <ele>622.40002441406</ele>
        <time>2021-10-03T05:29:46.000Z</time>
      </trkpt>
      <trkpt lat="45.2039" lon="5.7253">
        <ele>623.20001220703</ele>
        <time>2021-10-03T05:29:48.000Z</time>
      </trkpt>
      <trkpt lat="45.20391" lon="5.72528">
        <ele>623.59997558594</ele>
        <time>2021-10-03T05:29:49.000Z</time>
      </trkpt>
      <trkpt lat="45.20391" lon="5.72528">
        <ele>624</ele>
        <time>2021-10-03T05:29:50.000Z</time>
      </trkpt>
      <trkpt lat="45.20393" lon="5.72526">
        <ele>624.59997558594</ele>
        <time>2021-10-03T05:29:52.000Z</time>
      </trkpt>
      <trkpt lat="45.20395" lon="5.72527">
        <ele>624.79998779297</ele>
        <time>2021-10-03T05:29:53.000Z</time>
      </trkpt>
      <trkpt lat="45.20397" lon="5.72529">
        <ele>625.40002441406</ele>
        <time>2021-10-03T05:29:55.000Z</time>
      </trkpt>
      <trkpt lat="45.20398" lon="5.7253">
        <ele>625.79998779297</ele>
        <time>2021-10-03T05:29:56.000Z</time>
      </trkpt>
      <trkpt lat="45.204" lon="5.72529">
        <ele>626.40002441406</ele>
        <time>2021-10-03T05:29:58.000Z</time>
      </trkpt>
      <trkpt lat="45.20403" lon="5.72528">
        <ele>626.79998779297</ele>
        <time>2021-10-03T05:30:00.000Z</time>
      </trkpt>
      <trkpt lat="45.20403" lon="5.72528">
        <ele>627</ele>
        <time>2021-10-03T05:30:01.000Z</time>
      </trkpt>
      <trkpt lat="45.20404" lon="5.72528">
        <ele>627.20001220703</ele>
        <time>2021-10-03T05:30:03.000Z</time>
      </trkpt>
      <trkpt lat="45.20406" lon="5.72529">
        <ele>627</ele>
        <time>2021-10-03T05:30:06.000Z</time>
      </trkpt>
      <trkpt lat="45.20407" lon="5.72529">
        <ele>626.79998779297</ele>
        <time>2021-10-03T05:30:07.000Z</time>
      </trkpt>
      <trkpt lat="45.2041" lon="5.72527">
        <ele>627.20001220703</ele>
        <time>2021-10-03T05:30:10.000Z</time>
      </trkpt>
      <trkpt lat="45.20411" lon="5.72526">
        <ele>628.20001220703</ele>
        <time>2021-10-03T05:30:11.000Z</time>
      </trkpt>
      <trkpt lat="45.20412" lon="5.72526">
        <ele>628.79998779297</ele>
        <time>2021-10-03T05:30:12.000Z</time>
      </trkpt>
      <trkpt lat="45.20413" lon="5.72526">
        <ele>629.59997558594</ele>
        <time>2021-10-03T05:30:13.000Z</time>
      </trkpt>
      <trkpt lat="45.20414" lon="5.72526">
        <ele>630</ele>
        <time>2021-10-03T05:30:14.000Z</time>
      </trkpt>
      <trkpt lat="45.20416" lon="5.72524">
        <ele>630.79998779297</ele>
        <time>2021-10-03T05:30:16.000Z</time>
      </trkpt>
      <trkpt lat="45.20415" lon="5.72523">
        <ele>631.59997558594</ele>
        <time>2021-10-03T05:30:18.000Z</time>
      </trkpt>
      <trkpt lat="45.20415" lon="5.72523">
        <ele>632</ele>
        <time>2021-10-03T05:30:19.000Z</time>
      </trkpt>
      <trkpt lat="45.20417" lon="5.7252">
        <ele>632.40002441406</ele>
        <time>2021-10-03T05:30:21.000Z</time>
      </trkpt>
      <trkpt lat="45.20419" lon="5.72518">
        <ele>633.20001220703</ele>
        <time>2021-10-03T05:30:23.000Z</time>
      </trkpt>
      <trkpt lat="45.2042" lon="5.72517">
        <ele>633.40002441406</ele>
        <time>2021-10-03T05:30:24.000Z</time>
      </trkpt>
      <trkpt lat="45.20421" lon="5.72516">
        <ele>634</ele>
        <time>2021-10-03T05:30:28.000Z</time>
      </trkpt>
      <trkpt lat="45.20422" lon="5.72515">
        <ele>634</ele>
        <time>2021-10-03T05:30:29.000Z</time>
      </trkpt>
      <trkpt lat="45.20422" lon="5.72515">
        <ele>634.20001220703</ele>
        <time>2021-10-03T05:30:30.000Z</time>
      </trkpt>
      <trkpt lat="45.20423" lon="5.72514">
        <ele>635.20001220703</ele>
        <time>2021-10-03T05:30:33.000Z</time>
      </trkpt>
      <trkpt lat="45.20424" lon="5.72514">
        <ele>635.40002441406</ele>
        <time>2021-10-03T05:30:34.000Z</time>
      </trkpt>
      <trkpt lat="45.20426" lon="5.72514">
        <ele>636.79998779297</ele>
        <time>2021-10-03T05:30:36.000Z</time>
      </trkpt>
      <trkpt lat="45.20428" lon="5.72512">
        <ele>638.40002441406</ele>
        <time>2021-10-03T05:30:38.000Z</time>
      </trkpt>
      <trkpt lat="45.20431" lon="5.72511">
        <ele>639.59997558594</ele>
        <time>2021-10-03T05:30:40.000Z</time>
      </trkpt>
      <trkpt lat="45.20438" lon="5.7251">
        <ele>640.59997558594</ele>
        <time>2021-10-03T05:30:44.000Z</time>
      </trkpt>
      <trkpt lat="45.2044" lon="5.7251">
        <ele>640.59997558594</ele>
        <time>2021-10-03T05:30:45.000Z</time>
      </trkpt>
      <trkpt lat="45.20442" lon="5.72511">
        <ele>640.40002441406</ele>
        <time>2021-10-03T05:30:46.000Z</time>
      </trkpt>
      <trkpt lat="45.20454" lon="5.72525">
        <ele>641.40002441406</ele>
        <time>2021-10-03T05:30:55.000Z</time>
      </trkpt>
      <trkpt lat="45.20458" lon="5.7253">
        <ele>641.59997558594</ele>
        <time>2021-10-03T05:30:58.000Z</time>
      </trkpt>
      <trkpt lat="45.20462" lon="5.72532">
        <ele>642.20001220703</ele>
        <time>2021-10-03T05:31:01.000Z</time>
      </trkpt>
      <trkpt lat="45.20466" lon="5.72537">
        <ele>642.79998779297</ele>
        <time>2021-10-03T05:31:04.000Z</time>
      </trkpt>
      <trkpt lat="45.20475" lon="5.72547">
        <ele>644</ele>
        <time>2021-10-03T05:31:09.000Z</time>
      </trkpt>
      <trkpt lat="45.20477" lon="5.72549">
        <ele>644.20001220703</ele>
        <time>2021-10-03T05:31:10.000Z</time>
      </trkpt>
      <trkpt lat="45.20483" lon="5.72556">
        <ele>644.79998779297</ele>
        <time>2021-10-03T05:31:14.000Z</time>
      </trkpt>
      <trkpt lat="45.20485" lon="5.72556">
        <ele>645</ele>
        <time>2021-10-03T05:31:15.000Z</time>
      </trkpt>
      <trkpt lat="45.20485" lon="5.72554">
        <ele>645</ele>
        <time>2021-10-03T05:31:16.000Z</time>
      </trkpt>
      <trkpt lat="45.20487" lon="5.72551">
        <ele>645.79998779297</ele>
        <time>2021-10-03T05:31:19.000Z</time>
      </trkpt>
      <trkpt lat="45.20486" lon="5.7255">
        <ele>646</ele>
        <time>2021-10-03T05:31:20.000Z</time>
      </trkpt>
      <trkpt lat="45.20485" lon="5.72539">
        <ele>647.20001220703</ele>
        <time>2021-10-03T05:31:26.000Z</time>
      </trkpt>
      <trkpt lat="45.20484" lon="5.72534">
        <ele>647.79998779297</ele>
        <time>2021-10-03T05:31:29.000Z</time>
      </trkpt>
      <trkpt lat="45.20483" lon="5.72525">
        <ele>648.40002441406</ele>
        <time>2021-10-03T05:31:33.000Z</time>
      </trkpt>
      <trkpt lat="45.20484" lon="5.7252">
        <ele>649.40002441406</ele>
        <time>2021-10-03T05:31:35.000Z</time>
      </trkpt>
      <trkpt lat="45.20485" lon="5.72517">
        <ele>649.79998779297</ele>
        <time>2021-10-03T05:31:36.000Z</time>
      </trkpt>
      <trkpt lat="45.2048" lon="5.72501">
        <ele>649</ele>
        <time>2021-10-03T05:31:42.000Z</time>
      </trkpt>
      <trkpt lat="45.20478" lon="5.72499">
        <ele>648.40002441406</ele>
        <time>2021-10-03T05:31:43.000Z</time>
      </trkpt>
      <trkpt lat="45.20472" lon="5.72494">
        <ele>647.40002441406</ele>
        <time>2021-10-03T05:31:46.000Z</time>
      </trkpt>
      <trkpt lat="45.2047" lon="5.72493">
        <ele>647.40002441406</ele>
        <time>2021-10-03T05:31:47.000Z</time>
      </trkpt>
      <trkpt lat="45.2046" lon="5.72485">
        <ele>649.40002441406</ele>
        <time>2021-10-03T05:31:53.000Z</time>
      </trkpt>
      <trkpt lat="45.20458" lon="5.72485">
        <ele>649.79998779297</ele>
        <time>2021-10-03T05:31:54.000Z</time>
      </trkpt>
      <trkpt lat="45.20453" lon="5.72484">
        <ele>650.40002441406</ele>
        <time>2021-10-03T05:31:56.000Z</time>
      </trkpt>
      <trkpt lat="45.20451" lon="5.72483">
        <ele>650.59997558594</ele>
        <time>2021-10-03T05:31:57.000Z</time>
      </trkpt>
      <trkpt lat="45.20449" lon="5.72482">
        <ele>650.59997558594</ele>
        <time>2021-10-03T05:31:58.000Z</time>
      </trkpt>
      <trkpt lat="45.20446" lon="5.7248">
        <ele>650.79998779297</ele>
        <time>2021-10-03T05:31:59.000Z</time>
      </trkpt>
      <trkpt lat="45.20444" lon="5.72479">
        <ele>651</ele>
        <time>2021-10-03T05:32:00.000Z</time>
      </trkpt>
      <trkpt lat="45.20433" lon="5.7248">
        <ele>651.40002441406</ele>
        <time>2021-10-03T05:32:05.000Z</time>
      </trkpt>
      <trkpt lat="45.20425" lon="5.72477">
        <ele>651.40002441406</ele>
        <time>2021-10-03T05:32:08.000Z</time>
      </trkpt>
      <trkpt lat="45.20419" lon="5.72474">
        <ele>651</ele>
        <time>2021-10-03T05:32:10.000Z</time>
      </trkpt>
      <trkpt lat="45.20408" lon="5.72458">
        <ele>651.79998779297</ele>
        <time>2021-10-03T05:32:15.000Z</time>
      </trkpt>
      <trkpt lat="45.20405" lon="5.72456">
        <ele>652</ele>
        <time>2021-10-03T05:32:16.000Z</time>
      </trkpt>
      <trkpt lat="45.20398" lon="5.72449">
        <ele>652.79998779297</ele>
        <time>2021-10-03T05:32:20.000Z</time>
      </trkpt>
      <trkpt lat="45.20397" lon="5.72448">
        <ele>652.79998779297</ele>
        <time>2021-10-03T05:32:21.000Z</time>
      </trkpt>
      <trkpt lat="45.20397" lon="5.72444">
        <ele>653</ele>
        <time>2021-10-03T05:32:23.000Z</time>
      </trkpt>
      <trkpt lat="45.20397" lon="5.72443">
        <ele>653.20001220703</ele>
        <time>2021-10-03T05:32:24.000Z</time>
      </trkpt>
      <trkpt lat="45.20396" lon="5.72443">
        <ele>653.79998779297</ele>
        <time>2021-10-03T05:32:27.000Z</time>
      </trkpt>
      <trkpt lat="45.20393" lon="5.72444">
        <ele>654</ele>
        <time>2021-10-03T05:32:29.000Z</time>
      </trkpt>
      <trkpt lat="45.20392" lon="5.72444">
        <ele>654.20001220703</ele>
        <time>2021-10-03T05:32:30.000Z</time>
      </trkpt>
      <trkpt lat="45.2039" lon="5.72445">
        <ele>655.59997558594</ele>
        <time>2021-10-03T05:32:32.000Z</time>
      </trkpt>
      <trkpt lat="45.20388" lon="5.72443">
        <ele>656.20001220703</ele>
        <time>2021-10-03T05:32:34.000Z</time>
      </trkpt>
      <trkpt lat="45.20387" lon="5.7244">
        <ele>656.40002441406</ele>
        <time>2021-10-03T05:32:36.000Z</time>
      </trkpt>
      <trkpt lat="45.20387" lon="5.72436">
        <ele>656.59997558594</ele>
        <time>2021-10-03T05:32:38.000Z</time>
      </trkpt>
      <trkpt lat="45.2039" lon="5.72433">
        <ele>656.79998779297</ele>
        <time>2021-10-03T05:32:40.000Z</time>
      </trkpt>
      <trkpt lat="45.20391" lon="5.72432">
        <ele>657</ele>
        <time>2021-10-03T05:32:41.000Z</time>
      </trkpt>
      <trkpt lat="45.20396" lon="5.72431">
        <ele>657.59997558594</ele>
        <time>2021-10-03T05:32:44.000Z</time>
      </trkpt>
      <trkpt lat="45.20397" lon="5.72429">
        <ele>657.79998779297</ele>
        <time>2021-10-03T05:32:45.000Z</time>
      </trkpt>
      <trkpt lat="45.20398" lon="5.72426">
        <ele>658</ele>
        <time>2021-10-03T05:32:47.000Z</time>
      </trkpt>
      <trkpt lat="45.20398" lon="5.72424">
        <ele>658</ele>
        <time>2021-10-03T05:32:48.000Z</time>
      </trkpt>
      <trkpt lat="45.20398" lon="5.72421">
        <ele>658</ele>
        <time>2021-10-03T05:32:49.000Z</time>
      </trkpt>
      <trkpt lat="45.20398" lon="5.72417">
        <ele>657.79998779297</ele>
        <time>2021-10-03T05:32:51.000Z</time>
      </trkpt>
      <trkpt lat="45.20398" lon="5.72417">
        <ele>657.59997558594</ele>
        <time>2021-10-03T05:32:52.000Z</time>
      </trkpt>
      <trkpt lat="45.20399" lon="5.72417">
        <ele>657.40002441406</ele>
        <time>2021-10-03T05:32:53.000Z</time>
      </trkpt>
      <trkpt lat="45.20401" lon="5.72423">
        <ele>657.20001220703</ele>
        <time>2021-10-03T05:32:57.000Z</time>
      </trkpt>
      <trkpt lat="45.20401" lon="5.72425">
        <ele>657</ele>
        <time>2021-10-03T05:32:58.000Z</time>
      </trkpt>
      <trkpt lat="45.20404" lon="5.72428">
        <ele>657.20001220703</ele>
        <time>2021-10-03T05:33:00.000Z</time>
      </trkpt>
      <trkpt lat="45.20406" lon="5.72429">
        <ele>657.40002441406</ele>
        <time>2021-10-03T05:33:01.000Z</time>
      </trkpt>
      <trkpt lat="45.20408" lon="5.72429">
        <ele>657.59997558594</ele>
        <time>2021-10-03T05:33:02.000Z</time>
      </trkpt>
      <trkpt lat="45.20419" lon="5.72422">
        <ele>658</ele>
        <time>2021-10-03T05:33:07.000Z</time>
      </trkpt>
      <trkpt lat="45.20429" lon="5.72417">
        <ele>656.40002441406</ele>
        <time>2021-10-03T05:33:13.000Z</time>
      </trkpt>
      <trkpt lat="45.20433" lon="5.72417">
        <ele>655.79998779297</ele>
        <time>2021-10-03T05:33:15.000Z</time>
      </trkpt>
      <trkpt lat="45.20437" lon="5.72417">
        <ele>655.20001220703</ele>
        <time>2021-10-03T05:33:17.000Z</time>
      </trkpt>
      <trkpt lat="45.20441" lon="5.72416">
        <ele>654.79998779297</ele>
        <time>2021-10-03T05:33:19.000Z</time>
      </trkpt>
      <trkpt lat="45.20455" lon="5.72422">
        <ele>654.40002441406</ele>
        <time>2021-10-03T05:33:27.000Z</time>
      </trkpt>
      <trkpt lat="45.2047" lon="5.72427">
        <ele>654.20001220703</ele>
        <time>2021-10-03T05:33:34.000Z</time>
      </trkpt>
      <trkpt lat="45.20472" lon="5.72428">
        <ele>654</ele>
        <time>2021-10-03T05:33:35.000Z</time>
      </trkpt>
      <trkpt lat="45.20481" lon="5.72423">
        <ele>653.79998779297</ele>
        <time>2021-10-03T05:33:39.000Z</time>
      </trkpt>
      <trkpt lat="45.20485" lon="5.72422">
        <ele>653.79998779297</ele>
        <time>2021-10-03T05:33:41.000Z</time>
      </trkpt>
      <trkpt lat="45.2049" lon="5.72425">
        <ele>654.20001220703</ele>
        <time>2021-10-03T05:33:44.000Z</time>
      </trkpt>
      <trkpt lat="45.20499" lon="5.72432">
        <ele>655</ele>
        <time>2021-10-03T05:33:49.000Z</time>
      </trkpt>
      <trkpt lat="45.20501" lon="5.72433">
        <ele>655.40002441406</ele>
        <time>2021-10-03T05:33:50.000Z</time>
      </trkpt>
      <trkpt lat="45.20508" lon="5.72436">
        <ele>655.59997558594</ele>
        <time>2021-10-03T05:33:54.000Z</time>
      </trkpt>
      <trkpt lat="45.20513" lon="5.72436">
        <ele>655.59997558594</ele>
        <time>2021-10-03T05:33:57.000Z</time>
      </trkpt>
      <trkpt lat="45.20517" lon="5.72437">
        <ele>655.20001220703</ele>
        <time>2021-10-03T05:34:00.000Z</time>
      </trkpt>
      <trkpt lat="45.20523" lon="5.72441">
        <ele>654.59997558594</ele>
        <time>2021-10-03T05:34:05.000Z</time>
      </trkpt>
      <trkpt lat="45.20525" lon="5.72442">
        <ele>654.59997558594</ele>
        <time>2021-10-03T05:34:06.000Z</time>
      </trkpt>
      <trkpt lat="45.20532" lon="5.72444">
        <ele>654.59997558594</ele>
        <time>2021-10-03T05:34:11.000Z</time>
      </trkpt>
      <trkpt lat="45.20537" lon="5.72446">
        <ele>654.59997558594</ele>
        <time>2021-10-03T05:34:14.000Z</time>
      </trkpt>
      <trkpt lat="45.2054" lon="5.7245">
        <ele>654.20001220703</ele>
        <time>2021-10-03T05:34:17.000Z</time>
      </trkpt>
      <trkpt lat="45.20543" lon="5.72453">
        <ele>654</ele>
        <time>2021-10-03T05:34:19.000Z</time>
      </trkpt>
      <trkpt lat="45.20553" lon="5.72459">
        <ele>653</ele>
        <time>2021-10-03T05:34:24.000Z</time>
      </trkpt>
      <trkpt lat="45.20562" lon="5.72464">
        <ele>653</ele>
        <time>2021-10-03T05:34:29.000Z</time>
      </trkpt>
      <trkpt lat="45.20564" lon="5.72465">
        <ele>653.40002441406</ele>
        <time>2021-10-03T05:34:30.000Z</time>
      </trkpt>
      <trkpt lat="45.20569" lon="5.7247">
        <ele>654</ele>
        <time>2021-10-03T05:34:33.000Z</time>
      </trkpt>
      <trkpt lat="45.20576" lon="5.72479">
        <ele>655</ele>
        <time>2021-10-03T05:34:37.000Z</time>
      </trkpt>
      <trkpt lat="45.20578" lon="5.72482">
        <ele>655</ele>
        <time>2021-10-03T05:34:38.000Z</time>
      </trkpt>
      <trkpt lat="45.20582" lon="5.72494">
        <ele>655</ele>
        <time>2021-10-03T05:34:42.000Z</time>
      </trkpt>
      <trkpt lat="45.20589" lon="5.72506">
        <ele>654.20001220703</ele>
        <time>2021-10-03T05:34:47.000Z</time>
      </trkpt>
      <trkpt lat="45.20592" lon="5.72517">
        <ele>653.79998779297</ele>
        <time>2021-10-03T05:34:50.000Z</time>
      </trkpt>
      <trkpt lat="45.20596" lon="5.72528">
        <ele>653</ele>
        <time>2021-10-03T05:34:53.000Z</time>
      </trkpt>
      <trkpt lat="45.20595" lon="5.72546">
        <ele>652.59997558594</ele>
        <time>2021-10-03T05:34:58.000Z</time>
      </trkpt>
      <trkpt lat="45.20595" lon="5.72548">
        <ele>652.59997558594</ele>
        <time>2021-10-03T05:34:59.000Z</time>
      </trkpt>
      <trkpt lat="45.20593" lon="5.72567">
        <ele>651.79998779297</ele>
        <time>2021-10-03T05:35:05.000Z</time>
      </trkpt>
      <trkpt lat="45.20594" lon="5.72569">
        <ele>651.79998779297</ele>
        <time>2021-10-03T05:35:06.000Z</time>
      </trkpt>
      <trkpt lat="45.20598" lon="5.72575">
        <ele>651.59997558594</ele>
        <time>2021-10-03T05:35:10.000Z</time>
      </trkpt>
      <trkpt lat="45.20599" lon="5.72577">
        <ele>651.40002441406</ele>
        <time>2021-10-03T05:35:11.000Z</time>
      </trkpt>
      <trkpt lat="45.20609" lon="5.72582">
        <ele>650.20001220703</ele>
        <time>2021-10-03T05:35:16.000Z</time>
      </trkpt>
      <trkpt lat="45.2061" lon="5.72583">
        <ele>650</ele>
        <time>2021-10-03T05:35:17.000Z</time>
      </trkpt>
      <trkpt lat="45.20623" lon="5.72592">
        <ele>650</ele>
        <time>2021-10-03T05:35:25.000Z</time>
      </trkpt>
      <trkpt lat="45.20629" lon="5.72598">
        <ele>651.20001220703</ele>
        <time>2021-10-03T05:35:29.000Z</time>
      </trkpt>
      <trkpt lat="45.2063" lon="5.72599">
        <ele>651.40002441406</ele>
        <time>2021-10-03T05:35:30.000Z</time>
      </trkpt>
      <trkpt lat="45.20633" lon="5.72598">
        <ele>651.59997558594</ele>
        <time>2021-10-03T05:35:32.000Z</time>
      </trkpt>
      <trkpt lat="45.20646" lon="5.72597">
        <ele>652.20001220703</ele>
        <time>2021-10-03T05:35:38.000Z</time>
      </trkpt>
      <trkpt lat="45.20652" lon="5.72594">
        <ele>653.20001220703</ele>
        <time>2021-10-03T05:35:41.000Z</time>
      </trkpt>
      <trkpt lat="45.20654" lon="5.72593">
        <ele>653.40002441406</ele>
        <time>2021-10-03T05:35:42.000Z</time>
      </trkpt>
      <trkpt lat="45.20665" lon="5.72583">
        <ele>654.59997558594</ele>
        <time>2021-10-03T05:35:50.000Z</time>
      </trkpt>
      <trkpt lat="45.20667" lon="5.72582">
        <ele>654.79998779297</ele>
        <time>2021-10-03T05:35:51.000Z</time>
      </trkpt>
      <trkpt lat="45.20677" lon="5.72577">
        <ele>655.79998779297</ele>
        <time>2021-10-03T05:35:56.000Z</time>
      </trkpt>
      <trkpt lat="45.20683" lon="5.72572">
        <ele>657.40002441406</ele>
        <time>2021-10-03T05:35:59.000Z</time>
      </trkpt>
      <trkpt lat="45.20688" lon="5.7257">
        <ele>659.20001220703</ele>
        <time>2021-10-03T05:36:02.000Z</time>
      </trkpt>
      <trkpt lat="45.20691" lon="5.72566">
        <ele>660.40002441406</ele>
        <time>2021-10-03T05:36:05.000Z</time>
      </trkpt>
      <trkpt lat="45.20692" lon="5.72565">
        <ele>660.59997558594</ele>
        <time>2021-10-03T05:36:06.000Z</time>
      </trkpt>
      <trkpt lat="45.20697" lon="5.72564">
        <ele>661.40002441406</ele>
        <time>2021-10-03T05:36:08.000Z</time>
      </trkpt>
      <trkpt lat="45.20702" lon="5.72566">
        <ele>662.59997558594</ele>
        <time>2021-10-03T05:36:12.000Z</time>
      </trkpt>
      <trkpt lat="45.20702" lon="5.72568">
        <ele>662.79998779297</ele>
        <time>2021-10-03T05:36:13.000Z</time>
      </trkpt>
      <trkpt lat="45.20707" lon="5.72569">
        <ele>663.59997558594</ele>
        <time>2021-10-03T05:36:17.000Z</time>
      </trkpt>
      <trkpt lat="45.20708" lon="5.7257">
        <ele>664</ele>
        <time>2021-10-03T05:36:18.000Z</time>
      </trkpt>
      <trkpt lat="45.20712" lon="5.72571">
        <ele>664.79998779297</ele>
        <time>2021-10-03T05:36:20.000Z</time>
      </trkpt>
      <trkpt lat="45.20716" lon="5.72573">
        <ele>666</ele>
        <time>2021-10-03T05:36:24.000Z</time>
      </trkpt>
      <trkpt lat="45.2072" lon="5.72571">
        <ele>667</ele>
        <time>2021-10-03T05:36:27.000Z</time>
      </trkpt>
      <trkpt lat="45.20725" lon="5.72574">
        <ele>668.20001220703</ele>
        <time>2021-10-03T05:36:30.000Z</time>
      </trkpt>
      <trkpt lat="45.20729" lon="5.72577">
        <ele>669.20001220703</ele>
        <time>2021-10-03T05:36:33.000Z</time>
      </trkpt>
      <trkpt lat="45.20731" lon="5.72579">
        <ele>669.59997558594</ele>
        <time>2021-10-03T05:36:35.000Z</time>
      </trkpt>
      <trkpt lat="45.20733" lon="5.7258">
        <ele>670</ele>
        <time>2021-10-03T05:36:37.000Z</time>
      </trkpt>
      <trkpt lat="45.20734" lon="5.72581">
        <ele>670.40002441406</ele>
        <time>2021-10-03T05:36:38.000Z</time>
      </trkpt>
      <trkpt lat="45.20738" lon="5.72583">
        <ele>671.79998779297</ele>
        <time>2021-10-03T05:36:42.000Z</time>
      </trkpt>
      <trkpt lat="45.20739" lon="5.72586">
        <ele>672.40002441406</ele>
        <time>2021-10-03T05:36:44.000Z</time>
      </trkpt>
      <trkpt lat="45.20739" lon="5.72588">
        <ele>672.59997558594</ele>
        <time>2021-10-03T05:36:45.000Z</time>
      </trkpt>
      <trkpt lat="45.20739" lon="5.7259">
        <ele>672.79998779297</ele>
        <time>2021-10-03T05:36:46.000Z</time>
      </trkpt>
      <trkpt lat="45.2074" lon="5.72592">
        <ele>673</ele>
        <time>2021-10-03T05:36:47.000Z</time>
      </trkpt>
      <trkpt lat="45.20741" lon="5.72598">
        <ele>673.40002441406</ele>
        <time>2021-10-03T05:36:50.000Z</time>
      </trkpt>
      <trkpt lat="45.20742" lon="5.72599">
        <ele>673.79998779297</ele>
        <time>2021-10-03T05:36:51.000Z</time>
      </trkpt>
      <trkpt lat="45.20744" lon="5.72609">
        <ele>675.20001220703</ele>
        <time>2021-10-03T05:36:55.000Z</time>
      </trkpt>
      <trkpt lat="45.20745" lon="5.72617">
        <ele>676.40002441406</ele>
        <time>2021-10-03T05:36:58.000Z</time>
      </trkpt>
      <trkpt lat="45.20746" lon="5.72617">
        <ele>676.59997558594</ele>
        <time>2021-10-03T05:36:59.000Z</time>
      </trkpt>
      <trkpt lat="45.20748" lon="5.72617">
        <ele>677.20001220703</ele>
        <time>2021-10-03T05:37:01.000Z</time>
      </trkpt>
      <trkpt lat="45.20748" lon="5.72617">
        <ele>677.40002441406</ele>
        <time>2021-10-03T05:37:02.000Z</time>
      </trkpt>
      <trkpt lat="45.20756" lon="5.72613">
        <ele>678.59997558594</ele>
        <time>2021-10-03T05:37:08.000Z</time>
      </trkpt>
      <trkpt lat="45.20761" lon="5.72612">
        <ele>679.59997558594</ele>
        <time>2021-10-03T05:37:12.000Z</time>
      </trkpt>
      <trkpt lat="45.20761" lon="5.72611">
        <ele>679.79998779297</ele>
        <time>2021-10-03T05:37:13.000Z</time>
      </trkpt>
      <trkpt lat="45.20765" lon="5.72609">
        <ele>681.20001220703</ele>
        <time>2021-10-03T05:37:17.000Z</time>
      </trkpt>
      <trkpt lat="45.20768" lon="5.72607">
        <ele>682</ele>
        <time>2021-10-03T05:37:19.000Z</time>
      </trkpt>
      <trkpt lat="45.20768" lon="5.72606">
        <ele>682.79998779297</ele>
        <time>2021-10-03T05:37:20.000Z</time>
      </trkpt>
      <trkpt lat="45.20769" lon="5.72607">
        <ele>683.40002441406</ele>
        <time>2021-10-03T05:37:21.000Z</time>
      </trkpt>
      <trkpt lat="45.2077" lon="5.72607">
        <ele>683.79998779297</ele>
        <time>2021-10-03T05:37:22.000Z</time>
      </trkpt>
      <trkpt lat="45.20773" lon="5.72608">
        <ele>684.20001220703</ele>
        <time>2021-10-03T05:37:24.000Z</time>
      </trkpt>
      <trkpt lat="45.20773" lon="5.7261">
        <ele>684.40002441406</ele>
        <time>2021-10-03T05:37:25.000Z</time>
      </trkpt>
      <trkpt lat="45.20774" lon="5.72611">
        <ele>684.79998779297</ele>
        <time>2021-10-03T05:37:26.000Z</time>
      </trkpt>
      <trkpt lat="45.20777" lon="5.72623">
        <ele>686</ele>
        <time>2021-10-03T05:37:32.000Z</time>
      </trkpt>
      <trkpt lat="45.20776" lon="5.72625">
        <ele>686.20001220703</ele>
        <time>2021-10-03T05:37:33.000Z</time>
      </trkpt>
      <trkpt lat="45.20777" lon="5.72631">
        <ele>687.20001220703</ele>
        <time>2021-10-03T05:37:36.000Z</time>
      </trkpt>
      <trkpt lat="45.20777" lon="5.72635">
        <ele>688.20001220703</ele>
        <time>2021-10-03T05:37:39.000Z</time>
      </trkpt>
      <trkpt lat="45.20777" lon="5.72637">
        <ele>688.40002441406</ele>
        <time>2021-10-03T05:37:40.000Z</time>
      </trkpt>
      <trkpt lat="45.20777" lon="5.72645">
        <ele>689.40002441406</ele>
        <time>2021-10-03T05:37:45.000Z</time>
      </trkpt>
      <trkpt lat="45.20778" lon="5.72645">
        <ele>689.59997558594</ele>
        <time>2021-10-03T05:37:46.000Z</time>
      </trkpt>
      <trkpt lat="45.20778" lon="5.72645">
        <ele>689.79998779297</ele>
        <time>2021-10-03T05:37:47.000Z</time>
      </trkpt>
      <trkpt lat="45.20781" lon="5.72644">
        <ele>690.59997558594</ele>
        <time>2021-10-03T05:37:49.000Z</time>
      </trkpt>
      <trkpt lat="45.20782" lon="5.72644">
        <ele>691</ele>
        <time>2021-10-03T05:37:50.000Z</time>
      </trkpt>
      <trkpt lat="45.20784" lon="5.72642">
        <ele>691.79998779297</ele>
        <time>2021-10-03T05:37:52.000Z</time>
      </trkpt>
      <trkpt lat="45.20785" lon="5.72641">
        <ele>692.59997558594</ele>
        <time>2021-10-03T05:37:53.000Z</time>
      </trkpt>
      <trkpt lat="45.20786" lon="5.72641">
        <ele>693</ele>
        <time>2021-10-03T05:37:54.000Z</time>
      </trkpt>
      <trkpt lat="45.20787" lon="5.72638">
        <ele>694.20001220703</ele>
        <time>2021-10-03T05:37:56.000Z</time>
      </trkpt>
      <trkpt lat="45.20788" lon="5.72636">
        <ele>695.20001220703</ele>
        <time>2021-10-03T05:37:58.000Z</time>
      </trkpt>
      <trkpt lat="45.20789" lon="5.72635">
        <ele>695.59997558594</ele>
        <time>2021-10-03T05:37:59.000Z</time>
      </trkpt>
      <trkpt lat="45.20793" lon="5.72631">
        <ele>696</ele>
        <time>2021-10-03T05:38:03.000Z</time>
      </trkpt>
      <trkpt lat="45.20794" lon="5.72628">
        <ele>696</ele>
        <time>2021-10-03T05:38:05.000Z</time>
      </trkpt>
      <trkpt lat="45.20794" lon="5.72626">
        <ele>696</ele>
        <time>2021-10-03T05:38:06.000Z</time>
      </trkpt>
      <trkpt lat="45.20794" lon="5.72622">
        <ele>696.40002441406</ele>
        <time>2021-10-03T05:38:08.000Z</time>
      </trkpt>
      <trkpt lat="45.20795" lon="5.72619">
        <ele>697</ele>
        <time>2021-10-03T05:38:10.000Z</time>
      </trkpt>
      <trkpt lat="45.20798" lon="5.72621">
        <ele>697.59997558594</ele>
        <time>2021-10-03T05:38:12.000Z</time>
      </trkpt>
      <trkpt lat="45.20799" lon="5.72625">
        <ele>698.79998779297</ele>
        <time>2021-10-03T05:38:15.000Z</time>
      </trkpt>
      <trkpt lat="45.20801" lon="5.72631">
        <ele>699.59997558594</ele>
        <time>2021-10-03T05:38:18.000Z</time>
      </trkpt>
      <trkpt lat="45.20803" lon="5.72633">
        <ele>700</ele>
        <time>2021-10-03T05:38:20.000Z</time>
      </trkpt>
      <trkpt lat="45.20803" lon="5.72636">
        <ele>701.20001220703</ele>
        <time>2021-10-03T05:38:23.000Z</time>
      </trkpt>
      <trkpt lat="45.20803" lon="5.72637">
        <ele>701.40002441406</ele>
        <time>2021-10-03T05:38:24.000Z</time>
      </trkpt>
      <trkpt lat="45.20804" lon="5.72642">
        <ele>702.40002441406</ele>
        <time>2021-10-03T05:38:27.000Z</time>
      </trkpt>
      <trkpt lat="45.20805" lon="5.72645">
        <ele>703.20001220703</ele>
        <time>2021-10-03T05:38:29.000Z</time>
      </trkpt>
      <trkpt lat="45.20805" lon="5.72646">
        <ele>703.40002441406</ele>
        <time>2021-10-03T05:38:30.000Z</time>
      </trkpt>
      <trkpt lat="45.20806" lon="5.72652">
        <ele>704.40002441406</ele>
        <time>2021-10-03T05:38:33.000Z</time>
      </trkpt>
      <trkpt lat="45.20806" lon="5.72654">
        <ele>704.59997558594</ele>
        <time>2021-10-03T05:38:34.000Z</time>
      </trkpt>
      <trkpt lat="45.20807" lon="5.72657">
        <ele>705</ele>
        <time>2021-10-03T05:38:35.000Z</time>
      </trkpt>
      <trkpt lat="45.20808" lon="5.72662">
        <ele>705.59997558594</ele>
        <time>2021-10-03T05:38:37.000Z</time>
      </trkpt>
      <trkpt lat="45.20809" lon="5.72667">
        <ele>706.40002441406</ele>
        <time>2021-10-03T05:38:40.000Z</time>
      </trkpt>
      <trkpt lat="45.20809" lon="5.72668">
        <ele>706.79998779297</ele>
        <time>2021-10-03T05:38:41.000Z</time>
      </trkpt>
      <trkpt lat="45.2081" lon="5.72668">
        <ele>707.20001220703</ele>
        <time>2021-10-03T05:38:42.000Z</time>
      </trkpt>
      <trkpt lat="45.20815" lon="5.72665">
        <ele>708</ele>
        <time>2021-10-03T05:38:45.000Z</time>
      </trkpt>
      <trkpt lat="45.2082" lon="5.72662">
        <ele>709.20001220703</ele>
        <time>2021-10-03T05:38:50.000Z</time>
      </trkpt>
      <trkpt lat="45.20821" lon="5.72661">
        <ele>709.40002441406</ele>
        <time>2021-10-03T05:38:51.000Z</time>
      </trkpt>
      <trkpt lat="45.20824" lon="5.72653">
        <ele>710</ele>
        <time>2021-10-03T05:38:56.000Z</time>
      </trkpt>
      <trkpt lat="45.20825" lon="5.72652">
        <ele>710.20001220703</ele>
        <time>2021-10-03T05:38:57.000Z</time>
      </trkpt>
      <trkpt lat="45.20827" lon="5.72651">
        <ele>710.59997558594</ele>
        <time>2021-10-03T05:38:59.000Z</time>
      </trkpt>
      <trkpt lat="45.2083" lon="5.72651">
        <ele>710.79998779297</ele>
        <time>2021-10-03T05:39:01.000Z</time>
      </trkpt>
      <trkpt lat="45.20831" lon="5.72652">
        <ele>711.20001220703</ele>
        <time>2021-10-03T05:39:02.000Z</time>
      </trkpt>
      <trkpt lat="45.20831" lon="5.72654">
        <ele>711.79998779297</ele>
        <time>2021-10-03T05:39:03.000Z</time>
      </trkpt>
      <trkpt lat="45.20832" lon="5.72656">
        <ele>712</ele>
        <time>2021-10-03T05:39:04.000Z</time>
      </trkpt>
      <trkpt lat="45.20833" lon="5.72657">
        <ele>712.40002441406</ele>
        <time>2021-10-03T05:39:05.000Z</time>
      </trkpt>
      <trkpt lat="45.20836" lon="5.72661">
        <ele>713.20001220703</ele>
        <time>2021-10-03T05:39:08.000Z</time>
      </trkpt>
      <trkpt lat="45.20836" lon="5.72663">
        <ele>713.59997558594</ele>
        <time>2021-10-03T05:39:09.000Z</time>
      </trkpt>
      <trkpt lat="45.20838" lon="5.7267">
        <ele>714.79998779297</ele>
        <time>2021-10-03T05:39:13.000Z</time>
      </trkpt>
      <trkpt lat="45.20837" lon="5.72674">
        <ele>715</ele>
        <time>2021-10-03T05:39:15.000Z</time>
      </trkpt>
      <trkpt lat="45.20837" lon="5.72679">
        <ele>715.40002441406</ele>
        <time>2021-10-03T05:39:17.000Z</time>
      </trkpt>
      <trkpt lat="45.20837" lon="5.72683">
        <ele>716</ele>
        <time>2021-10-03T05:39:19.000Z</time>
      </trkpt>
      <trkpt lat="45.20837" lon="5.72687">
        <ele>716.40002441406</ele>
        <time>2021-10-03T05:39:21.000Z</time>
      </trkpt>
      <trkpt lat="45.20837" lon="5.7269">
        <ele>717.59997558594</ele>
        <time>2021-10-03T05:39:23.000Z</time>
      </trkpt>
      <trkpt lat="45.20837" lon="5.72693">
        <ele>719.20001220703</ele>
        <time>2021-10-03T05:39:25.000Z</time>
      </trkpt>
      <trkpt lat="45.20837" lon="5.72698">
        <ele>720.40002441406</ele>
        <time>2021-10-03T05:39:28.000Z</time>
      </trkpt>
      <trkpt lat="45.20837" lon="5.72702">
        <ele>721.59997558594</ele>
        <time>2021-10-03T05:39:31.000Z</time>
      </trkpt>
      <trkpt lat="45.20836" lon="5.7271">
        <ele>723</ele>
        <time>2021-10-03T05:39:36.000Z</time>
      </trkpt>
      <trkpt lat="45.20835" lon="5.72712">
        <ele>724.20001220703</ele>
        <time>2021-10-03T05:39:39.000Z</time>
      </trkpt>
      <trkpt lat="45.20832" lon="5.72714">
        <ele>725.40002441406</ele>
        <time>2021-10-03T05:39:42.000Z</time>
      </trkpt>
      <trkpt lat="45.20831" lon="5.72715">
        <ele>725.59997558594</ele>
        <time>2021-10-03T05:39:43.000Z</time>
      </trkpt>
      <trkpt lat="45.2083" lon="5.72717">
        <ele>726.20001220703</ele>
        <time>2021-10-03T05:39:45.000Z</time>
      </trkpt>
      <trkpt lat="45.20831" lon="5.72717">
        <ele>726.40002441406</ele>
        <time>2021-10-03T05:39:46.000Z</time>
      </trkpt>
      <trkpt lat="45.20828" lon="5.72721">
        <ele>726.79998779297</ele>
        <time>2021-10-03T05:39:49.000Z</time>
      </trkpt>
      <trkpt lat="45.20827" lon="5.72721">
        <ele>727.20001220703</ele>
        <time>2021-10-03T05:39:50.000Z</time>
      </trkpt>
      <trkpt lat="45.20825" lon="5.72721">
        <ele>727.59997558594</ele>
        <time>2021-10-03T05:39:52.000Z</time>
      </trkpt>
      <trkpt lat="45.20824" lon="5.72724">
        <ele>728.40002441406</ele>
        <time>2021-10-03T05:39:55.000Z</time>
      </trkpt>
      <trkpt lat="45.20823" lon="5.72725">
        <ele>728.59997558594</ele>
        <time>2021-10-03T05:39:56.000Z</time>
      </trkpt>
      <trkpt lat="45.20821" lon="5.72728">
        <ele>727.59997558594</ele>
        <time>2021-10-03T05:40:02.000Z</time>
      </trkpt>
      <trkpt lat="45.20821" lon="5.72729">
        <ele>727.40002441406</ele>
        <time>2021-10-03T05:40:03.000Z</time>
      </trkpt>
      <trkpt lat="45.20818" lon="5.7273">
        <ele>726.79998779297</ele>
        <time>2021-10-03T05:40:06.000Z</time>
      </trkpt>
      <trkpt lat="45.20816" lon="5.72731">
        <ele>726.40002441406</ele>
        <time>2021-10-03T05:40:08.000Z</time>
      </trkpt>
      <trkpt lat="45.20813" lon="5.72732">
        <ele>726</ele>
        <time>2021-10-03T05:40:12.000Z</time>
      </trkpt>
      <trkpt lat="45.2081" lon="5.72732">
        <ele>726</ele>
        <time>2021-10-03T05:40:14.000Z</time>
      </trkpt>
      <trkpt lat="45.20807" lon="5.72733">
        <ele>726.20001220703</ele>
        <time>2021-10-03T05:40:17.000Z</time>
      </trkpt>
      <trkpt lat="45.20806" lon="5.7273">
        <ele>726.59997558594</ele>
        <time>2021-10-03T05:40:19.000Z</time>
      </trkpt>
      <trkpt lat="45.20804" lon="5.72729">
        <ele>726.79998779297</ele>
        <time>2021-10-03T05:40:21.000Z</time>
      </trkpt>
      <trkpt lat="45.20803" lon="5.72728">
        <ele>727.40002441406</ele>
        <time>2021-10-03T05:40:23.000Z</time>
      </trkpt>
      <trkpt lat="45.20803" lon="5.72728">
        <ele>727.79998779297</ele>
        <time>2021-10-03T05:40:24.000Z</time>
      </trkpt>
      <trkpt lat="45.20802" lon="5.72728">
        <ele>728</ele>
        <time>2021-10-03T05:40:25.000Z</time>
      </trkpt>
      <trkpt lat="45.20801" lon="5.72729">
        <ele>728.40002441406</ele>
        <time>2021-10-03T05:40:28.000Z</time>
      </trkpt>
      <trkpt lat="45.208" lon="5.72729">
        <ele>729.20001220703</ele>
        <time>2021-10-03T05:40:33.000Z</time>
      </trkpt>
      <trkpt lat="45.208" lon="5.72729">
        <ele>729.40002441406</ele>
        <time>2021-10-03T05:40:34.000Z</time>
      </trkpt>
      <trkpt lat="45.20799" lon="5.7273">
        <ele>729.79998779297</ele>
        <time>2021-10-03T05:40:36.000Z</time>
      </trkpt>
      <trkpt lat="45.20799" lon="5.7273">
        <ele>730</ele>
        <time>2021-10-03T05:40:40.000Z</time>
      </trkpt>
      <trkpt lat="45.20799" lon="5.7273">
        <ele>729.59997558594</ele>
        <time>2021-10-03T05:40:43.000Z</time>
      </trkpt>
      <trkpt lat="45.208" lon="5.7273">
        <ele>729.20001220703</ele>
        <time>2021-10-03T05:40:45.000Z</time>
      </trkpt>
      <trkpt lat="45.208" lon="5.7273">
        <ele>729</ele>
        <time>2021-10-03T05:40:47.000Z</time>
      </trkpt>
      <trkpt lat="45.208" lon="5.7273">
        <ele>728.59997558594</ele>
        <time>2021-10-03T05:40:49.000Z</time>
      </trkpt>
      <trkpt lat="45.20801" lon="5.72729">
        <ele>727.40002441406</ele>
        <time>2021-10-03T05:40:56.000Z</time>
      </trkpt>
      <trkpt lat="45.20802" lon="5.72729">
        <ele>727.20001220703</ele>
        <time>2021-10-03T05:41:00.000Z</time>
      </trkpt>
      <trkpt lat="45.20804" lon="5.72729">
        <ele>727.59997558594</ele>
        <time>2021-10-03T05:41:03.000Z</time>
      </trkpt>
      <trkpt lat="45.20809" lon="5.72728">
        <ele>727.79998779297</ele>
        <time>2021-10-03T05:41:06.000Z</time>
      </trkpt>
      <trkpt lat="45.20812" lon="5.72725">
        <ele>728.40002441406</ele>
        <time>2021-10-03T05:41:09.000Z</time>
      </trkpt>
      <trkpt lat="45.20814" lon="5.72723">
        <ele>729.20001220703</ele>
        <time>2021-10-03T05:41:11.000Z</time>
      </trkpt>
      <trkpt lat="45.20816" lon="5.72721">
        <ele>729.59997558594</ele>
        <time>2021-10-03T05:41:13.000Z</time>
      </trkpt>
      <trkpt lat="45.20817" lon="5.72721">
        <ele>729.79998779297</ele>
        <time>2021-10-03T05:41:14.000Z</time>
      </trkpt>
      <trkpt lat="45.2082" lon="5.72718">
        <ele>730</ele>
        <time>2021-10-03T05:41:18.000Z</time>
      </trkpt>
      <trkpt lat="45.2082" lon="5.72718">
        <ele>730</ele>
        <time>2021-10-03T05:41:19.000Z</time>
      </trkpt>
      <trkpt lat="45.20821" lon="5.72719">
        <ele>730</ele>
        <time>2021-10-03T05:41:20.000Z</time>
      </trkpt>
      <trkpt lat="45.20824" lon="5.72716">
        <ele>730.40002441406</ele>
        <time>2021-10-03T05:41:25.000Z</time>
      </trkpt>
      <trkpt lat="45.20825" lon="5.72715">
        <ele>729</ele>
        <time>2021-10-03T05:41:29.000Z</time>
      </trkpt>
      <trkpt lat="45.20826" lon="5.72714">
        <ele>728.79998779297</ele>
        <time>2021-10-03T05:41:30.000Z</time>
      </trkpt>
      <trkpt lat="45.20826" lon="5.72713">
        <ele>728.40002441406</ele>
        <time>2021-10-03T05:41:32.000Z</time>
      </trkpt>
      <trkpt lat="45.20826" lon="5.7271">
        <ele>727.40002441406</ele>
        <time>2021-10-03T05:41:35.000Z</time>
      </trkpt>
      <trkpt lat="45.20828" lon="5.72708">
        <ele>726</ele>
        <time>2021-10-03T05:41:38.000Z</time>
      </trkpt>
      <trkpt lat="45.20828" lon="5.72707">
        <ele>725.59997558594</ele>
        <time>2021-10-03T05:41:39.000Z</time>
      </trkpt>
      <trkpt lat="45.20828" lon="5.72705">
        <ele>725.20001220703</ele>
        <time>2021-10-03T05:41:40.000Z</time>
      </trkpt>
      <trkpt lat="45.20829" lon="5.72704">
        <ele>724.79998779297</ele>
        <time>2021-10-03T05:41:41.000Z</time>
      </trkpt>
      <trkpt lat="45.2083" lon="5.72703">
        <ele>724.59997558594</ele>
        <time>2021-10-03T05:41:42.000Z</time>
      </trkpt>
      <trkpt lat="45.20831" lon="5.727">
        <ele>723.20001220703</ele>
        <time>2021-10-03T05:41:45.000Z</time>
      </trkpt>
      <trkpt lat="45.20833" lon="5.72697">
        <ele>722.40002441406</ele>
        <time>2021-10-03T05:41:47.000Z</time>
      </trkpt>
      <trkpt lat="45.20833" lon="5.72695">
        <ele>722</ele>
        <time>2021-10-03T05:41:48.000Z</time>
      </trkpt>
      <trkpt lat="45.20832" lon="5.7269">
        <ele>721.20001220703</ele>
        <time>2021-10-03T05:41:51.000Z</time>
      </trkpt>
      <trkpt lat="45.20832" lon="5.72688">
        <ele>720.79998779297</ele>
        <time>2021-10-03T05:41:52.000Z</time>
      </trkpt>
      <trkpt lat="45.20831" lon="5.72685">
        <ele>720.20001220703</ele>
        <time>2021-10-03T05:41:53.000Z</time>
      </trkpt>
      <trkpt lat="45.20831" lon="5.72683">
        <ele>719.79998779297</ele>
        <time>2021-10-03T05:41:54.000Z</time>
      </trkpt>
      <trkpt lat="45.20831" lon="5.7268">
        <ele>718.40002441406</ele>
        <time>2021-10-03T05:41:56.000Z</time>
      </trkpt>
      <trkpt lat="45.20832" lon="5.72677">
        <ele>717.59997558594</ele>
        <time>2021-10-03T05:41:58.000Z</time>
      </trkpt>
      <trkpt lat="45.20831" lon="5.72675">
        <ele>717.20001220703</ele>
        <time>2021-10-03T05:41:59.000Z</time>
      </trkpt>
      <trkpt lat="45.20829" lon="5.7267">
        <ele>715.40002441406</ele>
        <time>2021-10-03T05:42:02.000Z</time>
      </trkpt>
      <trkpt lat="45.20829" lon="5.72667">
        <ele>714.20001220703</ele>
        <time>2021-10-03T05:42:04.000Z</time>
      </trkpt>
      <trkpt lat="45.20828" lon="5.72665">
        <ele>713.79998779297</ele>
        <time>2021-10-03T05:42:06.000Z</time>
      </trkpt>
      <trkpt lat="45.20827" lon="5.72663">
        <ele>713.40002441406</ele>
        <time>2021-10-03T05:42:09.000Z</time>
      </trkpt>
      <trkpt lat="45.20827" lon="5.72665">
        <ele>713.20001220703</ele>
        <time>2021-10-03T05:42:11.000Z</time>
      </trkpt>
      <trkpt lat="45.20827" lon="5.72669">
        <ele>711.79998779297</ele>
        <time>2021-10-03T05:42:14.000Z</time>
      </trkpt>
      <trkpt lat="45.20826" lon="5.72671">
        <ele>711.40002441406</ele>
        <time>2021-10-03T05:42:15.000Z</time>
      </trkpt>
      <trkpt lat="45.20825" lon="5.72671">
        <ele>710.79998779297</ele>
        <time>2021-10-03T05:42:16.000Z</time>
      </trkpt>
      <trkpt lat="45.20822" lon="5.72672">
        <ele>709.20001220703</ele>
        <time>2021-10-03T05:42:18.000Z</time>
      </trkpt>
      <trkpt lat="45.20821" lon="5.72672">
        <ele>708.20001220703</ele>
        <time>2021-10-03T05:42:20.000Z</time>
      </trkpt>
      <trkpt lat="45.2082" lon="5.72672">
        <ele>707.79998779297</ele>
        <time>2021-10-03T05:42:21.000Z</time>
      </trkpt>
      <trkpt lat="45.20815" lon="5.72673">
        <ele>706.59997558594</ele>
        <time>2021-10-03T05:42:24.000Z</time>
      </trkpt>
      <trkpt lat="45.20813" lon="5.72672">
        <ele>706.40002441406</ele>
        <time>2021-10-03T05:42:25.000Z</time>
      </trkpt>
      <trkpt lat="45.20811" lon="5.72669">
        <ele>706.40002441406</ele>
        <time>2021-10-03T05:42:27.000Z</time>
      </trkpt>
      <trkpt lat="45.20807" lon="5.72658">
        <ele>705.40002441406</ele>
        <time>2021-10-03T05:42:32.000Z</time>
      </trkpt>
      <trkpt lat="45.20806" lon="5.72655">
        <ele>703.79998779297</ele>
        <time>2021-10-03T05:42:34.000Z</time>
      </trkpt>
      <trkpt lat="45.20805" lon="5.72654">
        <ele>703.40002441406</ele>
        <time>2021-10-03T05:42:35.000Z</time>
      </trkpt>
      <trkpt lat="45.20805" lon="5.72653">
        <ele>703</ele>
        <time>2021-10-03T05:42:36.000Z</time>
      </trkpt>
      <trkpt lat="45.20805" lon="5.72651">
        <ele>702.59997558594</ele>
        <time>2021-10-03T05:42:37.000Z</time>
      </trkpt>
      <trkpt lat="45.20804" lon="5.72649">
        <ele>701.59997558594</ele>
        <time>2021-10-03T05:42:38.000Z</time>
      </trkpt>
      <trkpt lat="45.20804" lon="5.72648">
        <ele>701.20001220703</ele>
        <time>2021-10-03T05:42:39.000Z</time>
      </trkpt>
      <trkpt lat="45.20804" lon="5.72647">
        <ele>700.79998779297</ele>
        <time>2021-10-03T05:42:40.000Z</time>
      </trkpt>
      <trkpt lat="45.20801" lon="5.72643">
        <ele>700.40002441406</ele>
        <time>2021-10-03T05:42:44.000Z</time>
      </trkpt>
      <trkpt lat="45.20798" lon="5.72639">
        <ele>700</ele>
        <time>2021-10-03T05:42:46.000Z</time>
      </trkpt>
      <trkpt lat="45.20797" lon="5.72638">
        <ele>699.59997558594</ele>
        <time>2021-10-03T05:42:47.000Z</time>
      </trkpt>
      <trkpt lat="45.20797" lon="5.72634">
        <ele>698.59997558594</ele>
        <time>2021-10-03T05:42:50.000Z</time>
      </trkpt>
      <trkpt lat="45.20796" lon="5.72633">
        <ele>697.79998779297</ele>
        <time>2021-10-03T05:42:52.000Z</time>
      </trkpt>
      <trkpt lat="45.20796" lon="5.72634">
        <ele>697.40002441406</ele>
        <time>2021-10-03T05:42:54.000Z</time>
      </trkpt>
      <trkpt lat="45.20794" lon="5.72636">
        <ele>696.59997558594</ele>
        <time>2021-10-03T05:42:56.000Z</time>
      </trkpt>
      <trkpt lat="45.20794" lon="5.72638">
        <ele>696.40002441406</ele>
        <time>2021-10-03T05:42:57.000Z</time>
      </trkpt>
      <trkpt lat="45.20792" lon="5.72643">
        <ele>695.20001220703</ele>
        <time>2021-10-03T05:43:00.000Z</time>
      </trkpt>
      <trkpt lat="45.20791" lon="5.72644">
        <ele>695</ele>
        <time>2021-10-03T05:43:01.000Z</time>
      </trkpt>
      <trkpt lat="45.2079" lon="5.72645">
        <ele>694.40002441406</ele>
        <time>2021-10-03T05:43:02.000Z</time>
      </trkpt>
      <trkpt lat="45.2079" lon="5.72646">
        <ele>694</ele>
        <time>2021-10-03T05:43:03.000Z</time>
      </trkpt>
      <trkpt lat="45.2079" lon="5.72647">
        <ele>693.59997558594</ele>
        <time>2021-10-03T05:43:05.000Z</time>
      </trkpt>
      <trkpt lat="45.20789" lon="5.72647">
        <ele>693.40002441406</ele>
        <time>2021-10-03T05:43:06.000Z</time>
      </trkpt>
      <trkpt lat="45.20788" lon="5.72649">
        <ele>693</ele>
        <time>2021-10-03T05:43:07.000Z</time>
      </trkpt>
      <trkpt lat="45.20788" lon="5.72649">
        <ele>692.79998779297</ele>
        <time>2021-10-03T05:43:08.000Z</time>
      </trkpt>
      <trkpt lat="45.20785" lon="5.7265">
        <ele>692</ele>
        <time>2021-10-03T05:43:11.000Z</time>
      </trkpt>
      <trkpt lat="45.20783" lon="5.7265">
        <ele>691.40002441406</ele>
        <time>2021-10-03T05:43:13.000Z</time>
      </trkpt>
      <trkpt lat="45.20782" lon="5.72649">
        <ele>691</ele>
        <time>2021-10-03T05:43:14.000Z</time>
      </trkpt>
      <trkpt lat="45.2078" lon="5.72646">
        <ele>690.20001220703</ele>
        <time>2021-10-03T05:43:16.000Z</time>
      </trkpt>
      <trkpt lat="45.2078" lon="5.72646">
        <ele>689.79998779297</ele>
        <time>2021-10-03T05:43:17.000Z</time>
      </trkpt>
      <trkpt lat="45.20777" lon="5.7264">
        <ele>689</ele>
        <time>2021-10-03T05:43:20.000Z</time>
      </trkpt>
      <trkpt lat="45.20776" lon="5.72637">
        <ele>688.59997558594</ele>
        <time>2021-10-03T05:43:21.000Z</time>
      </trkpt>
      <trkpt lat="45.20775" lon="5.72635">
        <ele>688.40002441406</ele>
        <time>2021-10-03T05:43:22.000Z</time>
      </trkpt>
      <trkpt lat="45.20776" lon="5.72631">
        <ele>687.79998779297</ele>
        <time>2021-10-03T05:43:24.000Z</time>
      </trkpt>
      <trkpt lat="45.20773" lon="5.7262">
        <ele>687</ele>
        <time>2021-10-03T05:43:29.000Z</time>
      </trkpt>
      <trkpt lat="45.20772" lon="5.72619">
        <ele>687</ele>
        <time>2021-10-03T05:43:30.000Z</time>
      </trkpt>
      <trkpt lat="45.20771" lon="5.72619">
        <ele>686.40002441406</ele>
        <time>2021-10-03T05:43:31.000Z</time>
      </trkpt>
      <trkpt lat="45.2077" lon="5.72618">
        <ele>685.59997558594</ele>
        <time>2021-10-03T05:43:33.000Z</time>
      </trkpt>
      <trkpt lat="45.2077" lon="5.72619">
        <ele>685.40002441406</ele>
        <time>2021-10-03T05:43:34.000Z</time>
      </trkpt>
      <trkpt lat="45.20768" lon="5.72621">
        <ele>684.40002441406</ele>
        <time>2021-10-03T05:43:37.000Z</time>
      </trkpt>
      <trkpt lat="45.20767" lon="5.72622">
        <ele>684</ele>
        <time>2021-10-03T05:43:38.000Z</time>
      </trkpt>
      <trkpt lat="45.20767" lon="5.72622">
        <ele>684</ele>
        <time>2021-10-03T05:43:39.000Z</time>
      </trkpt>
      <trkpt lat="45.20765" lon="5.72623">
        <ele>683.20001220703</ele>
        <time>2021-10-03T05:43:41.000Z</time>
      </trkpt>
      <trkpt lat="45.20761" lon="5.72624">
        <ele>682.59997558594</ele>
        <time>2021-10-03T05:43:43.000Z</time>
      </trkpt>
      <trkpt lat="45.2076" lon="5.72625">
        <ele>682.20001220703</ele>
        <time>2021-10-03T05:43:44.000Z</time>
      </trkpt>
      <trkpt lat="45.20758" lon="5.72625">
        <ele>682</ele>
        <time>2021-10-03T05:43:45.000Z</time>
      </trkpt>
      <trkpt lat="45.20757" lon="5.72625">
        <ele>681.40002441406</ele>
        <time>2021-10-03T05:43:47.000Z</time>
      </trkpt>
      <trkpt lat="45.20755" lon="5.72625">
        <ele>681</ele>
        <time>2021-10-03T05:43:48.000Z</time>
      </trkpt>
      <trkpt lat="45.20754" lon="5.72624">
        <ele>679.79998779297</ele>
        <time>2021-10-03T05:43:49.000Z</time>
      </trkpt>
      <trkpt lat="45.20751" lon="5.72617">
        <ele>678.59997558594</ele>
        <time>2021-10-03T05:43:52.000Z</time>
      </trkpt>
      <trkpt lat="45.20749" lon="5.7261">
        <ele>677.40002441406</ele>
        <time>2021-10-03T05:43:55.000Z</time>
      </trkpt>
      <trkpt lat="45.20745" lon="5.72606">
        <ele>676.40002441406</ele>
        <time>2021-10-03T05:43:58.000Z</time>
      </trkpt>
      <trkpt lat="45.20744" lon="5.72602">
        <ele>675.79998779297</ele>
        <time>2021-10-03T05:44:00.000Z</time>
      </trkpt>
      <trkpt lat="45.20742" lon="5.72598">
        <ele>675.20001220703</ele>
        <time>2021-10-03T05:44:02.000Z</time>
      </trkpt>
      <trkpt lat="45.2074" lon="5.72595">
        <ele>674.79998779297</ele>
        <time>2021-10-03T05:44:04.000Z</time>
      </trkpt>
      <trkpt lat="45.20737" lon="5.72595">
        <ele>674.40002441406</ele>
        <time>2021-10-03T05:44:06.000Z</time>
      </trkpt>
      <trkpt lat="45.20735" lon="5.72594">
        <ele>674</ele>
        <time>2021-10-03T05:44:07.000Z</time>
      </trkpt>
      <trkpt lat="45.20731" lon="5.72592">
        <ele>672.79998779297</ele>
        <time>2021-10-03T05:44:10.000Z</time>
      </trkpt>
      <trkpt lat="45.20728" lon="5.72591">
        <ele>672.20001220703</ele>
        <time>2021-10-03T05:44:12.000Z</time>
      </trkpt>
      <trkpt lat="45.20724" lon="5.72588">
        <ele>671.59997558594</ele>
        <time>2021-10-03T05:44:14.000Z</time>
      </trkpt>
      <trkpt lat="45.20722" lon="5.72586">
        <ele>670.59997558594</ele>
        <time>2021-10-03T05:44:16.000Z</time>
      </trkpt>
      <trkpt lat="45.20721" lon="5.72586">
        <ele>670.40002441406</ele>
        <time>2021-10-03T05:44:17.000Z</time>
      </trkpt>
      <trkpt lat="45.20718" lon="5.72586">
        <ele>669.59997558594</ele>
        <time>2021-10-03T05:44:19.000Z</time>
      </trkpt>
      <trkpt lat="45.20717" lon="5.72584">
        <ele>669</ele>
        <time>2021-10-03T05:44:21.000Z</time>
      </trkpt>
      <trkpt lat="45.20717" lon="5.72583">
        <ele>668.40002441406</ele>
        <time>2021-10-03T05:44:22.000Z</time>
      </trkpt>
      <trkpt lat="45.20716" lon="5.72583">
        <ele>667.59997558594</ele>
        <time>2021-10-03T05:44:23.000Z</time>
      </trkpt>
      <trkpt lat="45.20715" lon="5.72582">
        <ele>667.20001220703</ele>
        <time>2021-10-03T05:44:24.000Z</time>
      </trkpt>
      <trkpt lat="45.2071" lon="5.72581">
        <ele>666.40002441406</ele>
        <time>2021-10-03T05:44:27.000Z</time>
      </trkpt>
      <trkpt lat="45.20708" lon="5.7258">
        <ele>666.20001220703</ele>
        <time>2021-10-03T05:44:28.000Z</time>
      </trkpt>
      <trkpt lat="45.20707" lon="5.72578">
        <ele>666</ele>
        <time>2021-10-03T05:44:29.000Z</time>
      </trkpt>
      <trkpt lat="45.20706" lon="5.72573">
        <ele>665</ele>
        <time>2021-10-03T05:44:31.000Z</time>
      </trkpt>
      <trkpt lat="45.20705" lon="5.72572">
        <ele>664.79998779297</ele>
        <time>2021-10-03T05:44:32.000Z</time>
      </trkpt>
      <trkpt lat="45.20699" lon="5.72571">
        <ele>663.79998779297</ele>
        <time>2021-10-03T05:44:36.000Z</time>
      </trkpt>
      <trkpt lat="45.20697" lon="5.72572">
        <ele>663.20001220703</ele>
        <time>2021-10-03T05:44:38.000Z</time>
      </trkpt>
      <trkpt lat="45.2069" lon="5.72575">
        <ele>662.79998779297</ele>
        <time>2021-10-03T05:44:41.000Z</time>
      </trkpt>
      <trkpt lat="45.20684" lon="5.72578">
        <ele>661.59997558594</ele>
        <time>2021-10-03T05:44:44.000Z</time>
      </trkpt>
      <trkpt lat="45.20683" lon="5.72579">
        <ele>661.20001220703</ele>
        <time>2021-10-03T05:44:45.000Z</time>
      </trkpt>
      <trkpt lat="45.20682" lon="5.7258">
        <ele>660.79998779297</ele>
        <time>2021-10-03T05:44:46.000Z</time>
      </trkpt>
      <trkpt lat="45.2068" lon="5.72581">
        <ele>660.40002441406</ele>
        <time>2021-10-03T05:44:47.000Z</time>
      </trkpt>
      <trkpt lat="45.20676" lon="5.72583">
        <ele>659.79998779297</ele>
        <time>2021-10-03T05:44:49.000Z</time>
      </trkpt>
      <trkpt lat="45.20672" lon="5.72587">
        <ele>659.40002441406</ele>
        <time>2021-10-03T05:44:51.000Z</time>
      </trkpt>
      <trkpt lat="45.20667" lon="5.72591">
        <ele>658.79998779297</ele>
        <time>2021-10-03T05:44:54.000Z</time>
      </trkpt>
      <trkpt lat="45.20666" lon="5.72592">
        <ele>658.40002441406</ele>
        <time>2021-10-03T05:44:55.000Z</time>
      </trkpt>
      <trkpt lat="45.20665" lon="5.72594">
        <ele>658.40002441406</ele>
        <time>2021-10-03T05:44:56.000Z</time>
      </trkpt>
      <trkpt lat="45.20662" lon="5.72598">
        <ele>658</ele>
        <time>2021-10-03T05:44:58.000Z</time>
      </trkpt>
      <trkpt lat="45.20653" lon="5.72604">
        <ele>657.40002441406</ele>
        <time>2021-10-03T05:45:02.000Z</time>
      </trkpt>
      <trkpt lat="45.20651" lon="5.72605">
        <ele>657.20001220703</ele>
        <time>2021-10-03T05:45:03.000Z</time>
      </trkpt>
      <trkpt lat="45.2065" lon="5.72606">
        <ele>657</ele>
        <time>2021-10-03T05:45:04.000Z</time>
      </trkpt>
      <trkpt lat="45.20648" lon="5.72609">
        <ele>656.59997558594</ele>
        <time>2021-10-03T05:45:06.000Z</time>
      </trkpt>
      <trkpt lat="45.20649" lon="5.72611">
        <ele>656.40002441406</ele>
        <time>2021-10-03T05:45:07.000Z</time>
      </trkpt>
      <trkpt lat="45.20649" lon="5.72613">
        <ele>656.20001220703</ele>
        <time>2021-10-03T05:45:08.000Z</time>
      </trkpt>
      <trkpt lat="45.20648" lon="5.72623">
        <ele>655.40002441406</ele>
        <time>2021-10-03T05:45:13.000Z</time>
      </trkpt>
      <trkpt lat="45.20647" lon="5.72625">
        <ele>655.20001220703</ele>
        <time>2021-10-03T05:45:14.000Z</time>
      </trkpt>
      <trkpt lat="45.20646" lon="5.72628">
        <ele>654.40002441406</ele>
        <time>2021-10-03T05:45:17.000Z</time>
      </trkpt>
      <trkpt lat="45.20645" lon="5.72629">
        <ele>654.20001220703</ele>
        <time>2021-10-03T05:45:18.000Z</time>
      </trkpt>
      <trkpt lat="45.20645" lon="5.7263">
        <ele>654</ele>
        <time>2021-10-03T05:45:19.000Z</time>
      </trkpt>
      <trkpt lat="45.20645" lon="5.72632">
        <ele>653.79998779297</ele>
        <time>2021-10-03T05:45:20.000Z</time>
      </trkpt>
      <trkpt lat="45.20644" lon="5.72637">
        <ele>652.79998779297</ele>
        <time>2021-10-03T05:45:23.000Z</time>
      </trkpt>
      <trkpt lat="45.20642" lon="5.72641">
        <ele>652.20001220703</ele>
        <time>2021-10-03T05:45:25.000Z</time>
      </trkpt>
      <trkpt lat="45.2064" lon="5.72646">
        <ele>651.59997558594</ele>
        <time>2021-10-03T05:45:28.000Z</time>
      </trkpt>
      <trkpt lat="45.2064" lon="5.72649">
        <ele>651.20001220703</ele>
        <time>2021-10-03T05:45:30.000Z</time>
      </trkpt>
      <trkpt lat="45.20639" lon="5.72657">
        <ele>650.20001220703</ele>
        <time>2021-10-03T05:45:35.000Z</time>
      </trkpt>
      <trkpt lat="45.2064" lon="5.72659">
        <ele>649.40002441406</ele>
        <time>2021-10-03T05:45:37.000Z</time>
      </trkpt>
      <trkpt lat="45.20641" lon="5.72661">
        <ele>648.79998779297</ele>
        <time>2021-10-03T05:45:38.000Z</time>
      </trkpt>
      <trkpt lat="45.20641" lon="5.72663">
        <ele>648.40002441406</ele>
        <time>2021-10-03T05:45:39.000Z</time>
      </trkpt>
      <trkpt lat="45.20641" lon="5.72665">
        <ele>647.79998779297</ele>
        <time>2021-10-03T05:45:40.000Z</time>
      </trkpt>
      <trkpt lat="45.20641" lon="5.72671">
        <ele>647</ele>
        <time>2021-10-03T05:45:43.000Z</time>
      </trkpt>
      <trkpt lat="45.20641" lon="5.72673">
        <ele>646.79998779297</ele>
        <time>2021-10-03T05:45:44.000Z</time>
      </trkpt>
      <trkpt lat="45.20641" lon="5.7268">
        <ele>645.40002441406</ele>
        <time>2021-10-03T05:45:47.000Z</time>
      </trkpt>
      <trkpt lat="45.20639" lon="5.72687">
        <ele>644</ele>
        <time>2021-10-03T05:45:51.000Z</time>
      </trkpt>
      <trkpt lat="45.20639" lon="5.72689">
        <ele>643.79998779297</ele>
        <time>2021-10-03T05:45:52.000Z</time>
      </trkpt>
      <trkpt lat="45.20638" lon="5.72692">
        <ele>643</ele>
        <time>2021-10-03T05:45:54.000Z</time>
      </trkpt>
      <trkpt lat="45.20638" lon="5.72695">
        <ele>641.79998779297</ele>
        <time>2021-10-03T05:45:57.000Z</time>
      </trkpt>
      <trkpt lat="45.20638" lon="5.72698">
        <ele>641</ele>
        <time>2021-10-03T05:45:59.000Z</time>
      </trkpt>
      <trkpt lat="45.20637" lon="5.72699">
        <ele>640.59997558594</ele>
        <time>2021-10-03T05:46:00.000Z</time>
      </trkpt>
      <trkpt lat="45.20637" lon="5.72702">
        <ele>639.59997558594</ele>
        <time>2021-10-03T05:46:02.000Z</time>
      </trkpt>
      <trkpt lat="45.20636" lon="5.72703">
        <ele>639</ele>
        <time>2021-10-03T05:46:03.000Z</time>
      </trkpt>
      <trkpt lat="45.20636" lon="5.72704">
        <ele>638.59997558594</ele>
        <time>2021-10-03T05:46:05.000Z</time>
      </trkpt>
      <trkpt lat="45.20635" lon="5.72704">
        <ele>638.20001220703</ele>
        <time>2021-10-03T05:46:06.000Z</time>
      </trkpt>
      <trkpt lat="45.20634" lon="5.72705">
        <ele>638</ele>
        <time>2021-10-03T05:46:07.000Z</time>
      </trkpt>
      <trkpt lat="45.20634" lon="5.72706">
        <ele>637</ele>
        <time>2021-10-03T05:46:09.000Z</time>
      </trkpt>
      <trkpt lat="45.20632" lon="5.72709">
        <ele>636.40002441406</ele>
        <time>2021-10-03T05:46:11.000Z</time>
      </trkpt>
      <trkpt lat="45.2063" lon="5.7271">
        <ele>636</ele>
        <time>2021-10-03T05:46:12.000Z</time>
      </trkpt>
      <trkpt lat="45.20625" lon="5.72712">
        <ele>634.79998779297</ele>
        <time>2021-10-03T05:46:15.000Z</time>
      </trkpt>
      <trkpt lat="45.20623" lon="5.72712">
        <ele>634.59997558594</ele>
        <time>2021-10-03T05:46:16.000Z</time>
      </trkpt>
      <trkpt lat="45.20622" lon="5.72712">
        <ele>633.59997558594</ele>
        <time>2021-10-03T05:46:18.000Z</time>
      </trkpt>
      <trkpt lat="45.20621" lon="5.72712">
        <ele>633.40002441406</ele>
        <time>2021-10-03T05:46:19.000Z</time>
      </trkpt>
      <trkpt lat="45.20617" lon="5.72711">
        <ele>632.20001220703</ele>
        <time>2021-10-03T05:46:22.000Z</time>
      </trkpt>
      <trkpt lat="45.20614" lon="5.7271">
        <ele>631.20001220703</ele>
        <time>2021-10-03T05:46:25.000Z</time>
      </trkpt>
      <trkpt lat="45.20612" lon="5.7271">
        <ele>631</ele>
        <time>2021-10-03T05:46:26.000Z</time>
      </trkpt>
      <trkpt lat="45.20611" lon="5.7271">
        <ele>630.79998779297</ele>
        <time>2021-10-03T05:46:28.000Z</time>
      </trkpt>
      <trkpt lat="45.20607" lon="5.72708">
        <ele>630</ele>
        <time>2021-10-03T05:46:31.000Z</time>
      </trkpt>
      <trkpt lat="45.20605" lon="5.72706">
        <ele>629.20001220703</ele>
        <time>2021-10-03T05:46:35.000Z</time>
      </trkpt>
      <trkpt lat="45.20605" lon="5.72706">
        <ele>629</ele>
        <time>2021-10-03T05:46:36.000Z</time>
      </trkpt>
      <trkpt lat="45.20604" lon="5.72706">
        <ele>628.79998779297</ele>
        <time>2021-10-03T05:46:37.000Z</time>
      </trkpt>
      <trkpt lat="45.20604" lon="5.72707">
        <ele>628.20001220703</ele>
        <time>2021-10-03T05:46:40.000Z</time>
      </trkpt>
      <trkpt lat="45.20603" lon="5.72708">
        <ele>628</ele>
        <time>2021-10-03T05:46:41.000Z</time>
      </trkpt>
      <trkpt lat="45.20603" lon="5.72709">
        <ele>628</ele>
        <time>2021-10-03T05:46:42.000Z</time>
      </trkpt>
      <trkpt lat="45.20602" lon="5.72709">
        <ele>627.79998779297</ele>
        <time>2021-10-03T05:46:43.000Z</time>
      </trkpt>
      <trkpt lat="45.20603" lon="5.72707">
        <ele>627</ele>
        <time>2021-10-03T05:46:48.000Z</time>
      </trkpt>
      <trkpt lat="45.20603" lon="5.72707">
        <ele>626.79998779297</ele>
        <time>2021-10-03T05:46:49.000Z</time>
      </trkpt>
      <trkpt lat="45.20603" lon="5.72707">
        <ele>626.40002441406</ele>
        <time>2021-10-03T05:46:51.000Z</time>
      </trkpt>
      <trkpt lat="45.20603" lon="5.72707">
        <ele>625.59997558594</ele>
        <time>2021-10-03T05:46:55.000Z</time>
      </trkpt>
      <trkpt lat="45.20603" lon="5.72707">
        <ele>624</ele>
        <time>2021-10-03T05:46:58.000Z</time>
      </trkpt>
      <trkpt lat="45.20603" lon="5.72708">
        <ele>623.20001220703</ele>
        <time>2021-10-03T05:46:59.000Z</time>
      </trkpt>
      <trkpt lat="45.20603" lon="5.72708">
        <ele>622.59997558594</ele>
        <time>2021-10-03T05:47:00.000Z</time>
      </trkpt>
      <trkpt lat="45.20603" lon="5.72708">
        <ele>621.59997558594</ele>
        <time>2021-10-03T05:47:02.000Z</time>
      </trkpt>
      <trkpt lat="45.20603" lon="5.72708">
        <ele>621.20001220703</ele>
        <time>2021-10-03T05:47:03.000Z</time>
      </trkpt>
      <trkpt lat="45.20603" lon="5.72708">
        <ele>620.40002441406</ele>
        <time>2021-10-03T05:47:05.000Z</time>
      </trkpt>
      <trkpt lat="45.20603" lon="5.72709">
        <ele>620</ele>
        <time>2021-10-03T05:47:06.000Z</time>
      </trkpt>
      <trkpt lat="45.20602" lon="5.7271">
        <ele>618.79998779297</ele>
        <time>2021-10-03T05:47:11.000Z</time>
      </trkpt>
      <trkpt lat="45.20602" lon="5.72711">
        <ele>617.59997558594</ele>
        <time>2021-10-03T05:47:15.000Z</time>
      </trkpt>
      <trkpt lat="45.206" lon="5.72713">
        <ele>616.59997558594</ele>
        <time>2021-10-03T05:47:20.000Z</time>
      </trkpt>
      <trkpt lat="45.206" lon="5.72715">
        <ele>616.20001220703</ele>
        <time>2021-10-03T05:47:25.000Z</time>
      </trkpt>
      <trkpt lat="45.20596" lon="5.72713">
        <ele>616.59997558594</ele>
        <time>2021-10-03T05:47:27.000Z</time>
      </trkpt>
      <trkpt lat="45.20591" lon="5.72714">
        <ele>616.79998779297</ele>
        <time>2021-10-03T05:47:30.000Z</time>
      </trkpt>
      <trkpt lat="45.20589" lon="5.72715">
        <ele>616.79998779297</ele>
        <time>2021-10-03T05:47:31.000Z</time>
      </trkpt>
      <trkpt lat="45.20584" lon="5.72717">
        <ele>616.79998779297</ele>
        <time>2021-10-03T05:47:33.000Z</time>
      </trkpt>
      <trkpt lat="45.20582" lon="5.72719">
        <ele>617</ele>
        <time>2021-10-03T05:47:34.000Z</time>
      </trkpt>
      <trkpt lat="45.20575" lon="5.72718">
        <ele>616.40002441406</ele>
        <time>2021-10-03T05:47:37.000Z</time>
      </trkpt>
      <trkpt lat="45.20573" lon="5.72717">
        <ele>616.20001220703</ele>
        <time>2021-10-03T05:47:38.000Z</time>
      </trkpt>
      <trkpt lat="45.20566" lon="5.72712">
        <ele>615</ele>
        <time>2021-10-03T05:47:41.000Z</time>
      </trkpt>
      <trkpt lat="45.20558" lon="5.72707">
        <ele>613.79998779297</ele>
        <time>2021-10-03T05:47:45.000Z</time>
      </trkpt>
      <trkpt lat="45.20556" lon="5.72706">
        <ele>613.59997558594</ele>
        <time>2021-10-03T05:47:46.000Z</time>
      </trkpt>
      <trkpt lat="45.2055" lon="5.72704">
        <ele>612.40002441406</ele>
        <time>2021-10-03T05:47:49.000Z</time>
      </trkpt>
      <trkpt lat="45.20543" lon="5.72701">
        <ele>611.20001220703</ele>
        <time>2021-10-03T05:47:52.000Z</time>
      </trkpt>
      <trkpt lat="45.20541" lon="5.72701">
        <ele>611</ele>
        <time>2021-10-03T05:47:53.000Z</time>
      </trkpt>
      <trkpt lat="45.20539" lon="5.72699">
        <ele>611</ele>
        <time>2021-10-03T05:47:54.000Z</time>
      </trkpt>
      <trkpt lat="45.20532" lon="5.72693">
        <ele>610.40002441406</ele>
        <time>2021-10-03T05:47:58.000Z</time>
      </trkpt>
      <trkpt lat="45.20531" lon="5.72692">
        <ele>610.40002441406</ele>
        <time>2021-10-03T05:47:59.000Z</time>
      </trkpt>
      <trkpt lat="45.20529" lon="5.72691">
        <ele>610.20001220703</ele>
        <time>2021-10-03T05:48:00.000Z</time>
      </trkpt>
      <trkpt lat="45.20526" lon="5.72689">
        <ele>609.40002441406</ele>
        <time>2021-10-03T05:48:02.000Z</time>
      </trkpt>
      <trkpt lat="45.20524" lon="5.72688">
        <ele>609.20001220703</ele>
        <time>2021-10-03T05:48:03.000Z</time>
      </trkpt>
      <trkpt lat="45.20513" lon="5.72683">
        <ele>608.20001220703</ele>
        <time>2021-10-03T05:48:08.000Z</time>
      </trkpt>
      <trkpt lat="45.20511" lon="5.72682">
        <ele>607.40002441406</ele>
        <time>2021-10-03T05:48:09.000Z</time>
      </trkpt>
      <trkpt lat="45.20509" lon="5.7268">
        <ele>607</ele>
        <time>2021-10-03T05:48:10.000Z</time>
      </trkpt>
      <trkpt lat="45.205" lon="5.72676">
        <ele>605.79998779297</ele>
        <time>2021-10-03T05:48:14.000Z</time>
      </trkpt>
      <trkpt lat="45.20498" lon="5.72675">
        <ele>605.59997558594</ele>
        <time>2021-10-03T05:48:15.000Z</time>
      </trkpt>
      <trkpt lat="45.20496" lon="5.72674">
        <ele>605.40002441406</ele>
        <time>2021-10-03T05:48:16.000Z</time>
      </trkpt>
      <trkpt lat="45.20495" lon="5.72673">
        <ele>605.40002441406</ele>
        <time>2021-10-03T05:48:17.000Z</time>
      </trkpt>
      <trkpt lat="45.20488" lon="5.72672">
        <ele>605</ele>
        <time>2021-10-03T05:48:20.000Z</time>
      </trkpt>
      <trkpt lat="45.20486" lon="5.72672">
        <ele>604.79998779297</ele>
        <time>2021-10-03T05:48:21.000Z</time>
      </trkpt>
      <trkpt lat="45.20478" lon="5.72668">
        <ele>604.40002441406</ele>
        <time>2021-10-03T05:48:25.000Z</time>
      </trkpt>
      <trkpt lat="45.20477" lon="5.72667">
        <ele>604.40002441406</ele>
        <time>2021-10-03T05:48:26.000Z</time>
      </trkpt>
      <trkpt lat="45.20471" lon="5.72664">
        <ele>603.79998779297</ele>
        <time>2021-10-03T05:48:29.000Z</time>
      </trkpt>
      <trkpt lat="45.20469" lon="5.72662">
        <ele>603.59997558594</ele>
        <time>2021-10-03T05:48:30.000Z</time>
      </trkpt>
      <trkpt lat="45.20467" lon="5.72661">
        <ele>603.20001220703</ele>
        <time>2021-10-03T05:48:31.000Z</time>
      </trkpt>
      <trkpt lat="45.20459" lon="5.72658">
        <ele>602.59997558594</ele>
        <time>2021-10-03T05:48:34.000Z</time>
      </trkpt>
      <trkpt lat="45.20451" lon="5.72654">
        <ele>601.40002441406</ele>
        <time>2021-10-03T05:48:38.000Z</time>
      </trkpt>
      <trkpt lat="45.20446" lon="5.72655">
        <ele>600.79998779297</ele>
        <time>2021-10-03T05:48:41.000Z</time>
      </trkpt>
      <trkpt lat="45.2044" lon="5.72652">
        <ele>600.20001220703</ele>
        <time>2021-10-03T05:48:43.000Z</time>
      </trkpt>
      <trkpt lat="45.20429" lon="5.72643">
        <ele>599.59997558594</ele>
        <time>2021-10-03T05:48:47.000Z</time>
      </trkpt>
      <trkpt lat="45.20424" lon="5.72641">
        <ele>599</ele>
        <time>2021-10-03T05:48:49.000Z</time>
      </trkpt>
      <trkpt lat="45.2042" lon="5.72637">
        <ele>598.59997558594</ele>
        <time>2021-10-03T05:48:51.000Z</time>
      </trkpt>
      <trkpt lat="45.20412" lon="5.72634">
        <ele>597.79998779297</ele>
        <time>2021-10-03T05:48:55.000Z</time>
      </trkpt>
      <trkpt lat="45.20412" lon="5.72635">
        <ele>597.40002441406</ele>
        <time>2021-10-03T05:48:56.000Z</time>
      </trkpt>
      <trkpt lat="45.20412" lon="5.72636">
        <ele>597</ele>
        <time>2021-10-03T05:48:57.000Z</time>
      </trkpt>
      <trkpt lat="45.20412" lon="5.72637">
        <ele>596.59997558594</ele>
        <time>2021-10-03T05:48:58.000Z</time>
      </trkpt>
      <trkpt lat="45.20413" lon="5.72638">
        <ele>596.40002441406</ele>
        <time>2021-10-03T05:48:59.000Z</time>
      </trkpt>
      <trkpt lat="45.20414" lon="5.7264">
        <ele>596.20001220703</ele>
        <time>2021-10-03T05:49:00.000Z</time>
      </trkpt>
      <trkpt lat="45.20418" lon="5.72645">
        <ele>595.59997558594</ele>
        <time>2021-10-03T05:49:03.000Z</time>
      </trkpt>
      <trkpt lat="45.20423" lon="5.7265">
        <ele>594.59997558594</ele>
        <time>2021-10-03T05:49:06.000Z</time>
      </trkpt>
      <trkpt lat="45.20424" lon="5.72652">
        <ele>594.40002441406</ele>
        <time>2021-10-03T05:49:07.000Z</time>
      </trkpt>
      <trkpt lat="45.20425" lon="5.72654">
        <ele>594</ele>
        <time>2021-10-03T05:49:08.000Z</time>
      </trkpt>
      <trkpt lat="45.20431" lon="5.72659">
        <ele>593.59997558594</ele>
        <time>2021-10-03T05:49:11.000Z</time>
      </trkpt>
      <trkpt lat="45.20433" lon="5.72661">
        <ele>593.40002441406</ele>
        <time>2021-10-03T05:49:12.000Z</time>
      </trkpt>
      <trkpt lat="45.20437" lon="5.72663">
        <ele>592.20001220703</ele>
        <time>2021-10-03T05:49:15.000Z</time>
      </trkpt>
      <trkpt lat="45.20441" lon="5.72666">
        <ele>591.59997558594</ele>
        <time>2021-10-03T05:49:18.000Z</time>
      </trkpt>
      <trkpt lat="45.20443" lon="5.72666">
        <ele>591.20001220703</ele>
        <time>2021-10-03T05:49:19.000Z</time>
      </trkpt>
      <trkpt lat="45.20446" lon="5.72666">
        <ele>590.59997558594</ele>
        <time>2021-10-03T05:49:21.000Z</time>
      </trkpt>
      <trkpt lat="45.2045" lon="5.72669">
        <ele>590</ele>
        <time>2021-10-03T05:49:23.000Z</time>
      </trkpt>
      <trkpt lat="45.20454" lon="5.7267">
        <ele>588.79998779297</ele>
        <time>2021-10-03T05:49:25.000Z</time>
      </trkpt>
      <trkpt lat="45.20456" lon="5.72672">
        <ele>588.40002441406</ele>
        <time>2021-10-03T05:49:26.000Z</time>
      </trkpt>
      <trkpt lat="45.2046" lon="5.72676">
        <ele>588</ele>
        <time>2021-10-03T05:49:28.000Z</time>
      </trkpt>
      <trkpt lat="45.20463" lon="5.72678">
        <ele>587.79998779297</ele>
        <time>2021-10-03T05:49:29.000Z</time>
      </trkpt>
      <trkpt lat="45.20468" lon="5.72682">
        <ele>586.59997558594</ele>
        <time>2021-10-03T05:49:32.000Z</time>
      </trkpt>
      <trkpt lat="45.20471" lon="5.72686">
        <ele>586</ele>
        <time>2021-10-03T05:49:34.000Z</time>
      </trkpt>
      <trkpt lat="45.20473" lon="5.72688">
        <ele>585.79998779297</ele>
        <time>2021-10-03T05:49:35.000Z</time>
      </trkpt>
      <trkpt lat="45.20475" lon="5.72689">
        <ele>585.59997558594</ele>
        <time>2021-10-03T05:49:36.000Z</time>
      </trkpt>
      <trkpt lat="45.20482" lon="5.72694">
        <ele>585</ele>
        <time>2021-10-03T05:49:39.000Z</time>
      </trkpt>
      <trkpt lat="45.20484" lon="5.72696">
        <ele>584.79998779297</ele>
        <time>2021-10-03T05:49:40.000Z</time>
      </trkpt>
      <trkpt lat="45.20495" lon="5.72706">
        <ele>584.40002441406</ele>
        <time>2021-10-03T05:49:46.000Z</time>
      </trkpt>
      <trkpt lat="45.20497" lon="5.72708">
        <ele>584.20001220703</ele>
        <time>2021-10-03T05:49:47.000Z</time>
      </trkpt>
      <trkpt lat="45.20502" lon="5.72715">
        <ele>583.20001220703</ele>
        <time>2021-10-03T05:49:51.000Z</time>
      </trkpt>
      <trkpt lat="45.20506" lon="5.72717">
        <ele>583.20001220703</ele>
        <time>2021-10-03T05:49:53.000Z</time>
      </trkpt>
      <trkpt lat="45.2051" lon="5.7272">
        <ele>583</ele>
        <time>2021-10-03T05:49:55.000Z</time>
      </trkpt>
      <trkpt lat="45.20521" lon="5.72729">
        <ele>581.79998779297</ele>
        <time>2021-10-03T05:50:00.000Z</time>
      </trkpt>
      <trkpt lat="45.20524" lon="5.72732">
        <ele>581.79998779297</ele>
        <time>2021-10-03T05:50:01.000Z</time>
      </trkpt>
      <trkpt lat="45.20538" lon="5.7275">
        <ele>581.40002441406</ele>
        <time>2021-10-03T05:50:06.000Z</time>
      </trkpt>
      <trkpt lat="45.20546" lon="5.72766">
        <ele>581.20001220703</ele>
        <time>2021-10-03T05:50:11.000Z</time>
      </trkpt>
      <trkpt lat="45.20552" lon="5.72774">
        <ele>580.59997558594</ele>
        <time>2021-10-03T05:50:14.000Z</time>
      </trkpt>
      <trkpt lat="45.20556" lon="5.72779">
        <ele>580.20001220703</ele>
        <time>2021-10-03T05:50:16.000Z</time>
      </trkpt>
      <trkpt lat="45.20557" lon="5.72782">
        <ele>580</ele>
        <time>2021-10-03T05:50:17.000Z</time>
      </trkpt>
      <trkpt lat="45.20566" lon="5.72797">
        <ele>579.79998779297</ele>
        <time>2021-10-03T05:50:23.000Z</time>
      </trkpt>
      <trkpt lat="45.20574" lon="5.72807">
        <ele>579.59997558594</ele>
        <time>2021-10-03T05:50:27.000Z</time>
      </trkpt>
      <trkpt lat="45.20581" lon="5.72815">
        <ele>579.40002441406</ele>
        <time>2021-10-03T05:50:30.000Z</time>
      </trkpt>
      <trkpt lat="45.20584" lon="5.72821">
        <ele>579.20001220703</ele>
        <time>2021-10-03T05:50:32.000Z</time>
      </trkpt>
      <trkpt lat="45.20597" lon="5.72837">
        <ele>579</ele>
        <time>2021-10-03T05:50:38.000Z</time>
      </trkpt>
      <trkpt lat="45.20607" lon="5.72846">
        <ele>578.20001220703</ele>
        <time>2021-10-03T05:50:42.000Z</time>
      </trkpt>
      <trkpt lat="45.20609" lon="5.72849">
        <ele>578</ele>
        <time>2021-10-03T05:50:43.000Z</time>
      </trkpt>
      <trkpt lat="45.20612" lon="5.72853">
        <ele>577.59997558594</ele>
        <time>2021-10-03T05:50:45.000Z</time>
      </trkpt>
      <trkpt lat="45.20616" lon="5.72858">
        <ele>577.20001220703</ele>
        <time>2021-10-03T05:50:47.000Z</time>
      </trkpt>
      <trkpt lat="45.20619" lon="5.7286">
        <ele>576.79998779297</ele>
        <time>2021-10-03T05:50:48.000Z</time>
      </trkpt>
      <trkpt lat="45.20626" lon="5.72868">
        <ele>577</ele>
        <time>2021-10-03T05:50:52.000Z</time>
      </trkpt>
      <trkpt lat="45.20629" lon="5.72871">
        <ele>577.40002441406</ele>
        <time>2021-10-03T05:50:54.000Z</time>
      </trkpt>
      <trkpt lat="45.20638" lon="5.72877">
        <ele>578.20001220703</ele>
        <time>2021-10-03T05:50:59.000Z</time>
      </trkpt>
      <trkpt lat="45.20644" lon="5.72883">
        <ele>578.59997558594</ele>
        <time>2021-10-03T05:51:02.000Z</time>
      </trkpt>
      <trkpt lat="45.20656" lon="5.72899">
        <ele>578.59997558594</ele>
        <time>2021-10-03T05:51:08.000Z</time>
      </trkpt>
      <trkpt lat="45.20666" lon="5.72911">
        <ele>578.20001220703</ele>
        <time>2021-10-03T05:51:13.000Z</time>
      </trkpt>
      <trkpt lat="45.2067" lon="5.72915">
        <ele>577.79998779297</ele>
        <time>2021-10-03T05:51:15.000Z</time>
      </trkpt>
      <trkpt lat="45.20673" lon="5.72924">
        <ele>577</ele>
        <time>2021-10-03T05:51:18.000Z</time>
      </trkpt>
      <trkpt lat="45.20676" lon="5.72931">
        <ele>576.59997558594</ele>
        <time>2021-10-03T05:51:21.000Z</time>
      </trkpt>
      <trkpt lat="45.20678" lon="5.72932">
        <ele>576</ele>
        <time>2021-10-03T05:51:22.000Z</time>
      </trkpt>
      <trkpt lat="45.20679" lon="5.72935">
        <ele>575.59997558594</ele>
        <time>2021-10-03T05:51:23.000Z</time>
      </trkpt>
      <trkpt lat="45.20687" lon="5.72943">
        <ele>574.59997558594</ele>
        <time>2021-10-03T05:51:27.000Z</time>
      </trkpt>
      <trkpt lat="45.20689" lon="5.72944">
        <ele>574.40002441406</ele>
        <time>2021-10-03T05:51:28.000Z</time>
      </trkpt>
      <trkpt lat="45.20698" lon="5.72948">
        <ele>573.59997558594</ele>
        <time>2021-10-03T05:51:32.000Z</time>
      </trkpt>
      <trkpt lat="45.20702" lon="5.72952">
        <ele>573.59997558594</ele>
        <time>2021-10-03T05:51:34.000Z</time>
      </trkpt>
      <trkpt lat="45.20705" lon="5.72955">
        <ele>573.20001220703</ele>
        <time>2021-10-03T05:51:36.000Z</time>
      </trkpt>
      <trkpt lat="45.2071" lon="5.72959">
        <ele>572.40002441406</ele>
        <time>2021-10-03T05:51:39.000Z</time>
      </trkpt>
      <trkpt lat="45.20711" lon="5.7296">
        <ele>572.20001220703</ele>
        <time>2021-10-03T05:51:40.000Z</time>
      </trkpt>
      <trkpt lat="45.20712" lon="5.72962">
        <ele>572</ele>
        <time>2021-10-03T05:51:41.000Z</time>
      </trkpt>
      <trkpt lat="45.20715" lon="5.72974">
        <ele>571.20001220703</ele>
        <time>2021-10-03T05:51:46.000Z</time>
      </trkpt>
      <trkpt lat="45.20715" lon="5.72976">
        <ele>571</ele>
        <time>2021-10-03T05:51:47.000Z</time>
      </trkpt>
      <trkpt lat="45.20716" lon="5.72978">
        <ele>570.79998779297</ele>
        <time>2021-10-03T05:51:48.000Z</time>
      </trkpt>
      <trkpt lat="45.20717" lon="5.72981">
        <ele>570.40002441406</ele>
        <time>2021-10-03T05:51:49.000Z</time>
      </trkpt>
      <trkpt lat="45.20719" lon="5.72985">
        <ele>569.79998779297</ele>
        <time>2021-10-03T05:51:51.000Z</time>
      </trkpt>
      <trkpt lat="45.2072" lon="5.72987">
        <ele>569.40002441406</ele>
        <time>2021-10-03T05:51:52.000Z</time>
      </trkpt>
      <trkpt lat="45.20721" lon="5.72989">
        <ele>569.20001220703</ele>
        <time>2021-10-03T05:51:53.000Z</time>
      </trkpt>
      <trkpt lat="45.20726" lon="5.72995">
        <ele>568.79998779297</ele>
        <time>2021-10-03T05:51:56.000Z</time>
      </trkpt>
      <trkpt lat="45.20729" lon="5.73">
        <ele>568.40002441406</ele>
        <time>2021-10-03T05:51:58.000Z</time>
      </trkpt>
      <trkpt lat="45.20734" lon="5.73002">
        <ele>567.59997558594</ele>
        <time>2021-10-03T05:52:00.000Z</time>
      </trkpt>
      <trkpt lat="45.2074" lon="5.73007">
        <ele>567.40002441406</ele>
        <time>2021-10-03T05:52:03.000Z</time>
      </trkpt>
      <trkpt lat="45.20752" lon="5.73015">
        <ele>566.79998779297</ele>
        <time>2021-10-03T05:52:08.000Z</time>
      </trkpt>
      <trkpt lat="45.20754" lon="5.73017">
        <ele>566.59997558594</ele>
        <time>2021-10-03T05:52:09.000Z</time>
      </trkpt>
      <trkpt lat="45.20762" lon="5.73022">
        <ele>566.20001220703</ele>
        <time>2021-10-03T05:52:12.000Z</time>
      </trkpt>
      <trkpt lat="45.20766" lon="5.73023">
        <ele>566</ele>
        <time>2021-10-03T05:52:14.000Z</time>
      </trkpt>
      <trkpt lat="45.20769" lon="5.73025">
        <ele>565.79998779297</ele>
        <time>2021-10-03T05:52:16.000Z</time>
      </trkpt>
      <trkpt lat="45.20772" lon="5.73025">
        <ele>565.40002441406</ele>
        <time>2021-10-03T05:52:18.000Z</time>
      </trkpt>
      <trkpt lat="45.20774" lon="5.73035">
        <ele>564.79998779297</ele>
        <time>2021-10-03T05:52:22.000Z</time>
      </trkpt>
      <trkpt lat="45.20775" lon="5.73037">
        <ele>564.20001220703</ele>
        <time>2021-10-03T05:52:23.000Z</time>
      </trkpt>
      <trkpt lat="45.20779" lon="5.73045">
        <ele>563.20001220703</ele>
        <time>2021-10-03T05:52:26.000Z</time>
      </trkpt>
      <trkpt lat="45.20781" lon="5.73048">
        <ele>562.79998779297</ele>
        <time>2021-10-03T05:52:28.000Z</time>
      </trkpt>
      <trkpt lat="45.20783" lon="5.73052">
        <ele>562.20001220703</ele>
        <time>2021-10-03T05:52:30.000Z</time>
      </trkpt>
      <trkpt lat="45.20783" lon="5.73056">
        <ele>562</ele>
        <time>2021-10-03T05:52:31.000Z</time>
      </trkpt>
      <trkpt lat="45.20785" lon="5.73061">
        <ele>561.40002441406</ele>
        <time>2021-10-03T05:52:33.000Z</time>
      </trkpt>
      <trkpt lat="45.20788" lon="5.73067">
        <ele>561</ele>
        <time>2021-10-03T05:52:35.000Z</time>
      </trkpt>
      <trkpt lat="45.2079" lon="5.73071">
        <ele>560</ele>
        <time>2021-10-03T05:52:36.000Z</time>
      </trkpt>
      <trkpt lat="45.20791" lon="5.73073">
        <ele>559.40002441406</ele>
        <time>2021-10-03T05:52:37.000Z</time>
      </trkpt>
      <trkpt lat="45.20792" lon="5.73075">
        <ele>559</ele>
        <time>2021-10-03T05:52:38.000Z</time>
      </trkpt>
      <trkpt lat="45.20791" lon="5.7308">
        <ele>558.59997558594</ele>
        <time>2021-10-03T05:52:40.000Z</time>
      </trkpt>
      <trkpt lat="45.20792" lon="5.73081">
        <ele>558.40002441406</ele>
        <time>2021-10-03T05:52:41.000Z</time>
      </trkpt>
      <trkpt lat="45.20793" lon="5.73084">
        <ele>558</ele>
        <time>2021-10-03T05:52:43.000Z</time>
      </trkpt>
      <trkpt lat="45.20793" lon="5.73085">
        <ele>558</ele>
        <time>2021-10-03T05:52:44.000Z</time>
      </trkpt>
      <trkpt lat="45.20794" lon="5.73087">
        <ele>557.79998779297</ele>
        <time>2021-10-03T05:52:45.000Z</time>
      </trkpt>
      <trkpt lat="45.20795" lon="5.73089">
        <ele>557.40002441406</ele>
        <time>2021-10-03T05:52:46.000Z</time>
      </trkpt>
      <trkpt lat="45.20797" lon="5.73093">
        <ele>556.79998779297</ele>
        <time>2021-10-03T05:52:48.000Z</time>
      </trkpt>
      <trkpt lat="45.20798" lon="5.73095">
        <ele>556.59997558594</ele>
        <time>2021-10-03T05:52:49.000Z</time>
      </trkpt>
      <trkpt lat="45.20799" lon="5.73099">
        <ele>556</ele>
        <time>2021-10-03T05:52:51.000Z</time>
      </trkpt>
      <trkpt lat="45.208" lon="5.73102">
        <ele>555.59997558594</ele>
        <time>2021-10-03T05:52:52.000Z</time>
      </trkpt>
      <trkpt lat="45.20803" lon="5.73107">
        <ele>554.40002441406</ele>
        <time>2021-10-03T05:52:56.000Z</time>
      </trkpt>
      <trkpt lat="45.20805" lon="5.73109">
        <ele>554.20001220703</ele>
        <time>2021-10-03T05:52:58.000Z</time>
      </trkpt>
      <trkpt lat="45.20807" lon="5.73114">
        <ele>553.59997558594</ele>
        <time>2021-10-03T05:53:01.000Z</time>
      </trkpt>
      <trkpt lat="45.20808" lon="5.73116">
        <ele>553</ele>
        <time>2021-10-03T05:53:02.000Z</time>
      </trkpt>
      <trkpt lat="45.2081" lon="5.73122">
        <ele>552</ele>
        <time>2021-10-03T05:53:06.000Z</time>
      </trkpt>
      <trkpt lat="45.20811" lon="5.73123">
        <ele>551.40002441406</ele>
        <time>2021-10-03T05:53:07.000Z</time>
      </trkpt>
      <trkpt lat="45.20814" lon="5.73125">
        <ele>550.59997558594</ele>
        <time>2021-10-03T05:53:09.000Z</time>
      </trkpt>
      <trkpt lat="45.20816" lon="5.73128">
        <ele>550</ele>
        <time>2021-10-03T05:53:11.000Z</time>
      </trkpt>
      <trkpt lat="45.20817" lon="5.73133">
        <ele>549.20001220703</ele>
        <time>2021-10-03T05:53:14.000Z</time>
      </trkpt>
      <trkpt lat="45.2082" lon="5.73139">
        <ele>548.40002441406</ele>
        <time>2021-10-03T05:53:17.000Z</time>
      </trkpt>
      <trkpt lat="45.20821" lon="5.73141">
        <ele>548.40002441406</ele>
        <time>2021-10-03T05:53:18.000Z</time>
      </trkpt>
      <trkpt lat="45.20822" lon="5.73145">
        <ele>547.79998779297</ele>
        <time>2021-10-03T05:53:20.000Z</time>
      </trkpt>
      <trkpt lat="45.20822" lon="5.73147">
        <ele>547.59997558594</ele>
        <time>2021-10-03T05:53:21.000Z</time>
      </trkpt>
      <trkpt lat="45.20826" lon="5.7315">
        <ele>546.79998779297</ele>
        <time>2021-10-03T05:53:23.000Z</time>
      </trkpt>
      <trkpt lat="45.20828" lon="5.73153">
        <ele>546.59997558594</ele>
        <time>2021-10-03T05:53:25.000Z</time>
      </trkpt>
      <trkpt lat="45.20829" lon="5.73154">
        <ele>546.20001220703</ele>
        <time>2021-10-03T05:53:26.000Z</time>
      </trkpt>
      <trkpt lat="45.2083" lon="5.73155">
        <ele>546</ele>
        <time>2021-10-03T05:53:27.000Z</time>
      </trkpt>
      <trkpt lat="45.20832" lon="5.73157">
        <ele>545.59997558594</ele>
        <time>2021-10-03T05:53:28.000Z</time>
      </trkpt>
      <trkpt lat="45.20834" lon="5.73162">
        <ele>545.20001220703</ele>
        <time>2021-10-03T05:53:30.000Z</time>
      </trkpt>
      <trkpt lat="45.20834" lon="5.73164">
        <ele>545</ele>
        <time>2021-10-03T05:53:31.000Z</time>
      </trkpt>
      <trkpt lat="45.20836" lon="5.73168">
        <ele>544.20001220703</ele>
        <time>2021-10-03T05:53:33.000Z</time>
      </trkpt>
      <trkpt lat="45.20837" lon="5.73173">
        <ele>543.20001220703</ele>
        <time>2021-10-03T05:53:35.000Z</time>
      </trkpt>
      <trkpt lat="45.20838" lon="5.73174">
        <ele>542.79998779297</ele>
        <time>2021-10-03T05:53:36.000Z</time>
      </trkpt>
      <trkpt lat="45.20843" lon="5.73185">
        <ele>541.79998779297</ele>
        <time>2021-10-03T05:53:40.000Z</time>
      </trkpt>
      <trkpt lat="45.20846" lon="5.73191">
        <ele>541.20001220703</ele>
        <time>2021-10-03T05:53:42.000Z</time>
      </trkpt>
      <trkpt lat="45.20849" lon="5.73196">
        <ele>540.79998779297</ele>
        <time>2021-10-03T05:53:44.000Z</time>
      </trkpt>
      <trkpt lat="45.20853" lon="5.73205">
        <ele>539.59997558594</ele>
        <time>2021-10-03T05:53:48.000Z</time>
      </trkpt>
      <trkpt lat="45.20856" lon="5.73213">
        <ele>539.59997558594</ele>
        <time>2021-10-03T05:53:51.000Z</time>
      </trkpt>
      <trkpt lat="45.20861" lon="5.73229">
        <ele>539.59997558594</ele>
        <time>2021-10-03T05:53:55.000Z</time>
      </trkpt>
      <trkpt lat="45.20863" lon="5.73237">
        <ele>539.20001220703</ele>
        <time>2021-10-03T05:53:57.000Z</time>
      </trkpt>
      <trkpt lat="45.2087" lon="5.73246">
        <ele>538.79998779297</ele>
        <time>2021-10-03T05:54:01.000Z</time>
      </trkpt>
      <trkpt lat="45.2087" lon="5.73249">
        <ele>538.79998779297</ele>
        <time>2021-10-03T05:54:02.000Z</time>
      </trkpt>
      <trkpt lat="45.2087" lon="5.73251">
        <ele>538.59997558594</ele>
        <time>2021-10-03T05:54:03.000Z</time>
      </trkpt>
      <trkpt lat="45.20872" lon="5.73256">
        <ele>538.20001220703</ele>
        <time>2021-10-03T05:54:06.000Z</time>
      </trkpt>
      <trkpt lat="45.20873" lon="5.73259">
        <ele>538.20001220703</ele>
        <time>2021-10-03T05:54:08.000Z</time>
      </trkpt>
      <trkpt lat="45.20877" lon="5.73261">
        <ele>538.40002441406</ele>
        <time>2021-10-03T05:54:11.000Z</time>
      </trkpt>
      <trkpt lat="45.20878" lon="5.73261">
        <ele>538.59997558594</ele>
        <time>2021-10-03T05:54:12.000Z</time>
      </trkpt>
      <trkpt lat="45.20879" lon="5.73263">
        <ele>539</ele>
        <time>2021-10-03T05:54:14.000Z</time>
      </trkpt>
      <trkpt lat="45.20879" lon="5.73263">
        <ele>539.40002441406</ele>
        <time>2021-10-03T05:54:15.000Z</time>
      </trkpt>
      <trkpt lat="45.20881" lon="5.73264">
        <ele>539.59997558594</ele>
        <time>2021-10-03T05:54:16.000Z</time>
      </trkpt>
      <trkpt lat="45.20882" lon="5.73266">
        <ele>540</ele>
        <time>2021-10-03T05:54:18.000Z</time>
      </trkpt>
      <trkpt lat="45.20884" lon="5.73268">
        <ele>540.40002441406</ele>
        <time>2021-10-03T05:54:21.000Z</time>
      </trkpt>
      <trkpt lat="45.20885" lon="5.73269">
        <ele>540.40002441406</ele>
        <time>2021-10-03T05:54:22.000Z</time>
      </trkpt>
      <trkpt lat="45.20886" lon="5.7327">
        <ele>540.59997558594</ele>
        <time>2021-10-03T05:54:23.000Z</time>
      </trkpt>
      <trkpt lat="45.20887" lon="5.7327">
        <ele>541</ele>
        <time>2021-10-03T05:54:24.000Z</time>
      </trkpt>
      <trkpt lat="45.20887" lon="5.73269">
        <ele>541.40002441406</ele>
        <time>2021-10-03T05:54:25.000Z</time>
      </trkpt>
      <trkpt lat="45.20888" lon="5.7327">
        <ele>541.59997558594</ele>
        <time>2021-10-03T05:54:26.000Z</time>
      </trkpt>
      <trkpt lat="45.20889" lon="5.7327">
        <ele>542</ele>
        <time>2021-10-03T05:54:27.000Z</time>
      </trkpt>
      <trkpt lat="45.2089" lon="5.73271">
        <ele>542</ele>
        <time>2021-10-03T05:54:28.000Z</time>
      </trkpt>
      <trkpt lat="45.20892" lon="5.73271">
        <ele>542.79998779297</ele>
        <time>2021-10-03T05:54:30.000Z</time>
      </trkpt>
      <trkpt lat="45.20893" lon="5.73271">
        <ele>543.40002441406</ele>
        <time>2021-10-03T05:54:32.000Z</time>
      </trkpt>
      <trkpt lat="45.20894" lon="5.73273">
        <ele>543.59997558594</ele>
        <time>2021-10-03T05:54:35.000Z</time>
      </trkpt>
      <trkpt lat="45.20895" lon="5.73277">
        <ele>543.59997558594</ele>
        <time>2021-10-03T05:54:38.000Z</time>
      </trkpt>
      <trkpt lat="45.20894" lon="5.73275">
        <ele>543.59997558594</ele>
        <time>2021-10-03T05:54:40.000Z</time>
      </trkpt>
      <trkpt lat="45.20895" lon="5.73271">
        <ele>544.59997558594</ele>
        <time>2021-10-03T05:54:44.000Z</time>
      </trkpt>
      <trkpt lat="45.20896" lon="5.73268">
        <ele>545.79998779297</ele>
        <time>2021-10-03T05:54:47.000Z</time>
      </trkpt>
      <trkpt lat="45.20897" lon="5.73267">
        <ele>546</ele>
        <time>2021-10-03T05:54:48.000Z</time>
      </trkpt>
      <trkpt lat="45.20897" lon="5.73266">
        <ele>547</ele>
        <time>2021-10-03T05:54:51.000Z</time>
      </trkpt>
      <trkpt lat="45.20899" lon="5.73265">
        <ele>548.20001220703</ele>
        <time>2021-10-03T05:54:54.000Z</time>
      </trkpt>
      <trkpt lat="45.20902" lon="5.73265">
        <ele>549.20001220703</ele>
        <time>2021-10-03T05:54:57.000Z</time>
      </trkpt>
      <trkpt lat="45.20903" lon="5.73264">
        <ele>549.59997558594</ele>
        <time>2021-10-03T05:54:58.000Z</time>
      </trkpt>
      <trkpt lat="45.20903" lon="5.73263">
        <ele>550</ele>
        <time>2021-10-03T05:55:00.000Z</time>
      </trkpt>
      <trkpt lat="45.20902" lon="5.73263">
        <ele>550.79998779297</ele>
        <time>2021-10-03T05:55:02.000Z</time>
      </trkpt>
      <trkpt lat="45.20902" lon="5.73263">
        <ele>551.20001220703</ele>
        <time>2021-10-03T05:55:03.000Z</time>
      </trkpt>
      <trkpt lat="45.20903" lon="5.73261">
        <ele>551.79998779297</ele>
        <time>2021-10-03T05:55:05.000Z</time>
      </trkpt>
      <trkpt lat="45.20904" lon="5.73261">
        <ele>552</ele>
        <time>2021-10-03T05:55:06.000Z</time>
      </trkpt>
      <trkpt lat="45.20905" lon="5.7326">
        <ele>552.20001220703</ele>
        <time>2021-10-03T05:55:07.000Z</time>
      </trkpt>
      <trkpt lat="45.20905" lon="5.7326">
        <ele>553.40002441406</ele>
        <time>2021-10-03T05:55:09.000Z</time>
      </trkpt>
      <trkpt lat="45.20905" lon="5.7326">
        <ele>554.20001220703</ele>
        <time>2021-10-03T05:55:11.000Z</time>
      </trkpt>
      <trkpt lat="45.20906" lon="5.7326">
        <ele>554.79998779297</ele>
        <time>2021-10-03T05:55:12.000Z</time>
      </trkpt>
      <trkpt lat="45.20913" lon="5.73261">
        <ele>555.59997558594</ele>
        <time>2021-10-03T05:55:18.000Z</time>
      </trkpt>
      <trkpt lat="45.20914" lon="5.73261">
        <ele>555.40002441406</ele>
        <time>2021-10-03T05:55:20.000Z</time>
      </trkpt>
      <trkpt lat="45.20916" lon="5.73262">
        <ele>555</ele>
        <time>2021-10-03T05:55:22.000Z</time>
      </trkpt>
      <trkpt lat="45.20917" lon="5.73263">
        <ele>554.59997558594</ele>
        <time>2021-10-03T05:55:23.000Z</time>
      </trkpt>
      <trkpt lat="45.20921" lon="5.73267">
        <ele>553.59997558594</ele>
        <time>2021-10-03T05:55:27.000Z</time>
      </trkpt>
      <trkpt lat="45.20923" lon="5.73268">
        <ele>553.40002441406</ele>
        <time>2021-10-03T05:55:28.000Z</time>
      </trkpt>
      <trkpt lat="45.20927" lon="5.73269">
        <ele>552.40002441406</ele>
        <time>2021-10-03T05:55:31.000Z</time>
      </trkpt>
      <trkpt lat="45.20932" lon="5.73271">
        <ele>551.79998779297</ele>
        <time>2021-10-03T05:55:34.000Z</time>
      </trkpt>
      <trkpt lat="45.20934" lon="5.73272">
        <ele>551.59997558594</ele>
        <time>2021-10-03T05:55:35.000Z</time>
      </trkpt>
      <trkpt lat="45.20935" lon="5.73273">
        <ele>551.20001220703</ele>
        <time>2021-10-03T05:55:36.000Z</time>
      </trkpt>
      <trkpt lat="45.20941" lon="5.73276">
        <ele>550.20001220703</ele>
        <time>2021-10-03T05:55:40.000Z</time>
      </trkpt>
      <trkpt lat="45.20943" lon="5.73279">
        <ele>549.59997558594</ele>
        <time>2021-10-03T05:55:43.000Z</time>
      </trkpt>
      <trkpt lat="45.20944" lon="5.73282">
        <ele>549.40002441406</ele>
        <time>2021-10-03T05:55:45.000Z</time>
      </trkpt>
      <trkpt lat="45.20947" lon="5.73282">
        <ele>549</ele>
        <time>2021-10-03T05:55:47.000Z</time>
      </trkpt>
      <trkpt lat="45.2095" lon="5.73282">
        <ele>548.59997558594</ele>
        <time>2021-10-03T05:55:49.000Z</time>
      </trkpt>
      <trkpt lat="45.20953" lon="5.73282">
        <ele>547.79998779297</ele>
        <time>2021-10-03T05:55:51.000Z</time>
      </trkpt>
      <trkpt lat="45.20954" lon="5.73282">
        <ele>547.40002441406</ele>
        <time>2021-10-03T05:55:52.000Z</time>
      </trkpt>
      <trkpt lat="45.20957" lon="5.73281">
        <ele>546.79998779297</ele>
        <time>2021-10-03T05:55:54.000Z</time>
      </trkpt>
      <trkpt lat="45.20962" lon="5.7328">
        <ele>545.59997558594</ele>
        <time>2021-10-03T05:55:57.000Z</time>
      </trkpt>
      <trkpt lat="45.20964" lon="5.7328">
        <ele>545.40002441406</ele>
        <time>2021-10-03T05:55:58.000Z</time>
      </trkpt>
      <trkpt lat="45.20968" lon="5.73282">
        <ele>544.79998779297</ele>
        <time>2021-10-03T05:56:01.000Z</time>
      </trkpt>
      <trkpt lat="45.20969" lon="5.73282">
        <ele>544.59997558594</ele>
        <time>2021-10-03T05:56:02.000Z</time>
      </trkpt>
      <trkpt lat="45.20971" lon="5.73283">
        <ele>544.40002441406</ele>
        <time>2021-10-03T05:56:03.000Z</time>
      </trkpt>
      <trkpt lat="45.20973" lon="5.73285">
        <ele>544.20001220703</ele>
        <time>2021-10-03T05:56:05.000Z</time>
      </trkpt>
      <trkpt lat="45.20977" lon="5.73287">
        <ele>543.79998779297</ele>
        <time>2021-10-03T05:56:08.000Z</time>
      </trkpt>
      <trkpt lat="45.20978" lon="5.73288">
        <ele>543.59997558594</ele>
        <time>2021-10-03T05:56:09.000Z</time>
      </trkpt>
      <trkpt lat="45.2098" lon="5.73289">
        <ele>543.40002441406</ele>
        <time>2021-10-03T05:56:10.000Z</time>
      </trkpt>
      <trkpt lat="45.20986" lon="5.73293">
        <ele>542.40002441406</ele>
        <time>2021-10-03T05:56:15.000Z</time>
      </trkpt>
      <trkpt lat="45.20987" lon="5.73294">
        <ele>542.20001220703</ele>
        <time>2021-10-03T05:56:16.000Z</time>
      </trkpt>
      <trkpt lat="45.20988" lon="5.73295">
        <ele>541.79998779297</ele>
        <time>2021-10-03T05:56:18.000Z</time>
      </trkpt>
      <trkpt lat="45.20987" lon="5.73295">
        <ele>541.59997558594</ele>
        <time>2021-10-03T05:56:19.000Z</time>
      </trkpt>
      <trkpt lat="45.20986" lon="5.73296">
        <ele>540.79998779297</ele>
        <time>2021-10-03T05:56:21.000Z</time>
      </trkpt>
      <trkpt lat="45.20981" lon="5.73297">
        <ele>540</ele>
        <time>2021-10-03T05:56:26.000Z</time>
      </trkpt>
      <trkpt lat="45.2098" lon="5.73297">
        <ele>539.59997558594</ele>
        <time>2021-10-03T05:56:27.000Z</time>
      </trkpt>
      <trkpt lat="45.20979" lon="5.73297">
        <ele>539</ele>
        <time>2021-10-03T05:56:29.000Z</time>
      </trkpt>
      <trkpt lat="45.20977" lon="5.73296">
        <ele>538.59997558594</ele>
        <time>2021-10-03T05:56:31.000Z</time>
      </trkpt>
      <trkpt lat="45.20976" lon="5.73297">
        <ele>538.59997558594</ele>
        <time>2021-10-03T05:56:32.000Z</time>
      </trkpt>
      <trkpt lat="45.20974" lon="5.73298">
        <ele>538.40002441406</ele>
        <time>2021-10-03T05:56:33.000Z</time>
      </trkpt>
      <trkpt lat="45.20969" lon="5.733">
        <ele>537.20001220703</ele>
        <time>2021-10-03T05:56:36.000Z</time>
      </trkpt>
      <trkpt lat="45.20968" lon="5.73301">
        <ele>537</ele>
        <time>2021-10-03T05:56:37.000Z</time>
      </trkpt>
      <trkpt lat="45.20965" lon="5.73305">
        <ele>536.40002441406</ele>
        <time>2021-10-03T05:56:39.000Z</time>
      </trkpt>
      <trkpt lat="45.20964" lon="5.73306">
        <ele>536</ele>
        <time>2021-10-03T05:56:40.000Z</time>
      </trkpt>
      <trkpt lat="45.2096" lon="5.73308">
        <ele>535.40002441406</ele>
        <time>2021-10-03T05:56:42.000Z</time>
      </trkpt>
      <trkpt lat="45.20957" lon="5.73309">
        <ele>535</ele>
        <time>2021-10-03T05:56:43.000Z</time>
      </trkpt>
      <trkpt lat="45.20954" lon="5.73311">
        <ele>534.40002441406</ele>
        <time>2021-10-03T05:56:44.000Z</time>
      </trkpt>
      <trkpt lat="45.20951" lon="5.73312">
        <ele>534</ele>
        <time>2021-10-03T05:56:46.000Z</time>
      </trkpt>
      <trkpt lat="45.20947" lon="5.73314">
        <ele>532.79998779297</ele>
        <time>2021-10-03T05:56:48.000Z</time>
      </trkpt>
      <trkpt lat="45.2094" lon="5.73315">
        <ele>532</ele>
        <time>2021-10-03T05:56:51.000Z</time>
      </trkpt>
      <trkpt lat="45.20936" lon="5.73314">
        <ele>531.59997558594</ele>
        <time>2021-10-03T05:56:53.000Z</time>
      </trkpt>
      <trkpt lat="45.20925" lon="5.73311">
        <ele>530.79998779297</ele>
        <time>2021-10-03T05:56:58.000Z</time>
      </trkpt>
      <trkpt lat="45.20923" lon="5.73311">
        <ele>530.20001220703</ele>
        <time>2021-10-03T05:56:59.000Z</time>
      </trkpt>
      <trkpt lat="45.20918" lon="5.73311">
        <ele>529.40002441406</ele>
        <time>2021-10-03T05:57:02.000Z</time>
      </trkpt>
      <trkpt lat="45.20916" lon="5.7331">
        <ele>529.20001220703</ele>
        <time>2021-10-03T05:57:03.000Z</time>
      </trkpt>
      <trkpt lat="45.2091" lon="5.73309">
        <ele>528.59997558594</ele>
        <time>2021-10-03T05:57:06.000Z</time>
      </trkpt>
      <trkpt lat="45.20909" lon="5.73308">
        <ele>527.79998779297</ele>
        <time>2021-10-03T05:57:07.000Z</time>
      </trkpt>
      <trkpt lat="45.20909" lon="5.73308">
        <ele>527.40002441406</ele>
        <time>2021-10-03T05:57:08.000Z</time>
      </trkpt>
      <trkpt lat="45.20906" lon="5.73312">
        <ele>526.59997558594</ele>
        <time>2021-10-03T05:57:10.000Z</time>
      </trkpt>
      <trkpt lat="45.20903" lon="5.73315">
        <ele>526</ele>
        <time>2021-10-03T05:57:12.000Z</time>
      </trkpt>
      <trkpt lat="45.20899" lon="5.73316">
        <ele>525.59997558594</ele>
        <time>2021-10-03T05:57:15.000Z</time>
      </trkpt>
      <trkpt lat="45.20894" lon="5.73317">
        <ele>524.40002441406</ele>
        <time>2021-10-03T05:57:18.000Z</time>
      </trkpt>
      <trkpt lat="45.20889" lon="5.73318">
        <ele>523.59997558594</ele>
        <time>2021-10-03T05:57:20.000Z</time>
      </trkpt>
      <trkpt lat="45.20887" lon="5.73318">
        <ele>523.20001220703</ele>
        <time>2021-10-03T05:57:21.000Z</time>
      </trkpt>
      <trkpt lat="45.20881" lon="5.73318">
        <ele>522</ele>
        <time>2021-10-03T05:57:24.000Z</time>
      </trkpt>
      <trkpt lat="45.20877" lon="5.73317">
        <ele>521.59997558594</ele>
        <time>2021-10-03T05:57:26.000Z</time>
      </trkpt>
      <trkpt lat="45.20873" lon="5.73316">
        <ele>520.59997558594</ele>
        <time>2021-10-03T05:57:28.000Z</time>
      </trkpt>
      <trkpt lat="45.2087" lon="5.73311">
        <ele>519.59997558594</ele>
        <time>2021-10-03T05:57:31.000Z</time>
      </trkpt>
      <trkpt lat="45.20863" lon="5.73307">
        <ele>517.79998779297</ele>
        <time>2021-10-03T05:57:35.000Z</time>
      </trkpt>
      <trkpt lat="45.2086" lon="5.73303">
        <ele>517</ele>
        <time>2021-10-03T05:57:37.000Z</time>
      </trkpt>
      <trkpt lat="45.20859" lon="5.73302">
        <ele>516.79998779297</ele>
        <time>2021-10-03T05:57:38.000Z</time>
      </trkpt>
      <trkpt lat="45.20852" lon="5.73288">
        <ele>517.20001220703</ele>
        <time>2021-10-03T05:57:44.000Z</time>
      </trkpt>
      <trkpt lat="45.20847" lon="5.7328">
        <ele>517.20001220703</ele>
        <time>2021-10-03T05:57:48.000Z</time>
      </trkpt>
      <trkpt lat="45.20843" lon="5.73276">
        <ele>517</ele>
        <time>2021-10-03T05:57:50.000Z</time>
      </trkpt>
      <trkpt lat="45.20839" lon="5.7327">
        <ele>517</ele>
        <time>2021-10-03T05:57:53.000Z</time>
      </trkpt>
      <trkpt lat="45.20836" lon="5.73266">
        <ele>517</ele>
        <time>2021-10-03T05:57:55.000Z</time>
      </trkpt>
      <trkpt lat="45.20831" lon="5.7326">
        <ele>517.79998779297</ele>
        <time>2021-10-03T05:57:58.000Z</time>
      </trkpt>
      <trkpt lat="45.2083" lon="5.73258">
        <ele>518</ele>
        <time>2021-10-03T05:57:59.000Z</time>
      </trkpt>
      <trkpt lat="45.20827" lon="5.73255">
        <ele>518</ele>
        <time>2021-10-03T05:58:01.000Z</time>
      </trkpt>
      <trkpt lat="45.20826" lon="5.73252">
        <ele>517.79998779297</ele>
        <time>2021-10-03T05:58:03.000Z</time>
      </trkpt>
      <trkpt lat="45.20825" lon="5.7325">
        <ele>518</ele>
        <time>2021-10-03T05:58:04.000Z</time>
      </trkpt>
      <trkpt lat="45.20823" lon="5.73245">
        <ele>518.79998779297</ele>
        <time>2021-10-03T05:58:07.000Z</time>
      </trkpt>
      <trkpt lat="45.20822" lon="5.73244">
        <ele>519</ele>
        <time>2021-10-03T05:58:08.000Z</time>
      </trkpt>
      <trkpt lat="45.2082" lon="5.73243">
        <ele>518.59997558594</ele>
        <time>2021-10-03T05:58:11.000Z</time>
      </trkpt>
      <trkpt lat="45.20819" lon="5.73242">
        <ele>518.59997558594</ele>
        <time>2021-10-03T05:58:12.000Z</time>
      </trkpt>
      <trkpt lat="45.20818" lon="5.73238">
        <ele>517.79998779297</ele>
        <time>2021-10-03T05:58:14.000Z</time>
      </trkpt>
      <trkpt lat="45.20816" lon="5.73234">
        <ele>517</ele>
        <time>2021-10-03T05:58:17.000Z</time>
      </trkpt>
      <trkpt lat="45.20814" lon="5.73233">
        <ele>516.79998779297</ele>
        <time>2021-10-03T05:58:18.000Z</time>
      </trkpt>
      <trkpt lat="45.20811" lon="5.7323">
        <ele>515.59997558594</ele>
        <time>2021-10-03T05:58:21.000Z</time>
      </trkpt>
      <trkpt lat="45.2081" lon="5.73229">
        <ele>515</ele>
        <time>2021-10-03T05:58:22.000Z</time>
      </trkpt>
      <trkpt lat="45.20811" lon="5.73229">
        <ele>514.40002441406</ele>
        <time>2021-10-03T05:58:23.000Z</time>
      </trkpt>
      <trkpt lat="45.20807" lon="5.73226">
        <ele>513.79998779297</ele>
        <time>2021-10-03T05:58:26.000Z</time>
      </trkpt>
      <trkpt lat="45.20805" lon="5.73225">
        <ele>513.40002441406</ele>
        <time>2021-10-03T05:58:27.000Z</time>
      </trkpt>
      <trkpt lat="45.20804" lon="5.73223">
        <ele>513</ele>
        <time>2021-10-03T05:58:28.000Z</time>
      </trkpt>
      <trkpt lat="45.20803" lon="5.73222">
        <ele>512.59997558594</ele>
        <time>2021-10-03T05:58:29.000Z</time>
      </trkpt>
      <trkpt lat="45.20802" lon="5.73219">
        <ele>512.20001220703</ele>
        <time>2021-10-03T05:58:31.000Z</time>
      </trkpt>
      <trkpt lat="45.20802" lon="5.73218">
        <ele>512</ele>
        <time>2021-10-03T05:58:32.000Z</time>
      </trkpt>
      <trkpt lat="45.208" lon="5.73217">
        <ele>511.60000610352</ele>
        <time>2021-10-03T05:58:34.000Z</time>
      </trkpt>
      <trkpt lat="45.20795" lon="5.73216">
        <ele>510.79998779297</ele>
        <time>2021-10-03T05:58:38.000Z</time>
      </trkpt>
      <trkpt lat="45.20792" lon="5.73215">
        <ele>510.60000610352</ele>
        <time>2021-10-03T05:58:40.000Z</time>
      </trkpt>
      <trkpt lat="45.20789" lon="5.73212">
        <ele>510.20001220703</ele>
        <time>2021-10-03T05:58:43.000Z</time>
      </trkpt>
      <trkpt lat="45.20786" lon="5.73213">
        <ele>509.60000610352</ele>
        <time>2021-10-03T05:58:45.000Z</time>
      </trkpt>
      <trkpt lat="45.20786" lon="5.73211">
        <ele>509.20001220703</ele>
        <time>2021-10-03T05:58:46.000Z</time>
      </trkpt>
      <trkpt lat="45.20786" lon="5.73209">
        <ele>509</ele>
        <time>2021-10-03T05:58:47.000Z</time>
      </trkpt>
      <trkpt lat="45.20782" lon="5.73205">
        <ele>508.39999389648</ele>
        <time>2021-10-03T05:58:51.000Z</time>
      </trkpt>
      <trkpt lat="45.20782" lon="5.73204">
        <ele>507.79998779297</ele>
        <time>2021-10-03T05:58:52.000Z</time>
      </trkpt>
      <trkpt lat="45.20781" lon="5.73202">
        <ele>507</ele>
        <time>2021-10-03T05:58:54.000Z</time>
      </trkpt>
      <trkpt lat="45.20778" lon="5.732">
        <ele>506</ele>
        <time>2021-10-03T05:58:58.000Z</time>
      </trkpt>
      <trkpt lat="45.20778" lon="5.732">
        <ele>505.39999389648</ele>
        <time>2021-10-03T05:58:59.000Z</time>
      </trkpt>
      <trkpt lat="45.20779" lon="5.73201">
        <ele>505</ele>
        <time>2021-10-03T05:59:00.000Z</time>
      </trkpt>
      <trkpt lat="45.20778" lon="5.73202">
        <ele>504.39999389648</ele>
        <time>2021-10-03T05:59:02.000Z</time>
      </trkpt>
      <trkpt lat="45.20778" lon="5.73203">
        <ele>503.60000610352</ele>
        <time>2021-10-03T05:59:03.000Z</time>
      </trkpt>
      <trkpt lat="45.20778" lon="5.73204">
        <ele>503</ele>
        <time>2021-10-03T05:59:04.000Z</time>
      </trkpt>
      <trkpt lat="45.20778" lon="5.73205">
        <ele>502.60000610352</ele>
        <time>2021-10-03T05:59:05.000Z</time>
      </trkpt>
      <trkpt lat="45.20778" lon="5.73207">
        <ele>501.39999389648</ele>
        <time>2021-10-03T05:59:07.000Z</time>
      </trkpt>
      <trkpt lat="45.20777" lon="5.73209">
        <ele>500.20001220703</ele>
        <time>2021-10-03T05:59:10.000Z</time>
      </trkpt>
      <trkpt lat="45.20778" lon="5.73213">
        <ele>498.20001220703</ele>
        <time>2021-10-03T05:59:13.000Z</time>
      </trkpt>
      <trkpt lat="45.20777" lon="5.73217">
        <ele>496.79998779297</ele>
        <time>2021-10-03T05:59:15.000Z</time>
      </trkpt>
      <trkpt lat="45.20776" lon="5.7322">
        <ele>495.39999389648</ele>
        <time>2021-10-03T05:59:18.000Z</time>
      </trkpt>
      <trkpt lat="45.20777" lon="5.73221">
        <ele>494.39999389648</ele>
        <time>2021-10-03T05:59:20.000Z</time>
      </trkpt>
      <trkpt lat="45.20776" lon="5.73222">
        <ele>494.20001220703</ele>
        <time>2021-10-03T05:59:21.000Z</time>
      </trkpt>
      <trkpt lat="45.20776" lon="5.73222">
        <ele>493.20001220703</ele>
        <time>2021-10-03T05:59:22.000Z</time>
      </trkpt>
      <trkpt lat="45.20776" lon="5.73223">
        <ele>492.60000610352</ele>
        <time>2021-10-03T05:59:23.000Z</time>
      </trkpt>
      <trkpt lat="45.20776" lon="5.73223">
        <ele>492</ele>
        <time>2021-10-03T05:59:24.000Z</time>
      </trkpt>
      <trkpt lat="45.20776" lon="5.73224">
        <ele>491.60000610352</ele>
        <time>2021-10-03T05:59:25.000Z</time>
      </trkpt>
      <trkpt lat="45.20776" lon="5.73226">
        <ele>491</ele>
        <time>2021-10-03T05:59:27.000Z</time>
      </trkpt>
      <trkpt lat="45.20777" lon="5.73227">
        <ele>489.79998779297</ele>
        <time>2021-10-03T05:59:29.000Z</time>
      </trkpt>
      <trkpt lat="45.20777" lon="5.73228">
        <ele>489.20001220703</ele>
        <time>2021-10-03T05:59:30.000Z</time>
      </trkpt>
      <trkpt lat="45.20778" lon="5.73229">
        <ele>488.79998779297</ele>
        <time>2021-10-03T05:59:31.000Z</time>
      </trkpt>
      <trkpt lat="45.20778" lon="5.7323">
        <ele>488.60000610352</ele>
        <time>2021-10-03T05:59:32.000Z</time>
      </trkpt>
      <trkpt lat="45.20778" lon="5.73232">
        <ele>488.20001220703</ele>
        <time>2021-10-03T05:59:34.000Z</time>
      </trkpt>
      <trkpt lat="45.20779" lon="5.73234">
        <ele>487.60000610352</ele>
        <time>2021-10-03T05:59:36.000Z</time>
      </trkpt>
      <trkpt lat="45.20778" lon="5.73235">
        <ele>487.39999389648</ele>
        <time>2021-10-03T05:59:37.000Z</time>
      </trkpt>
      <trkpt lat="45.20778" lon="5.73236">
        <ele>486.39999389648</ele>
        <time>2021-10-03T05:59:39.000Z</time>
      </trkpt>
      <trkpt lat="45.20778" lon="5.73237">
        <ele>486</ele>
        <time>2021-10-03T05:59:40.000Z</time>
      </trkpt>
      <trkpt lat="45.20778" lon="5.73239">
        <ele>485.20001220703</ele>
        <time>2021-10-03T05:59:43.000Z</time>
      </trkpt>
      <trkpt lat="45.20779" lon="5.73241">
        <ele>484.79998779297</ele>
        <time>2021-10-03T05:59:44.000Z</time>
      </trkpt>
      <trkpt lat="45.20779" lon="5.73244">
        <ele>483.79998779297</ele>
        <time>2021-10-03T05:59:45.000Z</time>
      </trkpt>
      <trkpt lat="45.20778" lon="5.73248">
        <ele>483.60000610352</ele>
        <time>2021-10-03T05:59:47.000Z</time>
      </trkpt>
      <trkpt lat="45.20779" lon="5.73252">
        <ele>483.20001220703</ele>
        <time>2021-10-03T05:59:49.000Z</time>
      </trkpt>
      <trkpt lat="45.2078" lon="5.73256">
        <ele>482.60000610352</ele>
        <time>2021-10-03T05:59:52.000Z</time>
      </trkpt>
      <trkpt lat="45.2078" lon="5.73257">
        <ele>482.20001220703</ele>
        <time>2021-10-03T05:59:53.000Z</time>
      </trkpt>
      <trkpt lat="45.20781" lon="5.73261">
        <ele>481.20001220703</ele>
        <time>2021-10-03T05:59:55.000Z</time>
      </trkpt>
      <trkpt lat="45.2078" lon="5.73265">
        <ele>480.20001220703</ele>
        <time>2021-10-03T05:59:57.000Z</time>
      </trkpt>
      <trkpt lat="45.20779" lon="5.73267">
        <ele>479</ele>
        <time>2021-10-03T06:00:00.000Z</time>
      </trkpt>
      <trkpt lat="45.20779" lon="5.7327">
        <ele>478.20001220703</ele>
        <time>2021-10-03T06:00:02.000Z</time>
      </trkpt>
      <trkpt lat="45.20778" lon="5.73272">
        <ele>477.79998779297</ele>
        <time>2021-10-03T06:00:03.000Z</time>
      </trkpt>
      <trkpt lat="45.20777" lon="5.73273">
        <ele>476.79998779297</ele>
        <time>2021-10-03T06:00:05.000Z</time>
      </trkpt>
      <trkpt lat="45.20774" lon="5.73273">
        <ele>475</ele>
        <time>2021-10-03T06:00:07.000Z</time>
      </trkpt>
      <trkpt lat="45.20773" lon="5.73273">
        <ele>473.79998779297</ele>
        <time>2021-10-03T06:00:09.000Z</time>
      </trkpt>
      <trkpt lat="45.20771" lon="5.73274">
        <ele>473</ele>
        <time>2021-10-03T06:00:12.000Z</time>
      </trkpt>
      <trkpt lat="45.2077" lon="5.73274">
        <ele>472.39999389648</ele>
        <time>2021-10-03T06:00:13.000Z</time>
      </trkpt>
      <trkpt lat="45.20766" lon="5.73273">
        <ele>471.60000610352</ele>
        <time>2021-10-03T06:00:15.000Z</time>
      </trkpt>
      <trkpt lat="45.20765" lon="5.73272">
        <ele>471.20001220703</ele>
        <time>2021-10-03T06:00:16.000Z</time>
      </trkpt>
      <trkpt lat="45.20764" lon="5.73273">
        <ele>470.60000610352</ele>
        <time>2021-10-03T06:00:17.000Z</time>
      </trkpt>
      <trkpt lat="45.20762" lon="5.73272">
        <ele>470</ele>
        <time>2021-10-03T06:00:19.000Z</time>
      </trkpt>
      <trkpt lat="45.20761" lon="5.73273">
        <ele>469.60000610352</ele>
        <time>2021-10-03T06:00:20.000Z</time>
      </trkpt>
      <trkpt lat="45.20759" lon="5.73273">
        <ele>469</ele>
        <time>2021-10-03T06:00:22.000Z</time>
      </trkpt>
      <trkpt lat="45.20757" lon="5.73273">
        <ele>468.60000610352</ele>
        <time>2021-10-03T06:00:23.000Z</time>
      </trkpt>
      <trkpt lat="45.20756" lon="5.73273">
        <ele>468.20001220703</ele>
        <time>2021-10-03T06:00:24.000Z</time>
      </trkpt>
      <trkpt lat="45.20755" lon="5.73273">
        <ele>468.20001220703</ele>
        <time>2021-10-03T06:00:25.000Z</time>
      </trkpt>
      <trkpt lat="45.20755" lon="5.73272">
        <ele>467.79998779297</ele>
        <time>2021-10-03T06:00:26.000Z</time>
      </trkpt>
      <trkpt lat="45.20754" lon="5.73271">
        <ele>467.60000610352</ele>
        <time>2021-10-03T06:00:27.000Z</time>
      </trkpt>
      <trkpt lat="45.20753" lon="5.73271">
        <ele>467</ele>
        <time>2021-10-03T06:00:28.000Z</time>
      </trkpt>
      <trkpt lat="45.2075" lon="5.7327">
        <ele>466.20001220703</ele>
        <time>2021-10-03T06:00:30.000Z</time>
      </trkpt>
      <trkpt lat="45.20748" lon="5.73271">
        <ele>464.79998779297</ele>
        <time>2021-10-03T06:00:32.000Z</time>
      </trkpt>
      <trkpt lat="45.20746" lon="5.7327">
        <ele>463.79998779297</ele>
        <time>2021-10-03T06:00:34.000Z</time>
      </trkpt>
      <trkpt lat="45.20745" lon="5.73269">
        <ele>463</ele>
        <time>2021-10-03T06:00:35.000Z</time>
      </trkpt>
      <trkpt lat="45.20744" lon="5.73269">
        <ele>462.39999389648</ele>
        <time>2021-10-03T06:00:36.000Z</time>
      </trkpt>
      <trkpt lat="45.20742" lon="5.73268">
        <ele>461.39999389648</ele>
        <time>2021-10-03T06:00:38.000Z</time>
      </trkpt>
      <trkpt lat="45.20741" lon="5.73267">
        <ele>460.39999389648</ele>
        <time>2021-10-03T06:00:39.000Z</time>
      </trkpt>
      <trkpt lat="45.20739" lon="5.73266">
        <ele>459.79998779297</ele>
        <time>2021-10-03T06:00:40.000Z</time>
      </trkpt>
      <trkpt lat="45.20736" lon="5.73263">
        <ele>459.20001220703</ele>
        <time>2021-10-03T06:00:44.000Z</time>
      </trkpt>
      <trkpt lat="45.20733" lon="5.73261">
        <ele>458.60000610352</ele>
        <time>2021-10-03T06:00:46.000Z</time>
      </trkpt>
      <trkpt lat="45.20731" lon="5.73261">
        <ele>458.60000610352</ele>
        <time>2021-10-03T06:00:47.000Z</time>
      </trkpt>
      <trkpt lat="45.20727" lon="5.73259">
        <ele>457.20001220703</ele>
        <time>2021-10-03T06:00:49.000Z</time>
      </trkpt>
      <trkpt lat="45.20724" lon="5.73259">
        <ele>455.79998779297</ele>
        <time>2021-10-03T06:00:51.000Z</time>
      </trkpt>
      <trkpt lat="45.20721" lon="5.7326">
        <ele>454.60000610352</ele>
        <time>2021-10-03T06:00:53.000Z</time>
      </trkpt>
      <trkpt lat="45.2072" lon="5.7326">
        <ele>454.20001220703</ele>
        <time>2021-10-03T06:00:54.000Z</time>
      </trkpt>
      <trkpt lat="45.20719" lon="5.73259">
        <ele>454</ele>
        <time>2021-10-03T06:00:55.000Z</time>
      </trkpt>
      <trkpt lat="45.20717" lon="5.73258">
        <ele>453.39999389648</ele>
        <time>2021-10-03T06:00:58.000Z</time>
      </trkpt>
      <trkpt lat="45.20715" lon="5.73258">
        <ele>453.39999389648</ele>
        <time>2021-10-03T06:00:59.000Z</time>
      </trkpt>
      <trkpt lat="45.20712" lon="5.73257">
        <ele>452.39999389648</ele>
        <time>2021-10-03T06:01:01.000Z</time>
      </trkpt>
      <trkpt lat="45.20711" lon="5.73256">
        <ele>452.39999389648</ele>
        <time>2021-10-03T06:01:02.000Z</time>
      </trkpt>
      <trkpt lat="45.20712" lon="5.73258">
        <ele>451.39999389648</ele>
        <time>2021-10-03T06:01:04.000Z</time>
      </trkpt>
      <trkpt lat="45.20713" lon="5.73261">
        <ele>450.20001220703</ele>
        <time>2021-10-03T06:01:06.000Z</time>
      </trkpt>
      <trkpt lat="45.20713" lon="5.73262">
        <ele>449.20001220703</ele>
        <time>2021-10-03T06:01:08.000Z</time>
      </trkpt>
      <trkpt lat="45.20714" lon="5.73266">
        <ele>448</ele>
        <time>2021-10-03T06:01:11.000Z</time>
      </trkpt>
      <trkpt lat="45.20714" lon="5.73268">
        <ele>447.79998779297</ele>
        <time>2021-10-03T06:01:12.000Z</time>
      </trkpt>
      <trkpt lat="45.20716" lon="5.73272">
        <ele>446.79998779297</ele>
        <time>2021-10-03T06:01:16.000Z</time>
      </trkpt>
      <trkpt lat="45.20717" lon="5.73274">
        <ele>446.20001220703</ele>
        <time>2021-10-03T06:01:18.000Z</time>
      </trkpt>
      <trkpt lat="45.20717" lon="5.73275">
        <ele>446</ele>
        <time>2021-10-03T06:01:19.000Z</time>
      </trkpt>
      <trkpt lat="45.20717" lon="5.73276">
        <ele>445.79998779297</ele>
        <time>2021-10-03T06:01:20.000Z</time>
      </trkpt>
      <trkpt lat="45.20719" lon="5.73278">
        <ele>445.39999389648</ele>
        <time>2021-10-03T06:01:22.000Z</time>
      </trkpt>
      <trkpt lat="45.20721" lon="5.73283">
        <ele>444.79998779297</ele>
        <time>2021-10-03T06:01:25.000Z</time>
      </trkpt>
      <trkpt lat="45.20722" lon="5.73284">
        <ele>444.79998779297</ele>
        <time>2021-10-03T06:01:26.000Z</time>
      </trkpt>
      <trkpt lat="45.20723" lon="5.73286">
        <ele>443.60000610352</ele>
        <time>2021-10-03T06:01:29.000Z</time>
      </trkpt>
      <trkpt lat="45.20724" lon="5.73287">
        <ele>443.20001220703</ele>
        <time>2021-10-03T06:01:30.000Z</time>
      </trkpt>
      <trkpt lat="45.20725" lon="5.73289">
        <ele>442.20001220703</ele>
        <time>2021-10-03T06:01:32.000Z</time>
      </trkpt>
      <trkpt lat="45.20726" lon="5.73298">
        <ele>441.20001220703</ele>
        <time>2021-10-03T06:01:35.000Z</time>
      </trkpt>
      <trkpt lat="45.20729" lon="5.73303">
        <ele>439.79998779297</ele>
        <time>2021-10-03T06:01:38.000Z</time>
      </trkpt>
      <trkpt lat="45.2073" lon="5.73306">
        <ele>439.20001220703</ele>
        <time>2021-10-03T06:01:39.000Z</time>
      </trkpt>
      <trkpt lat="45.2073" lon="5.7331">
        <ele>438.60000610352</ele>
        <time>2021-10-03T06:01:41.000Z</time>
      </trkpt>
      <trkpt lat="45.2073" lon="5.73315">
        <ele>437.39999389648</ele>
        <time>2021-10-03T06:01:44.000Z</time>
      </trkpt>
      <trkpt lat="45.20731" lon="5.73318">
        <ele>436.79998779297</ele>
        <time>2021-10-03T06:01:46.000Z</time>
      </trkpt>
      <trkpt lat="45.20731" lon="5.7332">
        <ele>436.20001220703</ele>
        <time>2021-10-03T06:01:48.000Z</time>
      </trkpt>
      <trkpt lat="45.2073" lon="5.73321">
        <ele>435.79998779297</ele>
        <time>2021-10-03T06:01:51.000Z</time>
      </trkpt>
      <trkpt lat="45.2073" lon="5.73321">
        <ele>435.39999389648</ele>
        <time>2021-10-03T06:01:52.000Z</time>
      </trkpt>
      <trkpt lat="45.20729" lon="5.73321">
        <ele>435</ele>
        <time>2021-10-03T06:01:53.000Z</time>
      </trkpt>
      <trkpt lat="45.20724" lon="5.73321">
        <ele>434.79998779297</ele>
        <time>2021-10-03T06:01:58.000Z</time>
      </trkpt>
      <trkpt lat="45.20725" lon="5.73322">
        <ele>434.39999389648</ele>
        <time>2021-10-03T06:02:02.000Z</time>
      </trkpt>
      <trkpt lat="45.20729" lon="5.73328">
        <ele>434.60000610352</ele>
        <time>2021-10-03T06:02:08.000Z</time>
      </trkpt>
      <trkpt lat="45.20733" lon="5.73335">
        <ele>436.20001220703</ele>
        <time>2021-10-03T06:02:15.000Z</time>
      </trkpt>
      <trkpt lat="45.20736" lon="5.7334">
        <ele>436.60000610352</ele>
        <time>2021-10-03T06:02:18.000Z</time>
      </trkpt>
      <trkpt lat="45.20737" lon="5.73341">
        <ele>436.60000610352</ele>
        <time>2021-10-03T06:02:19.000Z</time>
      </trkpt>
      <trkpt lat="45.20738" lon="5.73342">
        <ele>436.79998779297</ele>
        <time>2021-10-03T06:02:20.000Z</time>
      </trkpt>
      <trkpt lat="45.2074" lon="5.73342">
        <ele>437.20001220703</ele>
        <time>2021-10-03T06:02:21.000Z</time>
      </trkpt>
      <trkpt lat="45.2074" lon="5.73344">
        <ele>437.39999389648</ele>
        <time>2021-10-03T06:02:22.000Z</time>
      </trkpt>
      <trkpt lat="45.20741" lon="5.73345">
        <ele>437.79998779297</ele>
        <time>2021-10-03T06:02:23.000Z</time>
      </trkpt>
      <trkpt lat="45.20743" lon="5.73349">
        <ele>438.39999389648</ele>
        <time>2021-10-03T06:02:25.000Z</time>
      </trkpt>
      <trkpt lat="45.20744" lon="5.7335">
        <ele>438.79998779297</ele>
        <time>2021-10-03T06:02:26.000Z</time>
      </trkpt>
      <trkpt lat="45.20747" lon="5.73351">
        <ele>439.20001220703</ele>
        <time>2021-10-03T06:02:29.000Z</time>
      </trkpt>
      <trkpt lat="45.20748" lon="5.73351">
        <ele>439.60000610352</ele>
        <time>2021-10-03T06:02:30.000Z</time>
      </trkpt>
      <trkpt lat="45.20754" lon="5.73353">
        <ele>441</ele>
        <time>2021-10-03T06:02:34.000Z</time>
      </trkpt>
      <trkpt lat="45.20756" lon="5.73353">
        <ele>441.60000610352</ele>
        <time>2021-10-03T06:02:36.000Z</time>
      </trkpt>
      <trkpt lat="45.20758" lon="5.73354">
        <ele>442</ele>
        <time>2021-10-03T06:02:38.000Z</time>
      </trkpt>
      <trkpt lat="45.20763" lon="5.73358">
        <ele>443.20001220703</ele>
        <time>2021-10-03T06:02:43.000Z</time>
      </trkpt>
      <trkpt lat="45.20764" lon="5.73359">
        <ele>443.60000610352</ele>
        <time>2021-10-03T06:02:44.000Z</time>
      </trkpt>
      <trkpt lat="45.20767" lon="5.7336">
        <ele>444.60000610352</ele>
        <time>2021-10-03T06:02:46.000Z</time>
      </trkpt>
      <trkpt lat="45.20769" lon="5.7336">
        <ele>445</ele>
        <time>2021-10-03T06:02:48.000Z</time>
      </trkpt>
      <trkpt lat="45.20768" lon="5.73362">
        <ele>445.39999389648</ele>
        <time>2021-10-03T06:02:50.000Z</time>
      </trkpt>
      <trkpt lat="45.20765" lon="5.73363">
        <ele>445.60000610352</ele>
        <time>2021-10-03T06:02:52.000Z</time>
      </trkpt>
      <trkpt lat="45.20761" lon="5.73363">
        <ele>445</ele>
        <time>2021-10-03T06:02:55.000Z</time>
      </trkpt>
      <trkpt lat="45.20758" lon="5.73363">
        <ele>444.60000610352</ele>
        <time>2021-10-03T06:02:57.000Z</time>
      </trkpt>
      <trkpt lat="45.20757" lon="5.73362">
        <ele>444.39999389648</ele>
        <time>2021-10-03T06:02:58.000Z</time>
      </trkpt>
      <trkpt lat="45.20753" lon="5.7336">
        <ele>443.20001220703</ele>
        <time>2021-10-03T06:03:02.000Z</time>
      </trkpt>
      <trkpt lat="45.20749" lon="5.73357">
        <ele>442</ele>
        <time>2021-10-03T06:03:05.000Z</time>
      </trkpt>
      <trkpt lat="45.20746" lon="5.73354">
        <ele>441</ele>
        <time>2021-10-03T06:03:07.000Z</time>
      </trkpt>
      <trkpt lat="45.20743" lon="5.73348">
        <ele>439.79998779297</ele>
        <time>2021-10-03T06:03:10.000Z</time>
      </trkpt>
      <trkpt lat="45.20741" lon="5.73346">
        <ele>439.60000610352</ele>
        <time>2021-10-03T06:03:12.000Z</time>
      </trkpt>
      <trkpt lat="45.20736" lon="5.73342">
        <ele>438.79998779297</ele>
        <time>2021-10-03T06:03:16.000Z</time>
      </trkpt>
      <trkpt lat="45.20731" lon="5.7334">
        <ele>437.60000610352</ele>
        <time>2021-10-03T06:03:19.000Z</time>
      </trkpt>
      <trkpt lat="45.2073" lon="5.73339">
        <ele>437.20001220703</ele>
        <time>2021-10-03T06:03:20.000Z</time>
      </trkpt>
      <trkpt lat="45.20726" lon="5.73337">
        <ele>436.79998779297</ele>
        <time>2021-10-03T06:03:22.000Z</time>
      </trkpt>
      <trkpt lat="45.20724" lon="5.73336">
        <ele>436.39999389648</ele>
        <time>2021-10-03T06:03:23.000Z</time>
      </trkpt>
      <trkpt lat="45.20721" lon="5.73332">
        <ele>435.60000610352</ele>
        <time>2021-10-03T06:03:25.000Z</time>
      </trkpt>
      <trkpt lat="45.20719" lon="5.73331">
        <ele>435.20001220703</ele>
        <time>2021-10-03T06:03:26.000Z</time>
      </trkpt>
      <trkpt lat="45.20715" lon="5.73328">
        <ele>434.60000610352</ele>
        <time>2021-10-03T06:03:28.000Z</time>
      </trkpt>
      <trkpt lat="45.20709" lon="5.73324">
        <ele>433.79998779297</ele>
        <time>2021-10-03T06:03:31.000Z</time>
      </trkpt>
      <trkpt lat="45.20702" lon="5.7332">
        <ele>433</ele>
        <time>2021-10-03T06:03:34.000Z</time>
      </trkpt>
      <trkpt lat="45.20697" lon="5.73317">
        <ele>432.79998779297</ele>
        <time>2021-10-03T06:03:36.000Z</time>
      </trkpt>
      <trkpt lat="45.20692" lon="5.73312">
        <ele>432.39999389648</ele>
        <time>2021-10-03T06:03:39.000Z</time>
      </trkpt>
      <trkpt lat="45.2069" lon="5.73309">
        <ele>432</ele>
        <time>2021-10-03T06:03:40.000Z</time>
      </trkpt>
      <trkpt lat="45.20685" lon="5.73305">
        <ele>431.60000610352</ele>
        <time>2021-10-03T06:03:42.000Z</time>
      </trkpt>
      <trkpt lat="45.20681" lon="5.73303">
        <ele>431.20001220703</ele>
        <time>2021-10-03T06:03:44.000Z</time>
      </trkpt>
      <trkpt lat="45.20679" lon="5.73302">
        <ele>430.79998779297</ele>
        <time>2021-10-03T06:03:45.000Z</time>
      </trkpt>
      <trkpt lat="45.20677" lon="5.73301">
        <ele>430.60000610352</ele>
        <time>2021-10-03T06:03:46.000Z</time>
      </trkpt>
      <trkpt lat="45.20666" lon="5.73295">
        <ele>429.39999389648</ele>
        <time>2021-10-03T06:03:51.000Z</time>
      </trkpt>
      <trkpt lat="45.20664" lon="5.73293">
        <ele>429</ele>
        <time>2021-10-03T06:03:52.000Z</time>
      </trkpt>
      <trkpt lat="45.2066" lon="5.73291">
        <ele>428.20001220703</ele>
        <time>2021-10-03T06:03:54.000Z</time>
      </trkpt>
      <trkpt lat="45.2065" lon="5.73283">
        <ele>427.20001220703</ele>
        <time>2021-10-03T06:03:59.000Z</time>
      </trkpt>
      <trkpt lat="45.20646" lon="5.73279">
        <ele>426.79998779297</ele>
        <time>2021-10-03T06:04:01.000Z</time>
      </trkpt>
      <trkpt lat="45.20642" lon="5.73276">
        <ele>426.20001220703</ele>
        <time>2021-10-03T06:04:03.000Z</time>
      </trkpt>
      <trkpt lat="45.20634" lon="5.73265">
        <ele>425.60000610352</ele>
        <time>2021-10-03T06:04:07.000Z</time>
      </trkpt>
      <trkpt lat="45.2063" lon="5.73261">
        <ele>425.20001220703</ele>
        <time>2021-10-03T06:04:09.000Z</time>
      </trkpt>
      <trkpt lat="45.20622" lon="5.73253">
        <ele>423.79998779297</ele>
        <time>2021-10-03T06:04:13.000Z</time>
      </trkpt>
      <trkpt lat="45.20616" lon="5.73249">
        <ele>422.60000610352</ele>
        <time>2021-10-03T06:04:16.000Z</time>
      </trkpt>
      <trkpt lat="45.20606" lon="5.73244">
        <ele>421.60000610352</ele>
        <time>2021-10-03T06:04:20.000Z</time>
      </trkpt>
      <trkpt lat="45.20602" lon="5.7324">
        <ele>421</ele>
        <time>2021-10-03T06:04:22.000Z</time>
      </trkpt>
      <trkpt lat="45.20594" lon="5.73234">
        <ele>420</ele>
        <time>2021-10-03T06:04:26.000Z</time>
      </trkpt>
      <trkpt lat="45.20592" lon="5.73233">
        <ele>419.60000610352</ele>
        <time>2021-10-03T06:04:27.000Z</time>
      </trkpt>
      <trkpt lat="45.20589" lon="5.73229">
        <ele>419</ele>
        <time>2021-10-03T06:04:30.000Z</time>
      </trkpt>
      <trkpt lat="45.2059" lon="5.73228">
        <ele>418.79998779297</ele>
        <time>2021-10-03T06:04:31.000Z</time>
      </trkpt>
      <trkpt lat="45.20596" lon="5.73227">
        <ele>418.39999389648</ele>
        <time>2021-10-03T06:04:36.000Z</time>
      </trkpt>
      <trkpt lat="45.20596" lon="5.73226">
        <ele>418.60000610352</ele>
        <time>2021-10-03T06:04:37.000Z</time>
      </trkpt>
      <trkpt lat="45.20597" lon="5.73224">
        <ele>418.79998779297</ele>
        <time>2021-10-03T06:04:43.000Z</time>
      </trkpt>
      <trkpt lat="45.20596" lon="5.73224">
        <ele>418.79998779297</ele>
        <time>2021-10-03T06:04:44.000Z</time>
      </trkpt>
      <trkpt lat="45.20596" lon="5.73224">
        <ele>418.60000610352</ele>
        <time>2021-10-03T06:04:45.000Z</time>
      </trkpt>
      <trkpt lat="45.20597" lon="5.73223">
        <ele>418.20001220703</ele>
        <time>2021-10-03T06:04:49.000Z</time>
      </trkpt>
      <trkpt lat="45.20597" lon="5.73224">
        <ele>418</ele>
        <time>2021-10-03T06:04:53.000Z</time>
      </trkpt>
      <trkpt lat="45.20598" lon="5.73227">
        <ele>417.20001220703</ele>
        <time>2021-10-03T06:04:55.000Z</time>
      </trkpt>
      <trkpt lat="45.20597" lon="5.7323">
        <ele>416.20001220703</ele>
        <time>2021-10-03T06:04:57.000Z</time>
      </trkpt>
      <trkpt lat="45.20597" lon="5.73231">
        <ele>415.79998779297</ele>
        <time>2021-10-03T06:04:58.000Z</time>
      </trkpt>
      <trkpt lat="45.206" lon="5.73233">
        <ele>415</ele>
        <time>2021-10-03T06:05:01.000Z</time>
      </trkpt>
      <trkpt lat="45.206" lon="5.73235">
        <ele>414.79998779297</ele>
        <time>2021-10-03T06:05:02.000Z</time>
      </trkpt>
      <trkpt lat="45.20601" lon="5.73238">
        <ele>413.79998779297</ele>
        <time>2021-10-03T06:05:04.000Z</time>
      </trkpt>
      <trkpt lat="45.20601" lon="5.73241">
        <ele>413</ele>
        <time>2021-10-03T06:05:06.000Z</time>
      </trkpt>
      <trkpt lat="45.20602" lon="5.73242">
        <ele>412.60000610352</ele>
        <time>2021-10-03T06:05:07.000Z</time>
      </trkpt>
      <trkpt lat="45.20602" lon="5.73244">
        <ele>411.79998779297</ele>
        <time>2021-10-03T06:05:09.000Z</time>
      </trkpt>
      <trkpt lat="45.20603" lon="5.73245">
        <ele>411.60000610352</ele>
        <time>2021-10-03T06:05:10.000Z</time>
      </trkpt>
      <trkpt lat="45.20605" lon="5.73246">
        <ele>411.20001220703</ele>
        <time>2021-10-03T06:05:11.000Z</time>
      </trkpt>
      <trkpt lat="45.20609" lon="5.73251">
        <ele>410.39999389648</ele>
        <time>2021-10-03T06:05:14.000Z</time>
      </trkpt>
      <trkpt lat="45.2061" lon="5.73252">
        <ele>410.20001220703</ele>
        <time>2021-10-03T06:05:15.000Z</time>
      </trkpt>
      <trkpt lat="45.20611" lon="5.73255">
        <ele>409.39999389648</ele>
        <time>2021-10-03T06:05:17.000Z</time>
      </trkpt>
      <trkpt lat="45.20612" lon="5.73257">
        <ele>409.20001220703</ele>
        <time>2021-10-03T06:05:18.000Z</time>
      </trkpt>
      <trkpt lat="45.20613" lon="5.7326">
        <ele>408.79998779297</ele>
        <time>2021-10-03T06:05:20.000Z</time>
      </trkpt>
      <trkpt lat="45.20615" lon="5.7326">
        <ele>408.39999389648</ele>
        <time>2021-10-03T06:05:22.000Z</time>
      </trkpt>
      <trkpt lat="45.20616" lon="5.73261">
        <ele>408</ele>
        <time>2021-10-03T06:05:23.000Z</time>
      </trkpt>
      <trkpt lat="45.20617" lon="5.73265">
        <ele>406.79998779297</ele>
        <time>2021-10-03T06:05:26.000Z</time>
      </trkpt>
      <trkpt lat="45.20617" lon="5.73267">
        <ele>405.60000610352</ele>
        <time>2021-10-03T06:05:28.000Z</time>
      </trkpt>
      <trkpt lat="45.20618" lon="5.73269">
        <ele>404.79998779297</ele>
        <time>2021-10-03T06:05:30.000Z</time>
      </trkpt>
      <trkpt lat="45.20618" lon="5.7327">
        <ele>404.60000610352</ele>
        <time>2021-10-03T06:05:31.000Z</time>
      </trkpt>
      <trkpt lat="45.20619" lon="5.73272">
        <ele>404.20001220703</ele>
        <time>2021-10-03T06:05:32.000Z</time>
      </trkpt>
      <trkpt lat="45.2062" lon="5.73279">
        <ele>403.60000610352</ele>
        <time>2021-10-03T06:05:36.000Z</time>
      </trkpt>
      <trkpt lat="45.2062" lon="5.73281">
        <ele>403</ele>
        <time>2021-10-03T06:05:37.000Z</time>
      </trkpt>
      <trkpt lat="45.20624" lon="5.73288">
        <ele>401.60000610352</ele>
        <time>2021-10-03T06:05:40.000Z</time>
      </trkpt>
      <trkpt lat="45.20626" lon="5.7329">
        <ele>401</ele>
        <time>2021-10-03T06:05:41.000Z</time>
      </trkpt>
      <trkpt lat="45.20628" lon="5.73293">
        <ele>400.39999389648</ele>
        <time>2021-10-03T06:05:43.000Z</time>
      </trkpt>
      <trkpt lat="45.20629" lon="5.73299">
        <ele>399.20001220703</ele>
        <time>2021-10-03T06:05:46.000Z</time>
      </trkpt>
      <trkpt lat="45.2063" lon="5.73304">
        <ele>398.20001220703</ele>
        <time>2021-10-03T06:05:50.000Z</time>
      </trkpt>
      <trkpt lat="45.20629" lon="5.73311">
        <ele>396.79998779297</ele>
        <time>2021-10-03T06:05:54.000Z</time>
      </trkpt>
      <trkpt lat="45.20629" lon="5.73315">
        <ele>395.60000610352</ele>
        <time>2021-10-03T06:05:57.000Z</time>
      </trkpt>
      <trkpt lat="45.2063" lon="5.73317">
        <ele>395</ele>
        <time>2021-10-03T06:05:59.000Z</time>
      </trkpt>
      <trkpt lat="45.20631" lon="5.7332">
        <ele>394.39999389648</ele>
        <time>2021-10-03T06:06:01.000Z</time>
      </trkpt>
      <trkpt lat="45.20633" lon="5.73324">
        <ele>393.20001220703</ele>
        <time>2021-10-03T06:06:05.000Z</time>
      </trkpt>
      <trkpt lat="45.20633" lon="5.7333">
        <ele>392</ele>
        <time>2021-10-03T06:06:09.000Z</time>
      </trkpt>
      <trkpt lat="45.20633" lon="5.73331">
        <ele>391.39999389648</ele>
        <time>2021-10-03T06:06:11.000Z</time>
      </trkpt>
      <trkpt lat="45.20631" lon="5.73332">
        <ele>390.60000610352</ele>
        <time>2021-10-03T06:06:14.000Z</time>
      </trkpt>
      <trkpt lat="45.20629" lon="5.73333">
        <ele>389.60000610352</ele>
        <time>2021-10-03T06:06:16.000Z</time>
      </trkpt>
      <trkpt lat="45.20628" lon="5.73334">
        <ele>389.20001220703</ele>
        <time>2021-10-03T06:06:17.000Z</time>
      </trkpt>
      <trkpt lat="45.20626" lon="5.73335">
        <ele>389</ele>
        <time>2021-10-03T06:06:18.000Z</time>
      </trkpt>
      <trkpt lat="45.20625" lon="5.73334">
        <ele>388.39999389648</ele>
        <time>2021-10-03T06:06:19.000Z</time>
      </trkpt>
      <trkpt lat="45.20624" lon="5.73334">
        <ele>387.20001220703</ele>
        <time>2021-10-03T06:06:21.000Z</time>
      </trkpt>
      <trkpt lat="45.20623" lon="5.73334">
        <ele>386.79998779297</ele>
        <time>2021-10-03T06:06:22.000Z</time>
      </trkpt>
      <trkpt lat="45.20621" lon="5.73334">
        <ele>385.79998779297</ele>
        <time>2021-10-03T06:06:25.000Z</time>
      </trkpt>
      <trkpt lat="45.20621" lon="5.73334">
        <ele>385.60000610352</ele>
        <time>2021-10-03T06:06:26.000Z</time>
      </trkpt>
      <trkpt lat="45.2062" lon="5.73335">
        <ele>385.60000610352</ele>
        <time>2021-10-03T06:06:27.000Z</time>
      </trkpt>
      <trkpt lat="45.2062" lon="5.73335">
        <ele>385.20001220703</ele>
        <time>2021-10-03T06:06:28.000Z</time>
      </trkpt>
      <trkpt lat="45.2062" lon="5.73336">
        <ele>384.60000610352</ele>
        <time>2021-10-03T06:06:30.000Z</time>
      </trkpt>
      <trkpt lat="45.20615" lon="5.73338">
        <ele>383.39999389648</ele>
        <time>2021-10-03T06:06:34.000Z</time>
      </trkpt>
      <trkpt lat="45.20614" lon="5.73339">
        <ele>382.20001220703</ele>
        <time>2021-10-03T06:06:36.000Z</time>
      </trkpt>
      <trkpt lat="45.20612" lon="5.73339">
        <ele>380.79998779297</ele>
        <time>2021-10-03T06:06:39.000Z</time>
      </trkpt>
      <trkpt lat="45.20611" lon="5.73339">
        <ele>380.39999389648</ele>
        <time>2021-10-03T06:06:40.000Z</time>
      </trkpt>
      <trkpt lat="45.2061" lon="5.73339">
        <ele>379.60000610352</ele>
        <time>2021-10-03T06:06:42.000Z</time>
      </trkpt>
      <trkpt lat="45.2061" lon="5.73339">
        <ele>379.39999389648</ele>
        <time>2021-10-03T06:06:43.000Z</time>
      </trkpt>
      <trkpt lat="45.20609" lon="5.73339">
        <ele>378.79998779297</ele>
        <time>2021-10-03T06:06:46.000Z</time>
      </trkpt>
      <trkpt lat="45.20609" lon="5.73339">
        <ele>378.60000610352</ele>
        <time>2021-10-03T06:06:47.000Z</time>
      </trkpt>
      <trkpt lat="45.20608" lon="5.73339">
        <ele>378</ele>
        <time>2021-10-03T06:06:49.000Z</time>
      </trkpt>
      <trkpt lat="45.20606" lon="5.7334">
        <ele>377.39999389648</ele>
        <time>2021-10-03T06:06:51.000Z</time>
      </trkpt>
      <trkpt lat="45.20603" lon="5.73342">
        <ele>376.20001220703</ele>
        <time>2021-10-03T06:06:55.000Z</time>
      </trkpt>
      <trkpt lat="45.20601" lon="5.73342">
        <ele>375.60000610352</ele>
        <time>2021-10-03T06:06:56.000Z</time>
      </trkpt>
      <trkpt lat="45.206" lon="5.73342">
        <ele>375.20001220703</ele>
        <time>2021-10-03T06:06:57.000Z</time>
      </trkpt>
      <trkpt lat="45.20597" lon="5.7334">
        <ele>374.20001220703</ele>
        <time>2021-10-03T06:06:59.000Z</time>
      </trkpt>
      <trkpt lat="45.20593" lon="5.73339">
        <ele>373.20001220703</ele>
        <time>2021-10-03T06:07:03.000Z</time>
      </trkpt>
      <trkpt lat="45.20592" lon="5.73338">
        <ele>372.79998779297</ele>
        <time>2021-10-03T06:07:04.000Z</time>
      </trkpt>
      <trkpt lat="45.20593" lon="5.73338">
        <ele>372.20001220703</ele>
        <time>2021-10-03T06:07:09.000Z</time>
      </trkpt>
      <trkpt lat="45.20594" lon="5.73337">
        <ele>371</ele>
        <time>2021-10-03T06:07:14.000Z</time>
      </trkpt>
      <trkpt lat="45.20594" lon="5.73338">
        <ele>370.60000610352</ele>
        <time>2021-10-03T06:07:15.000Z</time>
      </trkpt>
      <trkpt lat="45.20594" lon="5.73338">
        <ele>370.39999389648</ele>
        <time>2021-10-03T06:07:16.000Z</time>
      </trkpt>
      <trkpt lat="45.20594" lon="5.73339">
        <ele>370.20001220703</ele>
        <time>2021-10-03T06:07:17.000Z</time>
      </trkpt>
      <trkpt lat="45.20594" lon="5.7334">
        <ele>369.79998779297</ele>
        <time>2021-10-03T06:07:19.000Z</time>
      </trkpt>
      <trkpt lat="45.20593" lon="5.73342">
        <ele>369</ele>
        <time>2021-10-03T06:07:22.000Z</time>
      </trkpt>
      <trkpt lat="45.20592" lon="5.73343">
        <ele>368.39999389648</ele>
        <time>2021-10-03T06:07:24.000Z</time>
      </trkpt>
      <trkpt lat="45.20593" lon="5.73348">
        <ele>367.39999389648</ele>
        <time>2021-10-03T06:07:28.000Z</time>
      </trkpt>
      <trkpt lat="45.20593" lon="5.73353">
        <ele>366.60000610352</ele>
        <time>2021-10-03T06:07:32.000Z</time>
      </trkpt>
      <trkpt lat="45.20593" lon="5.73355">
        <ele>366.20001220703</ele>
        <time>2021-10-03T06:07:34.000Z</time>
      </trkpt>
      <trkpt lat="45.20594" lon="5.73356">
        <ele>366</ele>
        <time>2021-10-03T06:07:35.000Z</time>
      </trkpt>
      <trkpt lat="45.20592" lon="5.73358">
        <ele>365</ele>
        <time>2021-10-03T06:07:38.000Z</time>
      </trkpt>
      <trkpt lat="45.2059" lon="5.73359">
        <ele>363.79998779297</ele>
        <time>2021-10-03T06:07:41.000Z</time>
      </trkpt>
      <trkpt lat="45.20589" lon="5.7336">
        <ele>363.60000610352</ele>
        <time>2021-10-03T06:07:42.000Z</time>
      </trkpt>
      <trkpt lat="45.20587" lon="5.7336">
        <ele>363</ele>
        <time>2021-10-03T06:07:44.000Z</time>
      </trkpt>
      <trkpt lat="45.20586" lon="5.73359">
        <ele>362.60000610352</ele>
        <time>2021-10-03T06:07:45.000Z</time>
      </trkpt>
      <trkpt lat="45.20583" lon="5.73359">
        <ele>362</ele>
        <time>2021-10-03T06:07:48.000Z</time>
      </trkpt>
      <trkpt lat="45.20582" lon="5.73359">
        <ele>361.79998779297</ele>
        <time>2021-10-03T06:07:49.000Z</time>
      </trkpt>
      <trkpt lat="45.20581" lon="5.73359">
        <ele>361.60000610352</ele>
        <time>2021-10-03T06:07:50.000Z</time>
      </trkpt>
      <trkpt lat="45.2058" lon="5.73359">
        <ele>360.79998779297</ele>
        <time>2021-10-03T06:07:51.000Z</time>
      </trkpt>
      <trkpt lat="45.2058" lon="5.73359">
        <ele>360</ele>
        <time>2021-10-03T06:07:53.000Z</time>
      </trkpt>
      <trkpt lat="45.2058" lon="5.73359">
        <ele>359.20001220703</ele>
        <time>2021-10-03T06:07:55.000Z</time>
      </trkpt>
      <trkpt lat="45.2058" lon="5.73359">
        <ele>358.79998779297</ele>
        <time>2021-10-03T06:07:56.000Z</time>
      </trkpt>
      <trkpt lat="45.20579" lon="5.73362">
        <ele>357.79998779297</ele>
        <time>2021-10-03T06:08:00.000Z</time>
      </trkpt>
      <trkpt lat="45.20579" lon="5.73363">
        <ele>357.79998779297</ele>
        <time>2021-10-03T06:08:01.000Z</time>
      </trkpt>
      <trkpt lat="45.20576" lon="5.73365">
        <ele>356.60000610352</ele>
        <time>2021-10-03T06:08:05.000Z</time>
      </trkpt>
      <trkpt lat="45.20575" lon="5.73365">
        <ele>355.79998779297</ele>
        <time>2021-10-03T06:08:07.000Z</time>
      </trkpt>
      <trkpt lat="45.20575" lon="5.73365">
        <ele>355.60000610352</ele>
        <time>2021-10-03T06:08:08.000Z</time>
      </trkpt>
      <trkpt lat="45.20575" lon="5.73366">
        <ele>354.79998779297</ele>
        <time>2021-10-03T06:08:11.000Z</time>
      </trkpt>
      <trkpt lat="45.20575" lon="5.73365">
        <ele>354.60000610352</ele>
        <time>2021-10-03T06:08:12.000Z</time>
      </trkpt>
      <trkpt lat="45.20574" lon="5.73366">
        <ele>353.60000610352</ele>
        <time>2021-10-03T06:08:15.000Z</time>
      </trkpt>
      <trkpt lat="45.20575" lon="5.73368">
        <ele>353.39999389648</ele>
        <time>2021-10-03T06:08:17.000Z</time>
      </trkpt>
      <trkpt lat="45.20575" lon="5.73367">
        <ele>352.60000610352</ele>
        <time>2021-10-03T06:08:22.000Z</time>
      </trkpt>
      <trkpt lat="45.20575" lon="5.73367">
        <ele>352.39999389648</ele>
        <time>2021-10-03T06:08:24.000Z</time>
      </trkpt>
      <trkpt lat="45.20575" lon="5.73369">
        <ele>351.20001220703</ele>
        <time>2021-10-03T06:08:29.000Z</time>
      </trkpt>
      <trkpt lat="45.20575" lon="5.7337">
        <ele>350.79998779297</ele>
        <time>2021-10-03T06:08:30.000Z</time>
      </trkpt>
      <trkpt lat="45.20576" lon="5.73379">
        <ele>350.39999389648</ele>
        <time>2021-10-03T06:08:34.000Z</time>
      </trkpt>
      <trkpt lat="45.20576" lon="5.73382">
        <ele>350</ele>
        <time>2021-10-03T06:08:35.000Z</time>
      </trkpt>
      <trkpt lat="45.20579" lon="5.7339">
        <ele>349</ele>
        <time>2021-10-03T06:08:38.000Z</time>
      </trkpt>
      <trkpt lat="45.20581" lon="5.73392">
        <ele>348.79998779297</ele>
        <time>2021-10-03T06:08:39.000Z</time>
      </trkpt>
      <trkpt lat="45.20584" lon="5.73398">
        <ele>348.20001220703</ele>
        <time>2021-10-03T06:08:41.000Z</time>
      </trkpt>
      <trkpt lat="45.20587" lon="5.73406">
        <ele>347.39999389648</ele>
        <time>2021-10-03T06:08:44.000Z</time>
      </trkpt>
      <trkpt lat="45.20587" lon="5.73409">
        <ele>347</ele>
        <time>2021-10-03T06:08:45.000Z</time>
      </trkpt>
      <trkpt lat="45.20587" lon="5.73412">
        <ele>346.79998779297</ele>
        <time>2021-10-03T06:08:46.000Z</time>
      </trkpt>
      <trkpt lat="45.20588" lon="5.73415">
        <ele>346.20001220703</ele>
        <time>2021-10-03T06:08:47.000Z</time>
      </trkpt>
      <trkpt lat="45.20589" lon="5.73422">
        <ele>346</ele>
        <time>2021-10-03T06:08:49.000Z</time>
      </trkpt>
      <trkpt lat="45.20591" lon="5.73428">
        <ele>345.79998779297</ele>
        <time>2021-10-03T06:08:51.000Z</time>
      </trkpt>
      <trkpt lat="45.20592" lon="5.73431">
        <ele>345.39999389648</ele>
        <time>2021-10-03T06:08:52.000Z</time>
      </trkpt>
      <trkpt lat="45.20593" lon="5.73433">
        <ele>345.20001220703</ele>
        <time>2021-10-03T06:08:53.000Z</time>
      </trkpt>
      <trkpt lat="45.20599" lon="5.7344">
        <ele>345</ele>
        <time>2021-10-03T06:08:56.000Z</time>
      </trkpt>
      <trkpt lat="45.20604" lon="5.73446">
        <ele>344.39999389648</ele>
        <time>2021-10-03T06:08:58.000Z</time>
      </trkpt>
      <trkpt lat="45.20609" lon="5.73451">
        <ele>344.20001220703</ele>
        <time>2021-10-03T06:09:00.000Z</time>
      </trkpt>
      <trkpt lat="45.20617" lon="5.73461">
        <ele>343.39999389648</ele>
        <time>2021-10-03T06:09:04.000Z</time>
      </trkpt>
      <trkpt lat="45.20619" lon="5.73463">
        <ele>343.20001220703</ele>
        <time>2021-10-03T06:09:05.000Z</time>
      </trkpt>
      <trkpt lat="45.20624" lon="5.73467">
        <ele>342.79998779297</ele>
        <time>2021-10-03T06:09:07.000Z</time>
      </trkpt>
      <trkpt lat="45.20628" lon="5.73475">
        <ele>342.20001220703</ele>
        <time>2021-10-03T06:09:10.000Z</time>
      </trkpt>
      <trkpt lat="45.20629" lon="5.73478">
        <ele>342</ele>
        <time>2021-10-03T06:09:11.000Z</time>
      </trkpt>
      <trkpt lat="45.20635" lon="5.73485">
        <ele>341.20001220703</ele>
        <time>2021-10-03T06:09:14.000Z</time>
      </trkpt>
      <trkpt lat="45.20637" lon="5.73488">
        <ele>341</ele>
        <time>2021-10-03T06:09:15.000Z</time>
      </trkpt>
      <trkpt lat="45.20642" lon="5.73497">
        <ele>340.39999389648</ele>
        <time>2021-10-03T06:09:18.000Z</time>
      </trkpt>
      <trkpt lat="45.20646" lon="5.73503">
        <ele>339.79998779297</ele>
        <time>2021-10-03T06:09:20.000Z</time>
      </trkpt>
      <trkpt lat="45.20657" lon="5.7352">
        <ele>338.39999389648</ele>
        <time>2021-10-03T06:09:26.000Z</time>
      </trkpt>
      <trkpt lat="45.20659" lon="5.73523">
        <ele>338.20001220703</ele>
        <time>2021-10-03T06:09:27.000Z</time>
      </trkpt>
      <trkpt lat="45.20661" lon="5.73527">
        <ele>337.79998779297</ele>
        <time>2021-10-03T06:09:29.000Z</time>
      </trkpt>
      <trkpt lat="45.20659" lon="5.7353">
        <ele>337.39999389648</ele>
        <time>2021-10-03T06:09:31.000Z</time>
      </trkpt>
      <trkpt lat="45.20653" lon="5.73531">
        <ele>336.39999389648</ele>
        <time>2021-10-03T06:09:35.000Z</time>
      </trkpt>
      <trkpt lat="45.2065" lon="5.73532">
        <ele>335.20001220703</ele>
        <time>2021-10-03T06:09:37.000Z</time>
      </trkpt>
      <trkpt lat="45.20648" lon="5.73532">
        <ele>334.79998779297</ele>
        <time>2021-10-03T06:09:38.000Z</time>
      </trkpt>
      <trkpt lat="45.20643" lon="5.73531">
        <ele>334</ele>
        <time>2021-10-03T06:09:40.000Z</time>
      </trkpt>
      <trkpt lat="45.20639" lon="5.7353">
        <ele>332.60000610352</ele>
        <time>2021-10-03T06:09:43.000Z</time>
      </trkpt>
      <trkpt lat="45.20635" lon="5.7353">
        <ele>331.60000610352</ele>
        <time>2021-10-03T06:09:45.000Z</time>
      </trkpt>
      <trkpt lat="45.20633" lon="5.73529">
        <ele>331.20001220703</ele>
        <time>2021-10-03T06:09:46.000Z</time>
      </trkpt>
      <trkpt lat="45.20629" lon="5.73528">
        <ele>330.39999389648</ele>
        <time>2021-10-03T06:09:48.000Z</time>
      </trkpt>
      <trkpt lat="45.20627" lon="5.73527">
        <ele>329.79998779297</ele>
        <time>2021-10-03T06:09:49.000Z</time>
      </trkpt>
      <trkpt lat="45.20624" lon="5.73526">
        <ele>329</ele>
        <time>2021-10-03T06:09:51.000Z</time>
      </trkpt>
      <trkpt lat="45.20624" lon="5.73525">
        <ele>328.60000610352</ele>
        <time>2021-10-03T06:09:52.000Z</time>
      </trkpt>
      <trkpt lat="45.20619" lon="5.73525">
        <ele>327</ele>
        <time>2021-10-03T06:09:55.000Z</time>
      </trkpt>
      <trkpt lat="45.20616" lon="5.73524">
        <ele>326.20001220703</ele>
        <time>2021-10-03T06:09:57.000Z</time>
      </trkpt>
      <trkpt lat="45.20614" lon="5.73524">
        <ele>325.79998779297</ele>
        <time>2021-10-03T06:09:58.000Z</time>
      </trkpt>
      <trkpt lat="45.20612" lon="5.73524">
        <ele>324.60000610352</ele>
        <time>2021-10-03T06:10:00.000Z</time>
      </trkpt>
      <trkpt lat="45.20611" lon="5.73524">
        <ele>324.20001220703</ele>
        <time>2021-10-03T06:10:01.000Z</time>
      </trkpt>
      <trkpt lat="45.20606" lon="5.73524">
        <ele>323.20001220703</ele>
        <time>2021-10-03T06:10:04.000Z</time>
      </trkpt>
      <trkpt lat="45.206" lon="5.73526">
        <ele>321.79998779297</ele>
        <time>2021-10-03T06:10:07.000Z</time>
      </trkpt>
      <trkpt lat="45.20598" lon="5.73527">
        <ele>321.20001220703</ele>
        <time>2021-10-03T06:10:08.000Z</time>
      </trkpt>
      <trkpt lat="45.20597" lon="5.73527">
        <ele>320.60000610352</ele>
        <time>2021-10-03T06:10:09.000Z</time>
      </trkpt>
      <trkpt lat="45.20595" lon="5.73526">
        <ele>319.60000610352</ele>
        <time>2021-10-03T06:10:11.000Z</time>
      </trkpt>
      <trkpt lat="45.20595" lon="5.73526">
        <ele>319.39999389648</ele>
        <time>2021-10-03T06:10:12.000Z</time>
      </trkpt>
      <trkpt lat="45.20594" lon="5.73526">
        <ele>319.20001220703</ele>
        <time>2021-10-03T06:10:13.000Z</time>
      </trkpt>
      <trkpt lat="45.20591" lon="5.73528">
        <ele>319.20001220703</ele>
        <time>2021-10-03T06:10:18.000Z</time>
      </trkpt>
      <trkpt lat="45.20588" lon="5.7353">
        <ele>319.20001220703</ele>
        <time>2021-10-03T06:10:21.000Z</time>
      </trkpt>
      <trkpt lat="45.20587" lon="5.73531">
        <ele>319.20001220703</ele>
        <time>2021-10-03T06:10:23.000Z</time>
      </trkpt>
      <trkpt lat="45.20587" lon="5.73531">
        <ele>319.20001220703</ele>
        <time>2021-10-03T06:10:24.000Z</time>
      </trkpt>
      <trkpt lat="45.20586" lon="5.73531">
        <ele>319</ele>
        <time>2021-10-03T06:10:26.000Z</time>
      </trkpt>
      <trkpt lat="45.20585" lon="5.73532">
        <ele>319</ele>
        <time>2021-10-03T06:10:32.000Z</time>
      </trkpt>
      <trkpt lat="45.20582" lon="5.73535">
        <ele>318.79998779297</ele>
        <time>2021-10-03T06:10:37.000Z</time>
      </trkpt>
      <trkpt lat="45.20581" lon="5.73534">
        <ele>318.60000610352</ele>
        <time>2021-10-03T06:10:38.000Z</time>
      </trkpt>
      <trkpt lat="45.20579" lon="5.73534">
        <ele>318.20001220703</ele>
        <time>2021-10-03T06:10:39.000Z</time>
      </trkpt>
      <trkpt lat="45.20578" lon="5.73532">
        <ele>317.20001220703</ele>
        <time>2021-10-03T06:10:41.000Z</time>
      </trkpt>
      <trkpt lat="45.20575" lon="5.73531">
        <ele>316</ele>
        <time>2021-10-03T06:10:43.000Z</time>
      </trkpt>
      <trkpt lat="45.20572" lon="5.73531">
        <ele>315</ele>
        <time>2021-10-03T06:10:45.000Z</time>
      </trkpt>
      <trkpt lat="45.20571" lon="5.73531">
        <ele>314.60000610352</ele>
        <time>2021-10-03T06:10:46.000Z</time>
      </trkpt>
      <trkpt lat="45.2057" lon="5.7353">
        <ele>314.20001220703</ele>
        <time>2021-10-03T06:10:48.000Z</time>
      </trkpt>
      <trkpt lat="45.20569" lon="5.73529">
        <ele>313.20001220703</ele>
        <time>2021-10-03T06:10:49.000Z</time>
      </trkpt>
      <trkpt lat="45.20566" lon="5.73528">
        <ele>312.20001220703</ele>
        <time>2021-10-03T06:10:51.000Z</time>
      </trkpt>
      <trkpt lat="45.20565" lon="5.73528">
        <ele>311.60000610352</ele>
        <time>2021-10-03T06:10:52.000Z</time>
      </trkpt>
      <trkpt lat="45.20564" lon="5.73527">
        <ele>311.20001220703</ele>
        <time>2021-10-03T06:10:53.000Z</time>
      </trkpt>
      <trkpt lat="45.20562" lon="5.73527">
        <ele>310.60000610352</ele>
        <time>2021-10-03T06:10:54.000Z</time>
      </trkpt>
      <trkpt lat="45.20558" lon="5.73526">
        <ele>309.39999389648</ele>
        <time>2021-10-03T06:10:57.000Z</time>
      </trkpt>
      <trkpt lat="45.20553" lon="5.73527">
        <ele>308.20001220703</ele>
        <time>2021-10-03T06:11:00.000Z</time>
      </trkpt>
      <trkpt lat="45.2055" lon="5.73526">
        <ele>306.79998779297</ele>
        <time>2021-10-03T06:11:02.000Z</time>
      </trkpt>
      <trkpt lat="45.20548" lon="5.73526">
        <ele>305.79998779297</ele>
        <time>2021-10-03T06:11:04.000Z</time>
      </trkpt>
      <trkpt lat="45.20546" lon="5.73527">
        <ele>305.60000610352</ele>
        <time>2021-10-03T06:11:05.000Z</time>
      </trkpt>
      <trkpt lat="45.20545" lon="5.73527">
        <ele>305</ele>
        <time>2021-10-03T06:11:06.000Z</time>
      </trkpt>
      <trkpt lat="45.20543" lon="5.73525">
        <ele>303.79998779297</ele>
        <time>2021-10-03T06:11:08.000Z</time>
      </trkpt>
      <trkpt lat="45.20538" lon="5.73524">
        <ele>302.60000610352</ele>
        <time>2021-10-03T06:11:11.000Z</time>
      </trkpt>
      <trkpt lat="45.20534" lon="5.73524">
        <ele>301</ele>
        <time>2021-10-03T06:11:13.000Z</time>
      </trkpt>
      <trkpt lat="45.20532" lon="5.73523">
        <ele>300.20001220703</ele>
        <time>2021-10-03T06:11:15.000Z</time>
      </trkpt>
      <trkpt lat="45.20531" lon="5.73523">
        <ele>299.20001220703</ele>
        <time>2021-10-03T06:11:16.000Z</time>
      </trkpt>
      <trkpt lat="45.20528" lon="5.73524">
        <ele>298</ele>
        <time>2021-10-03T06:11:18.000Z</time>
      </trkpt>
      <trkpt lat="45.20526" lon="5.73524">
        <ele>297.39999389648</ele>
        <time>2021-10-03T06:11:19.000Z</time>
      </trkpt>
      <trkpt lat="45.20523" lon="5.73522">
        <ele>296.79998779297</ele>
        <time>2021-10-03T06:11:21.000Z</time>
      </trkpt>
      <trkpt lat="45.20517" lon="5.73519">
        <ele>295.60000610352</ele>
        <time>2021-10-03T06:11:24.000Z</time>
      </trkpt>
      <trkpt lat="45.20517" lon="5.73517">
        <ele>295</ele>
        <time>2021-10-03T06:11:25.000Z</time>
      </trkpt>
      <trkpt lat="45.20516" lon="5.73516">
        <ele>294.20001220703</ele>
        <time>2021-10-03T06:11:26.000Z</time>
      </trkpt>
      <trkpt lat="45.20514" lon="5.73516">
        <ele>293.79998779297</ele>
        <time>2021-10-03T06:11:27.000Z</time>
      </trkpt>
      <trkpt lat="45.20512" lon="5.73517">
        <ele>293.20001220703</ele>
        <time>2021-10-03T06:11:29.000Z</time>
      </trkpt>
      <trkpt lat="45.20511" lon="5.73518">
        <ele>292.20001220703</ele>
        <time>2021-10-03T06:11:31.000Z</time>
      </trkpt>
      <trkpt lat="45.2051" lon="5.73519">
        <ele>291.39999389648</ele>
        <time>2021-10-03T06:11:32.000Z</time>
      </trkpt>
      <trkpt lat="45.20509" lon="5.73521">
        <ele>290</ele>
        <time>2021-10-03T06:11:34.000Z</time>
      </trkpt>
      <trkpt lat="45.20505" lon="5.73526">
        <ele>289</ele>
        <time>2021-10-03T06:11:37.000Z</time>
      </trkpt>
      <trkpt lat="45.20503" lon="5.73527">
        <ele>288</ele>
        <time>2021-10-03T06:11:39.000Z</time>
      </trkpt>
      <trkpt lat="45.20501" lon="5.73528">
        <ele>287.60000610352</ele>
        <time>2021-10-03T06:11:40.000Z</time>
      </trkpt>
      <trkpt lat="45.20496" lon="5.7353">
        <ele>286.39999389648</ele>
        <time>2021-10-03T06:11:43.000Z</time>
      </trkpt>
      <trkpt lat="45.20493" lon="5.73532">
        <ele>285</ele>
        <time>2021-10-03T06:11:45.000Z</time>
      </trkpt>
      <trkpt lat="45.20487" lon="5.73536">
        <ele>284</ele>
        <time>2021-10-03T06:11:48.000Z</time>
      </trkpt>
      <trkpt lat="45.20484" lon="5.73539">
        <ele>282.60000610352</ele>
        <time>2021-10-03T06:11:50.000Z</time>
      </trkpt>
      <trkpt lat="45.20483" lon="5.7354">
        <ele>282.20001220703</ele>
        <time>2021-10-03T06:11:51.000Z</time>
      </trkpt>
      <trkpt lat="45.2048" lon="5.73543">
        <ele>281.20001220703</ele>
        <time>2021-10-03T06:11:54.000Z</time>
      </trkpt>
      <trkpt lat="45.20479" lon="5.73545">
        <ele>281</ele>
        <time>2021-10-03T06:11:55.000Z</time>
      </trkpt>
      <trkpt lat="45.20477" lon="5.73547">
        <ele>280.60000610352</ele>
        <time>2021-10-03T06:11:56.000Z</time>
      </trkpt>
      <trkpt lat="45.20476" lon="5.73549">
        <ele>280.39999389648</ele>
        <time>2021-10-03T06:11:57.000Z</time>
      </trkpt>
      <trkpt lat="45.20475" lon="5.7355">
        <ele>280</ele>
        <time>2021-10-03T06:11:58.000Z</time>
      </trkpt>
      <trkpt lat="45.20473" lon="5.73551">
        <ele>279.20001220703</ele>
        <time>2021-10-03T06:12:00.000Z</time>
      </trkpt>
      <trkpt lat="45.20471" lon="5.7355">
        <ele>279</ele>
        <time>2021-10-03T06:12:02.000Z</time>
      </trkpt>
      <trkpt lat="45.20468" lon="5.73548">
        <ele>279</ele>
        <time>2021-10-03T06:12:04.000Z</time>
      </trkpt>
      <trkpt lat="45.20467" lon="5.73546">
        <ele>279</ele>
        <time>2021-10-03T06:12:05.000Z</time>
      </trkpt>
      <trkpt lat="45.20456" lon="5.73534">
        <ele>279.20001220703</ele>
        <time>2021-10-03T06:12:11.000Z</time>
      </trkpt>
      <trkpt lat="45.20448" lon="5.73526">
        <ele>279.20001220703</ele>
        <time>2021-10-03T06:12:15.000Z</time>
      </trkpt>
      <trkpt lat="45.20439" lon="5.7352">
        <ele>279.39999389648</ele>
        <time>2021-10-03T06:12:19.000Z</time>
      </trkpt>
      <trkpt lat="45.20438" lon="5.73519">
        <ele>279.39999389648</ele>
        <time>2021-10-03T06:12:20.000Z</time>
      </trkpt>
      <trkpt lat="45.20437" lon="5.73516">
        <ele>279.39999389648</ele>
        <time>2021-10-03T06:12:22.000Z</time>
      </trkpt>
      <trkpt lat="45.20436" lon="5.73514">
        <ele>279.20001220703</ele>
        <time>2021-10-03T06:12:23.000Z</time>
      </trkpt>
      <trkpt lat="45.20435" lon="5.73512">
        <ele>279.20001220703</ele>
        <time>2021-10-03T06:12:24.000Z</time>
      </trkpt>
      <trkpt lat="45.20435" lon="5.7351">
        <ele>279</ele>
        <time>2021-10-03T06:12:25.000Z</time>
      </trkpt>
      <trkpt lat="45.20434" lon="5.73505">
        <ele>278.60000610352</ele>
        <time>2021-10-03T06:12:28.000Z</time>
      </trkpt>
      <trkpt lat="45.20433" lon="5.73504">
        <ele>278.20001220703</ele>
        <time>2021-10-03T06:12:29.000Z</time>
      </trkpt>
      <trkpt lat="45.20431" lon="5.73503">
        <ele>277.79998779297</ele>
        <time>2021-10-03T06:12:31.000Z</time>
      </trkpt>
      <trkpt lat="45.2043" lon="5.73504">
        <ele>277.79998779297</ele>
        <time>2021-10-03T06:12:32.000Z</time>
      </trkpt>
      <trkpt lat="45.20428" lon="5.73505">
        <ele>276.60000610352</ele>
        <time>2021-10-03T06:12:34.000Z</time>
      </trkpt>
      <trkpt lat="45.20427" lon="5.73505">
        <ele>275.79998779297</ele>
        <time>2021-10-03T06:12:36.000Z</time>
      </trkpt>
      <trkpt lat="45.20425" lon="5.73505">
        <ele>275.39999389648</ele>
        <time>2021-10-03T06:12:37.000Z</time>
      </trkpt>
      <trkpt lat="45.20421" lon="5.73505">
        <ele>274.20001220703</ele>
        <time>2021-10-03T06:12:40.000Z</time>
      </trkpt>
      <trkpt lat="45.20417" lon="5.73508">
        <ele>272.79998779297</ele>
        <time>2021-10-03T06:12:44.000Z</time>
      </trkpt>
      <trkpt lat="45.20416" lon="5.73511">
        <ele>272.20001220703</ele>
        <time>2021-10-03T06:12:46.000Z</time>
      </trkpt>
      <trkpt lat="45.20415" lon="5.73512">
        <ele>271.79998779297</ele>
        <time>2021-10-03T06:12:47.000Z</time>
      </trkpt>
      <trkpt lat="45.20414" lon="5.73513">
        <ele>271.20001220703</ele>
        <time>2021-10-03T06:12:48.000Z</time>
      </trkpt>
      <trkpt lat="45.20413" lon="5.73514">
        <ele>271</ele>
        <time>2021-10-03T06:12:50.000Z</time>
      </trkpt>
      <trkpt lat="45.20411" lon="5.73517">
        <ele>270.60000610352</ele>
        <time>2021-10-03T06:12:52.000Z</time>
      </trkpt>
      <trkpt lat="45.20409" lon="5.7352">
        <ele>270</ele>
        <time>2021-10-03T06:12:53.000Z</time>
      </trkpt>
      <trkpt lat="45.20407" lon="5.73522">
        <ele>269.39999389648</ele>
        <time>2021-10-03T06:12:54.000Z</time>
      </trkpt>
      <trkpt lat="45.20405" lon="5.73527">
        <ele>268.39999389648</ele>
        <time>2021-10-03T06:12:56.000Z</time>
      </trkpt>
      <trkpt lat="45.20401" lon="5.73533">
        <ele>267.20001220703</ele>
        <time>2021-10-03T06:12:59.000Z</time>
      </trkpt>
      <trkpt lat="45.20398" lon="5.73539">
        <ele>266.20001220703</ele>
        <time>2021-10-03T06:13:02.000Z</time>
      </trkpt>
      <trkpt lat="45.20394" lon="5.73544">
        <ele>265</ele>
        <time>2021-10-03T06:13:05.000Z</time>
      </trkpt>
      <trkpt lat="45.20388" lon="5.7355">
        <ele>263.79998779297</ele>
        <time>2021-10-03T06:13:09.000Z</time>
      </trkpt>
      <trkpt lat="45.2038" lon="5.73559">
        <ele>262.39999389648</ele>
        <time>2021-10-03T06:13:14.000Z</time>
      </trkpt>
      <trkpt lat="45.20378" lon="5.73561">
        <ele>262.20001220703</ele>
        <time>2021-10-03T06:13:15.000Z</time>
      </trkpt>
      <trkpt lat="45.20375" lon="5.73563">
        <ele>261.20001220703</ele>
        <time>2021-10-03T06:13:17.000Z</time>
      </trkpt>
      <trkpt lat="45.20367" lon="5.73568">
        <ele>259.79998779297</ele>
        <time>2021-10-03T06:13:21.000Z</time>
      </trkpt>
      <trkpt lat="45.20358" lon="5.73572">
        <ele>258.79998779297</ele>
        <time>2021-10-03T06:13:25.000Z</time>
      </trkpt>
      <trkpt lat="45.20347" lon="5.73574">
        <ele>257.79998779297</ele>
        <time>2021-10-03T06:13:29.000Z</time>
      </trkpt>
      <trkpt lat="45.20341" lon="5.73574">
        <ele>256.79998779297</ele>
        <time>2021-10-03T06:13:32.000Z</time>
      </trkpt>
      <trkpt lat="45.20338" lon="5.73573">
        <ele>256.39999389648</ele>
        <time>2021-10-03T06:13:33.000Z</time>
      </trkpt>
      <trkpt lat="45.20331" lon="5.73578">
        <ele>255.39999389648</ele>
        <time>2021-10-03T06:13:37.000Z</time>
      </trkpt>
      <trkpt lat="45.20329" lon="5.73579">
        <ele>255</ele>
        <time>2021-10-03T06:13:38.000Z</time>
      </trkpt>
      <trkpt lat="45.20326" lon="5.73582">
        <ele>254.60000610352</ele>
        <time>2021-10-03T06:13:40.000Z</time>
      </trkpt>
      <trkpt lat="45.20324" lon="5.73583">
        <ele>254.19999694824</ele>
        <time>2021-10-03T06:13:41.000Z</time>
      </trkpt>
      <trkpt lat="45.20322" lon="5.73585">
        <ele>254</ele>
        <time>2021-10-03T06:13:42.000Z</time>
      </trkpt>
      <trkpt lat="45.2032" lon="5.73586">
        <ele>253.60000610352</ele>
        <time>2021-10-03T06:13:44.000Z</time>
      </trkpt>
      <trkpt lat="45.20318" lon="5.73585">
        <ele>253.19999694824</ele>
        <time>2021-10-03T06:13:45.000Z</time>
      </trkpt>
      <trkpt lat="45.20317" lon="5.73585">
        <ele>252.80000305176</ele>
        <time>2021-10-03T06:13:46.000Z</time>
      </trkpt>
      <trkpt lat="45.20313" lon="5.73579">
        <ele>252.60000610352</ele>
        <time>2021-10-03T06:13:49.000Z</time>
      </trkpt>
      <trkpt lat="45.20309" lon="5.73571">
        <ele>251.80000305176</ele>
        <time>2021-10-03T06:13:52.000Z</time>
      </trkpt>
      <trkpt lat="45.20308" lon="5.73569">
        <ele>251.60000610352</ele>
        <time>2021-10-03T06:13:53.000Z</time>
      </trkpt>
      <trkpt lat="45.20308" lon="5.73566">
        <ele>251.39999389648</ele>
        <time>2021-10-03T06:13:54.000Z</time>
      </trkpt>
      <trkpt lat="45.20302" lon="5.73556">
        <ele>250.39999389648</ele>
        <time>2021-10-03T06:13:57.000Z</time>
      </trkpt>
      <trkpt lat="45.20292" lon="5.73546">
        <ele>249.39999389648</ele>
        <time>2021-10-03T06:14:01.000Z</time>
      </trkpt>
      <trkpt lat="45.20288" lon="5.73543">
        <ele>248.80000305176</ele>
        <time>2021-10-03T06:14:04.000Z</time>
      </trkpt>
      <trkpt lat="45.20288" lon="5.73541">
        <ele>248.80000305176</ele>
        <time>2021-10-03T06:14:05.000Z</time>
      </trkpt>
      <trkpt lat="45.20286" lon="5.73532">
        <ele>248.60000610352</ele>
        <time>2021-10-03T06:14:08.000Z</time>
      </trkpt>
      <trkpt lat="45.20283" lon="5.7353">
        <ele>248.19999694824</ele>
        <time>2021-10-03T06:14:09.000Z</time>
      </trkpt>
      <trkpt lat="45.20281" lon="5.73527">
        <ele>248.19999694824</ele>
        <time>2021-10-03T06:14:10.000Z</time>
      </trkpt>
      <trkpt lat="45.20267" lon="5.73514">
        <ele>247.80000305176</ele>
        <time>2021-10-03T06:14:15.000Z</time>
      </trkpt>
      <trkpt lat="45.20263" lon="5.73507">
        <ele>247.39999389648</ele>
        <time>2021-10-03T06:14:18.000Z</time>
      </trkpt>
      <trkpt lat="45.20262" lon="5.73504">
        <ele>247.19999694824</ele>
        <time>2021-10-03T06:14:19.000Z</time>
      </trkpt>
      <trkpt lat="45.2026" lon="5.73501">
        <ele>247.19999694824</ele>
        <time>2021-10-03T06:14:20.000Z</time>
      </trkpt>
      <trkpt lat="45.20248" lon="5.73486">
        <ele>246.60000610352</ele>
        <time>2021-10-03T06:14:25.000Z</time>
      </trkpt>
      <trkpt lat="45.20238" lon="5.73471">
        <ele>246.60000610352</ele>
        <time>2021-10-03T06:14:30.000Z</time>
      </trkpt>
      <trkpt lat="45.20235" lon="5.73468">
        <ele>246.60000610352</ele>
        <time>2021-10-03T06:14:31.000Z</time>
      </trkpt>
      <trkpt lat="45.20229" lon="5.73458">
        <ele>246.80000305176</ele>
        <time>2021-10-03T06:14:34.000Z</time>
      </trkpt>
      <trkpt lat="45.20229" lon="5.73453">
        <ele>246.80000305176</ele>
        <time>2021-10-03T06:14:35.000Z</time>
      </trkpt>
      <trkpt lat="45.20218" lon="5.7344">
        <ele>246.80000305176</ele>
        <time>2021-10-03T06:14:40.000Z</time>
      </trkpt>
      <trkpt lat="45.20216" lon="5.73438">
        <ele>246.80000305176</ele>
        <time>2021-10-03T06:14:41.000Z</time>
      </trkpt>
      <trkpt lat="45.20212" lon="5.73435">
        <ele>246.80000305176</ele>
        <time>2021-10-03T06:14:43.000Z</time>
      </trkpt>
      <trkpt lat="45.2021" lon="5.73433">
        <ele>246.80000305176</ele>
        <time>2021-10-03T06:14:44.000Z</time>
      </trkpt>
      <trkpt lat="45.20207" lon="5.73427">
        <ele>246.60000610352</ele>
        <time>2021-10-03T06:14:47.000Z</time>
      </trkpt>
      <trkpt lat="45.20207" lon="5.73426">
        <ele>246.60000610352</ele>
        <time>2021-10-03T06:14:48.000Z</time>
      </trkpt>
      <trkpt lat="45.20198" lon="5.73413">
        <ele>246.60000610352</ele>
        <time>2021-10-03T06:14:53.000Z</time>
      </trkpt>
      <trkpt lat="45.20197" lon="5.73411">
        <ele>246.60000610352</ele>
        <time>2021-10-03T06:14:54.000Z</time>
      </trkpt>
      <trkpt lat="45.20181" lon="5.73398">
        <ele>246.39999389648</ele>
        <time>2021-10-03T06:14:59.000Z</time>
      </trkpt>
      <trkpt lat="45.20178" lon="5.73395">
        <ele>246.19999694824</ele>
        <time>2021-10-03T06:15:00.000Z</time>
      </trkpt>
      <trkpt lat="45.20174" lon="5.73391">
        <ele>246.19999694824</ele>
        <time>2021-10-03T06:15:02.000Z</time>
      </trkpt>
      <trkpt lat="45.20155" lon="5.73392">
        <ele>246.80000305176</ele>
        <time>2021-10-03T06:15:07.000Z</time>
      </trkpt>
      <trkpt lat="45.20141" lon="5.73392">
        <ele>247.19999694824</ele>
        <time>2021-10-03T06:15:11.000Z</time>
      </trkpt>
      <trkpt lat="45.20134" lon="5.73392">
        <ele>247.39999389648</ele>
        <time>2021-10-03T06:15:13.000Z</time>
      </trkpt>
      <trkpt lat="45.20123" lon="5.73392">
        <ele>247.80000305176</ele>
        <time>2021-10-03T06:15:16.000Z</time>
      </trkpt>
      <trkpt lat="45.20117" lon="5.73391">
        <ele>247.80000305176</ele>
        <time>2021-10-03T06:15:18.000Z</time>
      </trkpt>
      <trkpt lat="45.201" lon="5.73391">
        <ele>247.80000305176</ele>
        <time>2021-10-03T06:15:23.000Z</time>
      </trkpt>
      <trkpt lat="45.20097" lon="5.73391">
        <ele>247.60000610352</ele>
        <time>2021-10-03T06:15:24.000Z</time>
      </trkpt>
      <trkpt lat="45.20084" lon="5.73387">
        <ele>246.60000610352</ele>
        <time>2021-10-03T06:15:29.000Z</time>
      </trkpt>
      <trkpt lat="45.2007" lon="5.73382">
        <ele>246.19999694824</ele>
        <time>2021-10-03T06:15:34.000Z</time>
      </trkpt>
      <trkpt lat="45.20067" lon="5.73381">
        <ele>246.19999694824</ele>
        <time>2021-10-03T06:15:35.000Z</time>
      </trkpt>
      <trkpt lat="45.20058" lon="5.73378">
        <ele>246.60000610352</ele>
        <time>2021-10-03T06:15:39.000Z</time>
      </trkpt>
      <trkpt lat="45.20053" lon="5.73377">
        <ele>246.60000610352</ele>
        <time>2021-10-03T06:15:42.000Z</time>
      </trkpt>
      <trkpt lat="45.20052" lon="5.73376">
        <ele>246.80000305176</ele>
        <time>2021-10-03T06:15:43.000Z</time>
      </trkpt>
      <trkpt lat="45.20044" lon="5.73374">
        <ele>247.19999694824</ele>
        <time>2021-10-03T06:15:47.000Z</time>
      </trkpt>
      <trkpt lat="45.20038" lon="5.73372">
        <ele>247.39999389648</ele>
        <time>2021-10-03T06:15:49.000Z</time>
      </trkpt>
      <trkpt lat="45.20024" lon="5.73366">
        <ele>247.60000610352</ele>
        <time>2021-10-03T06:15:54.000Z</time>
      </trkpt>
      <trkpt lat="45.20008" lon="5.73358">
        <ele>247.19999694824</ele>
        <time>2021-10-03T06:15:59.000Z</time>
      </trkpt>
      <trkpt lat="45.1999" lon="5.73347">
        <ele>246.80000305176</ele>
        <time>2021-10-03T06:16:04.000Z</time>
      </trkpt>
      <trkpt lat="45.19974" lon="5.73339">
        <ele>247.39999389648</ele>
        <time>2021-10-03T06:16:09.000Z</time>
      </trkpt>
      <trkpt lat="45.19966" lon="5.73332">
        <ele>247.80000305176</ele>
        <time>2021-10-03T06:16:12.000Z</time>
      </trkpt>
      <trkpt lat="45.19961" lon="5.73327">
        <ele>248.39999389648</ele>
        <time>2021-10-03T06:16:14.000Z</time>
      </trkpt>
      <trkpt lat="45.19959" lon="5.73326">
        <ele>248.39999389648</ele>
        <time>2021-10-03T06:16:15.000Z</time>
      </trkpt>
      <trkpt lat="45.19946" lon="5.73322">
        <ele>248.39999389648</ele>
        <time>2021-10-03T06:16:20.000Z</time>
      </trkpt>
      <trkpt lat="45.19931" lon="5.73316">
        <ele>248.39999389648</ele>
        <time>2021-10-03T06:16:26.000Z</time>
      </trkpt>
      <trkpt lat="45.19929" lon="5.73315">
        <ele>248.39999389648</ele>
        <time>2021-10-03T06:16:27.000Z</time>
      </trkpt>
      <trkpt lat="45.19913" lon="5.73308">
        <ele>248.39999389648</ele>
        <time>2021-10-03T06:16:32.000Z</time>
      </trkpt>
      <trkpt lat="45.19906" lon="5.73305">
        <ele>247.39999389648</ele>
        <time>2021-10-03T06:16:34.000Z</time>
      </trkpt>
      <trkpt lat="45.19904" lon="5.73304">
        <ele>247.19999694824</ele>
        <time>2021-10-03T06:16:35.000Z</time>
      </trkpt>
      <trkpt lat="45.19899" lon="5.73301">
        <ele>247.39999389648</ele>
        <time>2021-10-03T06:16:37.000Z</time>
      </trkpt>
      <trkpt lat="45.19885" lon="5.73291">
        <ele>248</ele>
        <time>2021-10-03T06:16:44.000Z</time>
      </trkpt>
      <trkpt lat="45.19866" lon="5.73287">
        <ele>248.19999694824</ele>
        <time>2021-10-03T06:16:49.000Z</time>
      </trkpt>
      <trkpt lat="45.19851" lon="5.73282">
        <ele>248.39999389648</ele>
        <time>2021-10-03T06:16:54.000Z</time>
      </trkpt>
      <trkpt lat="45.1984" lon="5.7328">
        <ele>248.19999694824</ele>
        <time>2021-10-03T06:16:58.000Z</time>
      </trkpt>
      <trkpt lat="45.19819" lon="5.73277">
        <ele>248.80000305176</ele>
        <time>2021-10-03T06:17:04.000Z</time>
      </trkpt>
      <trkpt lat="45.19804" lon="5.73273">
        <ele>248.39999389648</ele>
        <time>2021-10-03T06:17:08.000Z</time>
      </trkpt>
      <trkpt lat="45.19793" lon="5.73269">
        <ele>248</ele>
        <time>2021-10-03T06:17:11.000Z</time>
      </trkpt>
      <trkpt lat="45.19773" lon="5.73261">
        <ele>248</ele>
        <time>2021-10-03T06:17:17.000Z</time>
      </trkpt>
      <trkpt lat="45.19767" lon="5.73259">
        <ele>248.39999389648</ele>
        <time>2021-10-03T06:17:19.000Z</time>
      </trkpt>
      <trkpt lat="45.1976" lon="5.7326">
        <ele>248.80000305176</ele>
        <time>2021-10-03T06:17:22.000Z</time>
      </trkpt>
      <trkpt lat="45.19759" lon="5.73262">
        <ele>249</ele>
        <time>2021-10-03T06:17:23.000Z</time>
      </trkpt>
      <trkpt lat="45.19757" lon="5.73268">
        <ele>249.39999389648</ele>
        <time>2021-10-03T06:17:25.000Z</time>
      </trkpt>
      <trkpt lat="45.19754" lon="5.7328">
        <ele>249.60000610352</ele>
        <time>2021-10-03T06:17:28.000Z</time>
      </trkpt>
      <trkpt lat="45.19747" lon="5.73305">
        <ele>250</ele>
        <time>2021-10-03T06:17:34.000Z</time>
      </trkpt>
      <trkpt lat="45.19744" lon="5.73312">
        <ele>250</ele>
        <time>2021-10-03T06:17:36.000Z</time>
      </trkpt>
      <trkpt lat="45.19738" lon="5.7334">
        <ele>250</ele>
        <time>2021-10-03T06:17:43.000Z</time>
      </trkpt>
      <trkpt lat="45.19737" lon="5.73343">
        <ele>250</ele>
        <time>2021-10-03T06:17:44.000Z</time>
      </trkpt>
      <trkpt lat="45.19734" lon="5.73361">
        <ele>249</ele>
        <time>2021-10-03T06:17:49.000Z</time>
      </trkpt>
      <trkpt lat="45.19734" lon="5.73362">
        <ele>249</ele>
        <time>2021-10-03T06:17:50.000Z</time>
      </trkpt>
      <trkpt lat="45.19737" lon="5.73365">
        <ele>248.19999694824</ele>
        <time>2021-10-03T06:17:52.000Z</time>
      </trkpt>
      <trkpt lat="45.19745" lon="5.73367">
        <ele>247.39999389648</ele>
        <time>2021-10-03T06:17:55.000Z</time>
      </trkpt>
      <trkpt lat="45.19748" lon="5.73368">
        <ele>247.19999694824</ele>
        <time>2021-10-03T06:17:56.000Z</time>
      </trkpt>
      <trkpt lat="45.19767" lon="5.73371">
        <ele>246.80000305176</ele>
        <time>2021-10-03T06:18:02.000Z</time>
      </trkpt>
      <trkpt lat="45.1977" lon="5.73372">
        <ele>246.60000610352</ele>
        <time>2021-10-03T06:18:03.000Z</time>
      </trkpt>
      <trkpt lat="45.19776" lon="5.73372">
        <ele>246</ele>
        <time>2021-10-03T06:18:05.000Z</time>
      </trkpt>
      <trkpt lat="45.19786" lon="5.73374">
        <ele>245.80000305176</ele>
        <time>2021-10-03T06:18:09.000Z</time>
      </trkpt>
      <trkpt lat="45.19803" lon="5.73377">
        <ele>246.19999694824</ele>
        <time>2021-10-03T06:18:15.000Z</time>
      </trkpt>
      <trkpt lat="45.19813" lon="5.73381">
        <ele>246.19999694824</ele>
        <time>2021-10-03T06:18:20.000Z</time>
      </trkpt>
      <trkpt lat="45.19831" lon="5.73386">
        <ele>245.80000305176</ele>
        <time>2021-10-03T06:18:26.000Z</time>
      </trkpt>
      <trkpt lat="45.19848" lon="5.7339">
        <ele>245.60000610352</ele>
        <time>2021-10-03T06:18:32.000Z</time>
      </trkpt>
      <trkpt lat="45.19867" lon="5.73397">
        <ele>246.19999694824</ele>
        <time>2021-10-03T06:18:39.000Z</time>
      </trkpt>
      <trkpt lat="45.1987" lon="5.73397">
        <ele>246</ele>
        <time>2021-10-03T06:18:40.000Z</time>
      </trkpt>
      <trkpt lat="45.19892" lon="5.734">
        <ele>245.80000305176</ele>
        <time>2021-10-03T06:18:45.000Z</time>
      </trkpt>
      <trkpt lat="45.19895" lon="5.73401">
        <ele>245.60000610352</ele>
        <time>2021-10-03T06:18:46.000Z</time>
      </trkpt>
      <trkpt lat="45.1991" lon="5.73406">
        <ele>245.60000610352</ele>
        <time>2021-10-03T06:18:51.000Z</time>
      </trkpt>
      <trkpt lat="45.19924" lon="5.73409">
        <ele>246</ele>
        <time>2021-10-03T06:18:57.000Z</time>
      </trkpt>
      <trkpt lat="45.19943" lon="5.73415">
        <ele>245.39999389648</ele>
        <time>2021-10-03T06:19:04.000Z</time>
      </trkpt>
      <trkpt lat="45.19948" lon="5.73416">
        <ele>245.39999389648</ele>
        <time>2021-10-03T06:19:06.000Z</time>
      </trkpt>
      <trkpt lat="45.19967" lon="5.73422">
        <ele>245.39999389648</ele>
        <time>2021-10-03T06:19:12.000Z</time>
      </trkpt>
      <trkpt lat="45.19972" lon="5.73425">
        <ele>245.39999389648</ele>
        <time>2021-10-03T06:19:13.000Z</time>
      </trkpt>
      <trkpt lat="45.19986" lon="5.73433">
        <ele>245.39999389648</ele>
        <time>2021-10-03T06:19:18.000Z</time>
      </trkpt>
      <trkpt lat="45.2" lon="5.73441">
        <ele>245</ele>
        <time>2021-10-03T06:19:23.000Z</time>
      </trkpt>
      <trkpt lat="45.20003" lon="5.73443">
        <ele>244.80000305176</ele>
        <time>2021-10-03T06:19:24.000Z</time>
      </trkpt>
      <trkpt lat="45.2002" lon="5.7345">
        <ele>244.39999389648</ele>
        <time>2021-10-03T06:19:30.000Z</time>
      </trkpt>
      <trkpt lat="45.20032" lon="5.73459">
        <ele>244</ele>
        <time>2021-10-03T06:19:34.000Z</time>
      </trkpt>
      <trkpt lat="45.20049" lon="5.73474">
        <ele>244.80000305176</ele>
        <time>2021-10-03T06:19:40.000Z</time>
      </trkpt>
      <trkpt lat="45.20058" lon="5.73488">
        <ele>245.60000610352</ele>
        <time>2021-10-03T06:19:45.000Z</time>
      </trkpt>
      <trkpt lat="45.20065" lon="5.73494">
        <ele>245.80000305176</ele>
        <time>2021-10-03T06:19:48.000Z</time>
      </trkpt>
      <trkpt lat="45.20083" lon="5.73507">
        <ele>246</ele>
        <time>2021-10-03T06:19:53.000Z</time>
      </trkpt>
      <trkpt lat="45.20091" lon="5.73513">
        <ele>246</ele>
        <time>2021-10-03T06:19:55.000Z</time>
      </trkpt>
      <trkpt lat="45.20098" lon="5.7352">
        <ele>246</ele>
        <time>2021-10-03T06:19:57.000Z</time>
      </trkpt>
      <trkpt lat="45.20109" lon="5.7354">
        <ele>245.60000610352</ele>
        <time>2021-10-03T06:20:03.000Z</time>
      </trkpt>
      <trkpt lat="45.20113" lon="5.73549">
        <ele>246</ele>
        <time>2021-10-03T06:20:07.000Z</time>
      </trkpt>
      <trkpt lat="45.20115" lon="5.73552">
        <ele>246</ele>
        <time>2021-10-03T06:20:08.000Z</time>
      </trkpt>
      <trkpt lat="45.20117" lon="5.73554">
        <ele>246.19999694824</ele>
        <time>2021-10-03T06:20:09.000Z</time>
      </trkpt>
      <trkpt lat="45.20129" lon="5.7357">
        <ele>246.39999389648</ele>
        <time>2021-10-03T06:20:14.000Z</time>
      </trkpt>
      <trkpt lat="45.20139" lon="5.73587">
        <ele>246.19999694824</ele>
        <time>2021-10-03T06:20:20.000Z</time>
      </trkpt>
      <trkpt lat="45.20145" lon="5.73598">
        <ele>246.39999389648</ele>
        <time>2021-10-03T06:20:24.000Z</time>
      </trkpt>
      <trkpt lat="45.20148" lon="5.73605">
        <ele>246.60000610352</ele>
        <time>2021-10-03T06:20:26.000Z</time>
      </trkpt>
      <trkpt lat="45.20156" lon="5.73629">
        <ele>246.60000610352</ele>
        <time>2021-10-03T06:20:32.000Z</time>
      </trkpt>
      <trkpt lat="45.20163" lon="5.73656">
        <ele>246.60000610352</ele>
        <time>2021-10-03T06:20:38.000Z</time>
      </trkpt>
      <trkpt lat="45.20164" lon="5.7366">
        <ele>246.19999694824</ele>
        <time>2021-10-03T06:20:39.000Z</time>
      </trkpt>
      <trkpt lat="45.20173" lon="5.73688">
        <ele>246.19999694824</ele>
        <time>2021-10-03T06:20:46.000Z</time>
      </trkpt>
      <trkpt lat="45.20175" lon="5.73692">
        <ele>246.39999389648</ele>
        <time>2021-10-03T06:20:47.000Z</time>
      </trkpt>
      <trkpt lat="45.20178" lon="5.73715">
        <ele>247</ele>
        <time>2021-10-03T06:20:52.000Z</time>
      </trkpt>
      <trkpt lat="45.20181" lon="5.73739">
        <ele>246.39999389648</ele>
        <time>2021-10-03T06:20:57.000Z</time>
      </trkpt>
      <trkpt lat="45.20182" lon="5.73753">
        <ele>246.39999389648</ele>
        <time>2021-10-03T06:21:00.000Z</time>
      </trkpt>
      <trkpt lat="45.20183" lon="5.7377">
        <ele>246.60000610352</ele>
        <time>2021-10-03T06:21:04.000Z</time>
      </trkpt>
      <trkpt lat="45.20186" lon="5.73785">
        <ele>246.60000610352</ele>
        <time>2021-10-03T06:21:07.000Z</time>
      </trkpt>
      <trkpt lat="45.20189" lon="5.73814">
        <ele>246.80000305176</ele>
        <time>2021-10-03T06:21:13.000Z</time>
      </trkpt>
      <trkpt lat="45.20189" lon="5.73826">
        <ele>246.19999694824</ele>
        <time>2021-10-03T06:21:16.000Z</time>
      </trkpt>
      <trkpt lat="45.20187" lon="5.73831">
        <ele>246</ele>
        <time>2021-10-03T06:21:18.000Z</time>
      </trkpt>
      <trkpt lat="45.20184" lon="5.73847">
        <ele>244.80000305176</ele>
        <time>2021-10-03T06:21:24.000Z</time>
      </trkpt>
      <trkpt lat="45.20184" lon="5.7385">
        <ele>244.60000610352</ele>
        <time>2021-10-03T06:21:25.000Z</time>
      </trkpt>
      <trkpt lat="45.20181" lon="5.73857">
        <ele>244.39999389648</ele>
        <time>2021-10-03T06:21:27.000Z</time>
      </trkpt>
      <trkpt lat="45.20179" lon="5.7386">
        <ele>244.39999389648</ele>
        <time>2021-10-03T06:21:28.000Z</time>
      </trkpt>
      <trkpt lat="45.20173" lon="5.73869">
        <ele>244.39999389648</ele>
        <time>2021-10-03T06:21:32.000Z</time>
      </trkpt>
      <trkpt lat="45.20167" lon="5.73878">
        <ele>244.80000305176</ele>
        <time>2021-10-03T06:21:36.000Z</time>
      </trkpt>
      <trkpt lat="45.20165" lon="5.73881">
        <ele>245</ele>
        <time>2021-10-03T06:21:37.000Z</time>
      </trkpt>
      <trkpt lat="45.20154" lon="5.73897">
        <ele>245.19999694824</ele>
        <time>2021-10-03T06:21:41.000Z</time>
      </trkpt>
      <trkpt lat="45.20146" lon="5.73907">
        <ele>245.60000610352</ele>
        <time>2021-10-03T06:21:44.000Z</time>
      </trkpt>
      <trkpt lat="45.20144" lon="5.73911">
        <ele>245.60000610352</ele>
        <time>2021-10-03T06:21:45.000Z</time>
      </trkpt>
      <trkpt lat="45.2014" lon="5.73916">
        <ele>245.80000305176</ele>
        <time>2021-10-03T06:21:47.000Z</time>
      </trkpt>
      <trkpt lat="45.20132" lon="5.73928">
        <ele>246</ele>
        <time>2021-10-03T06:21:51.000Z</time>
      </trkpt>
      <trkpt lat="45.20125" lon="5.7394">
        <ele>246.60000610352</ele>
        <time>2021-10-03T06:21:56.000Z</time>
      </trkpt>
      <trkpt lat="45.20125" lon="5.73942">
        <ele>246.60000610352</ele>
        <time>2021-10-03T06:21:57.000Z</time>
      </trkpt>
      <trkpt lat="45.2012" lon="5.73953">
        <ele>246</ele>
        <time>2021-10-03T06:22:01.000Z</time>
      </trkpt>
      <trkpt lat="45.20115" lon="5.73959">
        <ele>245.80000305176</ele>
        <time>2021-10-03T06:22:03.000Z</time>
      </trkpt>
      <trkpt lat="45.20107" lon="5.73971">
        <ele>246</ele>
        <time>2021-10-03T06:22:08.000Z</time>
      </trkpt>
      <trkpt lat="45.20093" lon="5.73991">
        <ele>245.19999694824</ele>
        <time>2021-10-03T06:22:15.000Z</time>
      </trkpt>
      <trkpt lat="45.20089" lon="5.73998">
        <ele>245</ele>
        <time>2021-10-03T06:22:18.000Z</time>
      </trkpt>
      <trkpt lat="45.20088" lon="5.74001">
        <ele>244.80000305176</ele>
        <time>2021-10-03T06:22:19.000Z</time>
      </trkpt>
      <trkpt lat="45.20086" lon="5.74004">
        <ele>244.80000305176</ele>
        <time>2021-10-03T06:22:20.000Z</time>
      </trkpt>
      <trkpt lat="45.2007" lon="5.74024">
        <ele>244.60000610352</ele>
        <time>2021-10-03T06:22:27.000Z</time>
      </trkpt>
      <trkpt lat="45.20062" lon="5.74035">
        <ele>244.80000305176</ele>
        <time>2021-10-03T06:22:30.000Z</time>
      </trkpt>
      <trkpt lat="45.20055" lon="5.74044">
        <ele>245</ele>
        <time>2021-10-03T06:22:33.000Z</time>
      </trkpt>
      <trkpt lat="45.20052" lon="5.7405">
        <ele>245.19999694824</ele>
        <time>2021-10-03T06:22:35.000Z</time>
      </trkpt>
      <trkpt lat="45.2005" lon="5.74052">
        <ele>245.39999389648</ele>
        <time>2021-10-03T06:22:37.000Z</time>
      </trkpt>
      <trkpt lat="45.20046" lon="5.74063">
        <ele>246</ele>
        <time>2021-10-03T06:22:42.000Z</time>
      </trkpt>
      <trkpt lat="45.20045" lon="5.74065">
        <ele>246</ele>
        <time>2021-10-03T06:22:43.000Z</time>
      </trkpt>
      <trkpt lat="45.20041" lon="5.7407">
        <ele>245.60000610352</ele>
        <time>2021-10-03T06:22:46.000Z</time>
      </trkpt>
      <trkpt lat="45.20036" lon="5.74077">
        <ele>245.60000610352</ele>
        <time>2021-10-03T06:22:50.000Z</time>
      </trkpt>
      <trkpt lat="45.20035" lon="5.74078">
        <ele>245.60000610352</ele>
        <time>2021-10-03T06:22:51.000Z</time>
      </trkpt>
      <trkpt lat="45.20033" lon="5.74083">
        <ele>245.80000305176</ele>
        <time>2021-10-03T06:22:53.000Z</time>
      </trkpt>
      <trkpt lat="45.20027" lon="5.7409">
        <ele>246.19999694824</ele>
        <time>2021-10-03T06:22:56.000Z</time>
      </trkpt>
      <trkpt lat="45.2002" lon="5.74098">
        <ele>246.80000305176</ele>
        <time>2021-10-03T06:22:59.000Z</time>
      </trkpt>
      <trkpt lat="45.20015" lon="5.74104">
        <ele>247.19999694824</ele>
        <time>2021-10-03T06:23:01.000Z</time>
      </trkpt>
      <trkpt lat="45.19998" lon="5.74116">
        <ele>247.80000305176</ele>
        <time>2021-10-03T06:23:05.000Z</time>
      </trkpt>
      <trkpt lat="45.19993" lon="5.74119">
        <ele>247.80000305176</ele>
        <time>2021-10-03T06:23:06.000Z</time>
      </trkpt>
      <trkpt lat="45.19975" lon="5.74135">
        <ele>247.80000305176</ele>
        <time>2021-10-03T06:23:10.000Z</time>
      </trkpt>
      <trkpt lat="45.19958" lon="5.74153">
        <ele>247.39999389648</ele>
        <time>2021-10-03T06:23:15.000Z</time>
      </trkpt>
      <trkpt lat="45.19943" lon="5.74169">
        <ele>247.60000610352</ele>
        <time>2021-10-03T06:23:20.000Z</time>
      </trkpt>
      <trkpt lat="45.19937" lon="5.74175">
        <ele>247</ele>
        <time>2021-10-03T06:23:22.000Z</time>
      </trkpt>
      <trkpt lat="45.19919" lon="5.74189">
        <ele>246.80000305176</ele>
        <time>2021-10-03T06:23:28.000Z</time>
      </trkpt>
      <trkpt lat="45.19916" lon="5.74191">
        <ele>246.80000305176</ele>
        <time>2021-10-03T06:23:29.000Z</time>
      </trkpt>
      <trkpt lat="45.19898" lon="5.74202">
        <ele>247.19999694824</ele>
        <time>2021-10-03T06:23:35.000Z</time>
      </trkpt>
      <trkpt lat="45.19879" lon="5.74212">
        <ele>247.39999389648</ele>
        <time>2021-10-03T06:23:41.000Z</time>
      </trkpt>
      <trkpt lat="45.19874" lon="5.74216">
        <ele>247.39999389648</ele>
        <time>2021-10-03T06:23:43.000Z</time>
      </trkpt>
      <trkpt lat="45.19858" lon="5.74221">
        <ele>247.19999694824</ele>
        <time>2021-10-03T06:23:48.000Z</time>
      </trkpt>
      <trkpt lat="45.19842" lon="5.74231">
        <ele>248.39999389648</ele>
        <time>2021-10-03T06:23:53.000Z</time>
      </trkpt>
      <trkpt lat="45.19839" lon="5.74232">
        <ele>248.60000610352</ele>
        <time>2021-10-03T06:23:54.000Z</time>
      </trkpt>
      <trkpt lat="45.19819" lon="5.74239">
        <ele>249.19999694824</ele>
        <time>2021-10-03T06:23:59.000Z</time>
      </trkpt>
      <trkpt lat="45.19805" lon="5.74244">
        <ele>248.60000610352</ele>
        <time>2021-10-03T06:24:03.000Z</time>
      </trkpt>
      <trkpt lat="45.19789" lon="5.74249">
        <ele>248.60000610352</ele>
        <time>2021-10-03T06:24:08.000Z</time>
      </trkpt>
      <trkpt lat="45.19771" lon="5.74251">
        <ele>247.39999389648</ele>
        <time>2021-10-03T06:24:14.000Z</time>
      </trkpt>
      <trkpt lat="45.19762" lon="5.74251">
        <ele>247</ele>
        <time>2021-10-03T06:24:16.000Z</time>
      </trkpt>
      <trkpt lat="45.19742" lon="5.74252">
        <ele>247.39999389648</ele>
        <time>2021-10-03T06:24:22.000Z</time>
      </trkpt>
      <trkpt lat="45.19733" lon="5.74251">
        <ele>248.60000610352</ele>
        <time>2021-10-03T06:24:25.000Z</time>
      </trkpt>
      <trkpt lat="45.19732" lon="5.7425">
        <ele>248.80000305176</ele>
        <time>2021-10-03T06:24:26.000Z</time>
      </trkpt>
      <trkpt lat="45.1973" lon="5.74247">
        <ele>248.39999389648</ele>
        <time>2021-10-03T06:24:28.000Z</time>
      </trkpt>
      <trkpt lat="45.19728" lon="5.74238">
        <ele>247.60000610352</ele>
        <time>2021-10-03T06:24:31.000Z</time>
      </trkpt>
      <trkpt lat="45.19725" lon="5.74232">
        <ele>247.19999694824</ele>
        <time>2021-10-03T06:24:33.000Z</time>
      </trkpt>
      <trkpt lat="45.19723" lon="5.74217">
        <ele>246.80000305176</ele>
        <time>2021-10-03T06:24:36.000Z</time>
      </trkpt>
      <trkpt lat="45.19724" lon="5.74207">
        <ele>247</ele>
        <time>2021-10-03T06:24:38.000Z</time>
      </trkpt>
      <trkpt lat="45.19717" lon="5.74188">
        <ele>246.80000305176</ele>
        <time>2021-10-03T06:24:42.000Z</time>
      </trkpt>
      <trkpt lat="45.19716" lon="5.74184">
        <ele>246.80000305176</ele>
        <time>2021-10-03T06:24:43.000Z</time>
      </trkpt>
      <trkpt lat="45.19715" lon="5.7418">
        <ele>246.39999389648</ele>
        <time>2021-10-03T06:24:44.000Z</time>
      </trkpt>
      <trkpt lat="45.19711" lon="5.74164">
        <ele>246.80000305176</ele>
        <time>2021-10-03T06:24:48.000Z</time>
      </trkpt>
      <trkpt lat="45.19707" lon="5.7414">
        <ele>247</ele>
        <time>2021-10-03T06:24:54.000Z</time>
      </trkpt>
      <trkpt lat="45.19703" lon="5.74113">
        <ele>246.60000610352</ele>
        <time>2021-10-03T06:25:00.000Z</time>
      </trkpt>
      <trkpt lat="45.19703" lon="5.74104">
        <ele>246.39999389648</ele>
        <time>2021-10-03T06:25:02.000Z</time>
      </trkpt>
      <trkpt lat="45.19701" lon="5.74078">
        <ele>246.39999389648</ele>
        <time>2021-10-03T06:25:09.000Z</time>
      </trkpt>
      <trkpt lat="45.19699" lon="5.74065">
        <ele>245.60000610352</ele>
        <time>2021-10-03T06:25:12.000Z</time>
      </trkpt>
      <trkpt lat="45.19695" lon="5.74056">
        <ele>245.60000610352</ele>
        <time>2021-10-03T06:25:15.000Z</time>
      </trkpt>
      <trkpt lat="45.19692" lon="5.74047">
        <ele>246</ele>
        <time>2021-10-03T06:25:17.000Z</time>
      </trkpt>
      <trkpt lat="45.1969" lon="5.74034">
        <ele>246.60000610352</ele>
        <time>2021-10-03T06:25:20.000Z</time>
      </trkpt>
      <trkpt lat="45.19689" lon="5.74013">
        <ele>246.80000305176</ele>
        <time>2021-10-03T06:25:25.000Z</time>
      </trkpt>
      <trkpt lat="45.19688" lon="5.7401">
        <ele>246.80000305176</ele>
        <time>2021-10-03T06:25:26.000Z</time>
      </trkpt>
      <trkpt lat="45.19682" lon="5.74006">
        <ele>246.80000305176</ele>
        <time>2021-10-03T06:25:29.000Z</time>
      </trkpt>
      <trkpt lat="45.19662" lon="5.74005">
        <ele>246.80000305176</ele>
        <time>2021-10-03T06:25:34.000Z</time>
      </trkpt>
      <trkpt lat="45.19651" lon="5.74002">
        <ele>246.60000610352</ele>
        <time>2021-10-03T06:25:37.000Z</time>
      </trkpt>
      <trkpt lat="45.19642" lon="5.73998">
        <ele>246.60000610352</ele>
        <time>2021-10-03T06:25:40.000Z</time>
      </trkpt>
      <trkpt lat="45.19636" lon="5.73996">
        <ele>246.60000610352</ele>
        <time>2021-10-03T06:25:42.000Z</time>
      </trkpt>
      <trkpt lat="45.19617" lon="5.73995">
        <ele>246.60000610352</ele>
        <time>2021-10-03T06:25:47.000Z</time>
      </trkpt>
      <trkpt lat="45.19613" lon="5.73994">
        <ele>246.60000610352</ele>
        <time>2021-10-03T06:25:48.000Z</time>
      </trkpt>
      <trkpt lat="45.19611" lon="5.73992">
        <ele>246.60000610352</ele>
        <time>2021-10-03T06:25:49.000Z</time>
      </trkpt>
      <trkpt lat="45.1961" lon="5.73982">
        <ele>246.60000610352</ele>
        <time>2021-10-03T06:25:52.000Z</time>
      </trkpt>
      <trkpt lat="45.19611" lon="5.73972">
        <ele>246.60000610352</ele>
        <time>2021-10-03T06:25:54.000Z</time>
      </trkpt>
      <trkpt lat="45.19614" lon="5.73966">
        <ele>246.60000610352</ele>
        <time>2021-10-03T06:25:56.000Z</time>
      </trkpt>
      <trkpt lat="45.19619" lon="5.73963">
        <ele>246.80000305176</ele>
        <time>2021-10-03T06:25:58.000Z</time>
      </trkpt>
      <trkpt lat="45.19626" lon="5.73963">
        <ele>246.80000305176</ele>
        <time>2021-10-03T06:26:01.000Z</time>
      </trkpt>
      <trkpt lat="45.19632" lon="5.73963">
        <ele>246.39999389648</ele>
        <time>2021-10-03T06:26:06.000Z</time>
      </trkpt>
      <trkpt lat="45.19631" lon="5.7396">
        <ele>246.39999389648</ele>
        <time>2021-10-03T06:26:10.000Z</time>
      </trkpt>
      <trkpt lat="45.1964" lon="5.73983">
        <ele>248.19999694824</ele>
        <time>2021-10-03T06:26:26.000Z</time>
      </trkpt>
      <trkpt lat="45.1965" lon="5.73974">
        <ele>248.60000610352</ele>
        <time>2021-10-03T06:26:28.000Z</time>
      </trkpt>
      <trkpt lat="45.1965" lon="5.7397">
        <ele>248.60000610352</ele>
        <time>2021-10-03T06:26:29.000Z</time>
      </trkpt>
      <trkpt lat="45.19651" lon="5.73968">
        <ele>249</ele>
        <time>2021-10-03T06:26:31.000Z</time>
      </trkpt>
      <trkpt lat="45.19649" lon="5.73971">
        <ele>250</ele>
        <time>2021-10-03T06:26:33.000Z</time>
      </trkpt>
      <trkpt lat="45.19648" lon="5.73972">
        <ele>250.19999694824</ele>
        <time>2021-10-03T06:26:34.000Z</time>
      </trkpt>
      <trkpt lat="45.19645" lon="5.73974">
        <ele>251.19999694824</ele>
        <time>2021-10-03T06:26:37.000Z</time>
      </trkpt>
      <trkpt lat="45.19644" lon="5.73976">
        <ele>251.39999389648</ele>
        <time>2021-10-03T06:26:38.000Z</time>
      </trkpt>
      <trkpt lat="45.19642" lon="5.7398">
        <ele>251.60000610352</ele>
        <time>2021-10-03T06:26:40.000Z</time>
      </trkpt>
      <trkpt lat="45.19642" lon="5.73981">
        <ele>251.80000305176</ele>
        <time>2021-10-03T06:26:41.000Z</time>
      </trkpt>
      <trkpt lat="45.19642" lon="5.73983">
        <ele>252.19999694824</ele>
        <time>2021-10-03T06:26:43.000Z</time>
      </trkpt>
      <trkpt lat="45.19642" lon="5.73983">
        <ele>252.39999389648</ele>
        <time>2021-10-03T06:26:44.000Z</time>
      </trkpt>
      <trkpt lat="45.19642" lon="5.73984">
        <ele>253</ele>
        <time>2021-10-03T06:26:45.000Z</time>
      </trkpt>
      <trkpt lat="45.19641" lon="5.73983">
        <ele>253.19999694824</ele>
        <time>2021-10-03T06:26:46.000Z</time>
      </trkpt>
      <trkpt lat="45.19641" lon="5.73979">
        <ele>253.80000305176</ele>
        <time>2021-10-03T06:26:48.000Z</time>
      </trkpt>
      <trkpt lat="45.19642" lon="5.73979">
        <ele>254</ele>
        <time>2021-10-03T06:26:50.000Z</time>
      </trkpt>
      <trkpt lat="45.19643" lon="5.73975">
        <ele>254.19999694824</ele>
        <time>2021-10-03T06:26:53.000Z</time>
      </trkpt>
      <trkpt lat="45.19644" lon="5.73974">
        <ele>254.19999694824</ele>
        <time>2021-10-03T06:26:54.000Z</time>
      </trkpt>
      <trkpt lat="45.19646" lon="5.7397">
        <ele>254.19999694824</ele>
        <time>2021-10-03T06:26:56.000Z</time>
      </trkpt>
      <trkpt lat="45.19648" lon="5.73968">
        <ele>254</ele>
        <time>2021-10-03T06:26:58.000Z</time>
      </trkpt>
      <trkpt lat="45.1965" lon="5.73968">
        <ele>253.80000305176</ele>
        <time>2021-10-03T06:26:59.000Z</time>
      </trkpt>
      <trkpt lat="45.19651" lon="5.73969">
        <ele>253.80000305176</ele>
        <time>2021-10-03T06:27:00.000Z</time>
      </trkpt>
    </trkseg>
  </trk>
</gpx>